# Wetter Temperatur Luftdruck Luftfeuchtigkeit Sichtweite Windgeschwindigkeit Windrichtung Zeit
1 Clear 16 1019 72 10000 2.1 130 19:59 17.10.2019
2 Clear 16 1019 72 10000 2.1 130 19:59 17.10.2019
3 Clear 16 1019 67 10000 1.5 150 19:40 17.10.2019
4 Clear 18 1019 59 10000 1.5 200 19:20 17.10.2019
5 Clear 18 1019 59 10000 1.5 200 18:58 17.10.2019
6 Clear 19 1019 52 10000 1.5 220 18:38 17.10.2019
7 Clear 20 1019 49 10000 2.6 250 18:20 17.10.2019
8 Clear 21 1019 49 10000 3.1 260 17:42 17.10.2019
9 Clear 22 1019 46 10000 3.6 280 17:23 17.10.2019
10 Clear 21 1019 46 10000 3.6 280 16:57 17.10.2019
11 -273 0 0 0 0 0 16:39 17.10.2019
12 Clear 22 1019 40 10000 2.1 10 16:18 17.10.2019
13 Clear 22 1019 40 10000 2.1 10 15:56 17.10.2019
14 Clear 22 1019 43 10000 2.1 250 15:38 17.10.2019
15 Clouds 22 1019 43 10000 2.1 280 15:19 17.10.2019
16 Clouds 22 1019 43 10000 2.1 280 14:54 17.10.2019
17 Clouds 22 1019 46 10000 2.1 310 14:36 17.10.2019
18 Clouds 22 1020 46 10000 2.6 280 14:18 17.10.2019
19 Clouds 21 1020 49 10000 1.5 0 13:39 17.10.2019
20 Clouds 21 1020 49 10000 1 0 13:19 17.10.2019
21 Clouds 21 1020 52 10000 1.5 0 12:43 17.10.2019
22 Clouds 19 1020 59 10000 2.1 310 12:22 17.10.2019
23 Clouds 19 1020 59 10000 2.1 310 11:59 17.10.2019
24 Clouds 19 1020 68 10000 2.1 340 11:41 17.10.2019
25 Clouds 18 1020 68 10000 1.5 350 11:21 17.10.2019
26 Clouds 18 1020 68 10000 1.5 350 10:57 17.10.2019
27 Clouds 18 1020 72 10000 1 0 10:39 17.10.2019
28 Clouds 16 1020 82 10000 1 0 10:19 17.10.2019
29 Clouds 16 1020 82 10000 1 0 09:55 17.10.2019
30 Clear 16 1020 87 10000 2.1 20 09:36 17.10.2019
31 Clouds 14 1020 93 10000 2.1 10 09:18 17.10.2019
32 Clouds 13 1020 87 10000 2.1 30 08:46 17.10.2019
33 Clouds 13 1020 87 10000 2.1 30 08:26 17.10.2019
34 -273 0 0 0 0 0 07:56 17.10.2019
35 Clouds 12 1019 87 10000 2.6 40 07:38 17.10.2019
36 Clouds 12 1019 87 10000 2.1 30 07:18 17.10.2019
37 Clouds 12 1019 87 10000 2.1 20 06:40 17.10.2019
38 Clear 12 1019 87 10000 1 30 06:21 17.10.2019
39 Clear 13 1019 87 10000 1 30 05:57 17.10.2019
40 Clear 13 1019 87 10000 0.5 0 05:32 17.10.2019
41 Clear 13 1019 82 10000 1.5 50 04:56 17.10.2019
42 Clear 13 1020 87 10000 2.1 50 03:55 17.10.2019
43 Clouds 13 1019 82 10000 2.6 100 02:50 17.10.2019
44 Clouds 14 1019 82 10000 2.6 100 01:39 17.10.2019
45 Clouds 14 1019 77 10000 2.6 100 00:40 17.10.2019
46 Clouds 14 1019 87 10000 2.1 100 00:19 17.10.2019
47 Clouds 14 1019 82 10000 2.1 100 23:42 16.10.2019
48 Clouds 15 1019 82 10000 2.1 90 23:21 16.10.2019
49 Clouds 14 1019 82 10000 2.1 90 22:56 16.10.2019
50 Clouds 14 1019 82 10000 1 0 22:37 16.10.2019
51 Clouds 15 1019 82 10000 1.5 100 22:19 16.10.2019
52 Clouds 15 1019 82 10000 1.5 100 21:58 16.10.2019
53 Clouds 16 1019 82 10000 0.5 0 21:38 16.10.2019
54 Clouds 16 1019 77 10000 1 0 21:19 16.10.2019
55 Clouds 16 1019 77 10000 1 0 20:58 16.10.2019
56 Clouds 16 1019 77 10000 1 0 20:58 16.10.2019
57 Clouds 17 1018 72 10000 1.5 110 20:39 16.10.2019
58 Clouds 17 1018 72 10000 2.1 230 20:21 16.10.2019
59 Clouds 17 1018 72 10000 2.1 230 19:59 16.10.2019
60 Clouds 17 1018 68 10000 1.5 160 19:39 16.10.2019
61 Clouds 17 1018 68 10000 1.5 160 19:39 16.10.2019
62 Clouds 18 1018 68 10000 1.5 170 19:20 16.10.2019
63 -273 0 0 0 0 0 18:54 16.10.2019
64 Clouds 18 1018 63 10000 2.1 190 18:54 16.10.2019
65 Clouds 19 1018 63 10000 2.1 190 18:36 16.10.2019
66 Clouds 20 1017 56 10000 2.6 170 18:18 16.10.2019
67 Clouds 20 1017 56 10000 3.6 180 17:54 16.10.2019
68 Clouds 20 1017 56 10000 3.6 180 17:36 16.10.2019
69 Clouds 21 1017 52 10000 3.6 190 17:18 16.10.2019
70 Clouds 21 1017 56 10000 2.6 170 16:42 16.10.2019
71 Clouds 21 1017 56 10000 2.6 170 16:42 16.10.2019
72 Clouds 21 1017 56 10000 3.6 170 16:21 16.10.2019
73 Clouds 21 1017 56 10000 3.6 170 15:58 16.10.2019
74 Clouds 21 1017 56 10000 3.1 180 15:39 16.10.2019
75 Clouds 21 1017 56 10000 3.1 180 15:39 16.10.2019
76 Clouds 21 1017 56 10000 3.1 190 15:18 16.10.2019
77 Clouds 21 1017 56 10000 3.1 190 14:58 16.10.2019
78 Clouds 21 1017 56 10000 3.1 190 14:38 16.10.2019
79 Clouds 21 1017 56 10000 3.1 180 14:19 16.10.2019
80 Clouds 21 1017 56 10000 3.1 180 13:57 16.10.2019
81 Clouds 21 1017 56 10000 3.1 180 13:56 16.10.2019
82 Clouds 21 1017 60 10000 3.1 200 13:38 16.10.2019
83 Clouds 20 1018 60 10000 3.1 190 13:19 16.10.2019
84 Clouds 20 1018 64 10000 3.6 180 12:42 16.10.2019
85 Clear 19 1018 60 10000 4.1 160 12:19 16.10.2019
86 Clouds 19 1018 60 10000 4.1 170 11:45 16.10.2019
87 Clouds 19 1018 68 10000 5.1 150 11:19 16.10.2019
88 Clouds 19 1017 68 10000 4.6 150 10:41 16.10.2019
89 Clouds 18 1017 68 10000 4.1 160 10:22 16.10.2019
90 Clouds 18 1017 68 10000 4.1 160 10:22 16.10.2019
91 Clouds 17 1017 68 10000 4.1 160 09:58 16.10.2019
92 Clear 17 1017 68 10000 3.6 160 09:39 16.10.2019
93 Clouds 16 1017 72 10000 3.1 150 09:20 16.10.2019
94 Clouds 15 1016 77 10000 3.1 140 08:44 16.10.2019
95 Clouds 15 1016 77 10000 3.1 140 08:25 16.10.2019
96 Clouds 14 1016 82 10000 2.6 150 07:56 16.10.2019
97 Clouds 14 1016 82 10000 2.6 150 07:56 16.10.2019
98 Clouds 14 1016 82 10000 3.1 150 07:38 16.10.2019
99 Clouds 14 1016 87 10000 3.6 140 07:19 16.10.2019
100 Clouds 14 1016 87 10000 3.1 140 06:40 16.10.2019
101 Clouds 15 1016 87 10000 3.1 140 06:19 16.10.2019
102 Clouds 16 1016 93 10000 2.1 170 03:33 16.10.2019
103 Clouds 17 1016 88 10000 1.5 180 02:50 16.10.2019
104 Clouds 17 1016 93 10000 3.1 180 01:20 16.10.2019
105 Clouds 17 1016 93 10000 1 0 00:56 16.10.2019
106 Clouds 17 1016 93 10000 1 0 00:37 16.10.2019
107 Rain 17 1015 93 10000 4.1 0 23:42 15.10.2019
108 Rain 17 1015 93 10000 3.1 190 23:22 15.10.2019
109 Rain 17 1015 93 10000 3.1 190 22:57 15.10.2019
110 Thunderstorm 17 1016 88 10000 3.6 290 22:38 15.10.2019
111 Rain 17 1015 82 10000 5.7 320 22:20 15.10.2019
112 Rain 17 1015 82 10000 5.7 320 21:57 15.10.2019
113 Thunderstorm 17 1014 77 10000 5.7 140 21:38 15.10.2019
114 Thunderstorm 18 1014 82 10000 4.6 150 21:20 15.10.2019
115 Thunderstorm 18 1014 82 10000 4.6 150 21:20 15.10.2019
116 Thunderstorm 18 1014 82 10000 4.6 150 20:58 15.10.2019
117 Thunderstorm 18 1014 77 10000 5.1 150 20:39 15.10.2019
118 Thunderstorm 18 1014 68 10000 1.5 0 20:21 15.10.2019
119 Thunderstorm 18 1014 68 10000 1.5 0 19:59 15.10.2019
120 Thunderstorm 18 1014 68 10000 5.1 140 19:40 15.10.2019
121 Thunderstorm 18 1014 68 10000 5.1 140 19:40 15.10.2019
122 Clouds 18 1013 73 10000 6.7 150 19:20 15.10.2019
123 Clouds 19 1013 73 10000 7.2 140 18:48 15.10.2019
124 Clouds 19 1013 73 10000 7.2 140 18:29 15.10.2019
125 Clouds 19 1014 68 10000 6.2 140 17:59 15.10.2019
126 Clouds 19 1014 72 10000 5.7 150 17:41 15.10.2019
127 Clouds 19 1014 72 10000 5.7 150 17:41 15.10.2019
128 Clouds 19 1014 68 10000 4.6 150 17:20 15.10.2019
129 Clouds 18 1015 68 10000 5.1 150 16:57 15.10.2019
130 Clouds 18 1015 68 10000 5.1 150 16:38 15.10.2019
131 Rain 19 1015 68 10000 6.7 140 16:20 15.10.2019
132 Rain 19 1015 72 10000 6.7 140 15:43 15.10.2019
133 Rain 19 1015 72 10000 6.7 140 15:43 15.10.2019
134 Rain 19 1016 72 9000 7.2 140 15:21 15.10.2019
135 Rain 20 1016 72 9000 7.2 140 14:59 15.10.2019
136 Rain 20 1016 72 10000 5.7 150 14:38 15.10.2019
137 Rain 20 1016 72 10000 5.7 150 14:38 15.10.2019
138 Rain 20 1016 72 10000 5.7 150 14:38 15.10.2019
139 Rain 20 1016 72 10000 5.7 150 14:38 15.10.2019
140 Rain 20 1016 64 9000 5.1 170 14:20 15.10.2019
141 Rain 21 1016 64 9000 5.1 170 13:55 15.10.2019
142 Drizzle 21 1016 60 10000 5.1 150 13:37 15.10.2019
143 Clouds 21 1016 53 10000 5.1 160 13:18 15.10.2019
144 Clouds 21 1017 53 10000 5.1 160 12:42 15.10.2019
145 Clouds 21 1017 60 10000 3.1 160 12:21 15.10.2019
146 Clouds 21 1017 60 10000 3.1 160 11:56 15.10.2019
147 Clouds 21 1017 56 10000 5.1 150 11:37 15.10.2019
148 Clouds 20 1017 53 10000 4.6 140 11:19 15.10.2019
149 Clouds 20 1017 53 10000 4.6 140 11:19 15.10.2019
150 Clouds 20 1017 60 10000 3.1 140 10:44 15.10.2019
151 Clouds 20 1017 60 10000 3.1 140 10:44 15.10.2019
152 Mist 19 1017 68 10000 0.5 0 10:21 15.10.2019
153 Mist 18 1017 68 10000 0.5 0 09:58 15.10.2019
154 Mist 18 1017 72 10000 0.5 0 09:38 15.10.2019
155 Fog 17 1017 77 10000 1 0 09:19 15.10.2019
156 Fog 16 1017 77 10000 1 0 08:54 15.10.2019
157 Fog 15 1017 77 10000 1 0 08:36 15.10.2019
158 Fog 15 1017 82 10000 1 0 08:18 15.10.2019
159 Fog 15 1017 77 10000 2.1 70 07:41 15.10.2019
160 Clear 15 1017 82 10000 2.6 60 07:21 15.10.2019
161 Clear 15 1018 87 10000 2.1 100 06:45 15.10.2019
162 Clear 15 1018 87 10000 2.1 100 06:27 15.10.2019
163 Clouds 15 1018 82 10000 1 0 05:44 15.10.2019
164 Clouds 15 1018 87 10000 2.1 100 05:24 15.10.2019
165 Clouds 15 1018 87 10000 2.6 100 04:39 15.10.2019
166 Clouds 15 1019 87 8000 1.5 100 03:38 15.10.2019
167 Clouds 15 1019 87 8000 1.5 100 03:38 15.10.2019
168 Clouds 16 1019 87 8000 1 90 02:51 15.10.2019
169 Clear 16 1019 93 10000 1 0 01:49 15.10.2019
170 Clear 16 1019 87 10000 2.1 120 01:22 15.10.2019
171 Clear 16 1019 87 10000 1 120 00:50 15.10.2019
172 Clear 17 1019 82 10000 1 110 00:22 15.10.2019
173 Clear 17 1020 82 10000 0.5 0 23:45 14.10.2019
174 Clear 17 1020 82 10000 1.5 80 23:21 14.10.2019
175 Clear 17 1020 82 10000 1.5 80 22:59 14.10.2019
176 Clear 17 1020 82 10000 1 70 22:38 14.10.2019
177 Clear 18 1020 82 10000 0.5 0 22:19 14.10.2019
178 Clear 18 1020 82 10000 0.5 0 21:56 14.10.2019
179 Clear 18 1020 82 10000 1 0 21:37 14.10.2019
180 Clear 19 1020 82 10000 1.5 200 21:19 14.10.2019
181 Clear 19 1020 82 10000 2.1 180 20:55 14.10.2019
182 Clear 19 1020 82 10000 2.1 180 20:36 14.10.2019
183 Clear 19 1020 82 10000 2.1 190 20:18 14.10.2019
184 Clear 19 1020 82 10000 2.1 190 20:18 14.10.2019
185 Clouds 19 1020 77 10000 2.1 200 19:42 14.10.2019
186 Clear 20 1019 73 10000 2.6 180 19:23 14.10.2019
187 Clear 20 1019 73 10000 2.6 180 18:59 14.10.2019
188 Clouds 21 1020 68 10000 2.6 210 18:39 14.10.2019
189 Clouds 21 1020 68 10000 2.6 210 18:39 14.10.2019
190 Clouds 22 1019 64 10000 2.6 210 18:19 14.10.2019
191 Clouds 22 1019 64 10000 2.6 210 18:19 14.10.2019
192 Clouds 22 1019 64 10000 2.6 210 17:57 14.10.2019
193 Clouds 22 1019 64 10000 2.1 220 17:38 14.10.2019
194 Clouds 23 1020 64 10000 2.1 190 17:20 14.10.2019
195 Clouds 23 1020 64 10000 2.6 190 16:44 14.10.2019
196 Clouds 23 1020 64 10000 3.1 220 16:21 14.10.2019
197 Clouds 23 1020 53 10000 1 0 15:44 14.10.2019
198 Clouds 23 1020 53 10000 2.1 0 15:25 14.10.2019
199 Clouds 23 1020 53 10000 2.1 0 14:58 14.10.2019
200 Clouds 23 1021 53 10000 2.1 0 14:39 14.10.2019
201 Clouds 23 1021 60 10000 1 0 14:20 14.10.2019
202 Clouds 23 1021 60 10000 1 0 13:44 14.10.2019
203 Clouds 23 1022 60 10000 2.1 290 13:21 14.10.2019
204 Clouds 22 1022 60 10000 2.1 290 12:56 14.10.2019
205 Clouds 22 1022 60 10000 1 0 12:37 14.10.2019
206 Clouds 22 1022 64 10000 0.5 0 12:18 14.10.2019
207 Clouds 21 1022 64 10000 1.5 330 11:45 14.10.2019
208 Clouds 21 1022 64 10000 1.5 330 11:26 14.10.2019
209 Clouds 21 1022 64 10000 1.5 330 11:26 14.10.2019
210 Clouds 20 1022 68 10000 1.5 320 10:57 14.10.2019
211 Clear 20 1022 72 10000 1.5 310 10:38 14.10.2019
212 Clear 18 1022 77 10000 1.5 360 10:20 14.10.2019
213 Clear 18 1022 77 10000 1.5 360 09:54 14.10.2019
214 Clear 18 1022 88 10000 2.1 20 09:36 14.10.2019
215 Fog 17 1022 82 10000 1 360 09:18 14.10.2019
216 Fog 16 1022 82 10000 0.5 0 08:42 14.10.2019
217 Fog 15 1022 82 10000 0.5 0 08:20 14.10.2019
218 Fog 14 1022 82 10000 2.1 90 07:41 14.10.2019
219 Fog 14 1022 82 10000 2.1 90 07:41 14.10.2019
220 Clear 15 1022 82 10000 2.6 80 07:18 14.10.2019
221 Clear 15 1022 82 10000 1.5 90 06:37 14.10.2019
222 Clear 15 1022 82 10000 2.6 90 06:18 14.10.2019
223 Clear 15 1022 87 10000 2.6 90 05:42 14.10.2019
224 Clouds 15 1022 93 8000 2.1 70 04:42 14.10.2019
225 Clear 15 1023 82 10000 2.1 90 03:27 14.10.2019
226 Clouds 16 1022 100 8000 2.1 80 02:36 14.10.2019
227 Clear 16 1023 82 10000 2.1 90 01:22 14.10.2019
228 Clear 16 1023 88 10000 1.5 80 00:53 14.10.2019
229 Clear 17 1023 88 10000 1.5 100 00:19 14.10.2019
230 Clear 17 1023 88 10000 1.5 120 23:44 13.10.2019
231 Clear 17 1023 88 10000 1.5 120 23:20 13.10.2019
232 Clear 17 1023 88 10000 1.5 120 22:58 13.10.2019
233 Clear 17 1023 82 10000 2.1 110 22:40 13.10.2019
234 Clear 17 1023 82 10000 2.1 140 22:21 13.10.2019
235 Clear 17 1023 82 10000 2.1 140 22:21 13.10.2019
236 Clear 17 1023 82 10000 2.1 130 21:58 13.10.2019
237 Clear 18 1023 82 10000 2.1 130 21:37 13.10.2019
238 Clear 18 1023 82 10000 2.1 130 21:18 13.10.2019
239 Clear 18 1023 82 10000 2.1 130 21:18 13.10.2019
240 -273 0 0 0 0 0 20:57 13.10.2019
241 Clear 18 1023 82 10000 1.5 140 20:38 13.10.2019
242 Clear 19 1023 82 10000 1 150 20:20 13.10.2019
243 Clear 19 1023 82 10000 1 150 19:58 13.10.2019
244 Clear 19 1023 82 10000 1 150 19:57 13.10.2019
245 Clear 19 1023 82 10000 1 220 19:39 13.10.2019
246 Clouds 20 1023 73 10000 1.5 200 19:20 13.10.2019
247 Clouds 20 1023 73 10000 1.5 200 18:55 13.10.2019
248 Clouds 20 1023 73 10000 2.1 210 18:36 13.10.2019
249 Clouds 21 1022 68 10000 2.6 220 18:18 13.10.2019
250 Clouds 22 1022 64 10000 2.6 230 17:44 13.10.2019
251 Clouds 22 1022 64 10000 2.6 230 17:44 13.10.2019
252 Clouds 23 1022 60 10000 2.6 250 17:26 13.10.2019
253 Clouds 23 1022 60 10000 2.6 250 17:25 13.10.2019
254 Clouds 23 1022 60 10000 2.6 250 17:25 13.10.2019
255 Clouds 23 1022 57 10000 1.5 220 16:55 13.10.2019
256 Clouds 24 1022 57 10000 1.5 220 16:36 13.10.2019
257 Clouds 23 1022 53 10000 2.1 220 16:18 13.10.2019
258 Clouds 23 1022 53 10000 2.1 220 16:18 13.10.2019
259 Clouds 23 1022 53 10000 2.6 260 15:54 13.10.2019
260 Clouds 23 1022 53 10000 2.6 260 15:36 13.10.2019
261 Clouds 23 1023 53 10000 1.5 350 15:18 13.10.2019
262 Clouds 24 1023 53 10000 0.5 0 14:40 13.10.2019
263 Clouds 23 1023 53 10000 1.5 0 14:22 13.10.2019
264 Clouds 23 1023 53 10000 1.5 0 13:59 13.10.2019
265 Clouds 23 1024 56 10000 1 0 13:39 13.10.2019
266 Clouds 23 1024 56 10000 1 0 13:39 13.10.2019
267 Clouds 23 1024 53 10000 2.1 0 13:21 13.10.2019
268 Clouds 23 1024 56 10000 1.5 0 12:56 13.10.2019
269 Clouds 23 1024 56 10000 1.5 0 12:38 13.10.2019
270 Mist 21 1024 60 10000 1.5 0 12:19 13.10.2019
271 Mist 21 1024 60 10000 1.5 0 11:58 13.10.2019
272 Mist 21 1024 64 10000 2.1 30 11:38 13.10.2019
273 Mist 21 1024 64 10000 2.1 30 11:38 13.10.2019
274 Clouds 20 1024 64 10000 1.5 340 11:19 13.10.2019
275 Mist 19 1024 68 10000 1.5 350 10:42 13.10.2019
276 Mist 18 1024 68 10000 1.5 340 10:23 13.10.2019
277 Mist 18 1024 68 10000 1.5 340 10:23 13.10.2019
278 Mist 18 1024 68 10000 1.5 340 09:57 13.10.2019
279 Mist 17 1024 72 10000 1.5 340 09:38 13.10.2019
280 Fog 16 1024 72 10000 1.5 70 09:19 13.10.2019
281 Fog 14 1024 82 10000 2.1 70 08:43 13.10.2019
282 Fog 14 1023 82 10000 2.6 80 08:22 13.10.2019
283 Fog 13 1024 76 10000 2.6 100 07:47 13.10.2019
284 Clear 13 1024 76 10000 3.1 100 07:28 13.10.2019
285 Clear 13 1023 76 10000 2.6 100 06:46 13.10.2019
286 Clear 13 1023 76 10000 2.6 100 05:50 13.10.2019
287 Clear 14 1023 82 10000 2.6 100 04:52 13.10.2019
288 Clear 14 1023 82 10000 2.6 100 04:33 13.10.2019
289 Clear 14 1024 77 10000 2.6 90 02:47 13.10.2019
290 Clear 14 1024 82 10000 3.1 100 02:18 13.10.2019
291 Clear 15 1024 82 10000 2.6 90 01:31 13.10.2019
292 Clear 15 1024 82 10000 2.1 100 00:52 13.10.2019
293 Clear 15 1024 87 10000 1.5 90 00:22 13.10.2019
294 Clear 15 1024 87 10000 1.5 90 23:58 12.10.2019
295 Clear 15 1024 87 10000 2.1 120 23:39 12.10.2019
296 Clear 15 1024 87 10000 2.1 110 23:21 12.10.2019
297 Clear 16 1024 87 10000 2.1 110 22:58 12.10.2019
298 Clear 16 1024 82 10000 2.1 100 22:39 12.10.2019
299 Clear 16 1024 87 10000 2.1 110 22:20 12.10.2019
300 Clear 16 1024 82 10000 2.6 130 21:55 12.10.2019
301 Clear 16 1024 82 10000 2.6 130 21:37 12.10.2019
302 Clear 17 1024 82 10000 2.1 120 21:19 12.10.2019
303 Clear 17 1024 82 10000 2.1 120 21:19 12.10.2019
304 Clear 17 1024 77 10000 2.1 150 20:43 12.10.2019
305 Clear 17 1024 77 10000 2.1 150 20:25 12.10.2019
306 Clear 18 1024 72 10000 1.5 210 19:40 12.10.2019
307 Clear 19 1023 72 10000 2.6 190 19:22 12.10.2019
308 Clear 19 1023 68 10000 3.1 200 18:59 12.10.2019
309 Clear 20 1023 68 10000 3.1 200 18:40 12.10.2019
310 Clear 20 1023 64 10000 3.1 200 18:22 12.10.2019
311 Clouds 22 1023 60 10000 3.1 190 17:44 12.10.2019
312 Clouds 22 1023 60 10000 3.1 180 17:19 12.10.2019
313 Clouds 22 1023 60 10000 3.1 180 16:55 12.10.2019
314 Clouds 22 1023 56 10000 4.1 190 16:36 12.10.2019
315 Clouds 22 1023 56 10000 3.6 170 16:18 12.10.2019
316 Clouds 22 1023 56 10000 4.1 180 15:44 12.10.2019
317 Clouds 23 1023 56 10000 2.1 170 15:25 12.10.2019
318 Clouds 23 1023 53 10000 4.1 170 14:55 12.10.2019
319 Clouds 23 1023 53 10000 4.1 170 14:55 12.10.2019
320 Clouds 23 1023 53 10000 4.1 170 14:37 12.10.2019
321 Clouds 22 1023 56 10000 3.6 180 14:18 12.10.2019
322 Clouds 23 1024 53 10000 4.1 170 13:43 12.10.2019
323 Clouds 23 1024 53 10000 4.1 170 13:43 12.10.2019
324 Clouds 22 1024 60 10000 4.6 140 13:25 12.10.2019
325 Clouds 22 1024 64 10000 3.6 180 12:40 12.10.2019
326 Clouds 21 1024 64 10000 3.6 180 12:22 12.10.2019
327 Clouds 20 1024 68 10000 3.6 170 11:59 12.10.2019
328 Clouds 20 1024 68 10000 3.6 170 11:40 12.10.2019
329 Clouds 20 1024 68 10000 3.1 160 11:22 12.10.2019
330 Clouds 20 1024 72 10000 2.6 160 10:56 12.10.2019
331 Clouds 20 1024 72 10000 2.6 160 10:36 12.10.2019
332 Clouds 19 1024 82 10000 2.1 180 10:18 12.10.2019
333 Mist 18 1024 77 10000 1.5 0 09:54 12.10.2019
334 Mist 17 1024 77 10000 1.5 0 09:36 12.10.2019
335 Fog 16 1023 88 10000 0.5 0 09:18 12.10.2019
336 Fog 16 1023 88 10000 0.5 0 09:18 12.10.2019
337 Fog 15 1023 87 10000 1 60 08:40 12.10.2019
338 Mist 15 1023 93 10000 0.5 0 08:20 12.10.2019
339 Mist 15 1023 93 10000 0.5 0 08:20 12.10.2019
340 Mist 14 1023 93 10000 0.5 0 07:35 12.10.2019
341 Mist 14 1023 93 10000 0.5 0 07:35 12.10.2019
342 Clear 14 1022 93 10000 2.1 150 06:57 12.10.2019
343 Clear 14 1022 87 10000 3.1 130 05:48 12.10.2019
344 Clear 14 1022 87 10000 2.6 130 05:23 12.10.2019
345 Fog 15 1023 93 10000 2.1 140 04:24 12.10.2019
346 Fog 15 1023 87 10000 2.1 130 03:33 12.10.2019
347 Fog 15 1023 87 10000 1.5 110 01:56 12.10.2019
348 Clear 16 1022 87 10000 2.1 90 01:24 12.10.2019
349 Clear 16 1023 87 10000 1.5 100 00:43 12.10.2019
350 Clear 16 1023 93 10000 1 0 00:19 12.10.2019
351 Clear 16 1023 88 10000 2.1 50 23:40 11.10.2019
352 Clear 16 1023 88 10000 2.6 40 23:20 11.10.2019
353 Clear 16 1022 88 10000 2.1 60 22:41 11.10.2019
354 Clear 17 1022 82 10000 1.5 70 22:22 11.10.2019
355 Clear 17 1022 82 10000 1.5 70 21:59 11.10.2019
356 Clear 17 1022 82 10000 1 120 21:40 11.10.2019
357 Clear 18 1022 88 10000 1 250 21:21 11.10.2019
358 Clear 18 1022 82 10000 1 0 20:45 11.10.2019
359 Clear 18 1022 82 10000 1 0 20:27 11.10.2019
360 Clear 19 1022 82 10000 1.5 220 19:59 11.10.2019
361 Clear 19 1022 77 10000 2.1 210 19:39 11.10.2019
362 Clear 20 1021 73 10000 2.6 210 19:18 11.10.2019
363 Clear 20 1021 73 10000 2.6 210 19:18 11.10.2019
364 Clear 20 1021 73 10000 2.6 210 19:18 11.10.2019
365 Clear 20 1021 73 10000 2.6 210 18:59 11.10.2019
366 Clear 21 1021 64 10000 3.1 180 18:39 11.10.2019
367 Clouds 22 1021 60 10000 3.6 180 18:19 11.10.2019
368 Clouds 23 1021 60 10000 3.6 180 17:59 11.10.2019
369 Clouds 23 1021 53 10000 1.5 130 17:38 11.10.2019
370 Clouds 24 1021 53 10000 2.1 210 17:19 11.10.2019
371 Clouds 24 1021 53 10000 2.1 210 17:19 11.10.2019
372 Clouds 24 1021 53 10000 2.1 210 16:59 11.10.2019
373 Clouds 24 1021 53 10000 2.1 70 16:39 11.10.2019
374 Clouds 24 1021 53 10000 2.1 60 16:19 11.10.2019
375 Clouds 24 1021 50 10000 3.1 150 15:42 11.10.2019
376 Clouds 24 1021 50 10000 3.1 160 15:22 11.10.2019
377 Clouds 24 1021 50 10000 3.1 160 14:59 11.10.2019
378 Clouds 24 1022 53 10000 3.6 170 14:40 11.10.2019
379 Clouds 23 1022 50 10000 4.1 180 14:20 11.10.2019
380 Clouds 23 1022 56 10000 3.6 180 13:45 11.10.2019
381 Clouds 23 1022 56 10000 2.6 180 13:25 11.10.2019
382 Clouds 22 1022 56 10000 2.6 180 12:57 11.10.2019
383 Clear 22 1022 56 10000 4.1 170 12:39 11.10.2019
384 Clear 22 1022 56 10000 4.1 170 12:39 11.10.2019
385 Clouds 21 1022 60 10000 3.1 170 12:20 11.10.2019
386 Clouds 21 1022 64 10000 2.1 360 11:58 11.10.2019
387 Clouds 21 1022 64 10000 2.1 360 11:38 11.10.2019
388 Clear 20 1022 68 10000 1.5 320 11:20 11.10.2019
389 Clear 20 1022 77 10000 2.1 360 10:55 11.10.2019
390 Clear 20 1022 77 10000 2.1 360 10:55 11.10.2019
391 Clear 20 1022 77 10000 2.1 360 10:36 11.10.2019
392 Clear 18 1022 77 10000 2.1 330 10:18 11.10.2019
393 Clear 18 1021 77 10000 0.5 0 09:42 11.10.2019
394 Clear 16 1021 87 10000 1.5 300 09:21 11.10.2019
395 Clear 15 1020 87 10000 1 10 08:57 11.10.2019
396 Clear 15 1020 87 10000 1 10 08:38 11.10.2019
397 Clear 15 1020 93 10000 0.5 0 08:20 11.10.2019
398 Clear 14 1020 93 10000 0.5 0 07:52 11.10.2019
399 Clear 14 1020 93 10000 0.5 0 07:33 11.10.2019
400 Clear 14 1020 93 10000 1.5 10 06:50 11.10.2019
401 Clear 14 1020 87 10000 2.6 50 06:25 11.10.2019
402 Clear 14 1020 87 10000 1 0 05:47 11.10.2019
403 Clear 14 1020 87 10000 1 0 05:29 11.10.2019
404 Clear 14 1019 87 10000 0.5 0 04:50 11.10.2019
405 Clear 14 1019 87 10000 0.5 0 03:27 11.10.2019
406 Clear 15 1019 82 10000 2.1 110 01:18 11.10.2019
407 Clear 15 1019 82 10000 2.1 110 01:18 11.10.2019
408 Clear 15 1018 82 10000 2.6 100 00:31 11.10.2019
409 Clear 15 1018 82 10000 2.1 100 23:58 10.10.2019
410 Clear 15 1018 87 10000 0.5 0 23:40 10.10.2019
411 Clear 15 1018 87 10000 0.5 0 23:19 10.10.2019
412 Clear 16 1018 87 10000 0.5 0 22:55 10.10.2019
413 Clear 16 1018 77 10000 2.1 0 22:36 10.10.2019
414 Clear 16 1018 77 10000 1.5 80 22:18 10.10.2019
415 Clear 16 1017 77 10000 1.5 150 21:42 10.10.2019
416 Clear 17 1017 77 10000 2.6 160 21:22 10.10.2019
417 Clear 17 1017 77 10000 2.6 160 20:58 10.10.2019
418 Clear 17 1017 77 10000 2.1 130 20:39 10.10.2019
419 Clear 18 1017 72 10000 2.6 140 20:19 10.10.2019
420 Clear 19 1017 68 10000 2.1 140 19:56 10.10.2019
421 Clear 19 1017 68 10000 2.1 140 19:38 10.10.2019
422 Clear 20 1016 64 10000 2.1 170 19:19 10.10.2019
423 Clear 20 1016 64 10000 2.6 170 18:42 10.10.2019
424 Clouds 21 1016 64 10000 3.1 180 18:21 10.10.2019
425 Clouds 21 1016 64 10000 3.1 180 17:58 10.10.2019
426 Clouds 21 1016 56 10000 4.1 180 17:39 10.10.2019
427 Clouds 22 1016 56 10000 3.6 200 17:18 10.10.2019
428 Clouds 22 1016 56 10000 3.6 200 17:18 10.10.2019
429 Clouds 22 1016 56 10000 3.6 200 16:55 10.10.2019
430 Clouds 22 1016 68 10000 2.1 180 16:37 10.10.2019
431 Clouds 22 1016 73 10000 2.6 180 16:18 10.10.2019
432 Clouds 22 1016 73 10000 3.6 210 15:39 10.10.2019
433 Clouds 22 1016 64 10000 2.6 200 15:21 10.10.2019
434 Clouds 22 1016 64 10000 2.6 200 14:57 10.10.2019
435 Clouds 22 1017 60 10000 3.1 210 14:37 10.10.2019
436 Clouds 22 1017 60 10000 3.1 210 14:37 10.10.2019
437 Clouds 22 1017 64 10000 2.6 210 14:19 10.10.2019
438 Clouds 22 1017 64 10000 3.6 210 13:55 10.10.2019
439 Clouds 22 1017 64 10000 3.6 210 13:37 10.10.2019
440 Clouds 21 1017 64 10000 6.2 210 13:18 10.10.2019
441 Clouds 21 1017 64 10000 3.1 200 12:42 10.10.2019
442 Clouds 21 1017 68 10000 2.1 220 12:21 10.10.2019
443 Clouds 21 1017 68 10000 2.1 220 11:58 10.10.2019
444 Clouds 20 1017 64 10000 2.1 160 11:39 10.10.2019
445 Drizzle 20 1017 64 10000 2.1 200 11:19 10.10.2019
446 Drizzle 20 1017 64 10000 1.5 160 10:46 10.10.2019
447 Clear 19 1017 64 10000 1.5 160 10:27 10.10.2019
448 Clear 19 1017 77 10000 1.5 150 09:58 10.10.2019
449 Clear 19 1017 77 10000 1.5 100 09:40 10.10.2019
450 Clear 17 1017 82 10000 2.1 110 09:22 10.10.2019
451 Clear 16 1017 82 10000 2.1 110 08:58 10.10.2019
452 Clear 15 1017 82 10000 1 0 08:38 10.10.2019
453 Clear 15 1017 82 10000 1 0 08:38 10.10.2019
454 Clear 15 1017 87 10000 2.6 110 08:19 10.10.2019
455 Clear 14 1017 87 10000 2.6 110 07:46 10.10.2019
456 Clear 14 1017 87 10000 2.1 100 07:23 10.10.2019
457 Clear 14 1017 82 10000 2.1 100 06:49 10.10.2019
458 Clear 14 1017 82 10000 2.1 100 06:29 10.10.2019
459 Clear 14 1017 93 10000 1 0 05:28 10.10.2019
460 -273 0 0 0 0 0 04:55 10.10.2019
461 Clear 14 1017 87 10000 1.5 120 04:33 10.10.2019
462 Clear 14 1018 76 10000 1 0 02:19 10.10.2019
463 Clear 15 1018 82 10000 1 0 01:36 10.10.2019
464 Clear 15 1018 77 10000 0.5 0 01:18 10.10.2019
465 Clear 15 1018 62 10000 1.5 100 00:24 10.10.2019
466 Clear 15 1018 67 10000 1.5 100 23:41 09.10.2019
467 Clear 15 1018 71 10000 1 60 23:23 09.10.2019
468 Clear 15 1018 71 10000 1 60 22:59 09.10.2019
469 Clear 15 1018 71 10000 1 60 22:59 09.10.2019
470 Clear 15 1018 67 10000 2.1 120 22:40 09.10.2019
471 Clear 16 1018 63 10000 2.1 90 22:22 09.10.2019
472 Clear 16 1018 77 10000 2.6 120 21:42 09.10.2019
473 Clear 17 1018 72 10000 1.5 100 21:21 09.10.2019
474 Clear 17 1018 72 10000 1.5 100 21:21 09.10.2019
475 Clear 17 1018 72 10000 1.5 160 20:56 09.10.2019
476 Clear 17 1018 72 10000 1.5 160 20:38 09.10.2019
477 Clear 18 1017 68 10000 1 0 20:19 09.10.2019
478 Clear 18 1017 68 10000 1 0 19:59 09.10.2019
479 Clear 18 1017 68 10000 1 0 19:59 09.10.2019
480 Clear 18 1017 68 10000 1.5 180 19:40 09.10.2019
481 Clear 19 1017 60 10000 2.6 190 19:22 09.10.2019
482 Clear 20 1017 60 10000 3.1 200 18:39 09.10.2019
483 Clear 21 1017 60 10000 4.1 200 18:20 09.10.2019
484 Clear 22 1017 60 10000 4.1 200 17:58 09.10.2019
485 Clear 22 1017 56 10000 4.1 200 17:39 09.10.2019
486 Clear 23 1018 53 10000 3.6 200 17:21 09.10.2019
487 Clear 23 1018 53 10000 3.6 200 16:56 09.10.2019
488 Clear 23 1018 53 10000 3.6 200 16:56 09.10.2019
489 Clear 23 1018 53 10000 3.6 200 16:56 09.10.2019
490 Clear 23 1018 53 10000 3.6 210 16:37 09.10.2019
491 Clear 23 1018 50 10000 2.6 210 16:19 09.10.2019
492 Clear 23 1018 41 10000 3.1 150 15:55 09.10.2019
493 Clear 23 1018 41 10000 3.1 150 15:55 09.10.2019
494 Clear 23 1018 41 10000 3.1 150 15:37 09.10.2019
495 Clear 23 1018 44 10000 2.6 170 15:18 09.10.2019
496 Clouds 23 1018 46 10000 3.6 140 14:44 09.10.2019
497 Clouds 23 1018 46 10000 3.6 140 14:44 09.10.2019
498 Clouds 23 1019 43 10000 3.6 190 14:19 09.10.2019
499 Clouds 23 1019 43 10000 3.6 190 13:59 09.10.2019
500 Clear 23 1019 40 10000 4.6 170 13:37 09.10.2019
501 Clear 22 1019 43 10000 3.6 160 13:18 09.10.2019
502 Clear 22 1019 43 10000 3.6 190 12:43 09.10.2019
503 Clear 21 1020 46 10000 3.1 160 12:23 09.10.2019
504 Clear 21 1020 46 10000 3.1 160 11:58 09.10.2019
505 Clear 21 1020 56 10000 1.5 0 11:39 09.10.2019
506 Clear 19 1020 60 10000 2.6 350 11:20 09.10.2019
507 Clear 19 1020 60 10000 2.6 350 10:58 09.10.2019
508 Clear 20 1020 60 10000 2.1 360 10:40 09.10.2019
509 Clear 18 1020 56 10000 1 0 10:18 09.10.2019
510 Clear 18 1020 63 10000 1 0 09:43 09.10.2019
511 Clear 16 1020 63 10000 1 0 09:20 09.10.2019
512 Clear 15 1020 63 10000 1 0 08:57 09.10.2019
513 Clear 15 1019 67 10000 3.6 90 08:37 09.10.2019
514 Clear 14 1019 76 10000 3.6 80 08:18 09.10.2019
515 Clear 13 1019 82 10000 1 50 07:46 09.10.2019
516 Clear 13 1019 76 10000 1.5 90 07:24 09.10.2019
517 Clear 13 1019 76 10000 1.5 90 07:24 09.10.2019
518 Clear 13 1019 76 10000 1.5 90 07:24 09.10.2019
519 Clear 13 1019 76 10000 2.1 90 06:54 09.10.2019
520 Clear 13 1019 82 10000 1 0 06:25 09.10.2019
521 Clear 13 1019 82 10000 1 0 05:47 09.10.2019
522 Clear 13 1019 82 10000 2.1 100 04:41 09.10.2019
523 Clear 13 1019 76 10000 2.6 100 03:24 09.10.2019
524 Clear 14 1019 82 10000 2.1 100 01:55 09.10.2019
525 Clear 14 1019 76 10000 2.1 100 01:22 09.10.2019
526 Clear 14 1019 76 10000 2.1 100 00:59 09.10.2019
527 Clear 14 1019 72 10000 2.6 100 00:40 09.10.2019
528 Clear 14 1019 72 10000 2.6 90 00:22 09.10.2019
529 Clear 14 1019 72 10000 2.6 90 23:57 08.10.2019
530 Clear 14 1019 77 10000 2.6 100 23:37 08.10.2019
531 Clear 14 1019 77 10000 2.6 100 23:18 08.10.2019
532 Clear 15 1019 82 10000 2.6 120 22:39 08.10.2019
533 Clear 15 1018 77 10000 3.1 130 22:20 08.10.2019
534 Clear 15 1018 77 10000 3.1 130 21:58 08.10.2019
535 Clear 15 1018 77 10000 3.1 130 21:39 08.10.2019
536 Clear 16 1018 77 10000 2.1 130 21:19 08.10.2019
537 Clear 16 1018 77 10000 2.6 130 20:57 08.10.2019
538 Clear 16 1018 77 10000 2.6 130 20:39 08.10.2019
539 Clear 17 1018 72 10000 1.5 140 20:21 08.10.2019
540 Clear 17 1018 72 10000 1.5 140 19:58 08.10.2019
541 Clear 17 1018 72 10000 1.5 140 19:58 08.10.2019
542 Clear 18 1017 63 10000 1 0 19:40 08.10.2019
543 Clear 19 1017 60 10000 1 0 19:22 08.10.2019
544 Clear 20 1017 60 10000 1 0 18:55 08.10.2019
545 Clear 20 1017 56 10000 1.5 230 18:55 08.10.2019
546 Clear 20 1017 56 10000 1.5 230 18:36 08.10.2019
547 Clear 21 1017 56 10000 3.1 240 18:18 08.10.2019
548 Clear 22 1016 53 10000 3.1 260 17:40 08.10.2019
549 Clear 22 1016 49 10000 3.1 280 17:21 08.10.2019
550 Clear 23 1016 49 10000 3.1 280 16:58 08.10.2019
551 Clear 23 1016 46 10000 2.6 290 16:39 08.10.2019
552 Clear 22 1016 46 10000 2.6 250 16:21 08.10.2019
553 Clear 23 1016 46 10000 2.1 0 15:41 08.10.2019
554 Clear 23 1016 46 10000 2.1 0 15:41 08.10.2019
555 Clouds 23 1017 46 10000 2.6 250 15:21 08.10.2019
556 Clouds 23 1017 46 10000 2.6 250 14:58 08.10.2019
557 Clouds 23 1017 46 10000 2.6 250 14:58 08.10.2019
558 Clouds 23 1017 46 10000 3.1 220 14:39 08.10.2019
559 Clear 22 1017 38 10000 2.1 0 14:21 08.10.2019
560 Clear 23 1017 38 10000 2.1 0 13:57 08.10.2019
561 Clear 22 1017 43 10000 2.1 240 13:38 08.10.2019
562 Clear 22 1017 38 10000 2.6 200 13:19 08.10.2019
563 Clear 22 1017 38 10000 2.6 200 12:58 08.10.2019
564 Clear 21 1017 40 10000 1.5 0 12:37 08.10.2019
565 Clear 21 1017 43 10000 1.5 310 12:18 08.10.2019
566 Clear 20 1017 45 10000 3.1 30 11:42 08.10.2019
567 Clear 19 1017 48 10000 3.1 10 11:24 08.10.2019
568 Clear 19 1017 48 10000 3.1 10 10:56 08.10.2019
569 Clear 19 1017 55 10000 3.1 20 10:37 08.10.2019
570 Clear 18 1016 58 10000 2.6 0 10:19 08.10.2019
571 Clear 17 1016 58 10000 2.6 10 09:55 08.10.2019
572 Clear 16 1016 58 10000 2.6 10 09:37 08.10.2019
573 Clear 15 1015 66 10000 2.6 330 09:19 08.10.2019
574 Clear 14 1014 66 10000 3.1 40 08:42 08.10.2019
575 Clear 14 1015 71 10000 2.1 30 08:23 08.10.2019
576 Clear 14 1015 71 10000 2.1 30 08:23 08.10.2019
577 Clear 13 1014 76 10000 3.1 30 07:44 08.10.2019
578 Clear 13 1014 71 10000 4.1 30 07:21 08.10.2019
579 Clear 13 1014 62 10000 4.1 30 06:51 08.10.2019
580 Clear 13 1014 62 10000 4.6 40 06:28 08.10.2019
581 Clear 13 1014 62 10000 4.1 50 05:46 08.10.2019
582 Clear 13 1014 62 10000 4.1 50 05:46 08.10.2019
583 Clear 13 1014 62 10000 4.1 50 05:25 08.10.2019
584 Clear 13 1013 58 10000 6.2 30 04:31 08.10.2019
585 Clear 13 1013 54 10000 3.6 40 03:27 08.10.2019
586 Clear 14 1013 54 10000 3.6 30 02:36 08.10.2019
587 Clear 14 1012 54 10000 3.1 40 01:45 08.10.2019
588 Clear 14 1012 54 10000 3.1 40 01:26 08.10.2019
589 Clear 15 1012 47 10000 3.1 50 00:46 08.10.2019
590 Clear 15 1012 44 10000 3.1 20 00:20 08.10.2019
591 Clear 15 1012 44 10000 5.1 10 23:39 07.10.2019
592 Clear 15 1011 51 10000 1.5 360 23:20 07.10.2019
593 Clear 16 1011 51 10000 1.5 360 22:56 07.10.2019
594 Clear 16 1011 51 10000 2.6 60 22:38 07.10.2019
595 Clear 16 1011 54 10000 2.6 50 22:20 07.10.2019
596 Clear 16 1011 54 10000 2.6 50 21:56 07.10.2019
597 Clear 16 1010 48 10000 3.1 10 21:37 07.10.2019
598 Clear 16 1010 48 10000 3.1 10 21:37 07.10.2019
599 Clear 17 1010 45 10000 2.6 20 21:19 07.10.2019
600 Clear 17 1010 45 10000 2.6 20 21:19 07.10.2019
601 Clear 17 1010 45 10000 2.6 20 20:57 07.10.2019
602 Clear 18 1009 42 10000 4.6 20 20:39 07.10.2019
603 Clear 18 1009 39 10000 4.6 20 20:20 07.10.2019
604 Clear 18 1008 45 10000 2.1 30 19:57 07.10.2019
605 Clear 18 1008 45 10000 2.1 30 19:39 07.10.2019
606 Clear 19 1008 39 10000 2.1 50 19:18 07.10.2019
607 Clear 19 1007 40 10000 3.6 40 18:56 07.10.2019
608 Clear 20 1007 40 10000 3.6 40 18:38 07.10.2019
609 Clouds 20 1007 40 10000 4.1 40 18:18 07.10.2019
610 Clouds 21 1006 43 10000 4.6 40 17:42 07.10.2019
611 Clouds 21 1006 49 10000 4.6 60 17:19 07.10.2019
612 Clouds 21 1006 49 10000 4.6 60 16:55 07.10.2019
613 Clouds 21 1005 53 10000 3.1 30 16:37 07.10.2019
614 Clouds 21 1005 56 10000 4.1 30 16:19 07.10.2019
615 Clouds 21 1004 56 10000 3.6 30 15:43 07.10.2019
616 Clouds 21 1004 52 10000 2.1 40 15:24 07.10.2019
617 Clouds 21 1004 56 10000 1.5 0 14:42 07.10.2019
618 Rain 20 1004 60 10000 1.5 0 14:23 07.10.2019
619 Rain 20 1004 60 10000 1.5 0 13:59 07.10.2019
620 Rain 20 1004 60 10000 1.5 0 13:59 07.10.2019
621 Rain 19 1005 68 10000 2.1 10 13:40 07.10.2019
622 Rain 18 1005 72 10000 2.1 320 13:18 07.10.2019
623 Rain 18 1005 72 10000 1 0 12:55 07.10.2019
624 Rain 18 1005 72 10000 1 0 12:55 07.10.2019
625 Rain 18 1005 72 10000 1 0 12:36 07.10.2019
626 Rain 17 1005 82 10000 1 0 12:18 07.10.2019
627 -273 0 0 0 0 0 11:56 07.10.2019
628 Rain 17 1004 82 8000 1.5 330 11:36 07.10.2019
629 Rain 16 1005 87 10000 1 0 11:18 07.10.2019
630 Rain 16 1004 77 10000 1.5 0 10:40 07.10.2019
631 Thunderstorm 16 1004 72 10000 4.6 140 10:20 07.10.2019
632 Thunderstorm 16 1004 82 10000 4.6 130 09:42 07.10.2019
633 Thunderstorm 16 1004 87 10000 5.1 160 09:23 07.10.2019
634 Thunderstorm 16 1004 77 10000 2.6 100 08:56 07.10.2019
635 Thunderstorm 16 1004 77 10000 2.6 100 08:37 07.10.2019
636 Thunderstorm 15 1003 77 10000 2.6 90 08:18 07.10.2019
637 Rain 16 1004 77 10000 3.6 90 07:40 07.10.2019
638 Rain 16 1004 87 10000 2.6 100 07:20 07.10.2019
639 Thunderstorm 16 1005 87 10000 2.1 110 06:44 07.10.2019
640 Clouds 15 1005 87 10000 2.1 110 06:23 07.10.2019
641 Clouds 16 1006 87 10000 2.1 100 05:30 07.10.2019
642 Clouds 16 1006 88 10000 2.1 0 04:58 07.10.2019
643 Clouds 16 1008 87 10000 1.5 110 04:23 07.10.2019
644 Clouds 16 1008 87 10000 1.5 110 03:44 07.10.2019
645 Clouds 16 1008 87 10000 1.5 110 03:44 07.10.2019
646 Clear 16 1008 87 10000 1.5 120 03:19 07.10.2019
647 Clear 16 1008 87 10000 1.5 120 03:19 07.10.2019
648 Clear 16 1009 87 10000 1.5 130 02:20 07.10.2019
649 Clear 16 1009 87 10000 1.5 130 02:20 07.10.2019
650 Clear 16 1009 87 10000 2.1 120 01:47 07.10.2019
651 Clear 17 1009 93 10000 2.1 120 01:19 07.10.2019
652 Clear 17 1010 93 10000 2.1 120 00:38 07.10.2019
653 Clear 17 1010 87 10000 2.1 110 00:19 07.10.2019
654 Clear 17 1011 88 10000 1.5 120 23:42 06.10.2019
655 Clear 17 1011 88 10000 1.5 120 23:42 06.10.2019
656 Clear 17 1011 82 10000 2.1 110 23:21 06.10.2019
657 Clear 17 1011 87 10000 1 0 22:59 06.10.2019
658 Clear 17 1011 87 10000 1 0 22:40 06.10.2019
659 Clear 17 1011 82 10000 1 170 22:21 06.10.2019
660 Clear 17 1011 82 10000 1 170 22:21 06.10.2019
661 Clear 17 1011 82 10000 2.6 120 21:57 06.10.2019
662 Clear 18 1011 82 10000 2.6 120 21:37 06.10.2019
663 Clear 18 1011 77 10000 1 180 21:19 06.10.2019
664 Clear 18 1011 77 10000 1 180 20:57 06.10.2019
665 Clear 18 1011 72 10000 1 180 20:38 06.10.2019
666 Clear 19 1011 68 10000 1.5 190 20:20 06.10.2019
667 Clear 19 1011 64 10000 2.1 210 19:57 06.10.2019
668 Clear 19 1011 64 10000 2.1 210 19:37 06.10.2019
669 Clear 19 1011 64 10000 2.1 200 19:19 06.10.2019
670 Clear 19 1011 64 10000 2.1 200 18:56 06.10.2019
671 Clear 20 1011 73 10000 3.1 270 18:38 06.10.2019
672 Clouds 21 1011 56 10000 3.1 240 18:19 06.10.2019
673 Clouds 21 1011 56 10000 3.1 240 18:19 06.10.2019
674 Clouds 21 1011 56 10000 3.1 240 17:43 06.10.2019
675 Clouds 21 1011 56 10000 3.1 240 17:43 06.10.2019
676 Clouds 22 1011 53 10000 3.1 240 17:20 06.10.2019
677 Clouds 21 1012 53 10000 3.1 230 16:58 06.10.2019
678 Clouds 22 1012 53 10000 3.1 230 16:40 06.10.2019
679 Clouds 22 1012 56 10000 3.6 250 16:22 06.10.2019
680 Clouds 22 1012 60 10000 2.6 260 15:44 06.10.2019
681 Clouds 23 1012 56 10000 3.6 260 15:22 06.10.2019
682 Clouds 23 1012 56 10000 3.6 260 14:58 06.10.2019
683 Clouds 23 1012 56 10000 2.1 360 14:40 06.10.2019
684 Clouds 23 1012 53 10000 1 0 14:21 06.10.2019
685 Clouds 23 1012 56 10000 1.5 0 13:54 06.10.2019
686 Clouds 23 1012 56 10000 1.5 0 13:54 06.10.2019
687 Clouds 23 1012 53 10000 1 0 13:54 06.10.2019
688 Clouds 23 1012 56 10000 1.5 0 13:36 06.10.2019
689 Clouds 23 1012 56 10000 1.5 0 13:36 06.10.2019
690 Clouds 23 1013 53 10000 1 0 13:18 06.10.2019
691 Clouds 23 1013 53 10000 1 0 13:18 06.10.2019
692 Clouds 22 1013 60 10000 1.5 260 12:55 06.10.2019
693 Clouds 22 1013 60 10000 1.5 260 12:54 06.10.2019
694 Clouds 22 1013 60 10000 1.5 260 12:36 06.10.2019
695 Clouds 22 1013 60 10000 1.5 260 12:36 06.10.2019
696 Clouds 22 1013 64 10000 2.6 340 12:18 06.10.2019
697 Clouds 21 1013 68 10000 2.6 350 11:42 06.10.2019
698 Clouds 20 1013 72 10000 2.6 330 11:24 06.10.2019
699 Clouds 20 1013 72 10000 2.6 330 10:56 06.10.2019
700 Clouds 20 1013 72 10000 2.1 10 10:37 06.10.2019
701 Clouds 19 1013 77 10000 1.5 350 10:19 06.10.2019
702 Clouds 18 1012 82 10000 1.5 360 09:41 06.10.2019
703 Clouds 17 1012 87 10000 1.5 320 09:20 06.10.2019
704 Clouds 17 1012 87 10000 1.5 320 09:20 06.10.2019
705 Clouds 16 1012 87 10000 1 0 08:49 06.10.2019
706 Clouds 15 1012 93 10000 1 0 08:24 06.10.2019
707 Clouds 14 1012 93 10000 1 0 07:59 06.10.2019
708 Clouds 14 1011 87 10000 1.5 110 07:40 06.10.2019
709 Clear 14 1011 87 10000 2.1 50 06:53 06.10.2019
710 Clear 15 1011 87 10000 1.5 10 05:41 06.10.2019
711 Clear 14 1011 87 10000 1.5 90 04:40 06.10.2019
712 Clear 15 1011 76 10000 2.6 110 02:56 06.10.2019
713 Clear 15 1011 76 10000 2.6 110 02:32 06.10.2019
714 Clear 15 1011 76 10000 2.1 110 01:49 06.10.2019
715 Clear 15 1011 76 10000 2.1 110 01:30 06.10.2019
716 Clear 15 1011 76 10000 2.1 110 01:30 06.10.2019
717 Clouds 15 1011 72 10000 2.1 130 00:59 06.10.2019
718 Clouds 15 1011 82 10000 2.6 70 00:36 06.10.2019
719 Clouds 16 1011 87 10000 2.1 100 00:18 06.10.2019
720 Clouds 16 1010 93 10000 2.6 140 23:41 05.10.2019
721 Clouds 16 1011 93 10000 2.1 120 23:19 05.10.2019
722 Clear 16 1011 87 10000 2.1 130 22:55 05.10.2019
723 Clear 17 1011 87 10000 2.1 130 22:36 05.10.2019
724 Clear 17 1011 82 10000 2.6 130 22:18 05.10.2019
725 Clear 17 1010 82 10000 1.5 160 21:42 05.10.2019
726 Clear 18 1010 82 10000 1.5 150 21:22 05.10.2019
727 Clear 18 1010 82 10000 1.5 150 20:58 05.10.2019
728 Clouds 18 1010 82 10000 1 180 20:39 05.10.2019
729 Clouds 18 1010 77 10000 1.5 190 20:19 05.10.2019
730 Clouds 18 1010 77 10000 1.5 190 20:19 05.10.2019
731 Clouds 19 1010 77 10000 1.5 220 19:56 05.10.2019
732 Clouds 19 1010 77 10000 1.5 220 19:36 05.10.2019
733 Clouds 20 1009 72 10000 1.5 230 19:18 05.10.2019
734 Clouds 20 1009 68 10000 2.6 230 18:54 05.10.2019
735 Clouds 20 1009 68 10000 2.6 230 18:36 05.10.2019
736 Clouds 21 1009 60 10000 2.6 220 18:18 05.10.2019
737 Clouds 22 1009 64 10000 3.1 220 17:41 05.10.2019
738 Clouds 22 1009 64 10000 3.1 210 17:21 05.10.2019
739 Clouds 22 1008 64 10000 3.6 210 16:55 05.10.2019
740 Clouds 22 1008 64 10000 3.6 210 16:55 05.10.2019
741 Clouds 22 1008 64 10000 3.6 210 16:36 05.10.2019
742 Rain 22 1008 64 10000 3.6 180 16:18 05.10.2019
743 Rain 23 1009 56 10000 3.1 170 15:55 05.10.2019
744 Rain 22 1009 56 10000 3.1 170 15:37 05.10.2019
745 Clouds 22 1008 56 10000 3.6 190 15:18 05.10.2019
746 Clouds 23 1009 53 10000 3.6 170 14:41 05.10.2019
747 Clouds 23 1009 53 10000 3.1 180 14:22 05.10.2019
748 Clouds 23 1009 53 10000 3.1 150 13:44 05.10.2019
749 Clouds 23 1009 56 10000 3.6 180 13:26 05.10.2019
750 Clouds 22 1009 56 10000 3.6 180 12:58 05.10.2019
751 Clouds 22 1009 64 10000 3.1 190 12:40 05.10.2019
752 Clouds 21 1009 60 10000 3.6 160 12:19 05.10.2019
753 Clouds 21 1009 60 10000 2.6 180 11:39 05.10.2019
754 Clouds 20 1009 64 10000 3.1 180 11:20 05.10.2019
755 Clouds 20 1009 60 10000 2.1 180 10:57 05.10.2019
756 Clouds 20 1009 60 10000 2.1 180 10:38 05.10.2019
757 Clear 19 1009 64 10000 2.1 220 10:19 05.10.2019
758 Clear 18 1009 68 10000 1 0 09:40 05.10.2019
759 Clear 17 1009 72 10000 0.5 0 09:22 05.10.2019
760 Clouds 16 1008 77 10000 0.5 0 08:42 05.10.2019
761 Clouds 15 1009 77 10000 1 0 08:23 05.10.2019
762 Clouds 14 1009 77 10000 1 0 07:59 05.10.2019
763 Clouds 14 1009 77 10000 1 0 07:59 05.10.2019
764 Clouds 14 1009 77 10000 1 300 07:39 05.10.2019
765 Clouds 14 1009 87 10000 1 70 07:20 05.10.2019
766 Clouds 14 1009 82 10000 2.1 110 06:50 05.10.2019
767 Clear 14 1009 77 10000 3.1 70 06:18 05.10.2019
768 Clear 15 1010 77 10000 2.6 120 04:44 05.10.2019
769 Clear 14 1011 77 10000 2.6 110 03:30 05.10.2019
770 Clear 13 1012 71 10000 3.1 110 01:59 05.10.2019
771 Clear 14 1012 67 10000 2.6 110 01:24 05.10.2019
772 Clear 13 1012 67 10000 2.6 110 00:46 05.10.2019
773 Clear 13 1012 67 10000 2.6 110 00:46 05.10.2019
774 Clear 14 1013 67 10000 2.6 100 00:27 05.10.2019
775 Clear 14 1013 67 10000 2.6 100 23:46 04.10.2019
776 Clear 14 1013 67 10000 2.6 100 23:28 04.10.2019
777 Clear 14 1013 67 10000 2.1 110 22:59 04.10.2019
778 Clear 14 1012 67 10000 1.5 0 22:41 04.10.2019
779 Clear 14 1012 67 10000 1.5 120 22:22 04.10.2019
780 Clear 15 1012 67 10000 1.5 120 21:58 04.10.2019
781 Clear 15 1012 71 10000 2.1 120 21:39 04.10.2019
782 Clear 15 1012 67 10000 0.5 0 21:21 04.10.2019
783 Clear 15 1012 67 10000 0.5 0 20:57 04.10.2019
784 Clear 15 1012 63 10000 1 0 20:39 04.10.2019
785 Clear 16 1012 55 10000 1 0 20:20 04.10.2019
786 Clear 16 1012 55 10000 1 0 20:20 04.10.2019
787 Clear 17 1011 39 10000 1.5 20 19:49 04.10.2019
788 Clear 17 1011 37 10000 2.6 20 19:30 04.10.2019
789 Clear 17 1011 39 10000 1.5 20 19:30 04.10.2019
790 Clear 18 1011 37 10000 2.6 20 18:59 04.10.2019
791 Clear 19 1011 30 10000 4.6 330 18:39 04.10.2019
792 Clear 20 1011 32 10000 4.1 330 18:19 04.10.2019
793 Clear 21 1011 32 10000 4.1 330 17:57 04.10.2019
794 Clear 21 1011 26 10000 3.6 320 17:38 04.10.2019
795 Clear 21 1011 24 10000 3.1 350 17:19 04.10.2019
796 Clear 22 1011 21 10000 4.1 350 16:54 04.10.2019
797 Clear 22 1011 21 10000 4.1 350 16:36 04.10.2019
798 Clear 22 1011 21 10000 4.1 350 16:36 04.10.2019
799 Clear 22 1011 21 10000 4.1 350 16:36 04.10.2019
800 Clear 22 1011 26 10000 3.1 310 16:18 04.10.2019
801 -273 0 0 0 0 0 15:55 04.10.2019
802 Clear 21 1011 28 10000 3.6 320 15:36 04.10.2019
803 Clear 21 1012 32 10000 3.1 20 15:18 04.10.2019
804 Clear 21 1012 32 10000 3.6 350 14:41 04.10.2019
805 Clear 21 1012 35 10000 3.1 340 14:22 04.10.2019
806 Clear 20 1012 35 10000 3.1 340 13:58 04.10.2019
807 Clear 20 1012 39 10000 3.1 350 13:40 04.10.2019
808 Clear 20 1012 39 10000 4.1 30 13:19 04.10.2019
809 Clear 20 1013 45 10000 4.1 30 12:45 04.10.2019
810 Clear 19 1013 45 10000 4.1 30 12:27 04.10.2019
811 Clear 19 1013 45 10000 4.1 30 12:27 04.10.2019
812 Clear 18 1013 48 10000 4.6 20 11:44 04.10.2019
813 Clear 18 1013 48 10000 4.6 20 11:43 04.10.2019
814 Clear 18 1013 48 10000 4.6 20 11:43 04.10.2019
815 Clear 18 1013 48 10000 4.6 20 11:43 04.10.2019
816 Clear 17 1013 51 10000 4.1 10 11:22 04.10.2019
817 Clear 16 1013 51 10000 4.1 10 10:58 04.10.2019
818 Clear 16 1012 54 10000 4.6 20 10:38 04.10.2019
819 Clear 15 1012 58 10000 5.1 20 10:19 04.10.2019
820 Clear 15 1012 62 10000 4.6 20 09:44 04.10.2019
821 Clear 15 1012 62 10000 4.6 20 09:44 04.10.2019
822 Clear 14 1012 66 10000 4.6 10 09:25 04.10.2019
823 Clear 13 1012 66 10000 4.1 10 08:48 04.10.2019
824 Clear 13 1012 66 10000 4.1 10 08:29 04.10.2019
825 Clear 12 1011 71 10000 4.1 40 07:56 04.10.2019
826 Clear 11 1011 76 10000 2.6 40 07:38 04.10.2019
827 Clear 12 1011 71 10000 3.6 30 07:19 04.10.2019
828 Clear 12 1011 71 10000 3.6 20 06:41 04.10.2019
829 Clear 12 1011 71 10000 3.6 40 06:22 04.10.2019
830 Clear 12 1011 71 10000 3.6 40 06:22 04.10.2019
831 Clear 12 1010 71 10000 3.1 70 05:23 04.10.2019
832 Clear 12 1010 54 10000 6.2 20 04:54 04.10.2019
833 Clear 12 1010 58 10000 5.7 20 03:42 04.10.2019
834 Clear 12 1010 58 10000 4.6 30 02:53 04.10.2019
835 Clear 12 1010 58 10000 4.6 30 02:53 04.10.2019
836 Clear 13 1010 71 10000 3.1 50 01:54 04.10.2019
837 Clear 13 1010 71 10000 3.1 50 01:54 04.10.2019
838 Clear 13 1010 71 10000 3.1 50 01:54 04.10.2019
839 Clear 13 1010 71 10000 3.1 50 01:27 04.10.2019
840 Clear 13 1010 66 10000 5.1 30 00:36 04.10.2019
841 Clear 13 1010 66 10000 2.6 350 23:41 03.10.2019
842 Clear 14 1009 71 10000 5.1 30 23:22 03.10.2019
843 Clear 14 1009 71 10000 5.1 30 22:58 03.10.2019
844 Clear 14 1009 67 10000 4.1 20 22:39 03.10.2019
845 Clear 14 1009 67 10000 4.1 20 22:39 03.10.2019
846 Clear 14 1009 67 10000 5.1 10 22:21 03.10.2019
847 Clear 14 1009 67 10000 5.1 10 21:59 03.10.2019
848 Clear 14 1008 67 10000 4.6 20 21:40 03.10.2019
849 Clear 14 1008 62 10000 5.7 360 21:20 03.10.2019
850 Clear 15 1008 62 10000 5.7 360 20:58 03.10.2019
851 Clouds 15 1007 67 10000 5.7 360 20:40 03.10.2019
852 Clouds 15 1007 67 10000 4.6 350 20:22 03.10.2019
853 Clouds 15 1007 67 10000 4.6 350 19:59 03.10.2019
854 Clouds 15 1007 67 10000 4.6 350 19:59 03.10.2019
855 Clouds 15 1007 67 10000 6.2 340 19:40 03.10.2019
856 Clouds 15 1007 63 10000 6.2 350 19:20 03.10.2019
857 Clouds 16 1006 59 10000 7.7 340 18:56 03.10.2019
858 Clouds 17 1006 59 10000 7.7 340 18:38 03.10.2019
859 Clouds 17 1006 59 10000 7.7 340 18:38 03.10.2019
860 Clouds 17 1006 55 10000 7.2 350 18:18 03.10.2019
861 Clear 18 1006 59 10000 7.2 350 17:42 03.10.2019
862 Clouds 18 1006 63 10000 6.7 360 17:23 03.10.2019
863 Clouds 19 1006 63 10000 6.7 360 16:58 03.10.2019
864 Clouds 19 1006 59 10000 6.7 360 16:40 03.10.2019
865 Clouds 19 1006 59 10000 6.2 360 16:21 03.10.2019
866 Clouds 19 1007 60 10000 6.2 360 15:54 03.10.2019
867 Clouds 19 1007 60 10000 6.2 360 15:36 03.10.2019
868 Rain 19 1007 59 10000 7.7 360 15:18 03.10.2019
869 Rain 19 1007 60 10000 7.2 330 14:39 03.10.2019
870 Thunderstorm 19 1007 63 10000 5.1 350 14:20 03.10.2019
871 Thunderstorm 18 1007 68 10000 4.1 340 13:45 03.10.2019
872 Thunderstorm 18 1007 72 10000 5.7 10 13:26 03.10.2019
873 Thunderstorm 18 1007 72 10000 5.7 10 12:59 03.10.2019
874 Thunderstorm 18 1007 63 10000 7.2 360 12:40 03.10.2019
875 Rain 19 1006 60 10000 4.1 330 12:20 03.10.2019
876 Rain 19 1006 60 10000 4.1 330 12:20 03.10.2019
877 Thunderstorm 19 1006 60 10000 3.6 360 11:59 03.10.2019
878 Thunderstorm 19 1006 60 10000 3.6 360 11:59 03.10.2019
879 Thunderstorm 20 1006 60 10000 3.6 360 11:40 03.10.2019
880 Mist 19 1006 64 10000 3.1 350 11:21 03.10.2019
881 Thunderstorm 20 1006 64 10000 3.1 350 10:58 03.10.2019
882 Thunderstorm 20 1006 68 10000 2.6 330 10:38 03.10.2019
883 Clouds 19 1006 68 10000 1 0 10:18 03.10.2019
884 Clouds 19 1006 68 10000 1 0 09:56 03.10.2019
885 Clouds 19 1006 77 10000 1.5 0 09:37 03.10.2019
886 Fog 17 1006 87 10000 2.1 360 09:19 03.10.2019
887 Fog 16 1005 82 10000 1 0 08:43 03.10.2019
888 Clouds 16 1005 87 10000 1.5 40 08:24 03.10.2019
889 Clouds 16 1005 87 10000 1.5 40 08:24 03.10.2019
890 Clouds 16 1005 87 10000 1.5 40 08:24 03.10.2019
891 Clouds 15 1005 87 10000 1.5 360 07:45 03.10.2019
892 Clouds 15 1005 82 10000 1 0 07:20 03.10.2019
893 Clouds 15 1005 82 10000 1 0 07:20 03.10.2019
894 Clouds 15 1005 87 10000 2.1 330 06:53 03.10.2019
895 Clouds 16 1005 82 10000 2.1 30 06:27 03.10.2019
896 Clouds 16 1004 87 10000 1.5 70 05:49 03.10.2019
897 Clouds 16 1004 87 10000 1.5 70 05:29 03.10.2019
898 Clouds 16 1004 87 10000 2.1 0 04:45 03.10.2019
899 Clouds 16 1004 82 10000 2.1 10 03:55 03.10.2019
900 Clouds 16 1005 82 10000 2.6 140 03:19 03.10.2019
901 Clouds 16 1005 82 10000 2.6 140 03:19 03.10.2019
902 Clouds 16 1005 88 10000 3.6 150 02:27 03.10.2019
903 Clouds 16 1006 77 10000 5.1 150 01:40 03.10.2019
904 Clouds 17 1006 77 10000 3.6 160 00:53 03.10.2019
905 Clouds 17 1006 77 10000 3.6 160 00:32 03.10.2019
906 Clouds 17 1006 77 10000 2.6 150 23:57 02.10.2019
907 Clouds 17 1006 77 10000 3.1 140 23:37 02.10.2019
908 Clouds 17 1006 82 10000 2.6 140 23:18 02.10.2019
909 Clouds 17 1006 88 10000 2.6 130 22:42 02.10.2019
910 Clouds 17 1006 82 10000 2.1 110 22:20 02.10.2019
911 Clouds 17 1006 82 10000 2.1 110 21:55 02.10.2019
912 Clouds 17 1006 82 10000 3.1 120 21:37 02.10.2019
913 Clouds 18 1007 82 10000 1.5 140 21:18 02.10.2019
914 Clouds 18 1007 77 10000 1.5 160 20:55 02.10.2019
915 Clouds 18 1007 77 10000 1.5 160 20:55 02.10.2019
916 Clouds 18 1007 77 10000 1.5 160 20:37 02.10.2019
917 Clouds 18 1006 82 10000 1.5 170 20:19 02.10.2019
918 Clouds 18 1006 73 10000 2.1 210 19:45 02.10.2019
919 Clouds 18 1006 73 10000 2.1 210 19:45 02.10.2019
920 Clouds 18 1006 73 10000 2.1 210 19:45 02.10.2019
921 Clouds 19 1006 73 10000 2.6 210 19:23 02.10.2019
922 Clouds 19 1006 73 10000 2.6 210 18:59 02.10.2019
923 Clouds 19 1006 68 10000 2.6 230 18:40 02.10.2019
924 Clouds 19 1006 68 10000 2.6 230 18:40 02.10.2019
925 Thunderstorm 20 1006 64 10000 3.6 260 18:21 02.10.2019
926 Thunderstorm 20 1006 64 10000 3.6 260 17:58 02.10.2019
927 Thunderstorm 20 1006 64 10000 4.6 250 17:38 02.10.2019
928 Thunderstorm 20 1006 69 10000 4.1 260 17:20 02.10.2019
929 Thunderstorm 20 1006 83 10000 3.6 140 16:57 02.10.2019
930 Thunderstorm 20 1006 83 10000 3.6 140 16:37 02.10.2019
931 Thunderstorm 20 1006 78 10000 1.5 0 16:18 02.10.2019
932 Thunderstorm 20 1006 78 10000 1.5 0 15:55 02.10.2019
933 Thunderstorm 20 1006 88 10000 1.5 0 15:36 02.10.2019
934 Thunderstorm 21 1006 88 10000 1.5 0 15:18 02.10.2019
935 Thunderstorm 22 1006 78 10000 4.1 250 14:43 02.10.2019
936 Thunderstorm 22 1006 83 10000 3.6 240 14:22 02.10.2019
937 Thunderstorm 22 1007 88 5000 3.6 70 13:48 02.10.2019
938 Thunderstorm 22 1008 83 1200 7.2 230 13:29 02.10.2019
939 Thunderstorm 24 1006 69 1000 6.2 170 12:59 02.10.2019
940 Thunderstorm 24 1007 57 10000 8.2 150 12:39 02.10.2019
941 Thunderstorm 23 1007 57 10000 8.2 150 12:20 02.10.2019
942 Thunderstorm 24 1007 73 10000 6.2 190 11:45 02.10.2019
943 Thunderstorm 23 1007 73 10000 6.2 190 11:23 02.10.2019
944 Clouds 22 1007 73 10000 5.7 150 10:42 02.10.2019
945 Clear 22 1007 69 10000 3.6 130 10:20 02.10.2019
946 Clear 22 1007 69 10000 3.6 130 10:20 02.10.2019
947 Rain 21 1008 83 10000 3.6 150 09:59 02.10.2019
948 Rain 21 1008 88 10000 1 0 09:38 02.10.2019
949 Rain 20 1007 77 10000 3.1 140 09:20 02.10.2019
950 Rain 19 1007 77 10000 3.1 140 08:46 02.10.2019
951 Rain 18 1007 100 10000 0.5 0 08:25 02.10.2019
952 Rain 18 1008 82 10000 2.1 150 07:59 02.10.2019
953 Clouds 18 1008 82 10000 2.1 140 07:39 02.10.2019
954 Clouds 17 1008 82 10000 2.1 140 07:20 02.10.2019
955 Clear 18 1008 88 10000 2.1 150 06:40 02.10.2019
956 Clear 18 1008 88 10000 2.6 130 05:55 02.10.2019
957 Clear 18 1008 88 10000 2.1 130 05:24 02.10.2019
958 Clouds 18 1008 100 10000 2.1 80 04:53 02.10.2019
959 Clouds 18 1009 93 10000 1 0 03:52 02.10.2019
960 Clear 18 1010 88 10000 2.1 140 02:42 02.10.2019
961 Clear 18 1010 88 10000 2.1 140 02:23 02.10.2019
962 Clear 18 1010 88 10000 1.5 140 01:40 02.10.2019
963 Clear 18 1011 88 10000 1.5 140 00:50 02.10.2019
964 Clear 18 1011 88 10000 1.5 140 00:26 02.10.2019
965 Clear 18 1011 88 10000 1.5 140 23:43 01.10.2019
966 Clear 19 1011 88 10000 1.5 140 23:25 01.10.2019
967 Clear 19 1011 88 10000 1.5 150 22:59 01.10.2019
968 Clear 19 1011 88 10000 1.5 170 22:39 01.10.2019
969 Clear 19 1011 88 10000 1.5 170 22:19 01.10.2019
970 Clouds 19 1012 83 10000 2.1 180 21:56 01.10.2019
971 Clouds 20 1011 83 10000 1.5 170 21:37 01.10.2019
972 Clouds 20 1011 83 10000 1.5 170 21:19 01.10.2019
973 Clouds 20 1011 77 10000 1.5 180 20:55 01.10.2019
974 Clear 20 1011 73 10000 1 0 20:36 01.10.2019
975 Clear 20 1011 73 10000 1 0 20:18 01.10.2019
976 Clouds 21 1011 73 10000 2.1 200 19:45 01.10.2019
977 Clear 22 1011 69 10000 3.6 220 19:27 01.10.2019
978 Clouds 23 1011 64 10000 3.1 200 18:59 01.10.2019
979 Clouds 23 1011 57 10000 3.1 200 18:40 01.10.2019
980 Clouds 23 1011 57 10000 3.1 200 18:21 01.10.2019
981 Clouds 24 1012 57 10000 3.1 200 17:57 01.10.2019
982 Clouds 25 1011 54 10000 4.6 210 17:38 01.10.2019
983 Clouds 25 1011 54 10000 4.6 210 17:19 01.10.2019
984 Clouds 25 1012 53 10000 4.1 200 16:57 01.10.2019
985 Clouds 25 1012 54 10000 4.6 220 16:39 01.10.2019
986 Clouds 25 1012 54 10000 4.6 220 16:20 01.10.2019
987 Clouds 25 1012 54 10000 5.1 240 15:42 01.10.2019
988 Clouds 25 1012 54 10000 5.1 240 15:22 01.10.2019
989 Clouds 25 1013 57 10000 4.1 210 14:41 01.10.2019
990 Clouds 25 1013 57 10000 4.1 210 14:20 01.10.2019
991 Clouds 25 1013 57 10000 4.1 210 14:20 01.10.2019
992 Clouds 24 1013 61 10000 3.1 200 13:57 01.10.2019
993 Rain 24 1013 69 10000 4.1 230 13:39 01.10.2019
994 Rain 24 1013 69 10000 4.1 230 13:39 01.10.2019
995 Rain 24 1013 69 10000 4.1 230 13:39 01.10.2019
996 Rain 24 1013 69 10000 4.1 230 13:39 01.10.2019
997 Rain 24 1013 69 10000 4.1 230 13:20 01.10.2019
998 Rain 24 1013 69 10000 4.1 230 13:20 01.10.2019
999 Rain 24 1014 73 10000 3.1 210 12:57 01.10.2019
1000 Rain 24 1014 78 10000 1.5 0 12:39 01.10.2019
1001 Rain 24 1014 78 10000 1.5 0 12:39 01.10.2019
1002 Rain 24 1014 78 10000 1.5 0 12:18 01.10.2019
1003 Clouds 23 1014 69 10000 4.6 150 11:57 01.10.2019
1004 Clouds 23 1014 69 10000 4.6 160 11:37 01.10.2019
1005 Clouds 22 1014 69 10000 4.6 160 11:18 01.10.2019
1006 Rain 22 1014 73 10000 4.6 160 10:48 01.10.2019
1007 Rain 22 1014 73 10000 2.1 120 10:29 01.10.2019
1008 Clouds 21 1014 73 10000 4.1 150 09:47 01.10.2019
1009 Rain 20 1014 77 10000 2.6 120 09:27 01.10.2019
1010 Clouds 20 1013 83 10000 2.6 150 08:56 01.10.2019
1011 Clear 19 1014 93 10000 1 0 08:38 01.10.2019
1012 Clear 19 1014 93 10000 1 0 08:20 01.10.2019
1013 Clear 18 1013 82 10000 2.6 100 07:42 01.10.2019
1014 Clouds 18 1013 82 10000 0.5 0 07:22 01.10.2019
1015 Clear 18 1013 82 10000 1 0 06:45 01.10.2019
1016 Clear 19 1013 77 10000 3.1 140 06:18 01.10.2019
1017 Clouds 19 1014 77 10000 2.1 110 05:45 01.10.2019
1018 Clouds 19 1014 82 10000 1.5 100 04:49 01.10.2019
1019 Clouds 19 1014 77 10000 0.5 0 03:58 01.10.2019
1020 Clouds 19 1015 77 10000 2.1 100 02:24 01.10.2019
1021 Clouds 19 1015 82 10000 1 110 01:57 01.10.2019
1022 Clouds 19 1015 82 10000 2.1 100 00:53 01.10.2019
1023 Clouds 19 1015 82 10000 2.1 110 00:26 01.10.2019
1024 Clouds 19 1015 82 10000 2.1 110 23:55 30.09.2019
1025 Clouds 19 1015 82 10000 2.1 110 23:37 30.09.2019
1026 Clouds 19 1015 82 10000 2.1 110 23:18 30.09.2019
1027 Clear 19 1014 88 10000 2.1 110 22:42 30.09.2019
1028 Clear 19 1014 88 10000 2.1 110 22:23 30.09.2019
1029 Clear 19 1014 88 10000 2.1 130 21:56 30.09.2019
1030 Clear 19 1014 88 10000 2.1 130 21:56 30.09.2019
1031 Clear 19 1014 82 10000 1 120 21:37 30.09.2019
1032 Clear 20 1014 82 10000 1 120 21:19 30.09.2019
1033 Clear 20 1014 82 10000 2.1 120 20:55 30.09.2019
1034 Clear 20 1014 82 10000 2.1 120 20:55 30.09.2019
1035 Clouds 21 1013 78 10000 0.5 0 20:37 30.09.2019
1036 Clouds 21 1013 78 10000 0.5 0 20:19 30.09.2019
1037 Clear 21 1014 73 10000 1 220 19:56 30.09.2019
1038 Clear 21 1014 73 10000 1 220 19:56 30.09.2019
1039 Clouds 22 1013 69 10000 1.5 0 19:37 30.09.2019
1040 Clouds 22 1013 69 10000 1.5 0 19:18 30.09.2019
1041 Clouds 23 1014 65 10000 3.1 250 18:42 30.09.2019
1042 Clouds 24 1014 65 10000 3.1 250 18:22 30.09.2019
1043 Clouds 24 1014 64 10000 2.1 240 17:59 30.09.2019
1044 Clouds 24 1014 65 10000 4.6 240 17:39 30.09.2019
1045 Clouds 24 1014 65 10000 4.6 240 17:21 30.09.2019
1046 Clouds 25 1014 61 10000 3.1 230 16:56 30.09.2019
1047 Clouds 24 1014 61 10000 4.1 240 16:37 30.09.2019
1048 Clouds 24 1014 61 10000 4.1 240 16:18 30.09.2019
1049 Clouds 25 1015 57 10000 3.1 230 15:55 30.09.2019
1050 -273 0 0 0 0 0 15:55 30.09.2019
1051 Clear 25 1015 61 10000 3.1 220 15:36 30.09.2019
1052 -273 0 0 0 0 0 15:18 30.09.2019
1053 Clouds 24 1015 64 10000 3.1 250 14:55 30.09.2019
1054 Clouds 24 1015 61 10000 5.1 220 14:36 30.09.2019
1055 Clouds 24 1015 61 10000 5.1 220 14:18 30.09.2019
1056 Clouds 24 1016 64 10000 2.6 230 13:44 30.09.2019
1057 Clouds 24 1015 65 10000 4.1 210 13:22 30.09.2019
1058 Clouds 24 1016 69 10000 2.1 240 12:58 30.09.2019
1059 Clouds 24 1016 69 10000 2.1 240 12:58 30.09.2019
1060 Clouds 24 1016 69 10000 1 0 12:40 30.09.2019
1061 Clouds 23 1016 69 10000 1 0 12:20 30.09.2019
1062 Clouds 22 1016 69 10000 1.5 210 11:43 30.09.2019
1063 Clouds 22 1016 73 10000 1 0 11:22 30.09.2019
1064 Mist 21 1015 73 10000 2.1 160 10:59 30.09.2019
1065 Mist 21 1016 73 10000 1 0 10:39 30.09.2019
1066 Mist 21 1016 73 10000 1 0 10:19 30.09.2019
1067 Mist 21 1016 73 10000 1 0 10:19 30.09.2019
1068 Mist 20 1015 73 10000 1 0 09:58 30.09.2019
1069 Clouds 20 1015 88 10000 1.5 0 09:39 30.09.2019
1070 Clouds 20 1015 88 10000 1.5 0 09:39 30.09.2019
1071 Mist 19 1015 88 10000 1.5 0 09:19 30.09.2019
1072 Fog 18 1015 82 10000 0.5 0 08:46 30.09.2019
1073 Mist 17 1015 93 10000 3.14 116.377 08:28 30.09.2019
1074 Fog 17 1015 82 10000 2.6 100 07:44 30.09.2019
1075 Fog 17 1015 82 10000 2.6 90 07:26 30.09.2019
1076 Clouds 17 1015 82 10000 2.6 90 06:50 30.09.2019
1077 Clouds 17 1015 82 10000 2.6 90 06:50 30.09.2019
1078 Clouds 17 1015 82 10000 3.1 90 06:32 30.09.2019
1079 Clouds 16 1015 82 10000 2.6 70 05:46 30.09.2019
1080 Clear 16 1016 93 10000 1.5 120 03:33 30.09.2019
1081 Clear 17 1016 93 10000 2.1 120 02:46 30.09.2019
1082 Clear 17 1017 88 10000 1.5 120 01:34 30.09.2019
1083 Clear 17 1017 88 10000 1.5 110 00:42 30.09.2019
1084 Clear 17 1017 88 10000 1.5 110 00:21 30.09.2019
1085 Clear 17 1017 88 10000 1.5 100 23:46 29.09.2019
1086 Clear 17 1017 82 10000 1.5 130 23:23 29.09.2019
1087 Clear 17 1017 82 10000 1.5 130 22:55 29.09.2019
1088 Clear 17 1017 82 10000 1.5 130 22:55 29.09.2019
1089 Clear 18 1017 88 10000 1.5 130 22:37 29.09.2019
1090 Clear 18 1017 88 10000 1.5 130 22:37 29.09.2019
1091 Clear 18 1017 88 10000 1.5 130 22:19 29.09.2019
1092 Clear 18 1017 82 10000 1.5 130 21:57 29.09.2019
1093 Clear 19 1017 77 10000 1.5 180 21:37 29.09.2019
1094 Clear 19 1017 77 10000 1.5 180 21:19 29.09.2019
1095 Clear 19 1016 73 10000 1.5 0 20:44 29.09.2019
1096 Clear 20 1016 73 10000 1.5 0 20:20 29.09.2019
1097 Clear 20 1016 73 10000 2.1 210 19:59 29.09.2019
1098 Clear 20 1016 64 10000 3.1 240 19:37 29.09.2019
1099 Clear 21 1016 64 10000 3.1 240 19:19 29.09.2019
1100 Clear 22 1016 56 10000 3.1 200 18:56 29.09.2019
1101 Clear 22 1016 56 10000 3.1 200 18:56 29.09.2019
1102 Clear 23 1016 53 10000 3.1 220 18:38 29.09.2019
1103 Clear 24 1016 53 10000 3.1 220 18:19 29.09.2019
1104 Clear 24 1016 57 10000 3.6 210 17:58 29.09.2019
1105 Clear 24 1016 50 10000 3.6 220 17:38 29.09.2019
1106 Clear 24 1016 50 10000 3.6 220 17:19 29.09.2019
1107 Clouds 25 1017 53 10000 4.1 240 16:58 29.09.2019
1108 Clear 25 1016 50 10000 6.2 240 16:40 29.09.2019
1109 Clear 25 1016 50 10000 6.2 240 16:19 29.09.2019
1110 Clouds 25 1017 65 10000 3.6 210 15:57 29.09.2019
1111 Clouds 25 1017 57 10000 4.1 240 15:36 29.09.2019
1112 Clouds 25 1017 57 10000 4.1 240 15:18 29.09.2019
1113 Clouds 25 1017 57 10000 4.1 210 14:55 29.09.2019
1114 Clouds 25 1017 57 10000 5.7 210 14:36 29.09.2019
1115 Clouds 25 1017 57 10000 5.7 210 14:18 29.09.2019
1116 Clouds 25 1018 57 10000 4.6 180 13:42 29.09.2019
1117 Clouds 25 1018 61 10000 3.6 200 13:19 29.09.2019
1118 Clouds 24 1018 61 10000 3.6 180 12:58 29.09.2019
1119 Clouds 25 1018 65 10000 1 0 12:40 29.09.2019
1120 Clouds 24 1018 65 10000 1 0 12:21 29.09.2019
1121 Clouds 24 1018 61 10000 2.1 200 11:57 29.09.2019
1122 Clear 24 1018 69 10000 1.5 0 11:39 29.09.2019
1123 Clear 24 1018 69 10000 1.5 0 11:19 29.09.2019
1124 Mist 23 1018 64 10000 1.5 180 10:57 29.09.2019
1125 Clear 23 1018 78 10000 1.5 0 10:37 29.09.2019
1126 Fog 22 1018 78 10000 1.5 0 10:18 29.09.2019
1127 Fog 22 1018 78 10000 1.5 0 10:18 29.09.2019
1128 Fog 22 1018 69 10000 1 0 09:47 29.09.2019
1129 Clouds 21 1018 88 10000 1 0 09:21 29.09.2019
1130 Clouds 20 1018 82 10000 1 0 08:59 29.09.2019
1131 Clouds 19 1018 100 10000 1 0 08:41 29.09.2019
1132 Fog 18 1018 100 10000 1 0 08:20 29.09.2019
1133 Fog 17 1018 88 10000 2.1 130 07:43 29.09.2019
1134 Fog 18 1018 82 10000 2.1 120 07:43 29.09.2019
1135 Fog 17 1018 88 10000 2.1 130 07:25 29.09.2019
1136 Clouds 18 1017 82 10000 2.1 100 06:45 29.09.2019
1137 Clouds 18 1018 88 10000 2.1 90 05:27 29.09.2019
1138 Clouds 18 1018 88 10000 1 90 04:40 29.09.2019
1139 Clouds 18 1018 88 10000 1 90 04:22 29.09.2019
1140 Clouds 18 1019 88 10000 2.1 100 02:47 29.09.2019
1141 Clouds 19 1019 88 10000 1.5 90 02:18 29.09.2019
1142 Clouds 19 1019 88 10000 2.1 120 01:32 29.09.2019
1143 Clouds 19 1019 93 10000 2.6 120 00:52 29.09.2019
1144 Clouds 20 1019 88 10000 2.1 110 00:21 29.09.2019
1145 Clouds 20 1019 88 10000 2.1 110 00:21 29.09.2019
1146 Clouds 20 1019 88 10000 2.1 120 23:44 28.09.2019
1147 Clouds 20 1019 88 10000 2.1 120 23:23 28.09.2019
1148 Clouds 20 1019 88 10000 1 0 22:59 28.09.2019
1149 Clouds 20 1019 83 10000 1.5 180 22:38 28.09.2019
1150 Clouds 20 1019 83 10000 1.5 180 22:20 28.09.2019
1151 Clouds 21 1019 88 10000 2.1 170 21:56 28.09.2019
1152 Clouds 21 1019 88 10000 1.5 190 21:38 28.09.2019
1153 Clouds 21 1019 88 10000 1.5 190 21:20 28.09.2019
1154 Clouds 21 1019 88 10000 2.1 200 20:57 28.09.2019
1155 Clear 21 1018 83 10000 1.5 0 20:38 28.09.2019
1156 Clear 21 1018 83 10000 1.5 0 20:18 28.09.2019
1157 Clouds 21 1018 83 10000 2.6 190 19:55 28.09.2019
1158 Clear 22 1018 78 10000 3.1 250 19:36 28.09.2019
1159 Clear 22 1018 78 10000 3.1 250 19:18 28.09.2019
1160 Clouds 23 1018 78 10000 3.6 240 18:42 28.09.2019
1161 Clouds 23 1018 78 10000 3.6 240 18:22 28.09.2019
1162 Clouds 24 1018 69 10000 3.1 220 17:59 28.09.2019
1163 Clouds 24 1018 73 10000 3.6 240 17:40 28.09.2019
1164 Clouds 24 1018 73 10000 3.6 240 17:21 28.09.2019
1165 Clouds 24 1018 65 10000 2.6 210 16:55 28.09.2019
1166 Rain 24 1018 65 10000 3.1 230 16:37 28.09.2019
1167 Rain 24 1018 65 10000 3.1 230 16:18 28.09.2019
1168 Clouds 24 1018 65 10000 2.6 240 15:40 28.09.2019
1169 Clouds 25 1018 65 10000 2.6 240 15:21 28.09.2019
1170 Clouds 25 1019 61 10000 3.6 190 14:55 28.09.2019
1171 Clouds 25 1019 61 10000 3.6 190 14:55 28.09.2019
1172 Clouds 25 1019 65 10000 1 0 14:37 28.09.2019
1173 Clouds 25 1019 65 10000 1 0 14:37 28.09.2019
1174 Clouds 25 1019 65 10000 1 0 14:18 28.09.2019
1175 Clouds 25 1019 61 10000 2.6 180 13:43 28.09.2019
1176 Clouds 24 1020 61 10000 1 0 13:20 28.09.2019
1177 Clouds 24 1020 61 10000 1 0 13:20 28.09.2019
1178 Clouds 25 1020 60 10000 2.1 250 12:57 28.09.2019
1179 Clouds 25 1020 57 10000 0.5 0 12:39 28.09.2019
1180 Clouds 24 1020 57 10000 0.5 0 12:18 28.09.2019
1181 Clouds 24 1020 69 10000 3.1 80 11:41 28.09.2019
1182 Clouds 24 1020 69 10000 3.1 80 11:20 28.09.2019
1183 Clouds 23 1020 60 10000 1.5 40 10:56 28.09.2019
1184 Clear 23 1020 82 10000 1.5 0 10:38 28.09.2019
1185 Clear 22 1020 82 10000 1.5 0 10:18 28.09.2019
1186 Clouds 21 1019 60 10000 1.5 100 09:41 28.09.2019
1187 Clouds 20 1019 88 10000 1.5 0 09:22 28.09.2019
1188 Clouds 19 1019 72 10000 3.6 100 08:48 28.09.2019
1189 Clouds 18 1019 100 10000 1 0 08:29 28.09.2019
1190 Clear 17 1019 77 10000 2.1 90 07:59 28.09.2019
1191 Clear 16 1019 77 10000 2.6 90 07:41 28.09.2019
1192 Clear 16 1019 77 10000 2.6 90 07:19 28.09.2019
1193 Clouds 16 1019 82 10000 2.1 100 06:41 28.09.2019
1194 Clear 16 1019 82 10000 2.6 90 06:21 28.09.2019
1195 Clouds 16 1018 82 10000 2.1 100 05:37 28.09.2019
1196 Clouds 17 1018 82 10000 2.1 100 05:18 28.09.2019
1197 Clear 17 1018 88 10000 2.1 100 04:31 28.09.2019
1198 Clear 17 1019 77 10000 2.1 110 03:42 28.09.2019
1199 Clear 17 1019 77 10000 2.1 120 03:18 28.09.2019
1200 Clear 17 1019 77 10000 2.1 130 02:41 28.09.2019
1201 Clear 18 1019 82 10000 2.1 130 02:23 28.09.2019
1202 Clear 18 1019 88 10000 2.1 140 01:43 28.09.2019
1203 Clear 18 1019 77 10000 2.1 110 01:23 28.09.2019
1204 Clear 18 1019 72 10000 2.1 100 00:48 28.09.2019
1205 Clear 18 1019 72 10000 2.1 100 00:29 28.09.2019
1206 Clear 19 1019 77 10000 2.1 90 23:39 27.09.2019
1207 Clear 19 1019 77 10000 2.1 90 23:21 27.09.2019
1208 Clear 19 1019 72 10000 1.5 100 22:57 27.09.2019
1209 Clear 19 1019 82 10000 1.5 120 22:38 27.09.2019
1210 Clear 19 1019 82 10000 1.5 120 22:18 27.09.2019
1211 Clear 19 1019 77 10000 1 100 21:54 27.09.2019
1212 Clear 20 1018 77 10000 1.5 130 21:36 27.09.2019
1213 Clear 20 1018 77 10000 1.5 130 21:18 27.09.2019
1214 Clear 20 1018 77 10000 1.5 130 21:18 27.09.2019
1215 Clear 21 1018 68 10000 1 160 20:41 27.09.2019
1216 Clear 21 1018 73 10000 1 0 20:20 27.09.2019
1217 Clear 22 1018 64 10000 2.1 190 19:59 27.09.2019
1218 Clear 22 1017 60 10000 3.1 250 19:39 27.09.2019
1219 Clear 23 1017 60 10000 3.1 250 19:21 27.09.2019
1220 Clear 24 1018 53 10000 2.1 230 18:43 27.09.2019
1221 Clear 25 1017 50 10000 3.1 250 18:25 27.09.2019
1222 Clear 25 1017 50 10000 2.6 240 17:58 27.09.2019
1223 Clear 25 1017 51 10000 3.6 260 17:40 27.09.2019
1224 Clear 25 1017 51 10000 3.6 260 17:40 27.09.2019
1225 Clear 25 1017 51 10000 3.6 260 17:40 27.09.2019
1226 Clear 26 1017 51 10000 3.6 260 17:20 27.09.2019
1227 Clouds 26 1017 54 10000 3.1 210 16:59 27.09.2019
1228 Clouds 26 1017 54 10000 3.1 210 16:41 27.09.2019
1229 Clear 26 1017 48 10000 3.6 240 16:19 27.09.2019
1230 Clouds 26 1017 54 10000 2.6 220 15:55 27.09.2019
1231 Clouds 26 1017 47 10000 1.5 0 15:37 27.09.2019
1232 Clouds 26 1017 47 10000 1.5 0 15:19 27.09.2019
1233 Clouds 27 1017 47 10000 1 0 14:42 27.09.2019
1234 Clear 27 1018 44 10000 2.56 213.255 14:23 27.09.2019
1235 Clouds 26 1018 44 10000 1.5 170 14:00 27.09.2019
1236 Clouds 26 1018 50 10000 0.5 0 13:41 27.09.2019
1237 Clouds 26 1018 50 10000 0.5 0 13:21 27.09.2019
1238 Clear 26 1018 47 10000 1 0 12:57 27.09.2019
1239 Clear 26 1018 60 10000 1.5 0 12:38 27.09.2019
1240 Clear 25 1018 60 10000 1.5 0 12:19 27.09.2019
1241 Clear 24 1018 68 10000 2.1 350 11:39 27.09.2019
1242 Clear 24 1018 68 10000 2.1 350 11:21 27.09.2019
1243 Clear 23 1018 68 10000 1 0 10:57 27.09.2019
1244 Clear 23 1018 77 10000 2.1 340 10:38 27.09.2019
1245 Clear 23 1018 77 10000 2.1 340 10:38 27.09.2019
1246 Clear 22 1018 77 10000 2.1 340 10:20 27.09.2019
1247 Clear 21 1018 77 10000 1.5 320 09:42 27.09.2019
1248 Clear 20 1018 93 10000 2.1 360 09:21 27.09.2019
1249 Clear 19 1018 88 10000 1 0 08:57 27.09.2019
1250 Clear 18 1018 100 10000 1.48 56.191 08:37 27.09.2019
1251 Clear 17 1018 100 10000 1.48 56.191 08:19 27.09.2019
1252 Clear 17 1018 100 10000 1.48 56.191 08:19 27.09.2019
1253 Clear 17 1017 77 10000 1.5 110 07:45 27.09.2019
1254 Clear 17 1017 82 10000 2.1 110 07:22 27.09.2019
1255 Clear 17 1017 87 10000 1.5 60 06:42 27.09.2019
1256 Clear 17 1017 87 10000 1.5 60 06:23 27.09.2019
1257 Clear 17 1017 82 10000 1.5 40 05:49 27.09.2019
1258 Clear 17 1017 82 10000 1 0 05:31 27.09.2019
1259 Clear 17 1017 82 10000 1.5 100 03:55 27.09.2019
1260 Clear 18 1017 82 10000 1.5 100 02:41 27.09.2019
1261 Clear 18 1017 82 10000 2.1 120 01:44 27.09.2019
1262 Clear 18 1017 88 10000 2.6 120 00:59 27.09.2019
1263 Clear 18 1017 82 10000 2.1 120 00:20 27.09.2019
1264 Clear 19 1017 82 10000 1.5 150 23:56 26.09.2019
1265 Clear 19 1017 88 10000 2.1 150 23:37 26.09.2019
1266 Clear 19 1017 88 10000 2.1 150 23:18 26.09.2019
1267 Clear 19 1017 82 10000 1 180 22:55 26.09.2019
1268 Clear 20 1016 77 10000 1.5 200 22:37 26.09.2019
1269 Clear 20 1016 77 10000 1.5 200 22:18 26.09.2019
1270 Clear 20 1016 77 10000 1.5 200 22:18 26.09.2019
1271 Clear 20 1016 83 10000 2.1 170 21:55 26.09.2019
1272 Clear 20 1016 88 10000 2.6 140 21:36 26.09.2019
1273 Clear 21 1016 88 10000 2.6 140 21:18 26.09.2019
1274 Clear 21 1016 88 10000 2.6 140 21:18 26.09.2019
1275 Clear 21 1016 88 10000 2.6 140 21:18 26.09.2019
1276 Clear 21 1016 83 10000 1.5 190 20:55 26.09.2019
1277 Clear 21 1015 73 10000 1.5 0 20:37 26.09.2019
1278 Clear 21 1015 73 10000 1.5 0 20:19 26.09.2019
1279 Clear 22 1014 69 10000 3.6 240 19:40 26.09.2019
1280 Clear 23 1014 69 10000 3.6 240 19:18 26.09.2019
1281 Clouds 24 1015 64 10000 2.1 220 18:58 26.09.2019
1282 Clear 24 1014 54 10000 3.6 230 18:39 26.09.2019
1283 Clear 25 1014 54 10000 3.6 230 18:21 26.09.2019
1284 Clear 25 1014 34 10000 2.6 310 17:39 26.09.2019
1285 Clear 25 1014 34 10000 2.6 310 17:19 26.09.2019
1286 Clear 25 1014 34 10000 2.6 310 17:19 26.09.2019
1287 Clouds 25 1014 57 10000 2.6 220 16:59 26.09.2019
1288 Clouds 25 1014 34 10000 2.6 320 16:39 26.09.2019
1289 Clouds 26 1014 34 10000 2.6 320 16:20 26.09.2019
1290 Clouds 26 1014 34 10000 2.6 320 16:20 26.09.2019
1291 Clouds 26 1014 44 10000 2.1 20 15:57 26.09.2019
1292 Clouds 26 1014 44 10000 2.1 280 15:37 26.09.2019
1293 Clouds 26 1014 44 10000 2.1 280 15:18 26.09.2019
1294 Clouds 26 1014 50 10000 1.5 320 14:55 26.09.2019
1295 Clouds 26 1014 50 10000 1.5 320 14:55 26.09.2019
1296 Clouds 26 1014 50 10000 1.5 320 14:55 26.09.2019
1297 Clouds 26 1014 50 10000 1.5 320 14:55 26.09.2019
1298 Clouds 26 1014 50 10000 1.5 320 14:55 26.09.2019
1299 Clouds 25 1014 50 10000 1.5 0 14:37 26.09.2019
1300 Clouds 25 1014 50 10000 1.5 0 14:37 26.09.2019
1301 Clouds 25 1014 50 10000 1.5 0 14:18 26.09.2019
1302 Clouds 25 1014 53 10000 1.68 204.782 13:41 26.09.2019
1303 Clouds 25 1014 53 10000 3.71 173.225 13:20 26.09.2019
1304 Clouds 25 1014 53 10000 3.71 173.225 13:20 26.09.2019
1305 Clouds 25 1014 57 10000 0.5 0 12:57 26.09.2019
1306 Clouds 25 1014 57 10000 1.5 0 12:39 26.09.2019
1307 Clouds 24 1014 57 10000 1.5 0 12:20 26.09.2019
1308 Clouds 24 1014 64 10000 1 0 11:42 26.09.2019
1309 Clouds 23 1014 64 10000 1 0 11:21 26.09.2019
1310 Clouds 23 1014 73 10000 2.6 50 10:56 26.09.2019
1311 Clouds 23 1014 73 10000 2.6 50 10:56 26.09.2019
1312 Clouds 23 1014 73 10000 2.6 50 10:56 26.09.2019
1313 Clear 23 1014 73 10000 2.1 30 10:38 26.09.2019
1314 Clear 23 1014 73 10000 2.1 30 10:38 26.09.2019
1315 Clear 22 1014 73 10000 2.1 30 10:19 26.09.2019
1316 Clear 21 1013 82 10000 2.1 20 09:44 26.09.2019
1317 Clear 21 1013 82 10000 2.1 20 09:25 26.09.2019
1318 Clear 21 1013 82 10000 2.1 20 09:25 26.09.2019
1319 Clear 19 1013 82 10000 1 0 08:57 26.09.2019
1320 Clear 19 1013 93 10000 1 0 08:39 26.09.2019
1321 Clear 19 1013 93 10000 1 0 08:21 26.09.2019
1322 Clouds 18 1012 88 10000 2.1 130 07:42 26.09.2019
1323 Clear 18 1012 88 10000 1.5 140 07:21 26.09.2019
1324 Clear 18 1012 82 10000 1.5 170 06:43 26.09.2019
1325 Clear 18 1012 82 10000 1.5 170 06:25 26.09.2019
1326 Clear 18 1012 82 10000 2.1 180 05:44 26.09.2019
1327 Clear 19 1012 82 10000 2.1 170 05:24 26.09.2019
1328 Clear 20 1011 78 10000 4.6 250 02:51 26.09.2019
1329 Clear 20 1012 73 10000 2.1 170 01:53 26.09.2019
1330 Clear 20 1012 73 10000 2.1 170 01:53 26.09.2019
1331 Clear 21 1012 73 10000 3.1 180 01:28 26.09.2019
1332 Clear 21 1012 73 10000 2.6 180 00:55 26.09.2019
1333 Clear 21 1012 78 10000 3.1 180 00:37 26.09.2019
1334 Clear 21 1012 83 10000 3.6 180 23:57 25.09.2019
1335 Clouds 21 1012 83 10000 3.1 170 23:38 25.09.2019
1336 Clouds 21 1012 83 10000 3.1 170 23:18 25.09.2019
1337 Clouds 21 1012 83 10000 2.6 180 22:41 25.09.2019
1338 Clouds 21 1012 83 10000 2.6 180 22:20 25.09.2019
1339 Clouds 22 1012 83 10000 2.1 170 21:57 25.09.2019
1340 Clouds 22 1012 83 10000 2.1 170 21:39 25.09.2019
1341 Clouds 21 1012 83 10000 2.1 170 21:19 25.09.2019
1342 Clouds 21 1012 83 10000 2.1 180 20:58 25.09.2019
1343 Clouds 22 1011 78 10000 3.1 210 20:40 25.09.2019
1344 Clouds 22 1011 78 10000 3.1 210 20:21 25.09.2019
1345 Clouds 22 1012 78 10000 2.6 190 19:54 25.09.2019
1346 Clouds 22 1011 78 10000 3.1 210 19:36 25.09.2019
1347 Clouds 22 1011 78 10000 3.1 210 19:18 25.09.2019
1348 Clouds 23 1012 73 10000 2.6 200 18:55 25.09.2019
1349 Clouds 23 1011 69 10000 4.6 240 18:37 25.09.2019
1350 Clouds 23 1011 69 10000 4.6 240 18:18 25.09.2019
1351 Clouds 24 1012 69 10000 4.1 250 17:38 25.09.2019
1352 Clouds 24 1012 69 10000 4.1 250 17:19 25.09.2019
1353 Clouds 24 1012 61 10000 4.1 240 16:55 25.09.2019
1354 Clouds 24 1012 65 10000 3.6 250 16:36 25.09.2019
1355 Clouds 24 1012 65 10000 3.6 250 16:18 25.09.2019
1356 Clouds 24 1012 69 10000 2.6 210 15:41 25.09.2019
1357 Clouds 24 1012 69 10000 2.6 210 15:41 25.09.2019
1358 Clouds 24 1012 61 10000 3.1 210 15:23 25.09.2019
1359 Clear 24 1012 47 10000 3.6 230 14:57 25.09.2019
1360 Clouds 24 1012 54 10000 2.6 240 14:39 25.09.2019
1361 Clouds 24 1012 54 10000 2.6 240 14:21 25.09.2019
1362 Clouds 25 1013 61 10000 2.6 210 13:41 25.09.2019
1363 Clouds 25 1013 61 10000 2.6 210 13:23 25.09.2019
1364 Clear 25 1013 53 10000 2.6 210 12:59 25.09.2019
1365 Clouds 24 1013 57 10000 1.5 0 12:39 25.09.2019
1366 Clouds 24 1013 57 10000 1.5 0 12:21 25.09.2019
1367 Clear 23 1013 57 10000 2.1 200 11:55 25.09.2019
1368 Clear 23 1013 57 10000 2.1 200 11:55 25.09.2019
1369 Clear 23 1013 64 10000 1.5 0 11:36 25.09.2019
1370 Clear 23 1013 64 10000 1.5 0 11:18 25.09.2019
1371 Clear 22 1013 60 10000 1.5 210 10:43 25.09.2019
1372 Clear 21 1013 88 10000 1.5 0 10:24 25.09.2019
1373 Clear 20 1013 72 10000 1 0 09:56 25.09.2019
1374 Clouds 20 1013 93 10000 1.5 0 09:37 25.09.2019
1375 Clouds 19 1013 93 10000 1.5 0 09:19 25.09.2019
1376 Clear 18 1012 82 10000 0.5 0 08:42 25.09.2019
1377 Clear 17 1012 93 10000 1.5 0 08:21 25.09.2019
1378 Clear 17 1012 93 10000 1.5 0 08:21 25.09.2019
1379 Clear 16 1012 87 10000 1 0 07:57 25.09.2019
1380 Clear 16 1012 87 10000 1.5 30 07:38 25.09.2019
1381 Clear 16 1012 87 10000 2.1 40 07:20 25.09.2019
1382 Clear 16 1012 87 10000 0.5 0 06:43 25.09.2019
1383 Clear 16 1012 87 10000 0.5 0 06:22 25.09.2019
1384 Clear 16 1012 87 10000 1 0 05:28 25.09.2019
1385 Clear 16 1012 87 10000 1.5 110 04:50 25.09.2019
1386 Clear 17 1013 88 10000 1.5 90 02:19 25.09.2019
1387 Clear 17 1013 88 10000 2.1 100 00:45 25.09.2019
1388 Clear 18 1013 88 10000 2.1 120 00:25 25.09.2019
1389 Clear 18 1013 88 10000 2.1 110 23:57 24.09.2019
1390 Clear 18 1014 88 10000 1.5 120 23:38 24.09.2019
1391 Clear 18 1014 88 10000 1.5 120 23:19 24.09.2019
1392 Clear 18 1013 82 10000 0.5 0 22:39 24.09.2019
1393 Clear 18 1013 82 10000 0.5 0 22:39 24.09.2019
1394 Clear 19 1013 82 10000 0.5 0 22:20 24.09.2019
1395 Clear 19 1013 82 10000 1.5 170 21:56 24.09.2019
1396 Clear 19 1013 82 10000 1.5 280 21:37 24.09.2019
1397 Clear 19 1013 82 10000 1.5 280 21:19 24.09.2019
1398 Clear 19 1013 82 10000 1.5 280 21:19 24.09.2019
1399 Clear 20 1013 73 10000 2.1 290 20:58 24.09.2019
1400 Clear 20 1012 77 10000 2.6 270 20:39 24.09.2019
1401 Clear 20 1012 77 10000 2.6 270 20:21 24.09.2019
1402 Clear 21 1012 73 10000 3.6 290 19:55 24.09.2019
1403 Clouds 21 1012 73 10000 4.1 270 19:36 24.09.2019
1404 Clouds 21 1012 73 10000 4.1 270 19:18 24.09.2019
1405 Clouds 21 1012 73 10000 4.1 270 19:18 24.09.2019
1406 Clouds 22 1012 57 10000 2.6 350 18:42 24.09.2019
1407 Clouds 23 1012 57 10000 2.6 350 18:22 24.09.2019
1408 Clouds 23 1012 57 10000 2.6 350 18:22 24.09.2019
1409 Clouds 23 1012 53 10000 4.6 280 17:59 24.09.2019
1410 Clouds 24 1012 53 10000 2.1 360 17:39 24.09.2019
1411 Clouds 23 1012 53 10000 2.1 360 17:21 24.09.2019
1412 Clouds 23 1012 50 10000 3.6 310 16:59 24.09.2019
1413 Clouds 24 1012 50 10000 3.6 310 16:59 24.09.2019
1414 Clouds 23 1012 50 10000 2.1 320 16:40 24.09.2019
1415 Clouds 24 1012 50 10000 2.1 320 16:19 24.09.2019
1416 Clouds 24 1012 50 10000 2.1 320 16:19 24.09.2019
1417 Clouds 24 1012 53 10000 3.1 10 15:43 24.09.2019
1418 Clouds 24 1012 53 10000 3.1 10 15:23 24.09.2019
1419 Clouds 24 1013 47 10000 4.1 320 14:58 24.09.2019
1420 Clouds 24 1013 47 10000 4.1 320 14:58 24.09.2019
1421 Clouds 23 1013 57 10000 3.1 290 14:37 24.09.2019
1422 Clouds 24 1013 57 10000 3.1 290 14:18 24.09.2019
1423 Clouds 23 1013 57 10000 2.1 280 13:40 24.09.2019
1424 Clouds 23 1013 57 10000 2.1 280 13:21 24.09.2019
1425 Clouds 23 1014 68 10000 2.1 40 12:42 24.09.2019
1426 Clouds 22 1014 68 10000 2.1 40 12:21 24.09.2019
1427 Clouds 22 1014 68 10000 2.1 40 12:21 24.09.2019
1428 Clouds 21 1014 72 10000 4.1 350 11:57 24.09.2019
1429 Clear 21 1014 77 10000 3.25 330.122 11:39 24.09.2019
1430 Clear 21 1014 77 10000 3.25 330.122 11:19 24.09.2019
1431 Clear 20 1014 88 10000 1.5 0 10:40 24.09.2019
1432 Clear 20 1014 88 10000 1.5 0 10:21 24.09.2019
1433 Clear 18 1013 82 10000 2.1 40 09:57 24.09.2019
1434 Clear 18 1013 93 10000 0.5 0 09:39 24.09.2019
1435 Clear 17 1013 93 10000 0.5 0 09:19 24.09.2019
1436 Clouds 16 1013 93 10000 1.5 10 08:55 24.09.2019
1437 Clouds 16 1013 93 10000 1.5 10 08:55 24.09.2019
1438 Clouds 16 1013 93 10000 1.5 10 08:55 24.09.2019
1439 Clouds 16 1013 93 10000 1.5 10 08:55 24.09.2019
1440 Clouds 16 1013 93 10000 1.5 10 08:55 24.09.2019
1441 Clear 16 1013 100 10000 1.5 0 08:36 24.09.2019
1442 Clear 16 1013 100 10000 1.5 0 08:18 24.09.2019
1443 Clear 15 1013 100 10000 1.5 0 08:18 24.09.2019
1444 Mist 15 1012 93 4000 2.1 10 07:41 24.09.2019
1445 Mist 15 1012 93 4000 2.1 10 07:23 24.09.2019
1446 Fog 15 1012 93 10000 3.1 360 06:46 24.09.2019
1447 Clouds 15 1012 93 10000 1.5 30 06:27 24.09.2019
1448 Clear 15 1012 93 10000 2.6 350 05:25 24.09.2019
1449 Clear 16 1012 88 10000 2.1 80 04:19 24.09.2019
1450 Clear 16 1012 88 10000 2.1 10 03:34 24.09.2019
1451 Clear 17 1012 88 10000 1.5 40 02:45 24.09.2019
1452 Clouds 17 1012 93 10000 1.5 300 01:43 24.09.2019
1453 Clouds 18 1012 93 10000 1 0 00:42 24.09.2019
1454 Clouds 18 1012 93 10000 1 0 00:23 24.09.2019
1455 Clouds 19 1012 93 10000 2.6 120 23:43 23.09.2019
1456 Clouds 19 1012 93 10000 2.6 120 23:23 23.09.2019
1457 Clouds 20 1012 88 10000 1.5 130 22:57 23.09.2019
1458 Clouds 20 1012 83 10000 1.5 150 22:37 23.09.2019
1459 Clouds 20 1012 83 10000 1.5 150 22:37 23.09.2019
1460 Clouds 20 1012 83 10000 1.5 150 22:19 23.09.2019
1461 Clouds 20 1012 83 10000 1 170 21:56 23.09.2019
1462 Clouds 20 1012 78 10000 1.5 170 21:37 23.09.2019
1463 Clouds 21 1012 78 10000 1.5 170 21:18 23.09.2019
1464 Clouds 22 1011 83 10000 1.5 0 20:40 23.09.2019
1465 Clouds 22 1011 83 10000 1.5 0 20:19 23.09.2019
1466 Rain 22 1012 83 10000 2.6 220 19:55 23.09.2019
1467 Rain 22 1011 78 10000 3.6 230 19:37 23.09.2019
1468 Rain 22 1011 78 10000 3.6 230 19:19 23.09.2019
1469 Rain 23 1011 73 10000 5.7 240 18:42 23.09.2019
1470 Rain 23 1011 73 10000 5.7 240 18:20 23.09.2019
1471 Clouds 23 1012 73 10000 3.6 220 17:59 23.09.2019
1472 Clouds 23 1011 73 10000 5.7 250 17:39 23.09.2019
1473 Clouds 23 1011 73 10000 5.7 250 17:39 23.09.2019
1474 Clouds 23 1011 73 10000 5.7 250 17:20 23.09.2019
1475 Rain 24 1012 73 10000 4.1 230 16:57 23.09.2019
1476 Rain 24 1011 73 10000 5.7 230 16:37 23.09.2019
1477 Rain 24 1011 73 10000 5.7 230 16:18 23.09.2019
1478 Clouds 24 1012 73 10000 4.1 220 15:56 23.09.2019
1479 Thunderstorm 25 1011 69 10000 7.7 220 15:38 23.09.2019
1480 Thunderstorm 25 1011 69 10000 7.7 220 15:18 23.09.2019
1481 Clouds 25 1012 69 9000 4.6 200 14:40 23.09.2019
1482 Clouds 25 1012 69 9000 4.6 200 14:21 23.09.2019
1483 Clouds 25 1013 73 10000 5.1 200 13:59 23.09.2019
1484 Clouds 25 1013 73 10000 5.1 200 13:59 23.09.2019
1485 Clouds 25 1013 74 10000 3.1 170 13:38 23.09.2019
1486 Clouds 25 1013 74 10000 3.1 170 13:18 23.09.2019
1487 Clouds 24 1013 73 10000 4.1 190 12:54 23.09.2019
1488 Clouds 24 1013 83 9000 2.1 320 12:36 23.09.2019
1489 Clouds 24 1013 83 9000 2.1 320 12:18 23.09.2019
1490 Clouds 23 1014 88 10000 2.6 350 11:43 23.09.2019
1491 -273 0 0 0 0 0 11:24 23.09.2019
1492 Clouds 22 1014 83 10000 3.6 160 10:49 23.09.2019
1493 Clear 22 1014 88 10000 1.5 0 10:22 23.09.2019
1494 Clear 22 1014 88 10000 1.5 0 10:22 23.09.2019
1495 Mist 21 1014 78 10000 3.6 160 09:59 23.09.2019
1496 Mist 20 1014 93 10000 1.5 0 09:38 23.09.2019
1497 Mist 20 1014 93 10000 1.5 0 09:20 23.09.2019
1498 Mist 19 1014 88 10000 0.5 0 08:48 23.09.2019
1499 Mist 19 1014 93 8000 1.5 0 08:29 23.09.2019
1500 Mist 18 1014 88 10000 1.5 120 07:58 23.09.2019
1501 Mist 18 1014 82 10000 2.1 100 07:30 23.09.2019
1502 Clear 18 1013 82 10000 2.6 90 06:40 23.09.2019
1503 Clouds 18 1013 100 10000 1 0 05:54 23.09.2019
1504 Clear 18 1013 88 10000 2.6 110 05:21 23.09.2019
1505 Clear 18 1013 88 10000 2.1 130 04:54 23.09.2019
1506 Clear 18 1013 82 10000 4.6 100 03:33 23.09.2019
1507 Thunderstorm 21 1013 73 10000 7.2 150 01:18 23.09.2019
1508 Thunderstorm 21 1013 69 10000 8.7 150 00:23 23.09.2019
1509 Rain 21 1013 69 10000 8.7 150 23:56 22.09.2019
1510 Clouds 21 1013 69 10000 9.8 150 23:33 22.09.2019
1511 Clouds 21 1013 69 10000 9.8 140 22:58 22.09.2019
1512 Clouds 21 1013 64 10000 8.7 150 22:40 22.09.2019
1513 Clouds 21 1013 64 10000 8.7 150 22:22 22.09.2019
1514 Clouds 21 1013 69 10000 8.7 140 21:43 22.09.2019
1515 Clouds 21 1013 69 10000 8.7 140 21:43 22.09.2019
1516 Rain 20 1013 69 10000 8.2 150 21:23 22.09.2019
1517 Rain 20 1013 64 10000 7.2 150 20:58 22.09.2019
1518 Rain 20 1014 82 10000 4.6 120 20:40 22.09.2019
1519 Rain 20 1014 82 10000 4.6 120 20:40 22.09.2019
1520 Rain 20 1014 82 10000 4.6 120 20:22 22.09.2019
1521 Thunderstorm 20 1014 82 10000 7.2 120 19:42 22.09.2019
1522 Thunderstorm 20 1014 82 10000 7.2 120 19:24 22.09.2019
1523 Thunderstorm 20 1014 69 10000 6.7 150 18:59 22.09.2019
1524 Thunderstorm 20 1015 82 4000 5.7 120 18:41 22.09.2019
1525 Thunderstorm 20 1015 82 4000 5.7 120 18:20 22.09.2019
1526 Clouds 20 1015 77 10000 2.6 290 17:59 22.09.2019
1527 Clouds 20 1015 77 10000 2.6 290 17:59 22.09.2019
1528 Clouds 20 1016 88 8000 4.1 130 17:41 22.09.2019
1529 Clouds 20 1016 88 8000 4.1 130 17:20 22.09.2019
1530 Rain 19 1016 77 10000 3.6 60 16:45 22.09.2019
1531 Rain 19 1016 93 4000 3.1 100 16:26 22.09.2019
1532 Rain 19 1017 88 9000 3.6 350 15:57 22.09.2019
1533 Rain 19 1018 93 4000 3.1 20 15:38 22.09.2019
1534 Rain 19 1018 93 4000 3.1 20 15:19 22.09.2019
1535 Rain 19 1017 82 10000 3.6 100 14:43 22.09.2019
1536 Rain 19 1017 82 10000 3.6 100 14:25 22.09.2019
1537 Rain 19 1017 77 10000 1 0 13:58 22.09.2019
1538 Rain 19 1017 88 10000 4.6 100 13:40 22.09.2019
1539 Rain 19 1017 88 10000 4.6 100 13:21 22.09.2019
1540 Rain 18 1018 88 10000 2.6 20 12:44 22.09.2019
1541 Rain 18 1018 88 8000 3.1 10 12:24 22.09.2019
1542 Rain 18 1018 77 8000 4.1 150 11:57 22.09.2019
1543 Rain 17 1018 88 10000 1 0 11:38 22.09.2019
1544 Rain 17 1018 88 10000 1 0 11:38 22.09.2019
1545 Rain 17 1018 88 10000 1 0 11:20 22.09.2019
1546 Thunderstorm 17 1018 88 8000 6.7 140 10:44 22.09.2019
1547 Rain 17 1018 93 10000 1.5 0 10:20 22.09.2019
1548 Rain 17 1019 93 8000 5.7 150 09:58 22.09.2019
1549 Thunderstorm 17 1018 93 4500 4.6 80 09:39 22.09.2019
1550 Thunderstorm 16 1018 93 4500 4.6 80 09:19 22.09.2019
1551 Thunderstorm 16 1020 93 4000 1.5 220 08:45 22.09.2019
1552 Thunderstorm 16 1020 100 4500 1 0 08:25 22.09.2019
1553 Thunderstorm 17 1020 88 4000 2.6 170 07:56 22.09.2019
1554 Rain 17 1019 87 5000 4.6 100 07:37 22.09.2019
1555 Rain 16 1019 87 5000 4.6 100 07:18 22.09.2019
1556 Rain 17 1020 82 6000 5.1 350 06:53 22.09.2019
1557 Clear 19 1018 40 10000 1 0 05:30 22.09.2019
1558 Clear 19 1019 43 10000 1 0 03:33 22.09.2019
1559 Clear 19 1020 68 10000 1 0 02:38 22.09.2019
1560 Clear 19 1020 68 10000 1 0 02:38 22.09.2019
1561 Clear 19 1020 68 10000 1 0 02:18 22.09.2019
1562 Clear 19 1020 77 10000 1 0 00:59 22.09.2019
1563 Clear 18 1020 82 10000 1 0 00:33 22.09.2019
1564 Clear 18 1020 82 10000 1 0 23:59 21.09.2019
1565 Clear 19 1020 77 10000 1 0 23:40 21.09.2019
1566 Clear 19 1020 77 10000 1 0 23:19 21.09.2019
1567 Clear 19 1020 72 10000 1.5 100 22:39 21.09.2019
1568 Clear 19 1020 72 10000 1.5 100 22:21 21.09.2019
1569 Clear 19 1020 72 10000 2.1 90 21:43 21.09.2019
1570 Clear 20 1020 68 10000 2.1 160 21:20 21.09.2019
1571 Clear 20 1021 68 10000 2.1 160 20:59 21.09.2019
1572 Clouds 20 1021 69 10000 2.6 230 20:38 21.09.2019
1573 Clouds 21 1021 69 10000 2.6 230 20:19 21.09.2019
1574 Clouds 21 1021 69 10000 2.6 230 20:19 21.09.2019
1575 Clear 21 1021 64 10000 2.6 210 19:47 21.09.2019
1576 Clear 22 1020 61 10000 2.1 230 19:23 21.09.2019
1577 Clear 23 1020 57 10000 2.6 220 18:55 21.09.2019
1578 Clouds 23 1020 57 10000 2.1 220 18:37 21.09.2019
1579 Clouds 24 1020 57 10000 2.1 220 18:18 21.09.2019
1580 Clear 24 1021 57 10000 1 0 17:40 21.09.2019
1581 Clear 24 1021 57 10000 1 0 17:20 21.09.2019
1582 Clouds 24 1021 57 10000 3.1 200 16:43 21.09.2019
1583 Clouds 25 1021 57 10000 3.1 200 16:24 21.09.2019
1584 Clouds 25 1022 60 10000 3.1 200 15:48 21.09.2019
1585 Clouds 25 1022 34 10000 1 0 15:25 21.09.2019
1586 Clouds 25 1022 53 10000 1.5 220 14:55 21.09.2019
1587 Clouds 25 1022 44 10000 2.1 260 14:37 21.09.2019
1588 Clouds 24 1022 44 10000 2.1 260 14:19 21.09.2019
1589 Clear 24 1022 50 10000 2.1 230 13:41 21.09.2019
1590 Clear 24 1022 50 10000 2.1 230 13:23 21.09.2019
1591 Clouds 24 1022 50 10000 2.1 0 12:57 21.09.2019
1592 Clear 23 1022 53 10000 2.1 350 12:38 21.09.2019
1593 Clear 23 1022 53 10000 2.1 350 12:20 21.09.2019
1594 Clear 22 1022 60 10000 1.5 0 11:47 21.09.2019
1595 Clear 21 1023 52 10000 2.1 360 11:24 21.09.2019
1596 Clouds 21 1022 64 10000 2.6 20 10:55 21.09.2019
1597 Clear 21 1022 55 10000 2.1 20 10:37 21.09.2019
1598 Clear 20 1022 55 10000 2.1 20 10:18 21.09.2019
1599 Clear 19 1022 63 10000 2.1 20 09:40 21.09.2019
1600 Clear 17 1022 63 10000 2.1 20 09:21 21.09.2019
1601 Clouds 17 1022 71 10000 2.6 20 08:59 21.09.2019
1602 Clear 16 1022 71 10000 1.5 0 08:40 21.09.2019
1603 Clear 15 1021 71 10000 2.6 20 07:43 21.09.2019
1604 Clear 14 1021 71 10000 2.6 20 07:25 21.09.2019
1605 Clear 14 1021 71 10000 2.6 20 07:25 21.09.2019
1606 Clear 14 1021 71 10000 3.1 20 06:59 21.09.2019
1607 Clear 15 1021 76 10000 3.1 30 06:34 21.09.2019
1608 Clear 15 1021 71 10000 3.1 10 05:51 21.09.2019
1609 Clear 15 1021 72 10000 2.1 20 04:38 21.09.2019
1610 Clear 16 1021 67 10000 2.1 10 03:25 21.09.2019
1611 Clear 17 1021 67 10000 2.6 20 02:22 21.09.2019
1612 Clear 17 1021 59 10000 2.1 10 01:46 21.09.2019
1613 Clear 17 1021 55 10000 2.1 20 00:58 21.09.2019
1614 Clear 18 1022 55 10000 2.1 30 00:22 21.09.2019
1615 Clear 18 1022 52 10000 2.1 10 23:48 20.09.2019
1616 Clear 18 1021 72 10000 2.1 350 23:29 20.09.2019
1617 Clear 19 1021 88 10000 1.5 150 22:44 20.09.2019
1618 Clear 19 1021 88 10000 1.5 150 22:25 20.09.2019
1619 Clear 19 1021 77 10000 1 190 21:57 20.09.2019
1620 Clear 19 1021 77 10000 1.5 190 21:39 20.09.2019
1621 Clear 20 1021 77 10000 1.5 190 21:20 20.09.2019
1622 Clear 20 1020 73 10000 1 190 20:58 20.09.2019
1623 Clear 20 1019 64 10000 0.5 0 20:39 20.09.2019
1624 Clear 21 1019 64 10000 0.5 0 20:19 20.09.2019
1625 Clear 22 1020 64 10000 2.1 250 19:45 20.09.2019
1626 Clear 22 1019 57 10000 3.6 250 19:27 20.09.2019
1627 Clear 23 1019 60 10000 3.1 250 18:58 20.09.2019
1628 Clear 24 1019 54 10000 5.1 260 18:38 20.09.2019
1629 Clear 24 1019 54 10000 5.1 260 18:18 20.09.2019
1630 Rain 25 1019 57 10000 4.1 230 17:46 20.09.2019
1631 Rain 25 1019 54 10000 4.1 210 17:27 20.09.2019
1632 -273 0 0 0 0 0 16:54 20.09.2019
1633 Clear 25 1019 50 10000 3.6 250 16:54 20.09.2019
1634 Clear 25 1019 32 10000 1.5 0 16:36 20.09.2019
1635 Clear 25 1019 32 10000 1.5 0 16:18 20.09.2019
1636 Clear 25 1019 39 10000 2.1 0 15:41 20.09.2019
1637 Clouds 25 1020 41 10000 3.6 350 15:22 20.09.2019
1638 Clouds 25 1020 47 10000 2.6 350 14:44 20.09.2019
1639 Clouds 25 1020 47 10000 2.6 350 14:20 20.09.2019
1640 Clouds 25 1020 47 10000 2.6 350 13:59 20.09.2019
1641 Clouds 25 1020 57 10000 2.6 20 13:40 20.09.2019
1642 Clouds 24 1020 57 10000 2.6 20 13:21 20.09.2019
1643 Clear 24 1020 50 10000 2.1 350 12:40 20.09.2019
1644 Clear 24 1020 50 10000 2.1 350 12:22 20.09.2019
1645 Clouds 23 1020 60 10000 4.1 360 11:51 20.09.2019
1646 Clear 23 1021 56 10000 4.1 10 11:25 20.09.2019
1647 Clear 22 1020 64 10000 4.1 10 10:58 20.09.2019
1648 Clear 22 1020 60 10000 2.1 30 10:40 20.09.2019
1649 Clear 21 1020 60 10000 2.1 30 10:22 20.09.2019
1650 Clear 20 1019 68 10000 1 0 09:38 20.09.2019
1651 Clear 19 1019 68 10000 1 0 09:19 20.09.2019
1652 Clouds 18 1019 77 10000 3.1 30 08:47 20.09.2019
1653 Clear 18 1019 77 10000 0.5 0 08:28 20.09.2019
1654 Clouds 17 1019 82 10000 4.1 30 07:51 20.09.2019
1655 Clouds 17 1019 77 10000 3.6 30 07:29 20.09.2019
1656 Clouds 17 1018 77 10000 3.6 30 06:59 20.09.2019
1657 Clouds 17 1018 82 10000 3.6 30 06:40 20.09.2019
1658 Clouds 17 1018 82 10000 3.6 30 06:40 20.09.2019
1659 Clouds 17 1018 82 10000 3.1 20 06:18 20.09.2019
1660 Clouds 17 1018 88 10000 3.6 30 04:31 20.09.2019
1661 Clear 17 1018 88 10000 1.5 20 03:27 20.09.2019
1662 Clear 18 1018 88 10000 1.5 10 01:58 20.09.2019
1663 Clear 18 1018 82 10000 0.5 0 01:37 20.09.2019
1664 Clear 18 1018 77 10000 2.1 80 00:36 20.09.2019
1665 Clear 18 1018 77 10000 2.1 70 23:48 19.09.2019
1666 Clear 18 1018 82 10000 3.1 40 23:28 19.09.2019
1667 Clear 18 1018 82 10000 2.1 40 22:59 19.09.2019
1668 Clear 18 1017 82 10000 2.1 70 22:40 19.09.2019
1669 Clear 18 1017 82 10000 2.1 70 22:21 19.09.2019
1670 Clear 19 1017 82 10000 1.5 360 21:57 19.09.2019
1671 Clear 19 1016 82 10000 1.5 60 21:38 19.09.2019
1672 Clear 19 1016 82 10000 1.5 60 21:19 19.09.2019
1673 Clear 19 1015 73 10000 2.6 120 20:44 19.09.2019
1674 Clear 19 1015 73 10000 2.6 120 20:23 19.09.2019
1675 Thunderstorm 19 1015 77 10000 1.5 70 19:58 19.09.2019
1676 Thunderstorm 19 1015 77 10000 1 0 19:39 19.09.2019
1677 Thunderstorm 19 1015 77 10000 1 0 19:21 19.09.2019
1678 Thunderstorm 19 1015 83 10000 4.6 110 18:58 19.09.2019
1679 Rain 19 1016 83 10000 3.1 140 18:40 19.09.2019
1680 Rain 20 1016 83 10000 3.1 140 18:21 19.09.2019
1681 Thunderstorm 21 1015 88 10000 2.1 70 17:42 19.09.2019
1682 Thunderstorm 21 1015 88 10000 2.1 70 17:23 19.09.2019
1683 Thunderstorm 23 1014 73 5000 4.6 280 16:59 19.09.2019
1684 Thunderstorm 24 1014 65 10000 6.2 270 16:39 19.09.2019
1685 Thunderstorm 25 1014 65 10000 6.2 270 16:19 19.09.2019
1686 Thunderstorm 25 1014 51 10000 2.6 240 15:39 19.09.2019
1687 Thunderstorm 26 1014 51 10000 2.6 240 15:21 19.09.2019
1688 Thunderstorm 26 1014 51 10000 2.6 240 15:21 19.09.2019
1689 Thunderstorm 26 1014 61 10000 1.5 240 14:57 19.09.2019
1690 Thunderstorm 26 1014 54 10000 2.6 250 14:38 19.09.2019
1691 Thunderstorm 26 1014 54 10000 2.6 250 14:18 19.09.2019
1692 Thunderstorm 26 1014 54 10000 2.6 250 14:18 19.09.2019
1693 Rain 26 1015 61 10000 1 0 13:40 19.09.2019
1694 Rain 26 1015 61 10000 1 0 13:20 19.09.2019
1695 Rain 25 1015 73 10000 1 0 12:40 19.09.2019
1696 Rain 25 1015 73 10000 1 0 12:40 19.09.2019
1697 Rain 25 1015 73 10000 1 0 12:20 19.09.2019
1698 Clouds 24 1015 69 10000 1.5 310 11:59 19.09.2019
1699 Clouds 24 1015 78 9000 2.1 10 11:40 19.09.2019
1700 Clouds 24 1015 78 9000 2.1 10 11:21 19.09.2019
1701 Clouds 23 1015 73 8000 2.1 40 10:57 19.09.2019
1702 Rain 23 1015 88 6000 2.69 97.101 10:37 19.09.2019
1703 Rain 22 1015 88 6000 2.69 97.101 10:18 19.09.2019
1704 Mist 22 1015 83 8000 2.1 150 09:42 19.09.2019
1705 Mist 22 1015 94 4000 1.5 0 09:22 19.09.2019
1706 Mist 21 1014 83 10000 5.7 320 08:56 19.09.2019
1707 Mist 21 1015 100 3500 2.6 350 08:37 19.09.2019
1708 Mist 20 1015 100 3500 2.6 350 08:19 19.09.2019
1709 Rain 20 1014 77 8000 2.1 130 07:43 19.09.2019
1710 Rain 20 1014 77 10000 2.1 60 07:21 19.09.2019
1711 Thunderstorm 20 1014 82 10000 1 0 06:47 19.09.2019
1712 Thunderstorm 20 1015 82 10000 1 80 06:27 19.09.2019
1713 Thunderstorm 20 1014 100 7000 2.1 60 05:52 19.09.2019
1714 Clouds 20 1015 88 10000 1.5 120 04:44 19.09.2019
1715 Clouds 20 1015 82 10000 1.5 120 03:51 19.09.2019
1716 Clouds 20 1016 88 10000 2.1 100 02:45 19.09.2019
1717 Clouds 21 1016 88 10000 1.5 130 01:27 19.09.2019
1718 Clouds 21 1016 88 10000 1.5 190 00:50 19.09.2019
1719 Clouds 21 1016 83 10000 1 0 00:25 19.09.2019
1720 Clouds 21 1016 83 10000 1 0 00:25 19.09.2019
1721 Thunderstorm 22 1015 88 10000 1 260 23:42 18.09.2019
1722 Thunderstorm 22 1015 88 10000 1 260 23:21 18.09.2019
1723 Rain 22 1016 88 7000 3.1 100 22:47 18.09.2019
1724 Rain 22 1016 83 10000 2.1 140 22:23 18.09.2019
1725 Rain 23 1016 83 10000 1 170 21:59 18.09.2019
1726 Rain 23 1016 83 10000 1 170 21:59 18.09.2019
1727 Thunderstorm 23 1015 83 10000 0.5 50 21:41 18.09.2019
1728 Thunderstorm 23 1015 83 10000 0.5 50 21:19 18.09.2019
1729 Thunderstorm 23 1015 83 10000 0.5 50 21:19 18.09.2019
1730 Clouds 23 1016 83 10000 1.5 190 20:59 18.09.2019
1731 Clouds 23 1015 73 10000 2.6 220 20:40 18.09.2019
1732 Clouds 23 1015 73 10000 2.6 220 20:22 18.09.2019
1733 Clouds 24 1016 78 10000 2.6 220 19:59 18.09.2019
1734 Clouds 24 1015 69 10000 3.6 230 19:41 18.09.2019
1735 Clouds 25 1015 69 10000 2.6 220 19:20 18.09.2019
1736 Clouds 25 1015 69 10000 2.6 220 18:56 18.09.2019
1737 Clouds 25 1015 65 10000 4.1 240 18:38 18.09.2019
1738 Clouds 25 1015 65 10000 4.1 240 18:19 18.09.2019
1739 Clouds 26 1015 69 10000 3.1 210 17:58 18.09.2019
1740 Clouds 26 1015 65 10000 4.1 250 17:39 18.09.2019
1741 Clouds 26 1015 65 10000 4.1 250 17:19 18.09.2019
1742 Clouds 26 1015 61 10000 4.1 210 16:56 18.09.2019
1743 Clouds 26 1015 58 10000 4.1 250 16:38 18.09.2019
1744 Clouds 27 1015 58 10000 4.1 250 16:19 18.09.2019
1745 Clouds 27 1015 61 10000 3.1 240 15:55 18.09.2019
1746 Clouds 27 1015 58 10000 3.6 220 15:37 18.09.2019
1747 Clouds 27 1015 58 10000 3.6 220 15:19 18.09.2019
1748 Clouds 27 1015 57 10000 3.1 220 14:57 18.09.2019
1749 Clouds 28 1015 48 10000 2.1 220 14:39 18.09.2019
1750 Clouds 27 1015 48 10000 2.1 220 14:21 18.09.2019
1751 Clouds 27 1015 48 10000 2.1 220 14:21 18.09.2019
1752 Clouds 27 1015 48 10000 2.1 0 13:44 18.09.2019
1753 Clouds 27 1015 54 10000 2.6 200 13:19 18.09.2019
1754 Clouds 26 1016 51 10000 1.5 0 12:56 18.09.2019
1755 Clouds 27 1016 57 10000 1 0 12:37 18.09.2019
1756 Clouds 26 1016 57 10000 1 0 12:18 18.09.2019
1757 Clear 25 1016 61 10000 1 0 11:40 18.09.2019
1758 Clear 25 1016 61 10000 1 0 11:20 18.09.2019
1759 Mist 24 1016 69 10000 1 0 10:41 18.09.2019
1760 Mist 23 1016 69 10000 1 0 10:23 18.09.2019
1761 Mist 24 1016 69 10000 1 0 10:23 18.09.2019
1762 Mist 24 1016 69 10000 1 0 10:23 18.09.2019
1763 Clear 23 1016 69 10000 1 0 09:59 18.09.2019
1764 Clear 22 1016 82 10000 1 0 09:41 18.09.2019
1765 Clear 21 1016 82 10000 1 0 09:22 18.09.2019
1766 Clear 20 1016 82 10000 2.1 60 08:56 18.09.2019
1767 Clear 20 1016 88 10000 2.27 71.956 08:38 18.09.2019
1768 Clear 19 1016 88 10000 2.27 71.956 08:18 18.09.2019
1769 Clouds 18 1016 82 10000 2.6 90 07:43 18.09.2019
1770 Clouds 17 1016 82 10000 2.6 90 07:23 18.09.2019
1771 Clouds 18 1016 82 10000 2.1 90 06:45 18.09.2019
1772 Clouds 18 1016 88 10000 2.6 90 06:21 18.09.2019
1773 Clouds 18 1016 82 10000 2.1 100 05:27 18.09.2019
1774 Clear 18 1016 82 10000 2.6 100 03:40 18.09.2019
1775 Clear 18 1016 72 10000 2.1 110 02:40 18.09.2019
1776 Clear 18 1016 72 10000 2.1 100 01:41 18.09.2019
1777 Clear 19 1016 68 10000 2.6 110 00:55 18.09.2019
1778 Clear 19 1016 68 10000 2.1 100 00:31 18.09.2019
1779 Clear 19 1016 72 10000 2.1 110 23:47 17.09.2019
1780 Clear 19 1016 72 10000 1.5 120 23:25 17.09.2019
1781 Clear 20 1016 72 10000 1.5 100 22:56 17.09.2019
1782 Clear 19 1016 72 10000 1.5 100 22:56 17.09.2019
1783 Clear 20 1016 72 10000 1.5 120 22:37 17.09.2019
1784 Clear 20 1016 72 10000 1.5 120 22:19 17.09.2019
1785 Clear 20 1016 68 10000 2.1 110 21:54 17.09.2019
1786 Clear 20 1016 68 10000 1 0 21:36 17.09.2019
1787 Clear 22 1016 68 10000 1 0 21:18 17.09.2019
1788 Clear 22 1016 64 10000 1 0 20:55 17.09.2019
1789 Clear 22 1016 69 10000 1.5 0 20:36 17.09.2019
1790 Clear 22 1016 69 10000 1.5 0 20:18 17.09.2019
1791 Clear 23 1015 61 10000 2.6 240 19:40 17.09.2019
1792 Clear 24 1015 61 10000 2.6 240 19:20 17.09.2019
1793 Clear 25 1016 50 10000 2.6 240 18:59 17.09.2019
1794 Clear 25 1015 51 10000 4.1 240 18:41 17.09.2019
1795 Clear 25 1015 51 10000 4.1 240 18:22 17.09.2019
1796 Clear 26 1016 42 10000 4.6 240 17:55 17.09.2019
1797 Clear 26 1016 42 10000 4.6 240 17:36 17.09.2019
1798 Clear 27 1016 42 10000 4.6 240 17:18 17.09.2019
1799 Clear 27 1016 39 10000 3.6 220 16:41 17.09.2019
1800 Clear 27 1016 32 10000 3.6 250 16:22 17.09.2019
1801 Clear 27 1016 37 10000 3.6 230 15:55 17.09.2019
1802 Clear 27 1016 37 10000 3.6 230 15:55 17.09.2019
1803 Clear 28 1016 35 10000 3.6 230 15:37 17.09.2019
1804 Clear 28 1016 35 10000 3.6 230 15:18 17.09.2019
1805 Clear 28 1016 37 10000 3.1 220 14:55 17.09.2019
1806 Clear 28 1016 35 10000 1.5 0 14:37 17.09.2019
1807 Clear 28 1016 35 10000 1.5 0 14:18 17.09.2019
1808 Clear 27 1017 35 10000 2.1 230 13:41 17.09.2019
1809 Clear 27 1017 35 10000 2.1 230 13:22 17.09.2019
1810 Clear 27 1017 36 10000 2.1 0 12:54 17.09.2019
1811 Clear 26 1017 44 10000 1 0 12:36 17.09.2019
1812 Clear 26 1017 44 10000 1 0 12:18 17.09.2019
1813 Clear 25 1018 57 10000 1.5 0 11:41 17.09.2019
1814 Clear 25 1018 57 10000 1.5 0 11:19 17.09.2019
1815 Clear 25 1018 57 10000 1.5 0 11:19 17.09.2019
1816 Clear 24 1018 68 10000 1.5 0 10:42 17.09.2019
1817 Clear 23 1018 68 10000 1.5 0 10:23 17.09.2019
1818 Clear 22 1018 68 10000 1 0 09:59 17.09.2019
1819 Clear 21 1018 82 10000 1.5 0 09:40 17.09.2019
1820 Clear 21 1018 82 10000 1.5 0 09:40 17.09.2019
1821 Clear 20 1018 82 10000 1.5 0 09:20 17.09.2019
1822 Clear 19 1017 87 10000 1 0 08:44 17.09.2019
1823 Clear 18 1017 87 10000 1 0 08:25 17.09.2019
1824 Clear 18 1017 87 10000 1 0 08:25 17.09.2019
1825 Clear 17 1017 77 10000 0.5 0 07:55 17.09.2019
1826 Clear 17 1017 72 10000 1.5 110 07:36 17.09.2019
1827 Clear 16 1017 72 10000 1.5 110 07:18 17.09.2019
1828 Clear 17 1017 77 10000 2.6 110 06:45 17.09.2019
1829 Clear 17 1017 82 10000 2.1 110 06:19 17.09.2019
1830 Clear 17 1017 77 10000 2.1 110 05:35 17.09.2019
1831 Clear 17 1017 77 10000 2.1 110 04:26 17.09.2019
1832 Clear 18 1018 72 10000 2.1 110 02:41 17.09.2019
1833 Clear 19 1018 72 10000 2.1 110 01:55 17.09.2019
1834 Clear 19 1018 68 10000 1 90 00:59 17.09.2019
1835 Clear 19 1018 68 10000 0.5 0 00:22 17.09.2019
1836 Clear 20 1018 64 10000 2.1 110 23:36 16.09.2019
1837 Clear 20 1018 64 10000 2.1 110 23:18 16.09.2019
1838 Clear 20 1018 60 10000 2.1 110 22:42 16.09.2019
1839 Clear 20 1018 64 10000 2.1 110 22:42 16.09.2019
1840 Clear 20 1018 64 10000 2.1 110 22:24 16.09.2019
1841 Clear 20 1018 64 10000 1.5 110 21:59 16.09.2019
1842 Clear 21 1018 64 10000 1.5 110 21:59 16.09.2019
1843 Clear 21 1018 60 10000 1 120 21:38 16.09.2019
1844 Clear 22 1018 60 10000 1 120 21:20 16.09.2019
1845 Clear 23 1018 56 10000 0.5 0 20:55 16.09.2019
1846 Clear 23 1017 50 10000 1.5 0 20:37 16.09.2019
1847 Clear 23 1017 50 10000 1.5 0 20:18 16.09.2019
1848 Clear 24 1018 50 10000 1.5 240 19:54 16.09.2019
1849 Clear 24 1018 50 10000 1.5 240 19:54 16.09.2019
1850 Clear 24 1017 42 10000 2.6 230 19:36 16.09.2019
1851 Clear 24 1017 42 10000 2.6 230 19:36 16.09.2019
1852 Clear 25 1017 42 10000 2.6 230 19:18 16.09.2019
1853 Clear 26 1017 39 10000 4.1 240 18:42 16.09.2019
1854 Clear 27 1017 39 10000 3.6 250 18:24 16.09.2019
1855 Clear 27 1017 42 10000 4.6 230 17:43 16.09.2019
1856 Clear 27 1017 42 10000 4.6 230 17:24 16.09.2019
1857 Clouds 28 1018 42 10000 3.6 210 16:59 16.09.2019
1858 Clear 28 1017 42 10000 6.2 260 16:40 16.09.2019
1859 Clear 28 1017 42 10000 6.2 260 16:21 16.09.2019
1860 Clouds 28 1018 45 10000 3.1 230 15:57 16.09.2019
1861 Clouds 29 1018 45 10000 1 0 15:38 16.09.2019
1862 Clouds 29 1018 45 10000 1 0 15:20 16.09.2019
1863 -273 0 0 0 0 0 14:57 16.09.2019
1864 Clouds 28 1019 45 10000 1.5 0 14:38 16.09.2019
1865 Clouds 28 1019 45 10000 1.5 0 14:20 16.09.2019
1866 Clouds 28 1019 45 10000 2.1 0 13:41 16.09.2019
1867 Clouds 28 1019 45 10000 2.1 210 13:22 16.09.2019
1868 Clouds 28 1020 45 10000 2.1 0 12:55 16.09.2019
1869 Clouds 28 1020 45 10000 2.1 0 12:55 16.09.2019
1870 Clear 28 1020 57 10000 1 0 12:36 16.09.2019
1871 Clear 27 1020 57 10000 1 0 12:18 16.09.2019
1872 Clear 26 1020 65 10000 1.5 0 11:44 16.09.2019
1873 Clear 26 1020 65 10000 1.5 0 11:22 16.09.2019
1874 Clear 25 1020 73 10000 1.5 0 10:40 16.09.2019
1875 Clear 24 1020 73 10000 1.5 0 10:21 16.09.2019
1876 Clear 23 1020 64 10000 1.5 40 09:59 16.09.2019
1877 Clear 23 1020 82 10000 1.5 0 09:41 16.09.2019
1878 Clear 22 1020 82 10000 1.5 0 09:20 16.09.2019
1879 Clear 21 1020 68 10000 1 0 08:52 16.09.2019
1880 Clear 20 1020 88 10000 2.1 350 08:31 16.09.2019
1881 Clear 19 1020 77 10000 2.1 350 07:58 16.09.2019
1882 Clear 19 1020 77 10000 0.5 0 07:40 16.09.2019
1883 Clear 18 1020 77 10000 0.5 0 07:20 16.09.2019
1884 Clear 19 1019 72 10000 1.5 140 06:49 16.09.2019
1885 Clear 19 1019 72 10000 1 120 06:31 16.09.2019
1886 Clear 19 1020 72 10000 1 0 05:57 16.09.2019
1887 Clear 19 1020 68 10000 1 60 05:38 16.09.2019
1888 Clear 19 1020 64 10000 1.5 70 04:55 16.09.2019
1889 Clear 19 1020 56 10000 1.5 20 03:33 16.09.2019
1890 Clear 20 1021 56 10000 2.6 90 00:44 16.09.2019
1891 Clear 20 1021 56 10000 2.6 90 00:26 16.09.2019
1892 Clear 20 1021 56 10000 2.6 90 23:56 15.09.2019
1893 Clear 20 1021 56 10000 2.1 100 23:37 15.09.2019
1894 Clear 21 1021 56 10000 2.1 100 23:18 15.09.2019
1895 Clear 21 1022 64 10000 1 0 22:38 15.09.2019
1896 Clear 21 1022 64 10000 1 0 22:19 15.09.2019
1897 Clear 22 1022 60 10000 1 0 21:56 15.09.2019
1898 Clear 22 1022 64 10000 1.5 130 21:37 15.09.2019
1899 Clear 22 1022 64 10000 1.5 130 21:19 15.09.2019
1900 Clear 23 1022 53 10000 1.5 220 20:44 15.09.2019
1901 Clear 23 1022 53 10000 1.5 220 20:44 15.09.2019
1902 Clear 23 1021 54 10000 2.1 270 20:26 15.09.2019
1903 Clear 24 1022 47 10000 2.1 220 19:56 15.09.2019
1904 Clear 24 1021 44 10000 2.6 260 19:37 15.09.2019
1905 Clear 25 1021 44 10000 2.6 260 19:19 15.09.2019
1906 Clear 26 1021 39 10000 7.2 290 18:40 15.09.2019
1907 Clear 26 1021 39 10000 7.2 290 18:20 15.09.2019
1908 Clear 27 1021 42 10000 5.1 260 17:43 15.09.2019
1909 Clear 28 1021 42 10000 5.1 260 17:22 15.09.2019
1910 Clear 28 1022 39 10000 3.1 230 16:58 15.09.2019
1911 Clear 28 1021 40 10000 2.1 300 16:40 15.09.2019
1912 Clear 28 1021 40 10000 2.1 300 16:21 15.09.2019
1913 Clear 28 1022 39 10000 2.1 190 15:56 15.09.2019
1914 Clear 28 1022 39 10000 2.1 190 15:56 15.09.2019
1915 Clear 28 1022 38 10000 3.6 210 15:36 15.09.2019
1916 Clear 28 1022 38 10000 3.6 210 15:18 15.09.2019
1917 Clear 28 1023 40 10000 4.6 250 14:42 15.09.2019
1918 Clear 28 1023 40 10000 4.6 250 14:23 15.09.2019
1919 Clouds 28 1024 39 10000 2.6 0 13:55 15.09.2019
1920 Clear 28 1023 45 10000 3.1 200 13:37 15.09.2019
1921 Clear 28 1023 45 10000 3.1 200 13:18 15.09.2019
1922 Clear 27 1024 54 10000 0.5 0 12:42 15.09.2019
1923 Clear 27 1024 54 10000 0.5 0 12:23 15.09.2019
1924 Clear 26 1024 50 10000 1 0 11:54 15.09.2019
1925 Clear 26 1025 57 10000 1 0 11:36 15.09.2019
1926 Clear 25 1025 57 10000 1 0 11:18 15.09.2019
1927 Clear 24 1025 68 10000 1.5 0 10:41 15.09.2019
1928 Clear 24 1025 68 10000 1.5 0 10:22 15.09.2019
1929 Clear 23 1024 68 10000 2.1 30 09:57 15.09.2019
1930 Clear 23 1025 82 10000 1.5 0 09:36 15.09.2019
1931 Clear 22 1025 82 10000 1.5 0 09:18 15.09.2019
1932 Clear 20 1024 100 10000 0.5 0 08:41 15.09.2019
1933 Clear 20 1024 100 10000 0.5 0 08:20 15.09.2019
1934 Clear 19 1023 77 10000 1.5 10 07:47 15.09.2019
1935 Clear 18 1023 82 10000 1 20 06:59 15.09.2019
1936 Clear 18 1023 82 10000 1.5 20 06:31 15.09.2019
1937 Mist 19 1024 72 10000 2.1 80 03:24 15.09.2019
1938 Clear 19 1024 68 10000 1 110 02:23 15.09.2019
1939 Clear 20 1024 72 10000 2.1 70 01:37 15.09.2019
1940 Clear 20 1024 68 10000 2.1 60 00:58 15.09.2019
1941 Clear 20 1024 72 10000 1.5 110 00:39 15.09.2019
1942 Clear 20 1024 72 10000 1.5 110 00:19 15.09.2019
1943 Clear 20 1024 68 10000 1 0 23:56 14.09.2019
1944 Clear 20 1024 68 10000 1 0 23:56 14.09.2019
1945 Clear 20 1024 73 10000 3.1 90 23:38 14.09.2019
1946 Clear 20 1024 73 10000 3.1 90 23:19 14.09.2019
1947 Clear 20 1024 73 10000 1.5 100 22:58 14.09.2019
1948 Clear 21 1025 78 10000 1.5 90 22:38 14.09.2019
1949 Clear 21 1025 78 10000 1.5 90 22:19 14.09.2019
1950 Clear 21 1024 73 10000 1 0 21:40 14.09.2019
1951 Clear 22 1024 73 10000 1 0 21:21 14.09.2019
1952 Clear 23 1024 73 10000 1.5 220 20:59 14.09.2019
1953 Clear 23 1024 65 10000 2.6 250 20:40 14.09.2019
1954 Clear 23 1024 65 10000 2.6 250 20:22 14.09.2019
1955 Clear 24 1024 64 10000 2.1 220 19:51 14.09.2019
1956 Clear 24 1023 61 10000 3.1 240 19:23 14.09.2019
1957 Clear 25 1024 47 10000 3.6 210 18:58 14.09.2019
1958 Clear 26 1023 54 10000 3.6 230 18:39 14.09.2019
1959 Clear 27 1023 54 10000 3.6 230 18:20 14.09.2019
1960 Clear 27 1023 47 10000 2.6 200 17:45 14.09.2019
1961 Clear 27 1023 48 10000 3.6 230 17:25 14.09.2019
1962 Clear 28 1024 47 10000 3.1 220 16:59 14.09.2019
1963 Clear 28 1024 51 10000 4.6 240 16:40 14.09.2019
1964 Clear 28 1024 51 10000 4.6 240 16:19 14.09.2019
1965 Clear 28 1024 51 10000 4.6 240 16:19 14.09.2019
1966 Clear 28 1024 48 10000 3.6 210 15:42 14.09.2019
1967 Clear 28 1024 48 10000 3.6 210 15:23 14.09.2019
1968 Clear 28 1024 45 10000 2.1 0 14:58 14.09.2019
1969 Clear 28 1025 37 10000 2.1 20 14:39 14.09.2019
1970 Clear 28 1025 37 10000 2.1 20 14:18 14.09.2019
1971 Clear 28 1025 42 10000 2.1 0 13:47 14.09.2019
1972 Clear 28 1025 42 10000 1.5 0 13:22 14.09.2019
1973 Clear 27 1025 44 10000 1 0 12:46 14.09.2019
1974 Clear 27 1025 45 10000 1 0 12:24 14.09.2019
1975 Clear 26 1026 50 10000 1.5 0 11:42 14.09.2019
1976 Clear 26 1026 50 10000 1.5 0 11:21 14.09.2019
1977 Clear 25 1026 53 10000 2.1 30 10:55 14.09.2019
1978 Clear 25 1026 64 10000 1.5 0 10:36 14.09.2019
1979 Clear 24 1026 64 10000 1.5 0 10:18 14.09.2019
1980 Clear 23 1026 64 10000 2.6 20 09:55 14.09.2019
1981 Clear 24 1026 72 10000 1.5 0 09:37 14.09.2019
1982 Clear 23 1026 72 10000 1.5 0 09:18 14.09.2019
1983 Clear 20 1026 87 10000 1 0 08:41 14.09.2019
1984 Clear 20 1026 87 10000 1 0 08:22 14.09.2019
1985 Clear 18 1025 72 10000 1.5 70 07:43 14.09.2019
1986 Clear 18 1025 72 10000 1.5 70 07:23 14.09.2019
1987 Clear 18 1025 72 10000 1 10 06:36 14.09.2019
1988 Clear 18 1025 72 10000 1.5 50 05:55 14.09.2019
1989 Clear 19 1024 63 10000 1.5 350 04:43 14.09.2019
1990 Clear 19 1025 63 10000 1.5 30 03:32 14.09.2019
1991 Clear 19 1025 63 10000 1.5 120 02:48 14.09.2019
1992 Clear 19 1025 63 10000 1.5 120 02:48 14.09.2019
1993 Clear 19 1025 63 10000 2.6 120 01:45 14.09.2019
1994 Clear 20 1025 63 10000 1 0 01:20 14.09.2019
1995 Clear 20 1025 60 10000 2.1 110 00:40 14.09.2019
1996 Clear 20 1025 60 10000 2.1 110 00:22 14.09.2019
1997 Clear 20 1026 60 10000 1.5 100 23:56 13.09.2019
1998 Clear 20 1026 56 10000 1.5 90 23:37 13.09.2019
1999 Clear 20 1026 56 10000 1.5 90 23:18 13.09.2019
2000 Clear 21 1026 56 10000 1 100 22:55 13.09.2019
2001 Clear 21 1026 60 10000 1.5 110 22:36 13.09.2019
2002 Clear 21 1026 60 10000 1.5 110 22:18 13.09.2019
2003 Clear 22 1026 60 10000 2.1 150 21:39 13.09.2019
2004 Clear 23 1026 60 10000 2.1 150 21:19 13.09.2019
2005 Clear 23 1026 56 10000 1 0 20:58 13.09.2019
2006 Clear 23 1025 44 10000 2.6 270 20:37 13.09.2019
2007 Clear 23 1025 44 10000 2.6 270 20:19 13.09.2019
2008 Clear 24 1026 47 10000 2.1 240 19:54 13.09.2019
2009 Clear 24 1026 47 10000 2.1 240 19:54 13.09.2019
2010 Clear 25 1025 39 10000 2.1 230 19:36 13.09.2019
2011 Clear 26 1025 39 10000 4.6 260 19:18 13.09.2019
2012 Clear 26 1025 35 10000 6.2 270 18:38 13.09.2019
2013 Clear 28 1025 35 10000 6.2 270 18:19 13.09.2019
2014 Clear 28 1025 35 10000 6.2 270 18:19 13.09.2019
2015 Clear 28 1025 35 10000 6.2 270 18:19 13.09.2019
2016 Clear 28 1024 35 10000 6.7 260 17:44 13.09.2019
2017 Clear 29 1024 35 10000 6.7 260 17:23 13.09.2019
2018 Clear 29 1025 37 10000 5.7 270 16:59 13.09.2019
2019 Clear 29 1025 37 10000 5.7 270 16:59 13.09.2019
2020 Clear 29 1025 37 10000 3.6 280 16:40 13.09.2019
2021 Clear 29 1025 37 10000 3.6 280 16:19 13.09.2019
2022 Clear 29 1025 25 10000 3.1 280 15:43 13.09.2019
2023 Clear 29 1025 25 10000 3.1 280 15:24 13.09.2019
2024 Clear 30 1026 28 10000 3.6 330 14:56 13.09.2019
2025 Clear 30 1025 27 10000 0.5 0 14:37 13.09.2019
2026 Clear 30 1025 27 10000 0.5 0 14:18 13.09.2019
2027 Clear 29 1026 33 10000 2.6 20 13:41 13.09.2019
2028 Clear 29 1026 33 10000 2.6 20 13:22 13.09.2019
2029 Clear 29 1026 39 10000 2.6 350 12:46 13.09.2019
2030 Clear 28 1026 39 10000 2.6 350 12:25 13.09.2019
2031 Clear 27 1027 42 10000 2.1 360 11:57 13.09.2019
2032 Clear 27 1027 47 10000 2.1 360 11:20 13.09.2019
2033 Clear 26 1027 44 10000 1 0 10:57 13.09.2019
2034 Clear 25 1028 53 10000 1.5 0 10:37 13.09.2019
2035 Clear 24 1028 53 10000 1.5 0 10:18 13.09.2019
2036 Clear 23 1027 68 10000 1 0 09:43 13.09.2019
2037 Clear 23 1027 68 10000 1 0 09:43 13.09.2019
2038 Clear 22 1027 68 10000 1 0 09:20 13.09.2019
2039 Clear 21 1027 59 10000 3.1 20 08:55 13.09.2019
2040 Clear 20 1027 88 10000 0.5 0 08:37 13.09.2019
2041 Clear 20 1027 88 10000 0.5 0 08:19 13.09.2019
2042 Clear 19 1027 68 10000 2.1 350 07:41 13.09.2019
2043 Clear 18 1027 68 10000 2.1 350 07:21 13.09.2019
2044 Clear 19 1026 72 10000 2.1 340 06:38 13.09.2019
2045 Clear 20 1026 72 10000 1 0 05:34 13.09.2019
2046 Clear 19 1026 68 10000 1.5 150 03:52 13.09.2019
2047 Clear 19 1025 68 10000 1 0 03:25 13.09.2019
2048 Clear 20 1025 63 10000 1 0 02:20 13.09.2019
2049 Clear 20 1025 63 10000 1 0 01:37 13.09.2019
2050 Clear 21 1025 60 10000 0.5 0 00:59 13.09.2019
2051 Clear 21 1025 49 10000 1 0 00:35 13.09.2019
2052 Clear 22 1025 49 10000 2.6 360 23:53 12.09.2019
2053 Clear 22 1025 46 10000 2.1 80 23:25 12.09.2019
2054 Clear 22 1025 46 10000 2.1 30 22:58 12.09.2019
2055 Clear 22 1025 44 10000 3.1 40 22:39 12.09.2019
2056 Clear 22 1025 44 10000 3.1 40 22:21 12.09.2019
2057 Clear 22 1025 41 10000 2.6 30 21:55 12.09.2019
2058 Clear 23 1024 39 10000 5.1 360 21:37 12.09.2019
2059 Clear 23 1024 39 10000 5.1 360 21:18 12.09.2019
2060 Clear 24 1024 34 10000 6.2 350 20:44 12.09.2019
2061 Clear 24 1024 34 10000 5.1 360 20:22 12.09.2019
2062 Clear 25 1024 47 10000 0.5 0 19:57 12.09.2019
2063 Clear 25 1023 32 10000 5.1 350 19:39 12.09.2019
2064 Clear 26 1023 32 10000 5.1 350 19:19 12.09.2019
2065 Clear 27 1024 39 10000 3.1 250 18:56 12.09.2019
2066 Clear 27 1023 25 10000 4.1 10 18:36 12.09.2019
2067 Clear 28 1023 25 10000 4.1 10 18:18 12.09.2019
2068 Clear 29 1023 37 10000 3.1 240 17:40 12.09.2019
2069 Clear 29 1023 37 10000 3.1 240 17:20 12.09.2019
2070 Clear 29 1023 37 10000 3.1 240 17:20 12.09.2019
2071 Clear 29 1024 35 10000 5.1 270 16:56 12.09.2019
2072 Clear 29 1024 35 10000 5.1 270 16:56 12.09.2019
2073 Clear 29 1024 35 10000 4.1 270 16:36 12.09.2019
2074 Clear 29 1024 35 10000 4.1 270 16:18 12.09.2019
2075 Clear 29 1024 23 10000 4.6 340 15:41 12.09.2019
2076 Clear 29 1024 23 10000 4.6 340 15:23 12.09.2019
2077 Clear 29 1025 25 10000 2.6 320 14:45 12.09.2019
2078 Clear 29 1025 27 10000 3.1 10 14:22 12.09.2019
2079 Clear 29 1025 30 10000 3.6 330 13:58 12.09.2019
2080 Clear 28 1025 28 10000 3.6 10 13:37 12.09.2019
2081 Clear 28 1025 28 10000 3.6 10 13:37 12.09.2019
2082 Clear 28 1025 28 10000 3.6 10 13:18 12.09.2019
2083 Clear 27 1026 39 10000 2.6 360 12:44 12.09.2019
2084 Clear 26 1026 39 10000 1.5 0 12:19 12.09.2019
2085 Clear 26 1026 47 10000 2.6 360 11:56 12.09.2019
2086 Clear 26 1025 50 10000 2.1 20 11:38 12.09.2019
2087 Clear 25 1025 50 10000 2.1 20 11:19 12.09.2019
2088 Clear 24 1025 60 10000 1.5 0 10:44 12.09.2019
2089 -273 0 0 0 0 0 10:25 12.09.2019
2090 Clear 22 1025 72 10000 1 0 09:44 12.09.2019
2091 Clear 21 1025 72 10000 1 0 09:23 12.09.2019
2092 Clear 20 1024 63 10000 1 0 08:58 12.09.2019
2093 Clear 20 1024 93 10000 1.5 0 08:40 12.09.2019
2094 Clear 19 1024 93 10000 1.5 0 08:21 12.09.2019
2095 Clear 17 1023 77 10000 2.1 30 07:39 12.09.2019
2096 Clear 17 1023 77 10000 2.1 30 07:19 12.09.2019
2097 Clear 17 1023 72 10000 2.6 30 06:50 12.09.2019
2098 Clear 17 1023 72 10000 1.5 30 06:19 12.09.2019
2099 Clear 17 1023 72 10000 2.1 10 05:49 12.09.2019
2100 Clear 17 1021 72 10000 3.6 40 05:29 12.09.2019
2101 Clear 18 1022 72 10000 2.1 30 04:35 12.09.2019
2102 Clear 18 1022 63 10000 0.5 0 02:24 12.09.2019
2103 Clear 19 1021 63 10000 1.5 80 01:30 12.09.2019
2104 Clear 19 1021 60 10000 1.5 50 00:59 12.09.2019
2105 Clear 19 1021 60 10000 2.1 80 00:41 12.09.2019
2106 Clear 19 1021 60 10000 2.1 80 00:23 12.09.2019
2107 Clear 20 1021 56 10000 2.1 90 23:41 11.09.2019
2108 Clear 20 1021 56 10000 2.1 90 23:41 11.09.2019
2109 Clear 20 1021 56 10000 2.1 90 23:21 11.09.2019
2110 Clear 21 1021 56 10000 2.6 100 22:56 11.09.2019
2111 Clear 21 1021 56 10000 2.1 90 22:37 11.09.2019
2112 Clear 21 1021 56 10000 2.1 90 22:19 11.09.2019
2113 Clear 21 1021 56 10000 2.1 90 22:19 11.09.2019
2114 Clear 21 1021 56 10000 2.1 90 21:42 11.09.2019
2115 Clear 21 1021 60 10000 1.5 100 21:42 11.09.2019
2116 Clear 22 1021 60 10000 1.5 100 21:24 11.09.2019
2117 Clear 22 1021 60 10000 0.5 0 20:57 11.09.2019
2118 Clear 23 1020 50 10000 1.5 0 20:39 11.09.2019
2119 Clear 23 1020 50 10000 1.5 0 20:19 11.09.2019
2120 Clear 24 1020 53 10000 2.6 260 19:58 11.09.2019
2121 Clear 24 1019 47 10000 3.1 250 19:39 11.09.2019
2122 Clear 24 1019 47 10000 3.1 250 19:39 11.09.2019
2123 Clear 24 1019 47 10000 3.1 250 19:39 11.09.2019
2124 Clear 25 1019 47 10000 3.1 250 19:21 11.09.2019
2125 Clear 26 1020 41 10000 4.1 270 18:56 11.09.2019
2126 Clear 27 1018 39 10000 5.7 250 18:38 11.09.2019
2127 Clear 27 1018 39 10000 5.7 250 18:19 11.09.2019
2128 Clear 27 1018 39 10000 5.7 250 18:19 11.09.2019
2129 Clear 27 1018 39 10000 5.7 250 18:19 11.09.2019
2130 Clear 27 1019 39 10000 4.1 250 17:55 11.09.2019
2131 Clear 28 1018 39 10000 5.7 250 17:37 11.09.2019
2132 Clear 28 1018 39 10000 5.7 250 17:18 11.09.2019
2133 Clouds 28 1018 37 10000 4.6 250 16:42 11.09.2019
2134 Clear 28 1018 31 10000 2.1 140 16:23 11.09.2019
2135 Clear 28 1018 31 10000 2.1 140 16:23 11.09.2019
2136 Clouds 28 1018 30 10000 1.5 0 15:47 11.09.2019
2137 Clouds 28 1018 30 10000 1.5 0 15:47 11.09.2019
2138 Clear 28 1018 35 10000 2.6 30 15:24 11.09.2019
2139 Clear 28 1018 37 10000 3.1 310 14:59 11.09.2019
2140 Clear 28 1018 37 10000 1.5 0 14:41 11.09.2019
2141 Clear 28 1018 37 10000 1.5 0 14:21 11.09.2019
2142 Clear 27 1018 36 10000 2.1 0 13:59 11.09.2019
2143 Clear 27 1018 39 10000 1 0 13:37 11.09.2019
2144 Clear 27 1018 39 10000 1 0 13:19 11.09.2019
2145 Clear 27 1018 44 10000 2.6 10 12:43 11.09.2019
2146 Clear 26 1018 44 10000 2.6 10 12:23 11.09.2019
2147 Clear 26 1018 44 10000 3.1 10 11:58 11.09.2019
2148 Clear 25 1018 50 10000 1.5 0 11:39 11.09.2019
2149 Clear 25 1018 50 10000 1.5 0 11:21 11.09.2019
2150 Clear 24 1018 53 10000 3.6 20 10:55 11.09.2019
2151 Clear 24 1018 53 10000 3.6 20 10:55 11.09.2019
2152 Clear 24 1018 64 10000 1 0 10:36 11.09.2019
2153 Clear 23 1018 64 10000 1 0 10:18 11.09.2019
2154 Clear 22 1017 82 10000 1.05 252.067 09:37 11.09.2019
2155 Clear 21 1017 82 10000 0.88 41.504 09:19 11.09.2019
2156 Clear 20 1017 93 10000 1.5 0 08:41 11.09.2019
2157 Clear 19 1017 93 10000 1.5 0 08:21 11.09.2019
2158 Clear 18 1016 72 10000 3.6 40 07:57 11.09.2019
2159 Clear 18 1016 72 10000 4.1 20 07:38 11.09.2019
2160 Clear 17 1016 72 10000 4.1 20 07:19 11.09.2019
2161 Clear 18 1015 72 10000 3.1 30 06:38 11.09.2019
2162 Clear 18 1015 72 10000 3.1 30 06:19 11.09.2019
2163 Clear 18 1015 77 10000 2.6 10 05:33 11.09.2019
2164 Clear 18 1015 82 10000 1.5 360 04:52 11.09.2019
2165 Clear 18 1015 68 10000 1.5 30 03:59 11.09.2019
2166 Clear 18 1015 60 10000 0.5 0 03:26 11.09.2019
2167 Clear 18 1015 68 10000 2.6 100 02:31 11.09.2019
2168 Clear 19 1014 77 10000 1.5 90 01:31 11.09.2019
2169 Clear 19 1015 72 10000 2.1 80 00:37 11.09.2019
2170 Clear 19 1015 72 10000 2.1 80 00:19 11.09.2019
2171 Clear 19 1014 77 10000 2.6 80 23:40 10.09.2019
2172 Clear 20 1014 77 10000 2.6 80 23:21 10.09.2019
2173 Clear 20 1014 77 10000 2.1 90 22:54 10.09.2019
2174 Clear 20 1014 73 10000 1 80 22:36 10.09.2019
2175 Clear 20 1014 73 10000 1 80 22:18 10.09.2019
2176 Clear 20 1014 73 10000 1 80 22:18 10.09.2019
2177 Clear 20 1014 73 10000 1.5 140 21:54 10.09.2019
2178 Clear 20 1014 68 10000 1.5 190 21:36 10.09.2019
2179 Clear 21 1014 68 10000 1.5 190 21:18 10.09.2019
2180 Clear 21 1013 68 10000 1 0 20:54 10.09.2019
2181 Clear 22 1013 60 10000 2.6 260 20:36 10.09.2019
2182 Clear 22 1013 60 10000 2.6 260 20:18 10.09.2019
2183 Clear 23 1013 60 10000 1.5 240 19:54 10.09.2019
2184 Clear 23 1012 54 10000 3.1 260 19:36 10.09.2019
2185 Clear 24 1012 54 10000 3.1 260 19:18 10.09.2019
2186 Clouds 25 1012 51 10000 4.1 270 18:42 10.09.2019
2187 Clouds 25 1012 51 10000 4.1 270 18:22 10.09.2019
2188 Clouds 26 1013 50 10000 2.6 240 17:55 10.09.2019
2189 Clouds 26 1013 39 10000 1.5 0 17:37 10.09.2019
2190 Clouds 26 1013 39 10000 1.5 0 17:19 10.09.2019
2191 Clouds 26 1013 47 10000 2.6 210 16:56 10.09.2019
2192 Clouds 26 1013 42 10000 1 0 16:37 10.09.2019
2193 Clouds 26 1013 42 10000 1 0 16:37 10.09.2019
2194 Clouds 26 1013 42 10000 1 0 16:19 10.09.2019
2195 Clouds 26 1014 45 10000 1 0 15:43 10.09.2019
2196 Clouds 26 1014 45 10000 1 0 15:22 10.09.2019
2197 Clouds 25 1014 39 10000 2.6 90 14:55 10.09.2019
2198 Clouds 26 1015 50 10000 1 0 14:37 10.09.2019
2199 Clouds 26 1015 50 10000 1 0 14:19 10.09.2019
2200 Clouds 25 1015 53 10000 1.5 0 13:44 10.09.2019
2201 Clouds 25 1015 53 10000 1.5 0 13:22 10.09.2019
2202 Clouds 25 1015 47 10000 2.6 160 12:51 10.09.2019
2203 Clouds 24 1015 53 10000 2.1 110 12:28 10.09.2019
2204 Clouds 24 1015 53 10000 2.6 150 11:58 10.09.2019
2205 Clouds 23 1015 53 10000 2.1 60 11:40 10.09.2019
2206 Clouds 23 1015 53 10000 2.1 60 11:21 10.09.2019
2207 Clouds 22 1015 68 10000 2.1 10 10:42 10.09.2019
2208 Clouds 21 1015 68 10000 2.1 10 10:21 10.09.2019
2209 Clouds 21 1015 64 10000 3.1 140 09:58 10.09.2019
2210 Clear 20 1015 87 10000 2.6 350 09:40 10.09.2019
2211 Clear 18 1015 72 10000 1 0 09:19 10.09.2019
2212 Clear 17 1015 93 10000 2.6 360 08:47 10.09.2019
2213 Clear 17 1015 93 10000 2.6 360 08:28 10.09.2019
2214 Clear 16 1015 77 10000 0.5 0 07:55 10.09.2019
2215 Clear 16 1015 77 10000 0.5 0 07:55 10.09.2019
2216 Clear 16 1015 77 10000 1.5 0 07:37 10.09.2019
2217 Clear 15 1015 77 10000 1.5 0 07:18 10.09.2019
2218 Clear 15 1015 72 10000 2.6 60 06:39 10.09.2019
2219 Clear 15 1015 72 10000 2.1 100 06:18 10.09.2019
2220 Clear 15 1015 77 10000 1.5 100 03:58 10.09.2019
2221 Clear 15 1016 72 10000 1.5 80 02:38 10.09.2019
2222 Clear 15 1016 72 10000 1.5 80 02:38 10.09.2019
2223 Clear 15 1016 72 10000 1.5 80 02:38 10.09.2019
2224 Clear 15 1016 72 10000 2.1 90 02:19 10.09.2019
2225 Clear 16 1016 67 10000 2.1 100 01:45 10.09.2019
2226 Clear 16 1016 67 10000 2.1 100 01:22 10.09.2019
2227 Clear 16 1016 72 10000 3.1 130 00:34 10.09.2019
2228 Clear 16 1016 72 10000 3.1 130 23:48 09.09.2019
2229 Clear 17 1016 72 10000 2.6 130 23:20 09.09.2019
2230 Clear 17 1016 72 10000 2.6 130 22:58 09.09.2019
2231 Clear 17 1016 68 10000 2.6 130 22:39 09.09.2019
2232 Clear 17 1016 68 10000 2.6 130 22:21 09.09.2019
2233 Clear 17 1016 68 10000 2.1 130 21:59 09.09.2019
2234 Clear 18 1016 68 10000 2.1 140 21:40 09.09.2019
2235 Clear 19 1015 60 10000 1.5 190 21:21 09.09.2019
2236 Clear 19 1015 60 10000 1.5 190 20:57 09.09.2019
2237 Clear 20 1015 56 10000 2.1 240 20:38 09.09.2019
2238 Clear 20 1015 56 10000 2.1 240 20:19 09.09.2019
2239 Clear 21 1015 49 10000 2.6 220 19:59 09.09.2019
2240 Clear 21 1014 47 10000 2.6 250 19:39 09.09.2019
2241 Clear 22 1014 46 10000 3.1 210 19:20 09.09.2019
2242 Clear 22 1014 46 10000 3.1 210 18:58 09.09.2019
2243 Clear 23 1014 46 10000 3.1 210 18:40 09.09.2019
2244 Clear 23 1014 46 10000 3.1 210 18:22 09.09.2019
2245 Clear 24 1014 44 10000 3.1 220 17:59 09.09.2019
2246 Clear 24 1014 44 10000 3.1 220 17:59 09.09.2019
2247 Clear 24 1014 44 10000 4.6 240 17:40 09.09.2019
2248 Clear 24 1014 44 10000 4.6 240 17:21 09.09.2019
2249 Clear 24 1014 47 10000 4.6 210 16:57 09.09.2019
2250 Clouds 24 1014 41 10000 4.1 250 16:38 09.09.2019
2251 Clear 24 1014 41 10000 3.1 250 16:20 09.09.2019
2252 Clear 24 1014 41 10000 3.1 250 15:56 09.09.2019
2253 Clouds 24 1014 73 10000 4.6 230 15:37 09.09.2019
2254 Clouds 25 1014 73 10000 4.6 230 15:19 09.09.2019
2255 Clouds 24 1014 38 10000 4.1 210 14:57 09.09.2019
2256 Clouds 24 1014 34 10000 3.1 230 14:38 09.09.2019
2257 Clouds 24 1014 41 10000 4.1 190 14:19 09.09.2019
2258 Clouds 24 1014 34 10000 4.24 214.971 13:44 09.09.2019
2259 Clouds 24 1014 34 10000 3.41 215.186 13:21 09.09.2019
2260 Clouds 24 1014 38 10000 1 0 12:58 09.09.2019
2261 Clouds 24 1014 41 10000 0.5 0 12:38 09.09.2019
2262 Clouds 24 1014 41 10000 0.5 0 12:20 09.09.2019
2263 Clouds 23 1014 56 10000 1 0 11:47 09.09.2019
2264 Clouds 23 1014 56 10000 1 0 11:23 09.09.2019
2265 Clouds 22 1014 52 10000 1.5 350 10:59 09.09.2019
2266 Clouds 22 1014 56 10000 1 0 10:41 09.09.2019
2267 Clouds 21 1014 53 10000 2.1 200 10:21 09.09.2019
2268 Clouds 21 1014 53 10000 2.1 200 09:57 09.09.2019
2269 Clouds 21 1014 53 10000 2.1 200 09:57 09.09.2019
2270 Clouds 21 1013 68 10000 0.5 0 09:38 09.09.2019
2271 Clouds 20 1013 68 10000 0.5 0 09:19 09.09.2019
2272 Clouds 19 1013 77 10000 1 0 08:39 09.09.2019
2273 Clouds 19 1013 77 10000 1 0 08:39 09.09.2019
2274 Clouds 18 1013 67 10000 2.1 130 08:20 09.09.2019
2275 Clouds 18 1013 67 10000 2.1 130 08:20 09.09.2019
2276 Clouds 17 1013 67 10000 2.1 130 07:46 09.09.2019
2277 Clouds 17 1013 63 10000 1.5 150 07:23 09.09.2019
2278 Clouds 17 1013 63 10000 1.5 150 06:57 09.09.2019
2279 Clouds 17 1013 63 10000 1.5 150 06:57 09.09.2019
2280 Clouds 17 1013 63 10000 1.5 160 06:35 09.09.2019
2281 Clouds 18 1014 59 10000 2.6 190 04:56 09.09.2019
2282 Clouds 20 1014 60 10000 2.1 240 02:54 09.09.2019
2283 Clouds 21 1014 56 10000 3.6 230 02:34 09.09.2019
2284 Clouds 21 1015 56 10000 3.1 220 00:43 09.09.2019
2285 Clouds 21 1015 56 10000 3.1 220 00:22 09.09.2019
2286 Clouds 21 1015 56 10000 2.1 210 23:45 08.09.2019
2287 Clouds 20 1015 56 10000 2.1 210 23:24 08.09.2019
2288 Clear 20 1015 60 10000 2.6 210 22:56 08.09.2019
2289 Clear 20 1015 56 10000 2.1 210 22:37 08.09.2019
2290 Clear 20 1015 56 10000 2.1 190 22:19 08.09.2019
2291 Clear 21 1015 53 10000 2.1 200 21:42 08.09.2019
2292 Clear 21 1015 53 10000 2.1 200 21:23 08.09.2019
2293 Clear 21 1015 53 10000 2.6 210 20:58 08.09.2019
2294 Clear 21 1014 47 10000 3.1 240 20:39 08.09.2019
2295 Clear 22 1014 47 10000 3.1 240 20:20 08.09.2019
2296 Clouds 22 1014 53 10000 2.1 230 19:59 08.09.2019
2297 Clouds 22 1014 47 10000 3.6 230 19:38 08.09.2019
2298 Clouds 23 1014 47 10000 3.6 230 19:19 08.09.2019
2299 Clouds 23 1014 47 10000 3.6 230 19:19 08.09.2019
2300 Clouds 23 1014 47 10000 3.1 230 18:57 08.09.2019
2301 Clouds 24 1014 44 10000 6.2 240 18:38 08.09.2019
2302 Clouds 24 1014 44 10000 3.6 230 18:18 08.09.2019
2303 Clouds 24 1014 44 10000 3.6 230 17:54 08.09.2019
2304 Clouds 25 1014 41 10000 6.2 240 17:36 08.09.2019
2305 Clouds 24 1014 41 10000 6.2 240 17:18 08.09.2019
2306 Clouds 24 1014 41 10000 6.2 240 17:18 08.09.2019
2307 Clouds 25 1014 44 10000 5.7 230 16:43 08.09.2019
2308 Clouds 25 1014 44 10000 5.7 230 16:22 08.09.2019
2309 Clouds 25 1015 47 10000 5.1 210 15:58 08.09.2019
2310 Clouds 25 1014 44 10000 6.2 230 15:40 08.09.2019
2311 Clouds 25 1014 44 10000 6.2 230 15:21 08.09.2019
2312 Clouds 25 1014 44 10000 4.6 210 14:55 08.09.2019
2313 Clouds 25 1014 47 10000 4.6 230 14:36 08.09.2019
2314 Clouds 25 1015 57 10000 4.6 210 14:18 08.09.2019
2315 Clouds 25 1015 57 10000 4.6 210 13:55 08.09.2019
2316 Clouds 25 1014 50 10000 6.2 200 13:36 08.09.2019
2317 Clouds 25 1015 57 10000 4.6 190 13:18 08.09.2019
2318 Clouds 24 1015 73 10000 2.6 220 12:41 08.09.2019
2319 Clouds 24 1015 73 10000 2.6 220 12:23 08.09.2019
2320 Rain 24 1015 57 10000 5.1 190 11:58 08.09.2019
2321 Rain 24 1015 57 10000 5.1 190 11:58 08.09.2019
2322 Rain 23 1015 69 10000 3.1 100 11:38 08.09.2019
2323 Rain 23 1015 69 10000 3.1 100 11:38 08.09.2019
2324 Rain 23 1015 69 10000 3.1 100 11:38 08.09.2019
2325 Rain 23 1015 69 10000 3.1 100 11:20 08.09.2019
2326 Rain 23 1015 64 10000 3.1 170 10:56 08.09.2019
2327 Clouds 23 1015 73 10000 6.81 198.462 10:38 08.09.2019
2328 Clouds 23 1015 73 10000 6.81 198.462 10:38 08.09.2019
2329 Clouds 22 1015 73 10000 6.81 198.462 10:19 08.09.2019
2330 Clear 21 1015 88 10000 1 0 09:38 08.09.2019
2331 Clear 20 1014 77 10000 1.5 120 09:20 08.09.2019
2332 Clear 19 1014 77 10000 1.5 120 08:56 08.09.2019
2333 Clear 19 1014 93 10000 0.5 0 08:37 08.09.2019
2334 Clear 18 1015 82 10000 2.1 110 08:18 08.09.2019
2335 Clouds 17 1015 82 10000 2.1 100 07:39 08.09.2019
2336 Clear 16 1014 82 10000 2.6 100 07:20 08.09.2019
2337 Clear 16 1015 82 10000 2.6 100 06:49 08.09.2019
2338 Clear 16 1015 82 10000 2.6 100 06:18 08.09.2019
2339 Clear 16 1015 82 10000 2.6 100 05:36 08.09.2019
2340 Clear 17 1015 82 10000 2.6 90 03:53 08.09.2019
2341 Clear 17 1015 77 10000 2.6 100 02:55 08.09.2019
2342 Clear 17 1015 82 10000 2.1 90 02:26 08.09.2019
2343 Clear 18 1016 82 10000 2.6 100 01:39 08.09.2019
2344 Clear 18 1016 82 10000 2.6 110 01:18 08.09.2019
2345 Clear 18 1016 82 10000 2.6 110 00:42 08.09.2019
2346 Clear 17 1016 82 10000 2.6 110 00:23 08.09.2019
2347 Clear 18 1016 77 10000 2.1 90 23:38 07.09.2019
2348 Clear 18 1016 77 10000 2.1 90 23:19 07.09.2019
2349 Clear 19 1016 82 10000 1.5 110 22:57 07.09.2019
2350 Clear 19 1016 82 10000 2.1 130 22:38 07.09.2019
2351 Clear 19 1016 82 10000 2.1 130 22:19 07.09.2019
2352 Clear 20 1015 73 10000 1 0 21:41 07.09.2019
2353 Clear 21 1015 73 10000 1 0 21:23 07.09.2019
2354 Clear 21 1015 68 10000 1 0 20:54 07.09.2019
2355 Clear 21 1015 64 10000 1.5 0 20:36 07.09.2019
2356 Clear 21 1015 64 10000 1.5 0 20:18 07.09.2019
2357 Drizzle 22 1015 60 10000 2.1 230 19:54 07.09.2019
2358 Drizzle 22 1014 57 10000 2.6 240 19:36 07.09.2019
2359 Drizzle 23 1014 50 10000 2.6 240 19:18 07.09.2019
2360 Drizzle 24 1014 54 10000 2.6 240 18:54 07.09.2019
2361 Drizzle 24 1014 54 10000 2.6 240 18:36 07.09.2019
2362 Rain 25 1014 50 10000 3.6 210 18:18 07.09.2019
2363 Rain 25 1014 47 10000 4.1 220 17:41 07.09.2019
2364 Rain 25 1014 47 10000 4.1 220 17:19 07.09.2019
2365 Clouds 25 1014 44 10000 3.6 220 16:59 07.09.2019
2366 Clouds 25 1014 47 10000 4.6 250 16:40 07.09.2019
2367 Clouds 26 1014 47 10000 4.6 250 16:20 07.09.2019
2368 Clouds 25 1014 41 10000 4.1 220 15:47 07.09.2019
2369 Clouds 25 1014 69 10000 2.6 320 15:26 07.09.2019
2370 Rain 26 1014 42 10000 4.1 220 14:57 07.09.2019
2371 Rain 26 1014 64 10000 4.36 274.131 14:37 07.09.2019
2372 Rain 26 1014 64 10000 4.36 274.131 14:19 07.09.2019
2373 Clouds 25 1014 47 10000 3.6 200 13:57 07.09.2019
2374 Clouds 25 1014 47 10000 1 0 13:39 07.09.2019
2375 Clouds 25 1014 47 10000 1 0 13:21 07.09.2019
2376 Clouds 25 1015 50 10000 1.5 0 12:44 07.09.2019
2377 Clouds 25 1015 50 10000 1.5 0 12:25 07.09.2019
2378 Clouds 24 1015 50 10000 1.5 0 11:55 07.09.2019
2379 Clear 24 1015 57 10000 1 0 11:36 07.09.2019
2380 Clear 24 1015 57 10000 1 0 11:18 07.09.2019
2381 Clear 23 1015 68 10000 1.5 0 10:38 07.09.2019
2382 Clear 23 1015 68 10000 1.5 0 10:20 07.09.2019
2383 Clear 22 1015 77 10000 2.6 360 09:43 07.09.2019
2384 Clear 22 1015 77 10000 2.6 360 09:25 07.09.2019
2385 Clouds 20 1014 73 10000 1 0 08:59 07.09.2019
2386 Clear 20 1014 88 10000 1.5 0 08:40 07.09.2019
2387 Clear 19 1014 88 10000 1.5 0 08:22 07.09.2019
2388 Clear 17 1014 82 10000 2.6 100 07:45 07.09.2019
2389 Clear 17 1014 82 10000 2.6 100 07:25 07.09.2019
2390 Clear 16 1013 77 10000 1 80 06:47 07.09.2019
2391 Clear 16 1013 77 10000 1 80 06:19 07.09.2019
2392 Clear 16 1014 72 10000 2.6 100 04:45 07.09.2019
2393 Clear 16 1013 77 10000 2.1 90 04:20 07.09.2019
2394 Clear 17 1014 68 10000 2.6 100 02:45 07.09.2019
2395 Clear 18 1014 68 10000 2.6 100 01:44 07.09.2019
2396 Clear 17 1015 68 10000 2.1 100 01:18 07.09.2019
2397 Clear 18 1015 68 10000 2.6 100 00:39 07.09.2019
2398 Clear 18 1015 68 10000 2.6 100 00:19 07.09.2019
2399 Clear 18 1015 68 10000 2.1 110 23:40 06.09.2019
2400 Clear 18 1015 68 10000 2.1 110 23:21 06.09.2019
2401 Clear 19 1015 63 10000 2.6 120 22:57 06.09.2019
2402 Clear 19 1015 63 10000 1 0 22:37 06.09.2019
2403 Clear 19 1015 63 10000 1 0 22:37 06.09.2019
2404 Clouds 19 1015 60 10000 1.5 140 22:19 06.09.2019
2405 Clouds 20 1015 60 10000 1.5 140 21:56 06.09.2019
2406 Clouds 20 1014 52 10000 1 220 21:38 06.09.2019
2407 Clouds 21 1014 52 10000 1 220 21:20 06.09.2019
2408 Clouds 22 1014 49 10000 1.5 230 20:56 06.09.2019
2409 Clear 22 1014 49 10000 1.5 0 20:37 06.09.2019
2410 Clouds 23 1014 47 10000 1.5 210 20:18 06.09.2019
2411 Clouds 23 1014 47 10000 1.5 210 20:18 06.09.2019
2412 Clear 23 1014 47 10000 2.1 210 19:42 06.09.2019
2413 Clear 23 1014 47 10000 2.1 210 19:24 06.09.2019
2414 Clouds 24 1014 50 10000 2.6 250 18:58 06.09.2019
2415 Clear 24 1014 53 10000 3.1 240 18:40 06.09.2019
2416 Clear 25 1014 53 10000 3.1 240 18:22 06.09.2019
2417 Clouds 25 1014 47 10000 3.1 220 17:56 06.09.2019
2418 Clouds 25 1014 47 10000 3.1 220 17:56 06.09.2019
2419 Clouds 25 1014 50 10000 3.6 240 17:37 06.09.2019
2420 Clouds 25 1014 44 10000 3.6 240 17:18 06.09.2019
2421 Clouds 25 1014 47 10000 2.6 220 16:38 06.09.2019
2422 Clouds 25 1014 47 10000 2.6 220 16:18 06.09.2019
2423 Clouds 25 1014 44 10000 3.1 240 15:41 06.09.2019
2424 Clouds 26 1014 44 10000 3.1 240 15:22 06.09.2019
2425 Clouds 25 1014 53 10000 4.1 240 14:48 06.09.2019
2426 Clouds 26 1014 47 10000 3.1 260 14:20 06.09.2019
2427 Clear 25 1014 51 10000 3.1 230 13:45 06.09.2019
2428 Clear 25 1014 51 10000 3.1 230 13:25 06.09.2019
2429 Clouds 25 1014 53 10000 3.6 230 12:59 06.09.2019
2430 Clouds 25 1014 65 10000 4.6 260 12:37 06.09.2019
2431 Clouds 24 1014 57 10000 3.1 230 12:18 06.09.2019
2432 Clouds 24 1014 61 10000 3.6 240 11:42 06.09.2019
2433 Clouds 24 1014 61 10000 3.6 240 11:24 06.09.2019
2434 Clouds 24 1014 57 10000 3.1 240 10:58 06.09.2019
2435 Clear 24 1013 64 10000 0.5 0 10:39 06.09.2019
2436 Clouds 23 1013 69 10000 1.5 190 10:21 06.09.2019
2437 Clear 23 1013 77 10000 5.62 211.593 09:40 06.09.2019
2438 Clear 22 1013 77 10000 2.39 173.282 09:21 06.09.2019
2439 Clear 22 1013 77 10000 2.39 173.282 09:21 06.09.2019
2440 Clouds 21 1013 78 10000 1.5 180 08:57 06.09.2019
2441 Clear 20 1013 88 10000 1 0 08:39 06.09.2019
2442 Clear 20 1013 88 10000 1 0 08:38 06.09.2019
2443 Clear 20 1013 88 10000 1 0 08:20 06.09.2019
2444 Clouds 19 1012 88 10000 2.1 110 07:45 06.09.2019
2445 Clouds 18 1012 88 10000 2.1 110 07:27 06.09.2019
2446 Clear 18 1012 88 10000 2.1 110 06:56 06.09.2019
2447 Clear 18 1012 88 10000 2.1 110 05:58 06.09.2019
2448 Clear 18 1012 88 10000 2.1 100 05:29 06.09.2019
2449 Clear 19 1012 82 10000 2.1 100 04:42 06.09.2019
2450 Clear 19 1012 82 10000 2.6 110 03:45 06.09.2019
2451 Clear 19 1012 77 10000 2.1 110 01:53 06.09.2019
2452 Clouds 20 1012 77 9000 1.5 130 00:40 06.09.2019
2453 Clear 20 1012 72 10000 1.5 110 23:44 05.09.2019
2454 Clear 20 1012 72 10000 1.5 110 23:25 05.09.2019
2455 Clear 20 1012 72 10000 1.5 110 23:25 05.09.2019
2456 Clear 21 1012 68 10000 2.1 110 22:56 05.09.2019
2457 Clear 21 1012 68 10000 2.1 110 22:56 05.09.2019
2458 Clear 21 1012 68 10000 1.5 100 22:37 05.09.2019
2459 Clear 21 1012 68 10000 1.5 100 22:37 05.09.2019
2460 Clear 21 1012 68 10000 1.5 100 22:19 05.09.2019
2461 Clear 21 1012 64 10000 1 150 21:56 05.09.2019
2462 Clear 22 1011 60 10000 0.5 0 21:37 05.09.2019
2463 Clear 23 1011 57 10000 1 0 21:19 05.09.2019
2464 Clear 24 1011 57 10000 1 0 20:55 05.09.2019
2465 Clear 24 1011 50 10000 2.6 230 20:37 05.09.2019
2466 Clear 25 1011 47 10000 2.1 220 20:18 05.09.2019
2467 Clear 25 1011 39 10000 2.6 260 19:42 05.09.2019
2468 Clear 26 1011 39 10000 2.6 240 19:23 05.09.2019
2469 Clear 26 1011 39 10000 2.6 240 18:58 05.09.2019
2470 Clear 26 1010 32 10000 5.1 270 18:39 05.09.2019
2471 Clouds 27 1011 39 10000 2.6 220 18:20 05.09.2019
2472 Clouds 28 1011 39 10000 2.6 220 17:55 05.09.2019
2473 Clear 28 1010 35 10000 3.6 260 17:37 05.09.2019
2474 Clouds 28 1011 37 10000 3.1 230 17:18 05.09.2019
2475 Clear 28 1010 33 10000 4.6 280 16:40 05.09.2019
2476 Clear 28 1010 33 10000 4.6 280 16:20 05.09.2019
2477 Clouds 28 1011 37 10000 3.1 250 15:58 05.09.2019
2478 Clear 28 1011 33 10000 1.5 0 15:38 05.09.2019
2479 Clear 28 1011 42 10000 2.6 210 15:18 05.09.2019
2480 Clear 28 1011 42 10000 2.6 210 15:18 05.09.2019
2481 Clear 28 1011 42 10000 2.6 210 15:18 05.09.2019
2482 Clear 28 1011 33 10000 3.46 246.002 14:43 05.09.2019
2483 Clear 28 1011 33 10000 3.46 246.002 14:22 05.09.2019
2484 Clear 28 1011 35 10000 1.5 0 13:44 05.09.2019
2485 Clear 28 1011 35 10000 1.5 0 13:23 05.09.2019
2486 Clear 28 1012 42 10000 2.1 330 12:59 05.09.2019
2487 Clear 28 1012 45 10000 1.5 0 12:41 05.09.2019
2488 Clear 26 1012 44 10000 1.5 350 12:22 05.09.2019
2489 Clear 26 1012 57 10000 2.1 350 11:44 05.09.2019
2490 Clear 26 1012 57 10000 2.1 350 11:20 05.09.2019
2491 Clear 25 1012 60 10000 1 0 10:55 05.09.2019
2492 Clear 25 1012 68 10000 2.1 360 10:36 05.09.2019
2493 Clear 24 1012 68 10000 2.1 360 10:18 05.09.2019
2494 Clear 23 1012 72 10000 2.1 360 09:40 05.09.2019
2495 Clear 22 1012 72 10000 2.1 360 09:20 05.09.2019
2496 Clouds 21 1012 77 10000 2.1 20 08:55 05.09.2019
2497 Clear 20 1012 82 10000 2.1 350 08:37 05.09.2019
2498 Clear 20 1012 82 10000 1.5 10 08:19 05.09.2019
2499 Clear 19 1012 82 10000 2.1 20 07:43 05.09.2019
2500 Clear 18 1012 82 10000 2.1 20 07:24 05.09.2019
2501 Clear 18 1012 77 10000 1 0 06:46 05.09.2019
2502 Clear 18 1012 77 10000 1 0 06:25 05.09.2019
2503 Clear 18 1012 77 10000 1.5 40 05:43 05.09.2019
2504 Clear 19 1012 77 10000 1.5 40 05:25 05.09.2019
2505 Clear 19 1012 68 10000 1.5 50 04:30 05.09.2019
2506 Clear 19 1012 77 10000 1.5 100 03:47 05.09.2019
2507 Clear 19 1013 77 10000 1.5 110 02:57 05.09.2019
2508 Clear 20 1013 72 10000 2.1 100 02:28 05.09.2019
2509 Clear 20 1013 77 10000 2.6 100 01:54 05.09.2019
2510 Clear 20 1013 82 10000 2.1 100 00:52 05.09.2019
2511 Clear 21 1013 77 10000 1.5 110 00:27 05.09.2019
2512 Clear 21 1013 77 10000 2.1 140 23:59 04.09.2019
2513 Clear 21 1014 77 10000 2.6 130 23:39 04.09.2019
2514 Clear 21 1014 77 10000 2.6 130 23:21 04.09.2019
2515 Clear 22 1014 77 10000 2.6 130 22:47 04.09.2019
2516 Clear 22 1014 69 10000 1.5 180 22:20 04.09.2019
2517 Clear 22 1014 69 10000 1.5 180 21:55 04.09.2019
2518 Clear 22 1014 69 10000 1.5 180 21:55 04.09.2019
2519 Clear 22 1014 69 10000 1.5 180 21:55 04.09.2019
2520 Clear 22 1014 69 10000 1.5 180 21:55 04.09.2019
2521 Clear 22 1013 69 10000 1.5 190 21:37 04.09.2019
2522 Clear 24 1013 64 10000 1.5 200 21:18 04.09.2019
2523 Clear 24 1013 64 10000 1.5 200 20:54 04.09.2019
2524 Clear 24 1012 57 10000 1 0 20:36 04.09.2019
2525 Clear 25 1013 61 10000 3.1 260 20:18 04.09.2019
2526 Clear 25 1012 51 10000 5.7 260 19:39 04.09.2019
2527 Clear 26 1013 51 10000 4.1 260 19:21 04.09.2019
2528 Clear 26 1012 51 10000 5.1 260 18:41 04.09.2019
2529 Clear 27 1012 51 10000 5.1 260 18:23 04.09.2019
2530 Clear 27 1013 51 10000 4.1 260 17:58 04.09.2019
2531 Clear 27 1012 48 10000 5.1 270 17:40 04.09.2019
2532 Clear 27 1012 48 10000 5.1 270 17:21 04.09.2019
2533 Clear 28 1013 45 10000 4.6 270 16:48 04.09.2019
2534 Clear 28 1013 35 10000 1.5 0 16:28 04.09.2019
2535 Clear 28 1013 39 10000 1.5 0 15:59 04.09.2019
2536 Clear 28 1013 37 10000 3.1 10 15:39 04.09.2019
2537 Clear 28 1013 37 10000 3.1 10 15:21 04.09.2019
2538 Clouds 28 1014 42 10000 2.1 330 14:58 04.09.2019
2539 Clear 28 1014 37 10000 1.5 0 14:37 04.09.2019
2540 Clear 27 1014 42 10000 2.6 230 14:19 04.09.2019
2541 Clear 27 1014 42 10000 2.6 230 13:57 04.09.2019
2542 Clear 27 1015 42 10000 2.1 280 13:37 04.09.2019
2543 Clear 27 1015 47 10000 2.1 0 13:19 04.09.2019
2544 Clear 27 1015 47 10000 3.1 330 12:41 04.09.2019
2545 Clear 26 1015 47 10000 3.1 330 12:23 04.09.2019
2546 Clear 25 1015 50 10000 3.1 20 11:56 04.09.2019
2547 Clear 25 1015 47 10000 3.6 10 11:37 04.09.2019
2548 Clear 25 1015 47 10000 3.6 10 11:37 04.09.2019
2549 Clear 25 1015 47 10000 3.6 10 11:19 04.09.2019
2550 Clear 24 1015 53 10000 3.1 20 10:44 04.09.2019
2551 Clear 24 1015 53 10000 3.1 20 10:25 04.09.2019
2552 Clouds 23 1015 60 10000 4.6 10 09:58 04.09.2019
2553 Clear 22 1015 60 10000 1.5 0 09:40 04.09.2019
2554 Clear 22 1015 60 10000 1.5 0 09:19 04.09.2019
2555 Clear 21 1015 64 10000 3.1 20 08:41 04.09.2019
2556 Clear 20 1015 64 10000 3.1 20 08:23 04.09.2019
2557 Clouds 19 1015 72 10000 2.6 30 07:56 04.09.2019
2558 Clouds 19 1015 68 10000 4.1 10 07:34 04.09.2019
2559 Clouds 19 1015 72 10000 1.5 20 06:49 04.09.2019
2560 Clear 19 1015 68 10000 3.1 30 06:21 04.09.2019
2561 Clear 20 1015 72 10000 2.6 10 04:53 04.09.2019
2562 Clear 20 1015 72 10000 3.1 30 04:21 04.09.2019
2563 Clouds 20 1015 73 10000 2.1 10 02:21 04.09.2019
2564 Clear 21 1015 78 10000 2.6 330 00:56 04.09.2019
2565 Clear 21 1015 73 10000 1 0 00:38 04.09.2019
2566 Clear 21 1015 73 10000 2.1 90 00:18 04.09.2019
2567 Clear 21 1015 78 10000 2.1 50 23:38 03.09.2019
2568 Clear 22 1015 69 10000 2.6 60 23:20 03.09.2019
2569 Clear 22 1015 78 10000 2.6 110 22:40 03.09.2019
2570 Clear 22 1015 78 10000 2.6 110 22:22 03.09.2019
2571 Clear 22 1015 78 10000 2.6 110 22:22 03.09.2019
2572 Clear 22 1015 78 10000 1 0 21:56 03.09.2019
2573 Clouds 22 1015 61 10000 1 0 21:38 03.09.2019
2574 Clouds 24 1014 57 10000 1.5 220 21:20 03.09.2019
2575 Clear 24 1014 54 10000 3.6 10 20:45 03.09.2019
2576 Clear 24 1014 54 10000 3.6 10 20:25 03.09.2019
2577 Clouds 24 1014 54 10000 1.5 220 19:58 03.09.2019
2578 Clouds 24 1014 54 10000 1.5 220 19:39 03.09.2019
2579 Clouds 24 1014 57 10000 2.6 190 19:19 03.09.2019
2580 Clouds 25 1014 57 10000 2.6 190 18:56 03.09.2019
2581 Clouds 25 1013 40 10000 4.6 360 18:38 03.09.2019
2582 Clouds 25 1013 40 10000 4.6 360 18:38 03.09.2019
2583 Thunderstorm 26 1013 54 10000 6.2 310 18:18 03.09.2019
2584 Thunderstorm 26 1013 54 10000 6.2 310 18:18 03.09.2019
2585 Thunderstorm 26 1013 40 10000 5.1 10 17:43 03.09.2019
2586 Thunderstorm 26 1013 40 10000 5.1 10 17:21 03.09.2019
2587 Thunderstorm 28 1013 45 10000 3.1 360 16:59 03.09.2019
2588 Thunderstorm 28 1013 40 10000 3.1 310 16:41 03.09.2019
2589 Thunderstorm 28 1013 40 10000 3.1 310 16:22 03.09.2019
2590 Clear 29 1013 43 10000 2.6 20 15:42 03.09.2019
2591 Clear 29 1013 43 10000 2.6 20 15:42 03.09.2019
2592 Clear 29 1013 43 10000 2.6 20 15:22 03.09.2019
2593 Clouds 29 1014 51 10000 2.6 10 14:59 03.09.2019
2594 Clear 29 1014 45 10000 2.6 10 14:41 03.09.2019
2595 Clear 29 1014 45 10000 2.6 10 14:41 03.09.2019
2596 Clear 28 1014 45 10000 2.6 10 14:21 03.09.2019
2597 Clear 28 1015 57 10000 2.6 30 13:58 03.09.2019
2598 Clear 29 1014 58 10000 1.5 0 13:38 03.09.2019
2599 Clear 29 1014 58 10000 1.5 0 13:38 03.09.2019
2600 Clear 28 1015 61 10000 3.1 20 13:19 03.09.2019
2601 Clear 28 1015 61 10000 3.1 20 12:57 03.09.2019
2602 Clear 28 1015 65 10000 1.5 0 12:38 03.09.2019
2603 Clear 26 1015 73 10000 3.6 350 12:20 03.09.2019
2604 Clear 26 1015 78 10000 1.5 0 11:42 03.09.2019
2605 Clear 25 1015 78 10000 1.5 0 11:23 03.09.2019
2606 Clear 25 1015 78 10000 4.1 10 10:57 03.09.2019
2607 Clear 24 1015 83 10000 1.5 0 10:39 03.09.2019
2608 Clear 24 1015 83 10000 1.5 0 10:20 03.09.2019
2609 Clear 23 1015 88 10000 2.1 350 09:44 03.09.2019
2610 Clear 22 1015 88 10000 2.1 350 09:26 03.09.2019
2611 Clear 21 1014 82 10000 3.1 30 08:56 03.09.2019
2612 Clear 21 1014 82 10000 3.1 30 08:56 03.09.2019
2613 Rain 20 1015 94 6000 1.5 0 08:37 03.09.2019
2614 Rain 20 1014 93 6000 2.6 20 08:18 03.09.2019
2615 Rain 19 1014 93 6000 1.5 30 07:41 03.09.2019
2616 Rain 19 1014 93 6000 1.5 30 07:23 03.09.2019
2617 Rain 19 1014 88 7000 1.5 30 06:45 03.09.2019
2618 Rain 19 1014 93 7000 1 0 05:53 03.09.2019
2619 Rain 19 1014 88 7000 0.5 0 03:42 03.09.2019
2620 Rain 19 1014 94 6000 1 0 02:46 03.09.2019
2621 Rain 19 1014 94 6000 1 0 02:24 03.09.2019
2622 Mist 20 1014 94 5000 1.5 50 01:50 03.09.2019
2623 Mist 19 1014 94 5000 1.5 50 01:32 03.09.2019
2624 Mist 20 1013 83 5000 3.1 40 00:43 03.09.2019
2625 Mist 20 1013 83 5000 3.1 40 00:23 03.09.2019
2626 Mist 20 1013 83 5000 3.1 40 00:23 03.09.2019
2627 Clouds 20 1013 88 8000 1.5 70 23:40 02.09.2019
2628 Clouds 20 1013 88 8000 1.5 70 23:20 02.09.2019
2629 Thunderstorm 20 1014 88 7000 1.5 30 22:56 02.09.2019
2630 Thunderstorm 21 1014 88 7000 1.5 30 22:38 02.09.2019
2631 Thunderstorm 20 1014 94 5000 4.1 320 22:19 02.09.2019
2632 Thunderstorm 20 1014 94 5000 4.1 320 21:57 02.09.2019
2633 Thunderstorm 21 1014 94 8000 1.5 90 21:38 02.09.2019
2634 Thunderstorm 21 1013 88 5000 1.5 150 21:20 02.09.2019
2635 Thunderstorm 21 1013 88 5000 1.5 150 20:57 02.09.2019
2636 Thunderstorm 21 1013 94 5000 1 0 20:39 02.09.2019
2637 Thunderstorm 21 1013 78 8000 1 0 20:18 02.09.2019
2638 Thunderstorm 21 1013 78 8000 1 0 19:55 02.09.2019
2639 Thunderstorm 21 1013 78 8000 1 0 19:55 02.09.2019
2640 Thunderstorm 22 1013 78 8000 1 0 19:37 02.09.2019
2641 Thunderstorm 22 1013 73 8000 3.1 50 19:19 02.09.2019
2642 Thunderstorm 23 1012 73 10000 2.6 150 18:38 02.09.2019
2643 Thunderstorm 23 1012 73 10000 2.6 150 18:38 02.09.2019
2644 Thunderstorm 24 1012 73 10000 3.6 140 18:20 02.09.2019
2645 Thunderstorm 23 1012 73 10000 3.6 140 17:56 02.09.2019
2646 Thunderstorm 24 1012 69 10000 2.1 280 17:38 02.09.2019
2647 Thunderstorm 24 1012 69 10000 2.1 280 17:19 02.09.2019
2648 Rain 25 1012 78 8000 2.1 250 16:41 02.09.2019
2649 Rain 26 1012 78 8000 2.1 250 16:21 02.09.2019
2650 Thunderstorm 27 1013 83 10000 4.1 120 15:57 02.09.2019
2651 Thunderstorm 27 1012 61 10000 5.7 210 15:38 02.09.2019
2652 Thunderstorm 27 1012 58 10000 5.1 230 15:19 02.09.2019
2653 Thunderstorm 27 1012 58 10000 5.1 230 14:56 02.09.2019
2654 Thunderstorm 28 1012 51 10000 1.5 0 14:37 02.09.2019
2655 Thunderstorm 28 1012 51 10000 1.5 0 14:37 02.09.2019
2656 Thunderstorm 28 1013 54 10000 1.5 160 14:18 02.09.2019
2657 Clouds 27 1013 54 10000 0.5 0 13:44 02.09.2019
2658 Clouds 27 1013 54 10000 0.5 0 13:25 02.09.2019
2659 Clear 27 1013 58 10000 0.5 0 12:47 02.09.2019
2660 Clear 27 1013 58 10000 0.5 0 12:27 02.09.2019
2661 Clouds 26 1013 69 10000 2.6 190 12:00 02.09.2019
2662 Clear 25 1013 65 9000 1 0 11:41 02.09.2019
2663 Clear 25 1013 65 9000 1 0 11:22 02.09.2019
2664 Clouds 25 1013 73 10000 1.5 0 10:59 02.09.2019
2665 Clouds 25 1013 73 10000 1.5 0 10:59 02.09.2019
2666 Clear 25 1013 73 8000 1.5 0 10:41 02.09.2019
2667 Clear 24 1013 73 8000 1.5 0 10:22 02.09.2019
2668 Clouds 24 1013 73 9000 1 0 09:58 02.09.2019
2669 Clear 24 1012 88 7000 1.5 0 09:38 02.09.2019
2670 Clouds 23 1012 78 10000 0.5 0 09:19 02.09.2019
2671 Clouds 22 1012 88 8000 1 0 08:42 02.09.2019
2672 Clouds 22 1012 88 8000 1 0 08:21 02.09.2019
2673 Clear 21 1012 83 10000 1 0 07:54 02.09.2019
2674 Clear 21 1012 83 10000 1 0 07:54 02.09.2019
2675 Clear 21 1012 77 10000 2.1 0 07:36 02.09.2019
2676 Clear 21 1012 77 10000 2.1 0 07:18 02.09.2019
2677 Clear 21 1012 83 10000 1 10 06:39 02.09.2019
2678 Clear 21 1012 83 10000 0.5 0 05:53 02.09.2019
2679 Clear 21 1012 73 10000 1 0 05:22 02.09.2019
2680 Clear 21 1012 68 10000 0.5 0 04:47 02.09.2019
2681 Clear 21 1012 68 10000 2.1 80 01:59 02.09.2019
2682 Clear 22 1012 73 10000 2.1 90 00:58 02.09.2019
2683 Clear 22 1012 69 10000 2.6 90 00:32 02.09.2019
2684 Clear 21 1012 78 10000 1 0 23:59 01.09.2019
2685 Clear 22 1012 69 10000 2.6 80 23:38 01.09.2019
2686 Clear 22 1012 69 10000 2.6 80 23:18 01.09.2019
2687 Clear 22 1012 73 10000 2.1 90 22:54 01.09.2019
2688 Clear 22 1012 78 10000 1.5 80 22:36 01.09.2019
2689 Clear 22 1012 73 10000 2.6 110 22:18 01.09.2019
2690 Clear 22 1012 78 10000 3.1 90 21:41 01.09.2019
2691 Rain 23 1012 78 10000 3.1 90 21:23 01.09.2019
2692 Rain 23 1012 78 10000 3.1 90 21:23 01.09.2019
2693 Rain 23 1012 78 10000 2.6 110 20:57 01.09.2019
2694 Rain 23 1011 65 10000 3.1 130 20:38 01.09.2019
2695 Rain 23 1012 78 10000 2.1 130 20:19 01.09.2019
2696 Rain 23 1012 78 10000 2.1 130 19:58 01.09.2019
2697 Rain 23 1012 78 10000 2.1 130 19:39 01.09.2019
2698 Rain 23 1012 78 10000 2.6 140 19:20 01.09.2019
2699 Thunderstorm 23 1011 69 10000 0.5 0 18:43 01.09.2019
2700 Clear 25 1011 69 10000 0.5 0 18:25 01.09.2019
2701 Thunderstorm 25 1011 61 9000 4.1 150 17:57 01.09.2019
2702 Thunderstorm 25 1011 78 10000 3.1 130 17:38 01.09.2019
2703 Thunderstorm 25 1011 78 10000 3.1 130 17:19 01.09.2019
2704 Thunderstorm 26 1011 78 6000 2.1 0 16:41 01.09.2019
2705 Thunderstorm 26 1011 78 6000 2.1 0 16:20 01.09.2019
2706 Thunderstorm 27 1011 83 9000 2.6 130 15:56 01.09.2019
2707 Thunderstorm 27 1011 83 9000 2.6 130 15:55 01.09.2019
2708 Thunderstorm 27 1011 51 8000 6.7 200 15:37 01.09.2019
2709 Thunderstorm 28 1011 51 8000 6.7 200 15:19 01.09.2019
2710 Thunderstorm 29 1011 43 10000 2.1 250 14:40 01.09.2019
2711 Thunderstorm 29 1011 43 10000 2.1 250 14:21 01.09.2019
2712 Clouds 29 1011 45 10000 2.1 0 13:57 01.09.2019
2713 Clear 30 1011 45 10000 1.5 0 13:39 01.09.2019
2714 Clear 29 1011 45 10000 1.5 0 13:19 01.09.2019
2715 Clear 29 1012 51 10000 1 0 12:42 01.09.2019
2716 Clear 29 1012 51 10000 1 0 12:24 01.09.2019
2717 Clear 28 1012 54 10000 2.1 330 11:55 01.09.2019
2718 Clear 28 1012 61 10000 3.1 340 11:36 01.09.2019
2719 Clear 28 1012 61 10000 3.1 340 11:18 01.09.2019
2720 Clear 27 1012 73 10000 2.6 10 10:43 01.09.2019
2721 Clear 26 1012 73 10000 2.6 10 10:23 01.09.2019
2722 Clear 25 1012 78 10000 2.6 360 09:43 01.09.2019
2723 Clear 24 1012 78 10000 2.6 360 09:25 01.09.2019
2724 Clear 24 1012 83 10000 1 0 08:45 01.09.2019
2725 Clear 23 1012 83 10000 1 0 08:25 01.09.2019
2726 Clear 22 1012 77 10000 1.5 350 07:59 01.09.2019
2727 Clear 21 1012 82 10000 1 0 07:40 01.09.2019
2728 Clear 21 1012 82 10000 2.1 40 06:59 01.09.2019
2729 Clear 21 1012 77 10000 2.6 10 06:34 01.09.2019
2730 Clear 21 1012 77 10000 1.5 10 05:57 01.09.2019
2731 Clear 21 1012 77 10000 1.5 10 05:57 01.09.2019
2732 Clear 22 1012 73 10000 2.1 40 04:32 01.09.2019
2733 Clear 22 1013 73 10000 1 40 03:43 01.09.2019
2734 Clear 22 1013 78 10000 2.1 20 02:58 01.09.2019
2735 Clear 22 1013 78 10000 2.1 50 02:28 01.09.2019
2736 Clear 22 1013 69 10000 1.5 50 01:51 01.09.2019
2737 Clear 23 1013 69 10000 1.5 90 01:24 01.09.2019
2738 Clear 23 1013 73 10000 2.1 110 00:46 01.09.2019
2739 Clear 23 1013 73 10000 2.1 110 00:23 01.09.2019
2740 Clear 23 1014 64 10000 1 0 23:55 31.08.2019
2741 Clear 23 1014 64 10000 1.5 60 23:36 31.08.2019
2742 Clear 23 1014 64 10000 1.5 110 23:18 31.08.2019
2743 Clear 23 1014 61 10000 1 80 22:44 31.08.2019
2744 Clear 24 1014 61 10000 1 80 22:25 31.08.2019
2745 Clear 24 1014 61 10000 1 0 21:58 31.08.2019
2746 Clouds 24 1014 57 10000 1.5 70 21:39 31.08.2019
2747 Clouds 24 1014 57 10000 1.5 70 21:19 31.08.2019
2748 Clear 24 1013 83 10000 1.5 0 20:47 31.08.2019
2749 Clear 25 1013 83 10000 1.5 0 20:29 31.08.2019
2750 Clouds 25 1013 54 10000 2.1 10 19:57 31.08.2019
2751 Clear 25 1013 78 10000 1.5 0 19:38 31.08.2019
2752 Rain 26 1013 51 10000 3.6 30 19:20 31.08.2019
2753 Clear 26 1013 83 10000 0.5 0 18:40 31.08.2019
2754 Clear 27 1013 83 10000 0.5 0 18:21 31.08.2019
2755 Thunderstorm 28 1014 48 10000 5.1 20 17:58 31.08.2019
2756 Thunderstorm 27 1014 61 9000 2.6 290 17:37 31.08.2019
2757 Thunderstorm 27 1014 61 9000 2.6 290 17:19 31.08.2019
2758 Thunderstorm 27 1014 61 9000 2.6 290 17:19 31.08.2019
2759 Thunderstorm 27 1014 61 9000 2.6 290 17:19 31.08.2019
2760 Thunderstorm 28 1013 40 10000 1 0 16:58 31.08.2019
2761 Thunderstorm 28 1013 40 10000 1 0 16:58 31.08.2019
2762 Thunderstorm 27 1014 54 8000 7.2 350 16:40 31.08.2019
2763 Thunderstorm 28 1014 48 10000 3.1 90 16:21 31.08.2019
2764 Thunderstorm 27 1014 48 10000 3.1 90 16:21 31.08.2019
2765 Thunderstorm 27 1014 48 10000 3.1 90 15:58 31.08.2019
2766 Thunderstorm 27 1013 48 10000 3.1 160 15:37 31.08.2019
2767 Thunderstorm 29 1015 69 7000 3.6 130 15:18 31.08.2019
2768 Thunderstorm 30 1014 34 10000 1.5 0 14:41 31.08.2019
2769 Thunderstorm 30 1014 34 10000 1.5 0 14:22 31.08.2019
2770 Thunderstorm 31 1014 38 10000 3.41 214.576 13:42 31.08.2019
2771 Thunderstorm 31 1014 38 10000 3.24 217.842 13:23 31.08.2019
2772 Clouds 31 1015 43 10000 1.5 0 12:59 31.08.2019
2773 Clear 31 1015 46 10000 1 0 12:40 31.08.2019
2774 Clear 30 1015 51 10000 1 0 12:20 31.08.2019
2775 Clear 29 1015 51 10000 1 0 11:56 31.08.2019
2776 Clear 29 1016 54 10000 1 0 11:38 31.08.2019
2777 Clear 28 1016 54 10000 1 0 11:20 31.08.2019
2778 Clear 28 1016 65 10000 1 0 10:43 31.08.2019
2779 Clear 27 1016 65 10000 1 0 10:19 31.08.2019
2780 Clear 27 1016 65 10000 1 0 10:19 31.08.2019
2781 Clear 26 1016 65 10000 1.5 30 09:59 31.08.2019
2782 Clear 26 1015 78 10000 1 0 09:38 31.08.2019
2783 Clear 25 1016 73 10000 1.5 20 09:19 31.08.2019
2784 Clear 24 1016 73 10000 2.1 20 08:44 31.08.2019
2785 Clear 24 1016 73 10000 2.1 20 08:25 31.08.2019
2786 Clear 22 1015 77 10000 1 20 07:42 31.08.2019
2787 Clear 22 1015 77 10000 1 20 07:23 31.08.2019
2788 Clear 21 1015 77 10000 1.5 30 06:49 31.08.2019
2789 Clear 22 1015 77 10000 1.5 30 06:21 31.08.2019
2790 Clear 22 1015 78 10000 2.1 60 05:34 31.08.2019
2791 Clear 22 1016 78 10000 1.5 10 04:39 31.08.2019
2792 Clear 22 1016 78 10000 1.5 40 03:50 31.08.2019
2793 Clear 23 1016 83 10000 1.5 20 02:59 31.08.2019
2794 Clear 23 1017 73 10000 1.5 20 01:56 31.08.2019
2795 Clear 23 1017 78 10000 2.1 20 01:36 31.08.2019
2796 Clear 23 1017 78 10000 2.1 20 01:18 31.08.2019
2797 Clear 23 1017 78 10000 2.1 20 00:41 31.08.2019
2798 Clear 23 1017 78 10000 2.1 20 00:41 31.08.2019
2799 Clear 23 1017 78 10000 2.1 100 00:23 31.08.2019
2800 Clear 23 1017 78 10000 1.5 110 23:40 30.08.2019
2801 Clouds 23 1017 78 10000 1.5 120 23:18 30.08.2019
2802 Clouds 24 1018 78 10000 0.5 0 22:43 30.08.2019
2803 Clouds 24 1018 78 10000 0.5 0 22:25 30.08.2019
2804 Clouds 24 1018 74 10000 1.5 240 21:59 30.08.2019
2805 Clear 24 1017 78 10000 2.1 310 21:38 30.08.2019
2806 Thunderstorm 25 1017 78 10000 2.1 310 21:20 30.08.2019
2807 Thunderstorm 25 1017 65 10000 1.5 250 20:59 30.08.2019
2808 Thunderstorm 25 1016 69 10000 1.5 0 20:41 30.08.2019
2809 Thunderstorm 26 1016 69 10000 1.5 0 20:21 30.08.2019
2810 Thunderstorm 26 1017 58 10000 1.5 220 19:59 30.08.2019
2811 Thunderstorm 27 1016 58 10000 2.1 240 19:39 30.08.2019
2812 Thunderstorm 27 1017 51 10000 2.6 220 19:19 30.08.2019
2813 Thunderstorm 28 1017 51 10000 2.6 220 18:55 30.08.2019
2814 Thunderstorm 29 1016 52 10000 4.1 240 18:37 30.08.2019
2815 Thunderstorm 28 1016 52 10000 4.1 240 18:37 30.08.2019
2816 Thunderstorm 29 1016 45 10000 3.1 240 18:18 30.08.2019
2817 Thunderstorm 29 1015 46 10000 4.1 240 17:55 30.08.2019
2818 Thunderstorm 29 1015 46 10000 4.1 240 17:55 30.08.2019
2819 Thunderstorm 29 1015 46 10000 4.1 240 17:55 30.08.2019
2820 Thunderstorm 29 1015 46 10000 4.1 240 17:37 30.08.2019
2821 Thunderstorm 30 1015 46 10000 4.1 240 17:18 30.08.2019
2822 Thunderstorm 30 1016 43 10000 4.6 270 16:43 30.08.2019
2823 Thunderstorm 30 1016 43 10000 4.6 270 16:22 30.08.2019
2824 Thunderstorm 31 1016 46 10000 4.6 260 15:44 30.08.2019
2825 Thunderstorm 31 1016 46 10000 4.6 260 15:24 30.08.2019
2826 Thunderstorm 31 1016 46 10000 4.6 260 15:24 30.08.2019
2827 Thunderstorm 31 1017 43 10000 2.1 180 14:57 30.08.2019
2828 Thunderstorm 31 1017 38 10000 2.1 280 14:38 30.08.2019
2829 Clear 31 1018 43 10000 1.5 0 14:20 30.08.2019
2830 Clear 31 1017 46 10000 1 0 13:43 30.08.2019
2831 Clear 31 1017 46 10000 1 0 13:23 30.08.2019
2832 Clear 30 1018 45 10000 2.6 190 12:55 30.08.2019
2833 Clear 30 1018 48 10000 2.1 210 12:36 30.08.2019
2834 Clear 29 1018 48 10000 1.5 0 12:18 30.08.2019
2835 Clear 29 1018 54 10000 1.5 0 11:41 30.08.2019
2836 Clear 28 1018 54 10000 1.5 0 11:23 30.08.2019
2837 Clear 27 1018 69 10000 1.5 0 10:39 30.08.2019
2838 Clear 27 1018 69 10000 1.5 0 10:21 30.08.2019
2839 Clear 26 1018 64 10000 3.1 20 09:58 30.08.2019
2840 Clear 26 1018 73 10000 2.1 350 09:38 30.08.2019
2841 Clear 25 1018 73 10000 2.1 350 09:19 30.08.2019
2842 Clear 23 1018 88 10000 1.5 0 08:44 30.08.2019
2843 Clear 23 1018 88 10000 1.5 0 08:44 30.08.2019
2844 Clear 23 1018 88 10000 1.5 0 08:25 30.08.2019
2845 Clear 22 1018 77 10000 1.5 50 07:58 30.08.2019
2846 Clear 21 1018 82 10000 1.5 40 07:38 30.08.2019
2847 Clear 21 1018 82 10000 1.5 40 07:20 30.08.2019
2848 Clear 21 1017 82 10000 1.5 40 06:43 30.08.2019
2849 Clear 21 1017 82 10000 1.5 40 06:24 30.08.2019
2850 Clear 21 1017 77 10000 1.5 10 05:43 30.08.2019
2851 Clear 22 1017 78 10000 1 0 03:58 30.08.2019
2852 Clear 22 1017 78 10000 1 0 03:58 30.08.2019
2853 Clear 22 1018 73 10000 1 0 03:37 30.08.2019
2854 Clear 22 1018 73 10000 1 0 03:37 30.08.2019
2855 Clear 22 1018 69 10000 1 60 02:45 30.08.2019
2856 Clear 22 1018 69 10000 1 60 02:22 30.08.2019
2857 Clear 23 1018 83 10000 2.1 60 00:58 30.08.2019
2858 Clear 23 1018 83 10000 1 0 00:26 30.08.2019
2859 Clear 23 1018 78 10000 0.5 0 23:56 29.08.2019
2860 Clear 23 1018 78 10000 1 0 23:37 29.08.2019
2861 Clear 23 1018 78 10000 1 0 23:19 29.08.2019
2862 Clear 24 1018 78 10000 1 0 22:42 29.08.2019
2863 Clear 24 1018 78 10000 1 0 22:42 29.08.2019
2864 Clear 24 1018 78 10000 1 0 22:23 29.08.2019
2865 Clear 24 1018 78 10000 1 0 22:23 29.08.2019
2866 Clear 25 1018 73 10000 0.5 0 21:43 29.08.2019
2867 Clear 25 1018 73 10000 0.5 0 21:22 29.08.2019
2868 Clear 26 1017 69 10000 1 0 20:59 29.08.2019
2869 Clear 26 1017 69 10000 1 0 20:41 29.08.2019
2870 Rain 26 1017 69 10000 1.5 220 20:20 29.08.2019
2871 Rain 26 1017 65 10000 2.1 220 19:58 29.08.2019
2872 Rain 27 1017 65 10000 2.1 220 19:39 29.08.2019
2873 Rain 27 1017 57 10000 2.6 220 19:21 29.08.2019
2874 Clear 28 1017 58 10000 2.6 220 18:42 29.08.2019
2875 Clear 28 1016 55 10000 5.7 220 18:20 29.08.2019
2876 Clouds 29 1017 61 10000 3.1 210 17:56 29.08.2019
2877 Clouds 29 1017 61 10000 3.1 210 17:56 29.08.2019
2878 Clouds 29 1017 61 10000 3.1 210 17:38 29.08.2019
2879 Thunderstorm 29 1016 48 10000 5.1 220 17:19 29.08.2019
2880 Clear 29 1016 54 10000 3.6 230 16:57 29.08.2019
2881 Clear 29 1016 54 10000 3.6 230 16:38 29.08.2019
2882 Thunderstorm 30 1017 48 10000 3.1 220 16:20 29.08.2019
2883 Clouds 30 1017 43 10000 3.6 230 15:39 29.08.2019
2884 Clouds 30 1017 43 10000 3.6 230 15:20 29.08.2019
2885 Clear 30 1017 45 10000 3.6 210 14:50 29.08.2019
2886 Clouds 30 1017 43 10000 4.1 210 14:24 29.08.2019
2887 Clear 30 1017 51 10000 3.1 210 13:59 29.08.2019
2888 Clear 30 1017 45 10000 2.1 230 13:39 29.08.2019
2889 Clear 30 1017 45 10000 2.1 230 13:20 29.08.2019
2890 Clear 29 1017 48 10000 3.1 190 12:59 29.08.2019
2891 Clear 29 1017 51 10000 1 0 12:39 29.08.2019
2892 Clear 29 1017 54 10000 0.5 0 12:21 29.08.2019
2893 Clear 29 1017 54 10000 0.5 0 11:59 29.08.2019
2894 Clear 28 1017 61 10000 1.5 0 11:39 29.08.2019
2895 Clear 27 1017 54 10000 2.1 20 11:19 29.08.2019
2896 Clear 27 1017 69 10000 3.2 151.248 10:45 29.08.2019
2897 Clear 27 1017 69 10000 3.2 151.248 10:25 29.08.2019
2898 Clear 26 1017 69 10000 3.1 30 09:56 29.08.2019
2899 Clear 25 1017 83 10000 1.5 0 09:38 29.08.2019
2900 Clear 24 1017 83 10000 1.5 0 09:18 29.08.2019
2901 Clear 23 1018 94 10000 2.6 360 08:40 29.08.2019
2902 Clear 22 1018 94 10000 2.6 360 08:22 29.08.2019
2903 Clear 21 1017 68 10000 1.5 100 07:50 29.08.2019
2904 Clear 21 1017 68 10000 1.5 100 07:27 29.08.2019
2905 Clear 20 1017 68 10000 2.1 70 06:48 29.08.2019
2906 Clear 20 1017 73 10000 1.5 110 06:30 29.08.2019
2907 Clear 21 1016 88 10000 1.5 110 05:43 29.08.2019
2908 Clear 21 1016 88 10000 1.5 50 04:51 29.08.2019
2909 Clear 21 1016 77 10000 1.5 100 04:29 29.08.2019
2910 Clear 21 1017 73 10000 2.1 120 03:35 29.08.2019
2911 Clear 22 1016 78 10000 1 130 01:50 29.08.2019
2912 Clear 22 1016 78 10000 1 130 01:30 29.08.2019
2913 Clear 23 1016 78 10000 2.6 80 00:45 29.08.2019
2914 Clear 23 1017 73 10000 1 60 00:21 29.08.2019
2915 Clear 23 1017 73 10000 1 60 00:21 29.08.2019
2916 Clear 23 1017 73 10000 1.5 0 23:44 28.08.2019
2917 Clear 23 1017 73 10000 1.5 0 23:25 28.08.2019
2918 Clear 23 1017 78 10000 1.5 40 22:59 28.08.2019
2919 Clear 23 1017 78 10000 3.1 50 22:39 28.08.2019
2920 Clear 23 1017 78 10000 3.1 50 22:39 28.08.2019
2921 Clear 24 1017 78 10000 3.1 40 22:18 28.08.2019
2922 Clear 24 1017 78 10000 3.1 40 21:58 28.08.2019
2923 Clear 24 1017 78 10000 1.5 40 21:39 28.08.2019
2924 Clear 24 1017 78 10000 1.5 40 21:39 28.08.2019
2925 Thunderstorm 24 1017 78 10000 1.5 40 21:20 28.08.2019
2926 Thunderstorm 25 1016 74 10000 2.1 270 20:45 28.08.2019
2927 Thunderstorm 25 1016 74 10000 2.1 270 20:27 28.08.2019
2928 Rain 26 1016 73 10000 3.1 210 19:59 28.08.2019
2929 Rain 26 1016 61 10000 3.6 250 19:39 28.08.2019
2930 Rain 26 1016 61 10000 3.6 250 19:21 28.08.2019
2931 Thunderstorm 27 1017 65 10000 5.7 210 18:42 28.08.2019
2932 Thunderstorm 28 1017 65 10000 5.7 210 18:22 28.08.2019
2933 Thunderstorm 28 1016 61 10000 4.1 210 17:57 28.08.2019
2934 Thunderstorm 28 1015 52 10000 3.6 220 17:37 28.08.2019
2935 Clear 29 1016 58 10000 4.1 200 17:19 28.08.2019
2936 Clear 29 1016 52 10000 4.6 250 16:43 28.08.2019
2937 Clear 29 1016 52 10000 4.6 250 16:19 28.08.2019
2938 Clear 29 1016 55 10000 4.1 220 15:58 28.08.2019
2939 Clouds 29 1015 46 10000 4.6 220 15:37 28.08.2019
2940 Clouds 29 1016 51 10000 4.1 180 15:18 28.08.2019
2941 Clouds 29 1016 51 10000 4.1 180 14:56 28.08.2019
2942 Clear 29 1016 46 10000 4.1 230 14:37 28.08.2019
2943 Clouds 30 1016 55 10000 4.1 200 14:19 28.08.2019
2944 Clouds 29 1016 55 10000 4.1 200 13:56 28.08.2019
2945 Clear 29 1016 48 10000 1.5 0 13:37 28.08.2019
2946 Clear 29 1016 48 10000 1.5 0 13:18 28.08.2019
2947 Clear 29 1016 48 10000 2.99 191.97 12:41 28.08.2019
2948 Clear 29 1016 48 10000 1.87 197.028 12:23 28.08.2019
2949 Clear 28 1017 58 10000 1.87 197.028 11:41 28.08.2019
2950 Clear 28 1017 54 10000 1 0 11:23 28.08.2019
2951 Clear 28 1017 54 10000 1 0 10:59 28.08.2019
2952 Clear 28 1017 69 10000 1 0 10:41 28.08.2019
2953 Clear 27 1017 57 10000 1 0 10:20 28.08.2019
2954 Clear 26 1017 57 10000 1 0 09:56 28.08.2019
2955 Clear 26 1017 83 10000 1.5 0 09:38 28.08.2019
2956 Clear 25 1017 83 10000 1.5 0 09:18 28.08.2019
2957 Clear 23 1017 88 10000 0.5 0 08:38 28.08.2019
2958 Clear 23 1017 88 10000 0.5 0 08:20 28.08.2019
2959 Mist 22 1017 83 10000 1 0 07:39 28.08.2019
2960 Mist 21 1017 83 10000 1 0 07:20 28.08.2019
2961 Mist 21 1017 78 10000 1.5 100 06:50 28.08.2019
2962 Mist 21 1017 78 10000 0.5 0 06:31 28.08.2019
2963 Mist 21 1017 78 10000 1 80 05:29 28.08.2019
2964 Clear 22 1017 88 10000 2.1 100 02:24 28.08.2019
2965 Clear 22 1017 78 10000 1 0 01:31 28.08.2019
2966 Clear 23 1017 78 10000 1 0 00:54 28.08.2019
2967 Clear 23 1017 83 10000 0.5 0 00:34 28.08.2019
2968 Clear 23 1017 83 10000 1.5 130 23:58 27.08.2019
2969 Clear 23 1017 78 10000 1.5 100 23:38 27.08.2019
2970 Clear 24 1017 78 10000 1 0 23:19 27.08.2019
2971 Clear 24 1017 78 10000 0.5 0 22:42 27.08.2019
2972 Clear 24 1017 78 10000 0.5 0 22:23 27.08.2019
2973 Clear 24 1017 73 10000 1 0 21:57 27.08.2019
2974 Clear 25 1017 69 10000 1.5 220 21:38 27.08.2019
2975 Clear 26 1017 69 10000 1.5 220 21:20 27.08.2019
2976 Clear 26 1016 61 10000 1.5 210 20:59 27.08.2019
2977 Clear 26 1016 61 10000 2.6 250 20:40 27.08.2019
2978 Clear 27 1016 61 10000 2.6 250 20:19 27.08.2019
2979 Clear 28 1015 51 10000 3.6 260 19:45 27.08.2019
2980 Clear 28 1015 51 10000 3.6 260 19:27 27.08.2019
2981 Rain 28 1016 45 10000 2.1 230 18:58 27.08.2019
2982 Rain 29 1015 48 10000 3.1 250 18:39 27.08.2019
2983 Clear 29 1016 43 10000 3.1 240 18:18 27.08.2019
2984 Clear 30 1016 43 10000 3.1 240 17:56 27.08.2019
2985 Clear 30 1016 46 10000 4.6 250 17:37 27.08.2019
2986 Clouds 30 1016 45 10000 3.6 210 17:18 27.08.2019
2987 Clear 31 1016 43 10000 4.1 260 16:43 27.08.2019
2988 Clear 31 1016 43 10000 4.1 260 16:24 27.08.2019
2989 Clouds 31 1017 45 10000 3.1 230 15:57 27.08.2019
2990 Clouds 31 1016 30 10000 1.5 0 15:38 27.08.2019
2991 Clouds 31 1016 30 10000 1.5 0 15:19 27.08.2019
2992 Clouds 31 1017 36 10000 1 0 14:42 27.08.2019
2993 Clouds 31 1017 36 10000 1 0 14:23 27.08.2019
2994 Clear 31 1017 40 10000 1.5 0 13:43 27.08.2019
2995 Clear 30 1017 40 10000 1.5 0 13:25 27.08.2019
2996 Clouds 30 1018 48 10000 1 0 12:59 27.08.2019
2997 Clear 30 1018 51 10000 4.15 243.219 12:39 27.08.2019
2998 Clear 30 1018 51 10000 2.81 223.573 12:20 27.08.2019
2999 Clear 29 1018 58 10000 2.1 350 11:46 27.08.2019
3000 Clear 28 1018 58 10000 2.1 350 11:26 27.08.2019
3001 Clear 28 1018 61 10000 1 0 10:55 27.08.2019
3002 Clear 28 1018 65 10000 2.1 30 10:37 27.08.2019
3003 Clear 27 1018 65 10000 2.1 30 10:18 27.08.2019
3004 Clear 26 1017 83 10000 1.5 0 09:39 27.08.2019
3005 Clear 25 1017 83 10000 1.5 0 09:21 27.08.2019
3006 Clear 23 1017 78 10000 1.5 10 08:56 27.08.2019
3007 Clear 23 1017 94 10000 1.5 0 08:38 27.08.2019
3008 Clear 23 1017 94 10000 1.5 0 08:18 27.08.2019
3009 Clear 21 1017 82 10000 1 0 07:41 27.08.2019
3010 Clear 21 1017 82 10000 1 0 07:20 27.08.2019
3011 Clear 20 1017 82 10000 1 0 06:54 27.08.2019
3012 Clear 20 1016 88 10000 2.6 20 06:27 27.08.2019
3013 Clear 21 1016 88 10000 2.1 10 05:47 27.08.2019
3014 Clear 21 1016 83 10000 1.5 50 04:54 27.08.2019
3015 Clear 21 1016 83 10000 1 0 03:39 27.08.2019
3016 Clear 22 1016 78 10000 1.5 60 02:23 27.08.2019
3017 Clear 22 1017 78 10000 1 0 01:44 27.08.2019
3018 Clear 22 1017 78 10000 1 0 01:22 27.08.2019
3019 Clear 22 1017 83 10000 2.1 90 00:44 27.08.2019
3020 Clear 22 1017 83 10000 2.1 90 00:24 27.08.2019
3021 Clear 22 1017 83 10000 1.5 110 23:39 26.08.2019
3022 Clear 23 1017 83 10000 1.5 110 23:21 26.08.2019
3023 Clear 23 1017 78 10000 0.5 0 22:41 26.08.2019
3024 Clear 24 1017 78 10000 0.5 0 22:20 26.08.2019
3025 Clear 24 1017 78 10000 0.5 0 21:59 26.08.2019
3026 Clear 24 1016 78 10000 1.5 120 21:38 26.08.2019
3027 Clear 25 1016 69 10000 1 0 21:20 26.08.2019
3028 Clear 25 1016 65 10000 1.5 360 20:57 26.08.2019
3029 Clear 25 1016 65 10000 1.5 360 20:38 26.08.2019
3030 Thunderstorm 26 1016 65 10000 2.1 280 20:19 26.08.2019
3031 Thunderstorm 26 1016 61 10000 2.6 270 19:43 26.08.2019
3032 Thunderstorm 27 1016 58 10000 2.6 290 19:20 26.08.2019
3033 Thunderstorm 27 1016 58 10000 3.6 290 18:59 26.08.2019
3034 Thunderstorm 27 1016 58 10000 3.6 290 18:38 26.08.2019
3035 Thunderstorm 27 1016 58 10000 3.6 290 18:38 26.08.2019
3036 Clear 28 1016 55 10000 3.6 250 18:19 26.08.2019
3037 Clear 28 1016 55 10000 3.6 250 18:19 26.08.2019
3038 Thunderstorm 28 1016 54 10000 2.6 270 17:44 26.08.2019
3039 Thunderstorm 28 1016 54 10000 2.1 260 17:20 26.08.2019
3040 Thunderstorm 28 1016 54 10000 1.5 0 16:58 26.08.2019
3041 Thunderstorm 28 1016 54 10000 1.5 0 16:40 26.08.2019
3042 Thunderstorm 28 1016 54 10000 1.5 0 16:40 26.08.2019
3043 Thunderstorm 29 1016 65 10000 1.5 80 16:19 26.08.2019
3044 Thunderstorm 28 1017 65 10000 2.1 60 15:59 26.08.2019
3045 Thunderstorm 28 1017 65 10000 2.1 60 15:41 26.08.2019
3046 Thunderstorm 29 1017 74 8000 1 0 15:21 26.08.2019
3047 Thunderstorm 30 1016 58 10000 6.2 270 14:44 26.08.2019
3048 Clouds 30 1016 61 10000 5.7 260 14:23 26.08.2019
3049 Clouds 30 1017 58 10000 2.6 220 13:57 26.08.2019
3050 Clouds 30 1017 58 10000 2.6 220 13:38 26.08.2019
3051 Clouds 30 1016 48 10000 1.5 0 13:19 26.08.2019
3052 Clouds 29 1017 48 10000 1.5 0 12:43 26.08.2019
3053 Clear 29 1017 58 10000 2.1 250 12:23 26.08.2019
3054 Clear 29 1017 58 10000 2.1 250 12:23 26.08.2019
3055 Clear 28 1017 54 10000 1 0 11:46 26.08.2019
3056 Clear 28 1017 61 10000 1 0 11:27 26.08.2019
3057 Clear 27 1017 61 10000 1.5 30 10:59 26.08.2019
3058 Clear 27 1017 61 10000 1.5 30 10:41 26.08.2019
3059 Clear 26 1017 69 10000 1.5 20 10:20 26.08.2019
3060 Clear 26 1017 69 10000 2.1 20 09:47 26.08.2019
3061 Clear 23 1017 73 10000 1 20 09:26 26.08.2019
3062 Clear 23 1017 73 10000 1 20 09:26 26.08.2019
3063 Clear 23 1017 78 10000 1.5 20 08:59 26.08.2019
3064 Clear 23 1017 78 10000 1.5 20 08:41 26.08.2019
3065 Clear 23 1017 83 10000 0.5 0 08:22 26.08.2019
3066 Clear 21 1017 88 10000 1.5 20 07:59 26.08.2019
3067 Clear 21 1017 88 10000 1.5 20 07:59 26.08.2019
3068 Clear 21 1017 88 10000 1.5 20 07:38 26.08.2019
3069 Clear 20 1016 82 10000 1 10 07:20 26.08.2019
3070 Clear 20 1016 82 10000 1 20 06:40 26.08.2019
3071 Clear 20 1016 82 10000 1.5 20 06:21 26.08.2019
3072 Clear 20 1016 82 10000 1.5 20 05:48 26.08.2019
3073 Clear 21 1016 77 10000 2.1 40 04:25 26.08.2019
3074 Clear 21 1016 77 10000 2.6 20 02:51 26.08.2019
3075 Clear 22 1016 78 10000 1 60 01:27 26.08.2019
3076 Clear 22 1017 78 10000 1.5 70 00:48 26.08.2019
3077 Clear 23 1017 78 10000 1 0 00:28 26.08.2019
3078 Clear 22 1017 78 10000 1 0 23:59 25.08.2019
3079 Clear 22 1017 78 10000 1 0 23:40 25.08.2019
3080 Clear 23 1016 78 10000 1 0 23:18 25.08.2019
3081 Clear 23 1017 73 10000 1 0 22:55 25.08.2019
3082 Clear 23 1017 73 10000 1 0 22:37 25.08.2019
3083 Clear 24 1016 73 10000 1 50 22:18 25.08.2019
3084 Clear 24 1016 78 10000 1.5 90 21:55 25.08.2019
3085 Clear 24 1016 78 10000 1.5 90 21:36 25.08.2019
3086 Clear 25 1016 65 10000 2.6 10 21:18 25.08.2019
3087 Clear 25 1016 57 10000 2.1 10 20:39 25.08.2019
3088 Clear 25 1016 65 10000 2.1 280 20:19 25.08.2019
3089 Clear 25 1016 65 10000 2.1 280 20:19 25.08.2019
3090 Clear 26 1016 65 10000 1.5 270 19:56 25.08.2019
3091 Clear 26 1016 65 10000 1.5 270 19:37 25.08.2019
3092 Clouds 26 1015 69 10000 3.1 340 19:18 25.08.2019
3093 Clear 27 1015 51 10000 1.5 50 18:57 25.08.2019
3094 Clouds 27 1015 74 10000 1.5 0 18:39 25.08.2019
3095 Clouds 28 1015 74 10000 1.5 0 18:18 25.08.2019
3096 Clouds 27 1015 65 10000 1 0 17:42 25.08.2019
3097 Thunderstorm 28 1015 69 10000 0.5 0 17:23 25.08.2019
3098 Thunderstorm 27 1016 78 10000 2.6 120 16:45 25.08.2019
3099 Thunderstorm 27 1015 62 10000 4.6 250 16:24 25.08.2019
3100 Thunderstorm 27 1015 62 10000 4.6 260 15:59 25.08.2019
3101 Thunderstorm 26 1015 62 10000 4.6 260 15:40 25.08.2019
3102 Thunderstorm 28 1015 58 10000 4.6 260 15:21 25.08.2019
3103 Clouds 30 1015 58 10000 5.1 260 14:42 25.08.2019
3104 Rain 30 1016 48 5000 2.1 0 14:23 25.08.2019
3105 Clouds 30 1016 42 10000 2.1 120 13:55 25.08.2019
3106 Clouds 30 1016 42 10000 2.1 120 13:36 25.08.2019
3107 Clear 30 1016 43 10000 1.5 0 13:18 25.08.2019
3108 Clouds 29 1016 40 10000 2.6 180 12:41 25.08.2019
3109 Clear 29 1016 48 10000 1.5 0 12:22 25.08.2019
3110 Clear 29 1017 45 10000 2.1 60 11:57 25.08.2019
3111 Clear 28 1017 45 10000 2.1 60 11:37 25.08.2019
3112 Clear 28 1017 48 10000 2.6 360 11:19 25.08.2019
3113 Clear 28 1017 47 10000 3.1 20 10:55 25.08.2019
3114 Clear 28 1017 47 10000 3.1 20 10:37 25.08.2019
3115 Clear 27 1017 47 10000 2.6 20 10:18 25.08.2019
3116 Clear 26 1017 50 10000 3.1 30 09:42 25.08.2019
3117 Clear 24 1017 60 10000 2.6 20 09:23 25.08.2019
3118 Clear 23 1016 60 10000 1 0 08:47 25.08.2019
3119 Clear 22 1017 88 10000 1.5 0 08:28 25.08.2019
3120 Clear 21 1016 68 10000 2.1 50 07:49 25.08.2019
3121 Clear 21 1016 68 10000 2.1 40 07:30 25.08.2019
3122 Clear 20 1016 64 10000 1 0 06:37 25.08.2019
3123 Clear 20 1016 68 10000 1.5 120 05:27 25.08.2019
3124 Clear 21 1016 64 10000 2.1 100 03:43 25.08.2019
3125 Clear 22 1016 60 10000 2.1 100 02:42 25.08.2019
3126 Clear 22 1016 64 10000 1.5 90 01:53 25.08.2019
3127 Clear 22 1017 60 10000 1.5 0 00:45 25.08.2019
3128 Clear 22 1017 57 10000 1.5 250 00:23 25.08.2019
3129 Clear 23 1016 57 10000 1.5 0 23:57 24.08.2019
3130 Clear 23 1016 57 10000 1.5 0 23:57 24.08.2019
3131 Clear 23 1016 57 10000 1.5 0 23:39 24.08.2019
3132 Clouds 24 1016 50 10000 3.6 120 23:21 24.08.2019
3133 Clouds 24 1016 53 10000 5.1 110 22:42 24.08.2019
3134 Clouds 24 1017 54 10000 3.1 110 22:19 24.08.2019
3135 Clouds 24 1016 61 10000 0.5 0 21:58 24.08.2019
3136 Clouds 24 1016 61 10000 0.5 0 21:39 24.08.2019
3137 Thunderstorm 25 1016 57 10000 1.5 210 21:21 24.08.2019
3138 Thunderstorm 25 1016 57 10000 1.5 190 20:57 24.08.2019
3139 Thunderstorm 26 1016 57 10000 1.5 190 20:38 24.08.2019
3140 Thunderstorm 26 1016 54 10000 1.5 200 20:19 24.08.2019
3141 Thunderstorm 26 1016 51 10000 1.5 230 19:57 24.08.2019
3142 Clear 27 1016 51 10000 1.5 230 19:38 24.08.2019
3143 Clear 28 1015 45 10000 2.1 250 19:20 24.08.2019
3144 Clear 28 1015 48 10000 3.1 240 18:46 24.08.2019
3145 Clear 29 1015 45 10000 3.1 260 18:24 24.08.2019
3146 Thunderstorm 30 1015 40 10000 3.6 240 17:46 24.08.2019
3147 Clouds 30 1015 40 10000 3.6 240 17:27 24.08.2019
3148 Clouds 30 1015 40 10000 3.1 250 16:56 24.08.2019
3149 Clouds 31 1015 40 10000 3.1 250 16:37 24.08.2019
3150 Clouds 30 1016 43 10000 2.1 0 16:19 24.08.2019
3151 Clouds 30 1016 43 10000 2.1 260 15:44 24.08.2019
3152 Clouds 30 1016 48 10000 2.6 220 15:25 24.08.2019
3153 Clouds 30 1017 54 10000 2.1 340 14:57 24.08.2019
3154 Clouds 30 1017 54 10000 2.1 340 14:38 24.08.2019
3155 Clear 29 1016 38 10000 1.5 0 14:18 24.08.2019
3156 Clear 30 1017 38 10000 2.1 0 13:43 24.08.2019
3157 Clear 29 1017 38 10000 2.1 320 13:22 24.08.2019
3158 Clear 30 1017 42 10000 3.1 20 12:59 24.08.2019
3159 Clear 29 1017 42 10000 3.1 20 12:40 24.08.2019
3160 Clear 29 1017 42 10000 3.1 20 12:40 24.08.2019
3161 Clear 29 1017 42 10000 2.6 10 12:22 24.08.2019
3162 Clear 28 1018 45 10000 3.6 20 11:46 24.08.2019
3163 Clear 28 1018 47 10000 4.1 20 11:26 24.08.2019
3164 Clear 27 1018 47 10000 4.1 10 10:59 24.08.2019
3165 Clear 28 1018 47 10000 4.1 10 10:38 24.08.2019
3166 Clear 27 1017 54 10000 3.1 0 10:19 24.08.2019
3167 Clear 26 1017 53 10000 2.6 10 09:41 24.08.2019
3168 Clear 25 1017 57 10000 2.1 360 09:18 24.08.2019
3169 Clear 25 1017 57 10000 2.1 360 09:18 24.08.2019
3170 Clear 24 1017 60 10000 2.1 30 08:43 24.08.2019
3171 Clear 24 1017 64 10000 3.1 340 08:23 24.08.2019
3172 Rain 23 1017 60 10000 1 0 07:51 24.08.2019
3173 Rain 22 1017 68 10000 2.1 20 07:29 24.08.2019
3174 Clear 22 1017 68 10000 2.6 20 06:31 24.08.2019
3175 Clear 22 1017 68 10000 2.6 40 05:59 24.08.2019
3176 Clear 21 1017 68 10000 2.6 40 05:35 24.08.2019
3177 Clear 22 1017 68 10000 2.1 340 03:40 24.08.2019
3178 Clear 23 1017 60 10000 1 0 02:41 24.08.2019
3179 Clear 23 1017 60 10000 1 0 01:53 24.08.2019
3180 Clear 23 1017 60 10000 1 0 01:22 24.08.2019
3181 Clear 23 1017 57 10000 1 0 00:45 24.08.2019
3182 Clear 23 1017 57 10000 1.5 360 00:21 24.08.2019
3183 Clear 23 1017 54 10000 0.5 0 23:44 23.08.2019
3184 Clear 24 1017 54 10000 2.6 320 23:20 23.08.2019
3185 Clear 24 1017 50 10000 1.5 240 22:44 23.08.2019
3186 Clear 25 1017 47 10000 1 120 22:24 23.08.2019
3187 Clear 25 1017 47 10000 3.6 80 21:55 23.08.2019
3188 Clear 25 1017 47 10000 3.6 80 21:37 23.08.2019
3189 Rain 25 1017 47 10000 3.1 50 21:18 23.08.2019
3190 Rain 25 1017 47 10000 3.6 10 20:50 23.08.2019
3191 Rain 25 1017 47 10000 3.6 10 20:32 23.08.2019
3192 Thunderstorm 26 1017 48 10000 3.6 80 19:46 23.08.2019
3193 Thunderstorm 27 1017 45 10000 4.1 50 19:19 23.08.2019
3194 Thunderstorm 27 1017 48 10000 4.6 50 18:55 23.08.2019
3195 Thunderstorm 27 1017 48 10000 4.6 50 18:37 23.08.2019
3196 Thunderstorm 28 1017 45 10000 4.6 40 18:18 23.08.2019
3197 Thunderstorm 29 1017 45 10000 3.6 310 17:41 23.08.2019
3198 Thunderstorm 30 1017 38 10000 2.1 0 17:23 23.08.2019
3199 Thunderstorm 30 1017 38 10000 3.1 220 16:49 23.08.2019
3200 Thunderstorm 30 1017 38 10000 3.6 220 16:30 23.08.2019
3201 Thunderstorm 31 1017 38 10000 3.6 230 15:59 23.08.2019
3202 Thunderstorm 31 1017 38 10000 3.6 230 15:40 23.08.2019
3203 Clouds 31 1017 38 10000 2.6 210 15:21 23.08.2019
3204 Clouds 31 1017 38 10000 3.6 200 14:56 23.08.2019
3205 Clouds 31 1017 38 10000 3.6 200 14:38 23.08.2019
3206 Clouds 31 1017 38 10000 2.6 240 14:19 23.08.2019
3207 Clouds 31 1018 40 10000 3.1 190 13:42 23.08.2019
3208 Clear 31 1018 43 10000 1 0 13:23 23.08.2019
3209 Clear 30 1018 43 10000 1.5 0 12:59 23.08.2019
3210 Clear 31 1018 43 10000 1.5 0 12:41 23.08.2019
3211 Clear 30 1018 54 10000 2.1 360 12:21 23.08.2019
3212 Clear 29 1018 54 10000 1 0 11:58 23.08.2019
3213 Clear 29 1018 54 10000 1 0 11:39 23.08.2019
3214 Clear 28 1018 61 10000 1 0 11:19 23.08.2019
3215 Clear 27 1018 65 10000 3.1 20 10:56 23.08.2019
3216 Clear 27 1018 65 10000 3.1 20 10:38 23.08.2019
3217 Clear 26 1018 73 10000 1.5 0 10:18 23.08.2019
3218 Clear 26 1018 73 10000 3.1 0 09:43 23.08.2019
3219 Clear 25 1018 73 10000 3.1 20 09:20 23.08.2019
3220 Clear 24 1018 73 10000 3.6 60 08:45 23.08.2019
3221 Clear 23 1018 78 10000 2.1 60 08:22 23.08.2019
3222 Clear 23 1018 78 10000 1.5 10 07:59 23.08.2019
3223 Clear 23 1018 78 10000 1.5 10 07:41 23.08.2019
3224 Clouds 22 1018 78 8000 2.6 330 07:22 23.08.2019
3225 Clear 22 1018 73 10000 0.5 0 06:43 23.08.2019
3226 Clear 22 1018 83 10000 1.5 90 06:22 23.08.2019
3227 Clear 22 1018 88 10000 0.5 0 05:45 23.08.2019
3228 Clear 22 1017 83 10000 1.5 300 05:25 23.08.2019
3229 Clear 22 1018 88 10000 1.5 120 03:57 23.08.2019
3230 Clear 23 1018 83 10000 0.5 0 02:39 23.08.2019
3231 Clear 23 1018 83 10000 1 0 02:20 23.08.2019
3232 Clear 23 1018 83 10000 0.5 0 01:30 23.08.2019
3233 Clear 23 1018 78 10000 0.5 0 00:42 23.08.2019
3234 Clear 23 1018 83 10000 1 0 00:18 23.08.2019
3235 Clear 23 1018 88 10000 0.5 0 23:43 22.08.2019
3236 Clear 23 1018 78 10000 0.5 0 23:22 22.08.2019
3237 Clear 24 1018 78 10000 1 0 22:43 22.08.2019
3238 Clear 24 1018 78 10000 2.1 340 22:24 22.08.2019
3239 Clear 24 1018 78 10000 2.1 350 21:59 22.08.2019
3240 Clear 24 1018 78 10000 2.1 350 21:40 22.08.2019
3241 Clear 25 1018 78 10000 2.6 310 21:22 22.08.2019
3242 Clear 25 1018 74 10000 2.1 300 20:58 22.08.2019
3243 Clear 26 1018 74 10000 2.1 300 20:40 22.08.2019
3244 Clear 26 1018 74 10000 2.1 300 20:40 22.08.2019
3245 Clear 26 1017 69 10000 2.1 260 20:20 22.08.2019
3246 Clear 26 1018 65 10000 2.6 270 19:57 22.08.2019
3247 Clear 27 1018 65 10000 2.6 270 19:38 22.08.2019
3248 Clear 27 1017 62 10000 3.6 240 19:20 22.08.2019
3249 Clear 29 1017 42 10000 3.6 230 18:57 22.08.2019
3250 Clear 29 1017 42 10000 3.6 230 18:39 22.08.2019
3251 Clear 29 1017 43 10000 4.1 240 18:19 22.08.2019
3252 Clear 30 1017 38 10000 3.1 230 17:54 22.08.2019
3253 Clear 30 1016 43 10000 4.1 230 17:36 22.08.2019
3254 Clear 31 1017 40 10000 3.6 230 17:18 22.08.2019
3255 Clear 30 1017 40 10000 3.6 230 16:55 22.08.2019
3256 Clear 30 1017 40 10000 3.6 230 16:37 22.08.2019
3257 Clear 31 1017 40 10000 3.6 220 16:18 22.08.2019
3258 Clear 31 1017 40 10000 3.6 220 16:18 22.08.2019
3259 Clear 31 1017 40 10000 4.1 220 15:41 22.08.2019
3260 Clear 31 1017 40 10000 4.1 220 15:41 22.08.2019
3261 Clear 31 1017 40 10000 4.1 220 15:41 22.08.2019
3262 Clouds 31 1018 45 10000 4.1 230 15:22 22.08.2019
3263 Clouds 31 1018 45 10000 4.1 230 15:21 22.08.2019
3264 Clear 31 1018 43 10000 3.6 230 14:57 22.08.2019
3265 Clouds 31 1018 48 10000 3.6 0 14:39 22.08.2019
3266 Clouds 31 1018 48 10000 3.6 0 14:18 22.08.2019
3267 Clouds 31 1018 52 10000 4.1 230 13:56 22.08.2019
3268 Clouds 31 1018 52 10000 4.1 230 13:37 22.08.2019
3269 Clear 31 1017 38 10000 2.1 240 13:18 22.08.2019
3270 Clear 31 1018 35 10000 3.6 220 12:40 22.08.2019
3271 Clear 31 1018 43 10000 1.5 0 12:21 22.08.2019
3272 Clear 30 1018 38 10000 1.5 0 11:57 22.08.2019
3273 Clear 30 1018 38 10000 1.5 0 11:39 22.08.2019
3274 Clear 28 1018 45 10000 1.5 270 11:19 22.08.2019
3275 Clear 28 1018 45 10000 1.5 270 11:19 22.08.2019
3276 Clear 28 1018 48 10000 1.5 0 10:57 22.08.2019
3277 Clear 28 1018 48 10000 1.5 0 10:37 22.08.2019
3278 Clear 27 1018 61 10000 1 0 10:19 22.08.2019
3279 Clear 27 1018 61 10000 1.5 10 09:54 22.08.2019
3280 Clear 26 1018 78 10000 1.5 0 09:36 22.08.2019
3281 Clear 26 1018 78 10000 1.5 0 09:36 22.08.2019
3282 Clear 26 1018 78 10000 1.5 0 09:18 22.08.2019
3283 Mist 24 1018 78 10000 1.5 70 08:40 22.08.2019
3284 Mist 23 1018 88 8000 0.5 40 08:21 22.08.2019
3285 Mist 22 1018 88 5000 1.5 110 07:43 22.08.2019
3286 Mist 22 1018 88 5000 1.5 110 07:24 22.08.2019
3287 Mist 22 1017 88 5000 0.5 0 06:59 22.08.2019
3288 Mist 21 1017 88 5000 0.5 0 06:41 22.08.2019
3289 Fog 21 1017 88 6000 1 0 06:19 22.08.2019
3290 Fog 21 1017 83 10000 1.5 120 04:42 22.08.2019
3291 Clouds 22 1018 83 7000 0.5 0 02:56 22.08.2019
3292 Clouds 22 1018 83 7000 0.5 0 02:35 22.08.2019
3293 Clear 23 1018 64 10000 0.5 0 01:27 22.08.2019
3294 Clear 23 1018 64 10000 0.5 0 00:49 22.08.2019
3295 Clear 23 1018 69 10000 0.5 0 00:30 22.08.2019
3296 Clear 24 1018 78 10000 1 70 23:58 21.08.2019
3297 Clear 23 1018 78 10000 1 70 23:39 21.08.2019
3298 Clear 24 1018 88 10000 0.5 0 23:20 21.08.2019
3299 Clear 24 1018 78 10000 0.5 0 22:56 21.08.2019
3300 Clear 24 1018 78 10000 0.5 0 22:38 21.08.2019
3301 Clear 25 1018 73 10000 1 0 22:19 21.08.2019
3302 Clear 25 1018 69 10000 1 0 21:55 21.08.2019
3303 Clear 25 1018 69 10000 1 0 21:37 21.08.2019
3304 Clear 26 1017 57 10000 1.5 250 21:18 21.08.2019
3305 Clear 26 1017 51 10000 1.5 220 20:43 21.08.2019
3306 Clear 27 1016 45 10000 2.1 250 20:25 21.08.2019
3307 Clear 28 1017 48 10000 2.1 220 19:58 21.08.2019
3308 Clear 28 1017 48 10000 2.1 220 19:40 21.08.2019
3309 Clear 29 1016 37 10000 3.1 240 19:21 21.08.2019
3310 Clear 29 1017 42 10000 3.1 240 18:56 21.08.2019
3311 Clear 29 1017 42 10000 3.1 240 18:38 21.08.2019
3312 Clear 30 1016 38 10000 3.6 240 18:19 21.08.2019
3313 Clear 31 1017 33 10000 3.1 240 17:43 21.08.2019
3314 Clear 31 1017 33 10000 3.1 240 17:43 21.08.2019
3315 Clear 31 1017 35 10000 3.6 260 17:21 21.08.2019
3316 Clear 31 1017 31 10000 3.6 270 16:56 21.08.2019
3317 Clear 31 1017 31 10000 3.6 270 16:37 21.08.2019
3318 Clear 32 1017 27 10000 3.6 280 16:18 21.08.2019
3319 Clear 32 1017 31 10000 4.1 260 15:56 21.08.2019
3320 Clear 32 1017 31 10000 4.1 260 15:38 21.08.2019
3321 Clear 31 1017 40 10000 3.1 270 15:18 21.08.2019
3322 Clear 31 1017 38 10000 3.6 250 14:54 21.08.2019
3323 Clear 31 1017 38 10000 3.6 250 14:36 21.08.2019
3324 Clear 31 1017 46 10000 3.6 240 14:18 21.08.2019
3325 Clear 31 1017 46 10000 3.6 240 14:18 21.08.2019
3326 Clear 31 1017 40 10000 4.1 240 13:42 21.08.2019
3327 Clear 31 1017 36 10000 4.1 260 13:19 21.08.2019
3328 Clear 31 1017 48 10000 3.6 230 12:57 21.08.2019
3329 Clear 30 1017 48 10000 3.6 230 12:38 21.08.2019
3330 Clear 30 1017 35 10000 2.1 230 12:19 21.08.2019
3331 Clear 29 1018 37 10000 2.1 200 11:44 21.08.2019
3332 Clear 29 1017 37 10000 1.5 0 11:24 21.08.2019
3333 Clear 29 1018 37 10000 1 0 10:58 21.08.2019
3334 Clear 28 1018 37 10000 1 0 10:40 21.08.2019
3335 Clear 27 1018 54 10000 1 0 10:21 21.08.2019
3336 Clear 27 1018 54 10000 1 0 09:58 21.08.2019
3337 Clear 26 1018 54 10000 1 0 09:40 21.08.2019
3338 Clear 25 1018 57 10000 1 0 09:21 21.08.2019
3339 Clear 24 1018 73 10000 0.5 0 08:50 21.08.2019
3340 Clear 24 1018 83 10000 0.5 0 08:26 21.08.2019
3341 Clear 23 1017 88 10000 1 0 07:46 21.08.2019
3342 Clear 21 1017 88 10000 2.1 130 07:26 21.08.2019
3343 Clear 21 1017 88 10000 1.5 130 06:59 21.08.2019
3344 Clear 21 1017 88 10000 1.5 130 06:40 21.08.2019
3345 Clear 21 1017 82 10000 1.5 130 06:18 21.08.2019
3346 Clear 21 1016 100 10000 1.5 70 05:29 21.08.2019
3347 Clear 21 1016 100 10000 0.5 140 04:42 21.08.2019
3348 Clear 22 1017 60 10000 0.5 0 02:44 21.08.2019
3349 Clear 23 1017 47 10000 0.5 0 01:34 21.08.2019
3350 Clear 23 1017 46 10000 1.5 90 00:42 21.08.2019
3351 Clear 23 1017 47 10000 1.5 80 00:21 21.08.2019
3352 Clear 24 1017 50 10000 1.5 70 23:45 20.08.2019
3353 Clear 24 1018 53 10000 1.5 80 23:20 20.08.2019
3354 Clear 24 1018 57 10000 1 0 22:59 20.08.2019
3355 Clear 24 1018 57 10000 1 0 22:40 20.08.2019
3356 Clear 24 1018 57 10000 1 0 22:40 20.08.2019
3357 Clear 25 1018 57 10000 1.5 100 22:21 20.08.2019
3358 Clear 25 1018 57 10000 0.5 0 21:58 20.08.2019
3359 Clear 25 1018 57 10000 0.5 0 21:39 20.08.2019
3360 Clear 26 1017 54 10000 1 0 21:20 20.08.2019
3361 Clear 27 1017 51 10000 1.5 250 20:59 20.08.2019
3362 Clear 27 1017 51 10000 1.5 250 20:41 20.08.2019
3363 Clear 27 1017 45 10000 2.1 230 20:22 20.08.2019
3364 Clear 28 1017 42 10000 3.6 260 19:40 20.08.2019
3365 Clear 29 1016 33 10000 3.1 240 19:22 20.08.2019
3366 Clear 30 1016 38 10000 3.1 280 18:57 20.08.2019
3367 Clear 30 1016 38 10000 3.1 280 18:39 20.08.2019
3368 Clear 30 1016 38 10000 3.1 280 18:39 20.08.2019
3369 Clear 30 1016 38 10000 3.1 280 18:39 20.08.2019
3370 Clear 31 1017 33 10000 3.6 270 18:19 20.08.2019
3371 Clear 31 1017 33 10000 3.6 270 17:57 20.08.2019
3372 Clear 32 1016 31 10000 4.1 260 17:38 20.08.2019
3373 Clear 32 1017 31 10000 4.1 250 17:19 20.08.2019
3374 Clear 32 1016 31 10000 4.6 240 16:44 20.08.2019
3375 Clear 32 1016 31 10000 4.6 240 16:26 20.08.2019
3376 Clear 32 1017 35 10000 4.6 260 15:55 20.08.2019
3377 Clear 32 1016 30 10000 5.7 270 15:37 20.08.2019
3378 Clear 32 1016 30 10000 5.7 270 15:18 20.08.2019
3379 Clear 33 1017 34 10000 4.1 240 14:42 20.08.2019
3380 Clear 33 1017 34 10000 4.1 240 14:21 20.08.2019
3381 Clear 32 1017 29 10000 2.1 0 13:57 20.08.2019
3382 Clear 32 1017 30 10000 1.5 0 13:38 20.08.2019
3383 Clear 32 1017 30 10000 1.5 0 13:20 20.08.2019
3384 Clear 32 1017 31 10000 2.1 0 12:51 20.08.2019
3385 Clear 32 1017 38 10000 1.5 0 12:28 20.08.2019
3386 Clear 30 1017 33 10000 1.5 0 11:58 20.08.2019
3387 Clear 30 1017 48 10000 2.1 0 11:38 20.08.2019
3388 Clear 29 1017 42 10000 1.5 310 11:18 20.08.2019
3389 Clear 29 1017 42 10000 1.5 310 10:57 20.08.2019
3390 Clear 29 1017 42 10000 1.5 310 10:57 20.08.2019
3391 Clear 29 1017 57 10000 1 0 10:38 20.08.2019
3392 Clear 29 1017 57 10000 1 0 10:19 20.08.2019
3393 Clear 27 1017 64 10000 1.5 0 09:43 20.08.2019
3394 Clear 26 1017 64 10000 1.5 0 09:25 20.08.2019
3395 Clear 25 1017 56 10000 2.6 30 08:57 20.08.2019
3396 Clear 25 1017 60 10000 2.6 40 08:39 20.08.2019
3397 Clear 24 1017 60 10000 2.6 40 08:20 20.08.2019
3398 Clear 22 1017 60 10000 1 40 07:41 20.08.2019
3399 Clear 22 1017 60 10000 1 40 07:22 20.08.2019
3400 Clear 22 1016 56 10000 1.5 10 06:59 20.08.2019
3401 Clear 21 1016 56 10000 1.5 30 06:25 20.08.2019
3402 Clear 21 1016 49 10000 1 360 05:49 20.08.2019
3403 Clear 21 1017 46 10000 1.5 20 05:18 20.08.2019
3404 Clear 21 1017 43 10000 1 40 03:52 20.08.2019
3405 Clear 22 1017 46 10000 1.5 50 02:42 20.08.2019
3406 Clear 23 1017 43 10000 3.1 100 01:38 20.08.2019
3407 Clear 23 1018 46 10000 2.6 100 00:57 20.08.2019
3408 Clear 23 1018 49 10000 0.5 0 00:39 20.08.2019
3409 Clear 23 1018 49 10000 0.5 0 00:19 20.08.2019
3410 Clear 23 1018 50 10000 1 0 23:39 19.08.2019
3411 Clear 24 1018 50 10000 1 0 23:18 19.08.2019
3412 Clear 24 1017 53 10000 1.5 120 22:54 19.08.2019
3413 Clear 24 1017 57 10000 2.1 140 22:36 19.08.2019
3414 Clear 24 1017 57 10000 2.1 140 22:18 19.08.2019
3415 Clear 24 1017 57 10000 1 0 21:55 19.08.2019
3416 Clear 25 1017 50 10000 1.5 230 21:36 19.08.2019
3417 Clear 26 1017 50 10000 1 0 21:18 19.08.2019
3418 Clear 26 1016 35 10000 1.5 0 20:39 19.08.2019
3419 Clear 27 1016 35 10000 1.5 0 20:20 19.08.2019
3420 Clear 27 1017 39 10000 2.6 250 19:58 19.08.2019
3421 Clear 28 1017 39 10000 2.6 250 19:39 19.08.2019
3422 Clear 29 1017 39 10000 3.1 270 19:19 19.08.2019
3423 Clear 29 1016 29 10000 5.1 270 18:45 19.08.2019
3424 Clear 30 1016 29 10000 5.1 270 18:27 19.08.2019
3425 Clear 30 1017 35 10000 4.1 270 17:59 19.08.2019
3426 Clear 31 1017 33 10000 4.1 260 17:41 19.08.2019
3427 Clear 31 1017 33 10000 4.1 260 17:20 19.08.2019
3428 Clear 31 1017 27 10000 3.6 280 16:58 19.08.2019
3429 Clear 31 1017 27 10000 3.6 270 16:37 19.08.2019
3430 Clear 31 1017 27 10000 3.6 270 16:19 19.08.2019
3431 Clear 31 1017 29 10000 4.1 280 15:55 19.08.2019
3432 Clear 32 1017 29 10000 4.1 280 15:36 19.08.2019
3433 Clear 31 1017 29 10000 4.1 290 15:18 19.08.2019
3434 Clear 31 1017 27 10000 4.1 270 14:40 19.08.2019
3435 Clear 31 1017 25 10000 4.1 270 14:21 19.08.2019
3436 Clear 31 1017 25 10000 2.6 0 13:57 19.08.2019
3437 Clear 31 1017 25 10000 2.6 0 13:57 19.08.2019
3438 Clear 31 1017 25 10000 2.6 0 13:37 19.08.2019
3439 Clear 31 1016 27 10000 2.6 260 13:19 19.08.2019
3440 Clear 31 1017 31 10000 2.6 0 12:45 19.08.2019
3441 Clear 30 1017 33 10000 2.6 260 12:24 19.08.2019
3442 Clear 29 1017 35 10000 2.1 270 11:59 19.08.2019
3443 Clear 29 1017 35 10000 2.1 270 11:39 19.08.2019
3444 Clear 28 1017 39 10000 1 0 11:20 19.08.2019
3445 Clear 28 1017 45 10000 1.5 0 10:55 19.08.2019
3446 Clear 27 1017 45 10000 1.5 0 10:36 19.08.2019
3447 Clear 26 1017 47 10000 2.1 300 10:18 19.08.2019
3448 Clear 26 1016 50 10000 1.5 0 09:41 19.08.2019
3449 Clear 25 1016 50 10000 1.5 20 09:22 19.08.2019
3450 Clear 23 1016 50 10000 1 0 08:55 19.08.2019
3451 Clear 23 1016 50 10000 1 0 08:37 19.08.2019
3452 Clear 22 1016 53 10000 2.6 80 08:18 19.08.2019
3453 Clear 21 1016 68 10000 2.1 70 07:42 19.08.2019
3454 Clear 20 1016 68 10000 1.5 350 07:24 19.08.2019
3455 Clear 20 1016 68 10000 1 0 06:43 19.08.2019
3456 Clear 19 1016 64 10000 1 0 06:18 19.08.2019
3457 Clear 20 1016 60 10000 1 80 04:46 19.08.2019
3458 Fog 20 1016 60 10000 1 80 04:22 19.08.2019
3459 Clear 21 1016 60 10000 1.5 130 03:20 19.08.2019
3460 Clear 21 1016 49 10000 2.6 80 01:47 19.08.2019
3461 Clear 22 1016 60 10000 1.5 90 01:21 19.08.2019
3462 Clear 22 1016 64 10000 1 100 00:42 19.08.2019
3463 Fog 22 1016 60 10000 0.5 0 00:18 19.08.2019
3464 Clear 22 1016 64 10000 1 80 23:41 18.08.2019
3465 Clear 22 1016 64 10000 1.5 70 23:20 18.08.2019
3466 Clear 23 1016 60 10000 1.5 0 22:40 18.08.2019
3467 Clear 23 1016 64 10000 0.5 0 22:22 18.08.2019
3468 Clear 23 1016 65 10000 1 0 21:58 18.08.2019
3469 Clear 24 1016 65 10000 1 0 21:40 18.08.2019
3470 Clear 26 1016 61 10000 1.5 260 21:20 18.08.2019
3471 Clear 26 1016 57 10000 1.5 260 20:58 18.08.2019
3472 Clear 26 1016 57 10000 1.5 260 20:40 18.08.2019
3473 Clear 27 1016 54 10000 2.6 260 20:22 18.08.2019
3474 Clear 28 1016 48 10000 2.1 230 19:42 18.08.2019
3475 Clear 28 1015 70 10000 3.6 240 19:24 18.08.2019
3476 Clear 29 1016 45 10000 3.1 230 18:59 18.08.2019
3477 Clear 29 1016 45 10000 3.1 230 18:40 18.08.2019
3478 Clear 29 1015 66 10000 4.6 250 18:21 18.08.2019
3479 Clear 29 1015 66 10000 4.6 250 18:21 18.08.2019
3480 Clear 30 1016 42 10000 3.6 250 17:55 18.08.2019
3481 Clear 30 1016 42 10000 3.6 250 17:37 18.08.2019
3482 Clear 30 1016 42 10000 4.1 240 17:18 18.08.2019
3483 Clear 30 1016 40 10000 3.6 230 16:55 18.08.2019
3484 Clear 30 1016 38 10000 3.6 240 16:37 18.08.2019
3485 Clear 30 1016 38 10000 3.6 240 16:18 18.08.2019
3486 Clear 30 1016 38 10000 4.1 210 15:40 18.08.2019
3487 Clear 31 1016 35 10000 3.6 250 15:20 18.08.2019
3488 Clouds 31 1016 35 10000 3.6 240 14:58 18.08.2019
3489 Clouds 31 1016 35 10000 3.6 240 14:40 18.08.2019
3490 Clouds 30 1016 38 10000 2.6 210 14:19 18.08.2019
3491 Clouds 30 1016 38 10000 3.6 230 13:57 18.08.2019
3492 Clouds 30 1016 38 10000 3.6 230 13:39 18.08.2019
3493 Clear 29 1016 55 10000 2.6 230 13:20 18.08.2019
3494 Clouds 29 1017 40 10000 2.6 240 12:45 18.08.2019
3495 Clear 29 1016 70 10000 1 0 12:23 18.08.2019
3496 Clear 28 1017 45 10000 2.1 200 11:59 18.08.2019
3497 Clear 28 1017 45 10000 2.1 200 11:40 18.08.2019
3498 Clear 26 1016 48 10000 2.1 220 11:21 18.08.2019
3499 Clear 26 1017 51 10000 1.5 240 10:41 18.08.2019
3500 Clear 25 1016 88 10000 1.5 0 10:22 18.08.2019
3501 Clear 25 1016 54 10000 1 0 09:55 18.08.2019
3502 Clear 25 1016 54 10000 1 0 09:36 18.08.2019
3503 Clear 22 1016 57 10000 0.5 0 09:18 18.08.2019
3504 Fog 21 1016 60 10000 1 0 08:42 18.08.2019
3505 Fog 20 1016 60 10000 0.5 0 08:24 18.08.2019
3506 Fog 19 1016 64 10000 1 0 07:49 18.08.2019
3507 Fog 20 1016 64 10000 1.5 110 07:29 18.08.2019
3508 Fog 20 1016 68 10000 1.5 100 05:50 18.08.2019
3509 Fog 20 1016 77 10000 1.5 90 04:55 18.08.2019
3510 Fog 21 1016 82 10000 2.1 100 03:44 18.08.2019
3511 Fog 21 1017 73 10000 2.1 120 02:49 18.08.2019
3512 Fog 22 1017 77 10000 2.1 90 02:25 18.08.2019
3513 Clear 22 1017 83 10000 1.5 110 01:47 18.08.2019
3514 Clear 22 1017 77 10000 1.5 120 01:22 18.08.2019
3515 Clear 22 1017 73 10000 1 130 00:39 18.08.2019
3516 Clear 23 1017 83 10000 0.5 0 00:19 18.08.2019
3517 Clear 23 1016 78 10000 1 0 23:57 17.08.2019
3518 Clear 23 1016 78 10000 1 0 23:37 17.08.2019
3519 Clear 23 1017 73 10000 1 120 23:18 17.08.2019
3520 Clear 23 1016 78 10000 1 0 22:56 17.08.2019
3521 Clear 23 1016 78 10000 1 0 22:38 17.08.2019
3522 Clear 24 1016 78 10000 1 0 22:20 17.08.2019
3523 Clear 24 1017 69 10000 1 0 21:42 17.08.2019
3524 Clear 25 1016 69 10000 1.5 220 21:23 17.08.2019
3525 Clear 25 1016 69 10000 1.5 230 20:56 17.08.2019
3526 Clear 26 1016 69 10000 1.5 230 20:36 17.08.2019
3527 Clear 26 1016 69 10000 1.5 230 20:36 17.08.2019
3528 Clear 27 1016 69 10000 2.6 220 20:18 17.08.2019
3529 Clear 27 1016 57 10000 2.6 240 19:41 17.08.2019
3530 Clear 27 1016 57 10000 2.6 240 19:41 17.08.2019
3531 Clear 27 1016 54 10000 3.1 240 19:22 17.08.2019
3532 Clear 27 1016 54 10000 3.1 240 19:22 17.08.2019
3533 Clear 28 1016 45 10000 3.6 250 18:55 17.08.2019
3534 Clear 28 1016 45 10000 3.6 250 18:37 17.08.2019
3535 Clear 28 1016 48 10000 4.1 270 18:18 17.08.2019
3536 Clear 29 1016 45 10000 4.1 250 17:42 17.08.2019
3537 Clouds 29 1016 45 10000 3.6 270 17:22 17.08.2019
3538 Clear 29 1016 43 10000 4.1 280 16:56 17.08.2019
3539 Clear 29 1016 43 10000 4.1 280 16:37 17.08.2019
3540 Clear 29 1016 45 10000 4.1 270 16:19 17.08.2019
3541 Clouds 29 1016 51 10000 4.6 240 15:42 17.08.2019
3542 Clouds 29 1016 48 10000 4.1 270 15:22 17.08.2019
3543 Clouds 29 1016 48 10000 3.6 260 14:58 17.08.2019
3544 Clouds 29 1016 51 10000 3.6 270 14:39 17.08.2019
3545 Clouds 29 1016 51 10000 3.6 270 14:21 17.08.2019
3546 Clouds 29 1016 51 10000 3.6 270 14:21 17.08.2019
3547 Clouds 29 1016 48 10000 1.5 0 13:44 17.08.2019
3548 Clouds 29 1017 51 10000 2.6 250 13:19 17.08.2019
3549 Clouds 28 1017 51 10000 1.5 0 12:44 17.08.2019
3550 Clear 28 1017 74 10000 1.5 0 12:20 17.08.2019
3551 Clouds 27 1017 51 10000 2.1 180 11:58 17.08.2019
3552 Clouds 27 1017 51 10000 2.1 180 11:38 17.08.2019
3553 Clouds 27 1017 57 10000 2.6 210 11:20 17.08.2019
3554 Clouds 26 1017 57 10000 2.6 200 10:41 17.08.2019
3555 Clouds 26 1017 65 10000 2.1 190 10:21 17.08.2019
3556 Clouds 26 1017 65 10000 1 0 09:57 17.08.2019
3557 Clouds 25 1017 65 10000 1 0 09:37 17.08.2019
3558 Clouds 24 1017 69 10000 1 0 09:18 17.08.2019
3559 Clear 23 1017 73 10000 2.6 330 08:46 17.08.2019
3560 Clear 22 1016 73 10000 1 0 08:20 17.08.2019
3561 Clear 21 1016 68 10000 0.5 0 07:42 17.08.2019
3562 Clear 20 1016 77 10000 1.5 90 07:20 17.08.2019
3563 Clear 19 1016 72 10000 1 100 06:21 17.08.2019
3564 Clear 20 1015 73 10000 1.5 130 04:32 17.08.2019
3565 Clear 20 1015 72 10000 1.5 140 04:32 17.08.2019
3566 Clear 20 1015 83 10000 1.5 120 03:51 17.08.2019
3567 Clear 21 1016 88 10000 1.5 170 02:36 17.08.2019
3568 Clear 21 1016 83 10000 1.5 170 01:38 17.08.2019
3569 Clear 21 1016 68 10000 1 180 01:19 17.08.2019
3570 Clear 21 1016 68 10000 1 180 01:19 17.08.2019
3571 Clear 22 1016 68 10000 1 0 00:45 17.08.2019
3572 Clear 21 1016 73 10000 1.5 120 00:18 17.08.2019
3573 Clear 22 1016 83 10000 1.5 140 23:39 16.08.2019
3574 Clear 22 1015 78 10000 2.6 140 23:21 16.08.2019
3575 Clear 23 1015 78 10000 1.5 200 22:42 16.08.2019
3576 Clear 23 1015 78 10000 1.5 200 22:42 16.08.2019
3577 Clear 23 1015 69 10000 2.1 220 22:19 16.08.2019
3578 Clear 23 1015 64 10000 2.1 200 21:56 16.08.2019
3579 Clear 24 1015 64 10000 2.1 200 21:38 16.08.2019
3580 Clear 25 1014 53 10000 1.5 200 21:18 16.08.2019
3581 Clear 25 1014 50 10000 1.5 210 20:41 16.08.2019
3582 Clear 26 1013 65 10000 2.6 270 20:19 16.08.2019
3583 Clear 27 1014 44 10000 3.6 250 19:56 16.08.2019
3584 Clear 27 1014 44 10000 3.6 250 19:38 16.08.2019
3585 Clear 28 1013 55 10000 3.6 260 19:19 16.08.2019
3586 Clear 28 1014 39 10000 3.6 250 18:41 16.08.2019
3587 Clear 29 1013 48 10000 3.6 240 18:22 16.08.2019
3588 Clear 29 1014 39 10000 4.6 250 17:46 16.08.2019
3589 Clouds 29 1014 37 10000 4.6 270 17:27 16.08.2019
3590 Clouds 30 1014 37 10000 4.1 260 16:58 16.08.2019
3591 Clouds 30 1014 37 10000 4.1 260 16:38 16.08.2019
3592 Clouds 30 1014 42 10000 3.6 290 16:18 16.08.2019
3593 Clouds 30 1014 40 10000 3.6 260 15:55 16.08.2019
3594 Clouds 30 1014 40 10000 3.6 260 15:37 16.08.2019
3595 Clear 30 1014 42 10000 4.1 280 15:19 16.08.2019
3596 Clouds 30 1014 48 10000 4.1 270 14:56 16.08.2019
3597 Clouds 29 1014 48 10000 4.1 270 14:37 16.08.2019
3598 Clouds 29 1014 45 10000 2.6 230 14:18 16.08.2019
3599 Clouds 29 1014 45 10000 3.1 260 13:39 16.08.2019
3600 Clouds 29 1014 35 10000 2.1 200 13:20 16.08.2019
3601 Clear 28 1014 35 10000 1.5 0 12:40 16.08.2019
3602 Clear 28 1014 62 10000 1 0 12:20 16.08.2019
3603 Clear 28 1014 62 10000 1 0 12:20 16.08.2019
3604 Clear 27 1015 48 10000 1.5 0 11:43 16.08.2019
3605 Clear 27 1015 54 10000 1.5 250 11:24 16.08.2019
3606 Clear 26 1015 54 10000 1 0 10:59 16.08.2019
3607 Clear 26 1015 54 10000 1 0 10:41 16.08.2019
3608 Clear 25 1015 57 10000 1 0 10:20 16.08.2019
3609 Clear 25 1014 69 10000 1 0 09:38 16.08.2019
3610 Clear 22 1014 73 10000 1 0 09:19 16.08.2019
3611 Clear 22 1014 73 10000 0.5 0 08:57 16.08.2019
3612 Clear 22 1014 73 10000 0.5 0 08:38 16.08.2019
3613 Clear 21 1014 73 10000 0.5 0 08:19 16.08.2019
3614 Clear 20 1014 73 10000 1.5 90 07:44 16.08.2019
3615 Clear 19 1014 77 10000 2.1 90 07:25 16.08.2019
3616 Clear 19 1014 82 10000 2.1 80 06:43 16.08.2019
3617 Clear 19 1014 82 10000 2.1 90 05:58 16.08.2019
3618 Clear 19 1013 100 10000 2.1 80 05:33 16.08.2019
3619 Clouds 20 1014 88 10000 1.5 180 03:19 16.08.2019
3620 Clear 21 1014 88 10000 1.5 180 01:50 16.08.2019
3621 Clear 21 1015 88 10000 1 190 01:25 16.08.2019
3622 Clear 21 1015 88 10000 1 190 01:25 16.08.2019
3623 Clear 21 1014 83 10000 1.5 200 00:48 16.08.2019
3624 Clear 22 1015 83 10000 1.5 190 00:23 16.08.2019
3625 Clear 22 1014 73 10000 1.5 210 23:55 15.08.2019
3626 Clear 22 1014 73 10000 1.5 210 23:37 15.08.2019
3627 Clear 23 1015 69 10000 1.5 200 23:18 15.08.2019
3628 Clear 23 1015 64 10000 1 0 22:41 15.08.2019
3629 Clear 23 1014 60 10000 1 0 22:22 15.08.2019
3630 Clear 24 1014 53 10000 1.5 190 21:58 15.08.2019
3631 Clear 24 1014 53 10000 1.5 190 21:39 15.08.2019
3632 Clear 25 1014 47 10000 2.1 190 21:19 15.08.2019
3633 Clear 25 1014 41 10000 1.5 190 20:56 15.08.2019
3634 Clear 26 1014 41 10000 1.5 190 20:38 15.08.2019
3635 Clear 27 1013 36 10000 3.1 260 20:19 15.08.2019
3636 Clear 28 1013 32 10000 4.6 270 19:39 15.08.2019
3637 Clear 28 1012 48 10000 4.1 260 19:21 15.08.2019
3638 Clear 28 1013 32 10000 5.7 280 18:49 15.08.2019
3639 Clear 29 1012 51 10000 6.2 250 18:24 15.08.2019
3640 Clear 30 1013 33 10000 5.7 270 17:59 15.08.2019
3641 Clear 30 1013 33 10000 5.7 270 17:39 15.08.2019
3642 Clear 30 1013 33 10000 6.7 270 17:20 15.08.2019
3643 Clear 30 1013 35 10000 5.7 270 16:58 15.08.2019
3644 Clear 30 1013 35 10000 5.7 270 16:40 15.08.2019
3645 Clear 30 1013 31 10000 4.6 280 16:22 15.08.2019
3646 Clear 30 1013 33 10000 5.1 290 15:39 15.08.2019
3647 Clear 30 1013 25 10000 2.6 0 15:20 15.08.2019
3648 Clear 29 1013 27 10000 3.6 320 14:57 15.08.2019
3649 Clear 29 1013 27 10000 3.6 320 14:38 15.08.2019
3650 Clear 29 1013 33 10000 2.1 0 14:20 15.08.2019
3651 Clear 29 1014 35 10000 3.6 330 13:56 15.08.2019
3652 Clear 29 1014 35 10000 3.6 330 13:56 15.08.2019
3653 Clear 29 1014 35 10000 3.6 330 13:38 15.08.2019
3654 Clouds 28 1014 39 10000 3.1 330 13:19 15.08.2019
3655 Clouds 28 1014 42 10000 2.6 0 12:40 15.08.2019
3656 Clear 27 1014 65 10000 1.5 0 12:21 15.08.2019
3657 Clear 27 1014 54 10000 1.5 0 11:59 15.08.2019
3658 Clear 27 1014 54 10000 1.5 0 11:39 15.08.2019
3659 Clear 27 1014 54 10000 2.6 350 11:20 15.08.2019
3660 Clear 26 1014 57 10000 3.1 350 10:59 15.08.2019
3661 Clear 26 1014 57 10000 3.1 350 10:37 15.08.2019
3662 Clear 25 1014 60 10000 2.6 10 10:18 15.08.2019
3663 Clear 25 1014 64 10000 3.1 20 09:44 15.08.2019
3664 Clear 23 1014 68 10000 3.1 30 09:22 15.08.2019
3665 Clear 22 1014 68 10000 3.6 30 08:54 15.08.2019
3666 Clear 22 1014 68 10000 3.6 30 08:36 15.08.2019
3667 Clear 22 1014 68 10000 3.6 30 08:18 15.08.2019
3668 Clear 20 1014 72 10000 4.1 30 07:40 15.08.2019
3669 Clear 20 1014 72 10000 3.6 30 07:21 15.08.2019
3670 Clear 20 1013 72 10000 2.6 40 06:52 15.08.2019
3671 Clear 19 1013 72 10000 2.6 60 06:31 15.08.2019
3672 Clear 20 1013 72 10000 2.6 40 05:39 15.08.2019
3673 Clear 20 1013 68 10000 2.6 40 05:19 15.08.2019
3674 Clear 20 1013 77 10000 3.1 30 04:27 15.08.2019
3675 Clear 21 1013 78 10000 2.6 360 03:28 15.08.2019
3676 Clear 21 1013 78 10000 0.5 0 02:35 15.08.2019
3677 Clear 21 1013 83 10000 1 110 01:45 15.08.2019
3678 Clear 22 1013 78 10000 1 0 01:23 15.08.2019
3679 Clear 22 1013 73 10000 1 0 00:38 15.08.2019
3680 Clear 22 1013 73 10000 0.5 0 00:19 15.08.2019
3681 Clear 23 1013 78 10000 0.5 0 23:57 14.08.2019
3682 Clear 23 1013 78 10000 0.5 0 23:37 14.08.2019
3683 Clear 23 1013 73 10000 1 0 23:19 14.08.2019
3684 Clear 23 1013 78 10000 1.5 250 22:42 14.08.2019
3685 Clear 24 1013 78 10000 1 0 22:23 14.08.2019
3686 Clear 24 1013 78 10000 2.1 240 21:58 14.08.2019
3687 Clear 24 1013 78 10000 2.1 240 21:40 14.08.2019
3688 Clear 25 1012 73 10000 2.6 260 21:21 14.08.2019
3689 Clear 25 1012 69 10000 4.6 270 20:59 14.08.2019
3690 Clear 26 1012 69 10000 4.6 270 20:41 14.08.2019
3691 Clear 26 1011 83 10000 5.7 270 20:19 14.08.2019
3692 Clear 27 1011 57 10000 5.1 270 19:55 14.08.2019
3693 Clear 29 1010 74 10000 5.1 260 19:36 14.08.2019
3694 Clear 29 1010 74 10000 5.1 260 19:18 14.08.2019
3695 Clear 30 1011 51 10000 4.1 280 18:55 14.08.2019
3696 Clear 30 1010 58 10000 4.6 300 18:36 14.08.2019
3697 Clear 30 1010 58 10000 4.6 300 18:18 14.08.2019
3698 Clear 30 1011 51 10000 5.7 280 17:40 14.08.2019
3699 Clear 30 1011 48 10000 5.7 280 17:22 14.08.2019
3700 Clear 30 1011 48 10000 6.2 270 16:58 14.08.2019
3701 Clear 30 1011 48 10000 6.2 270 16:39 14.08.2019
3702 Clear 30 1011 45 10000 5.7 290 16:19 14.08.2019
3703 Clear 30 1011 42 10000 5.1 280 15:43 14.08.2019
3704 Clear 30 1011 35 10000 4.6 250 15:19 14.08.2019
3705 Clear 30 1011 35 10000 4.6 250 15:19 14.08.2019
3706 Clear 30 1011 33 10000 4.6 300 14:57 14.08.2019
3707 Clear 30 1011 33 10000 4.6 300 14:39 14.08.2019
3708 Clear 29 1011 27 10000 3.1 330 14:19 14.08.2019
3709 Clear 29 1011 27 10000 4.1 330 13:44 14.08.2019
3710 Clear 28 1012 35 10000 3.6 330 13:25 14.08.2019
3711 Clear 29 1012 37 10000 3.1 360 12:59 14.08.2019
3712 Clear 29 1012 37 10000 3.1 360 12:40 14.08.2019
3713 Clear 28 1012 48 10000 3.6 360 12:22 14.08.2019
3714 Clouds 27 1012 51 10000 3.1 320 11:57 14.08.2019
3715 Clouds 27 1012 51 10000 3.1 320 11:57 14.08.2019
3716 Clouds 27 1012 51 10000 3.1 320 11:39 14.08.2019
3717 Clouds 26 1012 61 10000 3.1 360 11:21 14.08.2019
3718 Clouds 26 1012 65 10000 3.1 360 10:45 14.08.2019
3719 Clouds 25 1012 65 10000 3.1 350 10:25 14.08.2019
3720 Clear 25 1012 69 10000 2.6 360 09:58 14.08.2019
3721 Clear 25 1012 69 10000 2.6 360 09:39 14.08.2019
3722 Clouds 23 1012 69 10000 1 0 09:19 14.08.2019
3723 Clear 23 1011 78 10000 1.5 210 08:40 14.08.2019
3724 Clear 21 1011 78 10000 1.5 130 08:21 14.08.2019
3725 Clear 21 1011 83 10000 1.5 110 07:53 14.08.2019
3726 Clear 21 1011 83 10000 1.5 110 07:33 14.08.2019
3727 Clear 21 1010 83 10000 1.5 110 06:47 14.08.2019
3728 Clear 22 1010 83 10000 1.5 110 06:18 14.08.2019
3729 Clear 23 1010 78 10000 1 150 05:28 14.08.2019
3730 Clear 24 1011 78 10000 2.1 190 03:38 14.08.2019
3731 Clear 24 1011 69 10000 2.1 180 02:34 14.08.2019
3732 Clear 24 1011 73 10000 1.5 210 01:54 14.08.2019
3733 Clear 24 1011 73 10000 2.1 230 01:19 14.08.2019
3734 Rain 25 1011 78 10000 1 0 23:55 13.08.2019
3735 Clear 25 1011 78 10000 1.5 210 23:37 13.08.2019
3736 Clear 25 1011 78 10000 1.5 210 23:18 13.08.2019
3737 Clear 25 1012 78 10000 2.1 210 22:42 13.08.2019
3738 Clouds 25 1011 74 10000 1 200 22:24 13.08.2019
3739 Clouds 26 1011 78 10000 1.5 210 21:59 13.08.2019
3740 Clouds 26 1011 78 10000 1.5 210 21:39 13.08.2019
3741 Clear 27 1011 74 10000 2.1 220 21:19 13.08.2019
3742 Clear 27 1010 69 10000 1.5 240 20:58 13.08.2019
3743 Clear 27 1010 69 10000 1.5 240 20:39 13.08.2019
3744 Clear 28 1010 61 10000 3.1 260 20:19 13.08.2019
3745 Clear 28 1010 45 10000 2.1 240 19:54 13.08.2019
3746 Clear 29 1010 45 10000 2.1 240 19:36 13.08.2019
3747 Clear 29 1009 62 10000 2.6 240 19:18 13.08.2019
3748 Clear 30 1010 45 10000 4.6 250 18:41 13.08.2019
3749 Clear 31 1009 62 10000 3.6 240 18:21 13.08.2019
3750 Clear 32 1010 43 10000 3.1 250 17:43 13.08.2019
3751 Clear 33 1010 38 10000 4.6 260 17:22 13.08.2019
3752 Clouds 33 1010 41 10000 4.1 250 16:58 13.08.2019
3753 Clouds 33 1010 41 10000 4.1 250 16:40 13.08.2019
3754 Clear 33 1010 44 10000 3.6 250 16:21 13.08.2019
3755 Clear 33 1010 41 10000 2.6 210 15:59 13.08.2019
3756 Rain 33 1010 46 10000 3.1 230 15:38 13.08.2019
3757 Rain 33 1010 46 10000 3.1 230 15:19 13.08.2019
3758 Rain 33 1010 46 10000 3.1 230 15:19 13.08.2019
3759 Clear 33 1010 52 10000 3.6 230 14:42 13.08.2019
3760 Clear 33 1011 55 10000 4.1 230 14:20 13.08.2019
3761 Clear 33 1011 49 10000 4.1 240 13:57 13.08.2019
3762 Clear 33 1011 49 10000 4.1 240 13:38 13.08.2019
3763 Clear 33 1010 52 10000 1.5 0 13:18 13.08.2019
3764 Clear 33 1011 34 10000 2.1 0 12:56 13.08.2019
3765 Clear 33 1011 34 10000 2.1 0 12:37 13.08.2019
3766 Clear 33 1011 52 10000 1.5 0 12:18 13.08.2019
3767 Clear 32 1010 36 10000 2.6 150 11:42 13.08.2019
3768 Clear 32 1011 38 10000 1.5 0 11:22 13.08.2019
3769 Clear 32 1011 36 10000 1 0 10:57 13.08.2019
3770 Clear 32 1011 36 10000 1 0 10:38 13.08.2019
3771 Clear 31 1011 70 10000 1 0 10:19 13.08.2019
3772 Clear 30 1011 45 10000 1.5 70 09:45 13.08.2019
3773 Clear 28 1011 45 10000 2.1 70 09:24 13.08.2019
3774 Clear 28 1011 45 10000 2.1 70 09:24 13.08.2019
3775 Clear 27 1011 51 10000 2.1 80 08:57 13.08.2019
3776 Clear 26 1011 51 10000 2.1 80 08:39 13.08.2019
3777 Clear 26 1011 54 10000 3.1 90 08:20 13.08.2019
3778 Clear 25 1011 57 10000 2.6 110 07:41 13.08.2019
3779 Clear 24 1011 64 10000 3.1 120 07:21 13.08.2019
3780 Clear 25 1011 64 10000 2.1 150 06:43 13.08.2019
3781 Clear 24 1009 50 10000 2.1 300 05:47 13.08.2019
3782 Clear 25 1010 53 10000 2.6 30 04:24 13.08.2019
3783 Clear 25 1011 50 10000 3.1 50 02:22 13.08.2019
3784 Clear 25 1011 50 10000 1.5 80 01:29 13.08.2019
3785 Clear 26 1012 47 10000 1.5 40 00:48 13.08.2019
3786 Clear 26 1012 44 10000 1 0 00:22 13.08.2019
3787 Clear 26 1012 44 10000 0.5 0 23:43 12.08.2019
3788 Clear 27 1012 42 10000 1.5 110 23:21 12.08.2019
3789 Clear 27 1012 42 10000 1 0 22:41 12.08.2019
3790 Clear 27 1012 39 10000 1 0 22:20 12.08.2019
3791 Clear 28 1012 45 10000 2.1 120 21:57 12.08.2019
3792 Clear 28 1012 45 10000 2.1 120 21:38 12.08.2019
3793 Clear 29 1012 58 10000 2.1 110 21:20 12.08.2019
3794 Clear 29 1011 61 10000 1 0 20:59 12.08.2019
3795 Clear 29 1011 61 10000 1 0 20:41 12.08.2019
3796 Clear 30 1011 62 10000 2.1 250 20:20 12.08.2019
3797 Clear 30 1011 51 10000 4.6 250 19:57 12.08.2019
3798 Clear 31 1011 51 10000 4.6 250 19:39 12.08.2019
3799 Clear 32 1010 44 10000 3.1 250 19:20 12.08.2019
3800 Clear 33 1010 26 10000 3.6 260 18:56 12.08.2019
3801 Clear 34 1010 26 10000 3.6 260 18:38 12.08.2019
3802 Clear 35 1010 26 10000 3.6 270 18:20 12.08.2019
3803 Clear 36 1010 25 10000 3.6 260 17:48 12.08.2019
3804 Clear 36 1010 26 10000 3.6 270 17:29 12.08.2019
3805 Clear 36 1011 25 10000 4.6 270 16:58 12.08.2019
3806 Clear 36 1011 25 10000 4.6 270 16:39 12.08.2019
3807 Clear 36 1011 27 10000 3.6 260 16:20 12.08.2019
3808 Clear 36 1011 27 10000 3.6 270 15:59 12.08.2019
3809 Clear 36 1011 27 10000 3.6 270 15:41 12.08.2019
3810 Clear 36 1011 27 10000 3.6 280 15:21 12.08.2019
3811 Clear 36 1012 23 10000 3.1 340 14:58 12.08.2019
3812 Clear 36 1012 23 10000 3.1 340 14:39 12.08.2019
3813 Clear 36 1012 23 10000 3.1 340 14:39 12.08.2019
3814 Clear 36 1012 23 10000 2.6 330 14:20 12.08.2019
3815 Clear 35 1012 25 10000 2.6 320 13:54 12.08.2019
3816 Clear 35 1012 25 10000 2.6 320 13:36 12.08.2019
3817 Clear 35 1013 23 10000 2.6 340 13:18 12.08.2019
3818 Clear 35 1013 24 10000 3.1 330 12:41 12.08.2019
3819 Clear 34 1013 52 10000 1.5 0 12:19 12.08.2019
3820 Clear 33 1013 34 10000 1 0 11:44 12.08.2019
3821 Clear 32 1013 38 10000 1 0 11:26 12.08.2019
3822 Clear 32 1013 38 10000 1 0 11:26 12.08.2019
3823 Clear 33 1013 45 10000 1 0 10:57 12.08.2019
3824 Clear 32 1013 45 10000 1 0 10:38 12.08.2019
3825 Clear 30 1013 48 10000 2.1 30 10:20 12.08.2019
3826 Clear 30 1013 54 10000 2.1 360 09:54 12.08.2019
3827 Clear 29 1013 54 10000 2.1 360 09:36 12.08.2019
3828 Clear 28 1013 54 10000 1.5 20 09:18 12.08.2019
3829 Clear 27 1013 61 10000 1.5 20 08:39 12.08.2019
3830 Clear 26 1013 61 10000 1.5 20 08:39 12.08.2019
3831 Clear 26 1013 65 10000 1.5 10 08:21 12.08.2019
3832 Clear 26 1013 64 10000 1.5 40 07:56 12.08.2019
3833 Clear 25 1013 64 10000 1.5 40 07:34 12.08.2019
3834 Clear 24 1012 64 10000 1.5 340 06:53 12.08.2019
3835 Clear 24 1012 64 10000 2.1 30 05:53 12.08.2019
3836 Clear 24 1013 61 10000 1.5 10 03:47 12.08.2019
3837 Clear 25 1013 57 10000 1 0 02:42 12.08.2019
3838 Clear 25 1014 54 10000 1 0 01:23 12.08.2019
3839 Clear 25 1014 54 10000 1.5 80 00:58 12.08.2019
3840 Clear 26 1014 54 10000 1.5 80 00:40 12.08.2019
3841 Clear 26 1014 51 10000 1.5 90 00:20 12.08.2019
3842 Clear 26 1014 54 10000 2.6 110 23:58 11.08.2019
3843 Clear 27 1014 54 10000 2.6 110 23:39 11.08.2019
3844 Clear 27 1014 54 10000 2.6 110 23:39 11.08.2019
3845 Clear 27 1014 54 10000 1 110 23:19 11.08.2019
3846 Clear 27 1014 57 10000 1 140 22:56 11.08.2019
3847 Clear 27 1014 57 10000 1 140 22:36 11.08.2019
3848 Clear 27 1014 54 10000 0.5 0 22:36 11.08.2019
3849 Clear 27 1014 54 10000 0.5 0 22:18 11.08.2019
3850 Clear 27 1014 54 10000 1 0 21:55 11.08.2019
3851 Clear 28 1014 51 10000 1.5 220 21:36 11.08.2019
3852 Clear 29 1014 51 10000 1.5 220 21:18 11.08.2019
3853 Clear 29 1014 51 10000 1.5 230 20:42 11.08.2019
3854 Clear 29 1014 51 10000 1.5 230 20:42 11.08.2019
3855 Clear 31 1014 48 10000 2.1 240 20:23 11.08.2019
3856 Clear 31 1014 43 10000 2.6 250 19:54 11.08.2019
3857 Clear 32 1014 43 10000 2.6 250 19:36 11.08.2019
3858 Clear 32 1013 52 10000 3.1 260 19:18 11.08.2019
3859 Clear 33 1014 38 10000 3.1 270 18:38 11.08.2019
3860 Clear 34 1013 53 10000 4.1 270 18:19 11.08.2019
3861 Clear 34 1014 32 10000 3.6 260 17:42 11.08.2019
3862 Clear 35 1014 32 10000 4.1 270 17:21 11.08.2019
3863 Clear 34 1014 32 10000 4.6 270 16:59 11.08.2019
3864 Clear 35 1014 32 10000 4.6 270 16:40 11.08.2019
3865 Clear 35 1014 36 10000 4.6 270 16:22 11.08.2019
3866 Clear 35 1014 34 10000 4.1 250 15:57 11.08.2019
3867 Clear 35 1014 34 10000 4.1 250 15:38 11.08.2019
3868 Clouds 35 1014 39 10000 3.6 230 15:20 11.08.2019
3869 Clear 35 1015 37 10000 4.1 200 14:54 11.08.2019
3870 Clear 35 1015 37 10000 4.1 200 14:36 11.08.2019
3871 Clear 35 1015 30 10000 1 0 14:18 11.08.2019
3872 Clear 34 1015 30 10000 1.5 160 13:41 11.08.2019
3873 Clear 34 1015 34 10000 2.1 230 13:22 11.08.2019
3874 Clear 33 1015 36 10000 1.5 0 12:41 11.08.2019
3875 Clear 33 1015 49 10000 1 0 12:22 11.08.2019
3876 Clear 32 1016 41 10000 1.5 0 11:41 11.08.2019
3877 Clear 31 1016 43 10000 1 0 11:23 11.08.2019
3878 Clear 31 1016 45 10000 1 0 10:57 11.08.2019
3879 Clear 31 1016 45 10000 1 0 10:39 11.08.2019
3880 Clear 30 1016 48 10000 1.5 280 10:21 11.08.2019
3881 Clear 30 1015 51 10000 1 0 09:55 11.08.2019
3882 Clear 30 1015 51 10000 1 0 09:37 11.08.2019
3883 Clear 28 1015 57 10000 1.5 20 09:18 11.08.2019
3884 Clear 27 1015 61 10000 1.5 10 08:41 11.08.2019
3885 Clear 26 1015 61 10000 1.5 30 08:23 11.08.2019
3886 Clear 25 1015 64 10000 2.6 60 07:49 11.08.2019
3887 Clear 24 1015 69 10000 2.1 20 07:21 11.08.2019
3888 Clear 23 1015 69 10000 1.5 50 06:39 11.08.2019
3889 Clear 23 1015 60 10000 1.5 30 05:34 11.08.2019
3890 Clear 23 1015 57 10000 1.5 40 03:36 11.08.2019
3891 Clear 24 1015 60 10000 1 100 02:45 11.08.2019
3892 Clear 24 1016 64 10000 1 0 01:36 11.08.2019
3893 Clear 25 1016 69 10000 1 0 00:59 11.08.2019
3894 Clear 25 1016 69 10000 1 0 00:40 11.08.2019
3895 Clear 25 1016 69 10000 1 0 00:22 11.08.2019
3896 Clear 25 1016 61 10000 0.5 0 23:39 10.08.2019
3897 Clear 26 1016 54 10000 1 0 23:20 10.08.2019
3898 Clear 26 1016 57 10000 1 0 22:43 10.08.2019
3899 Clear 26 1016 51 10000 1 0 22:24 10.08.2019
3900 Clear 27 1016 51 10000 1.5 240 21:57 10.08.2019
3901 Clear 27 1016 51 10000 1.5 240 21:38 10.08.2019
3902 Clear 28 1016 45 10000 1 220 21:18 10.08.2019
3903 Clear 29 1016 42 10000 1.5 240 20:42 10.08.2019
3904 Clear 30 1015 40 10000 2.1 250 20:21 10.08.2019
3905 Clear 30 1015 38 10000 3.1 250 19:57 10.08.2019
3906 Clear 31 1015 38 10000 3.1 250 19:38 10.08.2019
3907 Clear 31 1015 35 10000 3.1 260 19:19 10.08.2019
3908 Clear 32 1015 38 10000 3.1 260 18:39 10.08.2019
3909 Clear 32 1015 46 10000 4.1 250 18:21 10.08.2019
3910 Clear 33 1015 36 10000 3.6 230 17:44 10.08.2019
3911 Clear 33 1015 38 10000 3.6 220 17:25 10.08.2019
3912 Clear 34 1015 41 10000 4.1 220 16:47 10.08.2019
3913 Clouds 34 1015 41 10000 4.1 240 16:28 10.08.2019
3914 Clouds 34 1015 39 10000 3.6 260 15:55 10.08.2019
3915 Clouds 34 1015 41 10000 3.6 250 15:26 10.08.2019
3916 Clouds 34 1015 39 10000 2.6 240 14:45 10.08.2019
3917 Clouds 34 1015 41 10000 1.5 0 14:23 10.08.2019
3918 Clouds 33 1016 44 10000 2.1 290 13:57 10.08.2019
3919 Clouds 33 1016 44 10000 2.1 290 13:39 10.08.2019
3920 Clear 33 1015 53 10000 1 0 13:18 10.08.2019
3921 Clear 33 1016 44 10000 1.5 0 12:41 10.08.2019
3922 Clear 32 1016 56 10000 2.1 340 12:21 10.08.2019
3923 Clear 31 1016 46 10000 1.5 0 11:56 10.08.2019
3924 Clear 31 1016 46 10000 1.5 0 11:37 10.08.2019
3925 Clear 30 1016 46 10000 2.6 210 11:19 10.08.2019
3926 Clear 30 1016 52 10000 2.6 180 10:38 10.08.2019
3927 Clear 30 1016 48 10000 2.6 230 10:20 10.08.2019
3928 Clear 29 1016 58 10000 1.5 280 09:44 10.08.2019
3929 Clear 27 1016 61 10000 2.1 270 09:25 10.08.2019
3930 Clear 27 1016 58 10000 1 0 08:59 10.08.2019
3931 Clear 26 1015 100 10000 1.5 0 08:38 10.08.2019
3932 Clear 26 1015 100 10000 1.5 0 08:18 10.08.2019
3933 Clear 25 1015 69 10000 1 0 07:46 10.08.2019
3934 Clear 24 1015 69 10000 1.5 0 07:25 10.08.2019
3935 Clear 23 1015 78 10000 1 80 06:47 10.08.2019
3936 Clear 23 1015 78 10000 0.5 80 06:18 10.08.2019
3937 Clear 23 1014 78 8000 1 120 05:22 10.08.2019
3938 Fog 23 1014 83 8000 0.5 170 04:18 10.08.2019
3939 Mist 24 1014 61 10000 0.5 0 02:51 10.08.2019
3940 Mist 25 1014 61 10000 1 0 01:57 10.08.2019
3941 Mist 25 1014 61 10000 1 0 01:37 10.08.2019
3942 Clear 25 1015 61 10000 1 0 01:19 10.08.2019
3943 Clear 25 1014 61 10000 1.5 70 00:42 10.08.2019
3944 Clear 25 1014 61 10000 0.5 0 00:19 10.08.2019
3945 Clear 25 1014 61 10000 2.6 100 23:41 09.08.2019
3946 Clear 26 1014 65 10000 1 0 23:21 09.08.2019
3947 Clear 26 1014 65 10000 1 0 22:56 09.08.2019
3948 Clear 26 1014 65 10000 1 0 22:56 09.08.2019
3949 Clear 26 1014 65 10000 1 0 22:37 09.08.2019
3950 Clear 26 1014 65 10000 1.5 130 22:19 09.08.2019
3951 Clear 27 1014 61 10000 0.5 0 21:41 09.08.2019
3952 Clear 28 1014 54 10000 1 0 21:22 09.08.2019
3953 Clear 29 1014 54 10000 1.5 240 20:58 09.08.2019
3954 Clear 29 1014 54 10000 1.5 240 20:39 09.08.2019
3955 Clear 29 1014 54 10000 1.5 240 20:39 09.08.2019
3956 Clear 29 1013 62 10000 1.5 0 20:20 09.08.2019
3957 Clear 30 1013 45 10000 3.1 260 19:44 09.08.2019
3958 Clear 31 1013 52 10000 3.1 240 19:23 09.08.2019
3959 Clear 31 1013 43 10000 3.1 260 18:59 09.08.2019
3960 Clear 31 1013 43 10000 3.1 260 18:39 09.08.2019
3961 Clear 32 1011 52 10000 2.6 230 18:20 09.08.2019
3962 Clear 32 1013 46 10000 3.1 270 17:45 09.08.2019
3963 Clear 32 1013 46 10000 3.6 270 17:25 09.08.2019
3964 Clear 32 1013 49 10000 4.1 260 16:58 09.08.2019
3965 Clear 33 1013 49 10000 4.1 260 16:38 09.08.2019
3966 Clear 33 1013 46 10000 4.6 260 16:20 09.08.2019
3967 Clear 33 1013 46 10000 4.6 280 15:55 09.08.2019
3968 Clear 33 1013 46 10000 4.6 280 15:36 09.08.2019
3969 Clouds 33 1013 46 10000 4.6 270 15:18 09.08.2019
3970 Clouds 33 1014 46 10000 2.6 0 14:42 09.08.2019
3971 -273 0 0 0 0 0 14:21 09.08.2019
3972 Clouds 32 1014 49 10000 3.1 230 13:55 09.08.2019
3973 Clouds 32 1014 49 10000 3.1 230 13:37 09.08.2019
3974 Clear 32 1013 55 10000 4.58 271.989 13:18 09.08.2019
3975 Clouds 32 1014 41 10000 2.1 0 12:41 09.08.2019
3976 Clear 31 1014 62 10000 1.5 0 12:22 09.08.2019
3977 Clear 31 1014 46 10000 1 0 11:42 09.08.2019
3978 Clear 30 1014 48 10000 1 0 11:21 09.08.2019
3979 Clear 30 1014 48 10000 1 0 11:21 09.08.2019
3980 Clear 30 1014 54 10000 1 0 10:58 09.08.2019
3981 Clear 30 1014 54 10000 1 0 10:39 09.08.2019
3982 Clear 28 1014 54 10000 1.5 340 10:20 09.08.2019
3983 Clear 28 1014 58 10000 2.6 340 09:42 09.08.2019
3984 Clear 27 1014 65 10000 2.1 350 09:19 09.08.2019
3985 Clear 26 1014 69 10000 2.1 30 08:46 09.08.2019
3986 Clear 25 1013 94 10000 1 0 08:26 09.08.2019
3987 Clear 24 1013 73 10000 1.5 30 07:59 09.08.2019
3988 Clear 24 1013 73 10000 1.5 30 07:41 09.08.2019
3989 Clear 23 1013 73 10000 2.1 0 07:21 09.08.2019
3990 Clear 23 1013 73 10000 2.6 30 06:50 09.08.2019
3991 Clear 22 1013 73 10000 2.6 20 06:22 09.08.2019
3992 Clear 22 1013 73 10000 3.1 40 05:45 09.08.2019
3993 Clear 24 1013 65 10000 1 0 02:30 09.08.2019
3994 Clear 24 1013 65 10000 1.5 80 01:30 09.08.2019
3995 Clear 24 1013 65 10000 2.1 80 00:43 09.08.2019
3996 Clear 24 1013 69 10000 0.5 0 00:24 09.08.2019
3997 Clear 25 1012 69 10000 0.5 80 23:57 08.08.2019
3998 Clear 25 1012 69 10000 0.5 80 23:37 08.08.2019
3999 Clear 25 1012 65 10000 0.5 0 23:19 08.08.2019
4000 Clear 25 1012 61 10000 1 0 22:56 08.08.2019
4001 Clear 25 1012 61 10000 1 0 22:36 08.08.2019
4002 Clear 25 1012 57 10000 2.1 330 22:18 08.08.2019
4003 Clear 25 1012 57 10000 2.1 300 21:43 08.08.2019
4004 Clear 27 1011 51 10000 1 0 21:24 08.08.2019
4005 Clear 27 1011 54 10000 1 0 20:59 08.08.2019
4006 Clear 28 1011 54 10000 1 0 20:41 08.08.2019
4007 Clear 28 1011 48 10000 1.5 260 20:20 08.08.2019
4008 Clear 29 1011 48 10000 1.5 0 19:49 08.08.2019
4009 Clear 29 1010 66 10000 1.5 0 19:29 08.08.2019
4010 Clear 29 1011 58 10000 3.6 230 18:59 08.08.2019
4011 Clear 29 1011 58 10000 3.6 230 18:40 08.08.2019
4012 Clear 30 1010 70 10000 5.1 280 18:19 08.08.2019
4013 Clear 30 1011 43 10000 3.6 190 17:42 08.08.2019
4014 Clear 31 1010 45 10000 3.6 210 17:24 08.08.2019
4015 Clear 31 1010 40 10000 4.1 200 16:59 08.08.2019
4016 Clear 31 1010 40 10000 4.1 200 16:41 08.08.2019
4017 Clear 31 1011 38 10000 3.6 210 16:23 08.08.2019
4018 Clear 31 1010 31 10000 3.1 170 15:57 08.08.2019
4019 Clear 31 1010 31 10000 3.1 170 15:38 08.08.2019
4020 Clear 31 1010 31 10000 3.1 200 15:20 08.08.2019
4021 Clear 31 1011 33 10000 2.6 140 14:40 08.08.2019
4022 Clear 31 1010 55 10000 1 0 14:21 08.08.2019
4023 Clear 31 1011 38 10000 2.1 170 13:56 08.08.2019
4024 Clear 31 1011 38 10000 2.1 170 13:36 08.08.2019
4025 Clear 31 1011 58 10000 2.1 20 13:18 08.08.2019
4026 Clear 30 1011 40 10000 1.5 0 12:38 08.08.2019
4027 Clear 29 1011 62 10000 2.1 340 12:19 08.08.2019
4028 Clear 29 1011 45 10000 2.6 140 11:43 08.08.2019
4029 Clear 29 1011 45 10000 3.1 180 11:25 08.08.2019
4030 Clear 28 1011 48 10000 2.6 200 10:56 08.08.2019
4031 Clear 29 1011 48 10000 2.6 200 10:38 08.08.2019
4032 Clear 28 1011 48 10000 2.6 190 10:19 08.08.2019
4033 Clear 27 1011 48 10000 2.6 0 09:41 08.08.2019
4034 Clear 26 1011 61 10000 1 0 09:22 08.08.2019
4035 Clear 25 1011 61 10000 0.5 0 08:44 08.08.2019
4036 Clear 25 1011 65 10000 0.5 0 08:22 08.08.2019
4037 Clear 24 1011 65 10000 1.5 80 07:58 08.08.2019
4038 Clear 24 1011 65 10000 1.5 80 07:39 08.08.2019
4039 Clear 23 1011 65 10000 2.6 60 07:18 08.08.2019
4040 Clear 23 1011 65 10000 2.1 110 06:45 08.08.2019
4041 Clear 23 1011 61 10000 2.1 130 05:58 08.08.2019
4042 Clear 23 1011 61 10000 2.1 130 05:40 08.08.2019
4043 Clouds 24 1011 69 10000 3.6 130 04:21 08.08.2019
4044 Clear 23 1011 61 10000 3.6 150 03:47 08.08.2019
4045 Clear 23 1012 57 10000 3.1 150 01:54 08.08.2019
4046 Clear 23 1012 57 10000 3.6 150 01:20 08.08.2019
4047 Clear 24 1011 47 10000 2.6 150 00:25 08.08.2019
4048 Clear 24 1011 34 10000 4.1 150 23:40 07.08.2019
4049 Clear 25 1011 34 10000 4.1 160 23:18 07.08.2019
4050 Clear 25 1011 42 10000 2.6 180 22:41 07.08.2019
4051 Clear 25 1011 44 10000 2.1 170 22:21 07.08.2019
4052 Clear 26 1011 39 10000 3.1 160 21:59 07.08.2019
4053 Clear 26 1011 39 10000 3.1 160 21:40 07.08.2019
4054 Clear 26 1011 39 10000 3.1 160 21:40 07.08.2019
4055 Clear 27 1011 44 10000 3.1 160 21:21 07.08.2019
4056 Clear 27 1011 42 10000 3.1 170 20:59 07.08.2019
4057 Clear 28 1011 42 10000 3.1 170 20:41 07.08.2019
4058 Clear 29 1011 39 10000 4.1 170 20:22 07.08.2019
4059 Clear 29 1011 30 10000 5.7 170 19:56 07.08.2019
4060 Clear 29 1011 30 10000 5.7 170 19:56 07.08.2019
4061 Clear 29 1011 30 10000 5.7 170 19:37 07.08.2019
4062 Clear 29 1011 40 10000 0.5 200 19:19 07.08.2019
4063 Clear 30 1011 31 10000 5.1 160 18:41 07.08.2019
4064 Clear 31 1011 43 10000 5.1 200 18:20 07.08.2019
4065 Clear 31 1012 31 10000 4.6 170 17:56 07.08.2019
4066 Clear 31 1012 31 10000 4.6 170 17:56 07.08.2019
4067 Clear 31 1012 31 10000 4.6 170 17:56 07.08.2019
4068 Clear 31 1012 31 10000 4.6 170 17:38 07.08.2019
4069 Clear 32 1012 31 10000 5.1 190 17:19 07.08.2019
4070 Clear 32 1012 27 10000 5.1 170 16:56 07.08.2019
4071 Clear 32 1012 27 10000 5.1 170 16:56 07.08.2019
4072 Clear 32 1012 27 10000 5.1 170 16:38 07.08.2019
4073 Clear 32 1012 26 10000 5.1 160 16:19 07.08.2019
4074 Clear 32 1013 26 10000 4.6 180 15:43 07.08.2019
4075 Clear 32 1013 24 10000 5.1 170 15:22 07.08.2019
4076 Clear 32 1013 23 10000 5.7 170 14:57 07.08.2019
4077 Clear 32 1013 23 10000 5.7 170 14:38 07.08.2019
4078 Clear 32 1013 22 10000 5.7 160 14:20 07.08.2019
4079 Clear 32 1013 26 10000 5.1 180 13:40 07.08.2019
4080 Clear 32 1013 26 10000 5.1 170 13:19 07.08.2019
4081 Clear 32 1013 22 10000 5.1 160 12:58 07.08.2019
4082 Clear 32 1013 22 10000 5.1 160 12:38 07.08.2019
4083 Clear 31 1013 36 10000 3.6 210 12:20 07.08.2019
4084 Clear 30 1014 27 10000 4.1 160 11:58 07.08.2019
4085 Clear 30 1014 27 10000 4.1 160 11:40 07.08.2019
4086 Clear 29 1014 29 10000 4.6 110 11:18 07.08.2019
4087 Clear 29 1014 30 10000 4.1 160 10:41 07.08.2019
4088 Clear 27 1014 28 10000 5.1 150 10:20 07.08.2019
4089 Clear 28 1013 32 10000 1.5 0 09:59 07.08.2019
4090 Clear 27 1013 32 10000 1.5 0 09:40 07.08.2019
4091 Clear 25 1014 44 10000 1 0 09:20 07.08.2019
4092 Clear 24 1014 50 10000 0.5 0 08:45 07.08.2019
4093 Clear 23 1013 53 10000 0.5 0 08:25 07.08.2019
4094 Clear 23 1014 60 10000 1 0 07:51 07.08.2019
4095 Clear 22 1014 60 10000 1 0 07:31 07.08.2019
4096 Clear 21 1014 60 10000 1 0 06:48 07.08.2019
4097 Clear 21 1014 60 10000 1.5 110 06:26 07.08.2019
4098 Clear 20 1014 64 10000 1.5 110 05:43 07.08.2019
4099 Clear 21 1014 60 10000 2.1 250 04:41 07.08.2019
4100 Clear 22 1014 53 10000 2.6 90 03:18 07.08.2019
4101 Clear 21 1014 56 10000 2.1 100 02:39 07.08.2019
4102 Clear 22 1015 60 10000 1.5 90 01:53 07.08.2019
4103 Clear 22 1015 64 10000 1.5 100 01:23 07.08.2019
4104 Clear 22 1015 60 10000 1.5 80 00:37 07.08.2019
4105 Clear 22 1015 60 10000 1.5 120 00:18 07.08.2019
4106 Clear 23 1015 57 10000 2.1 100 23:38 06.08.2019
4107 Clear 23 1015 60 10000 2.1 100 23:20 06.08.2019
4108 Clear 23 1015 57 10000 1.5 170 22:41 06.08.2019
4109 Clear 23 1015 61 10000 1.5 180 22:22 06.08.2019
4110 Clear 24 1015 54 10000 1.5 200 21:57 06.08.2019
4111 Clear 24 1015 54 10000 1.5 200 21:39 06.08.2019
4112 Clear 26 1015 54 10000 1.5 200 21:19 06.08.2019
4113 Clear 26 1015 54 10000 1.5 200 21:19 06.08.2019
4114 Clear 26 1015 54 10000 1.5 200 21:19 06.08.2019
4115 Clear 25 1015 54 10000 1.5 200 21:19 06.08.2019
4116 Clear 27 1015 47 10000 2.1 200 20:46 06.08.2019
4117 Clear 27 1015 45 10000 2.6 200 20:28 06.08.2019
4118 Clear 28 1015 45 10000 3.6 200 19:57 06.08.2019
4119 Clear 28 1015 45 10000 3.6 200 19:38 06.08.2019
4120 Clear 28 1015 45 10000 3.6 200 19:19 06.08.2019
4121 Clear 29 1015 40 10000 3.6 240 18:43 06.08.2019
4122 Clear 30 1015 35 10000 4.1 200 18:25 06.08.2019
4123 Clear 31 1015 33 10000 3.6 200 17:58 06.08.2019
4124 Clear 31 1015 33 10000 3.6 200 17:38 06.08.2019
4125 Clear 31 1015 33 10000 3.6 220 17:19 06.08.2019
4126 Clear 31 1015 33 10000 3.6 220 16:54 06.08.2019
4127 Clear 31 1015 33 10000 3.6 220 16:36 06.08.2019
4128 Clear 32 1016 31 10000 3.6 210 16:18 06.08.2019
4129 Clear 32 1016 31 10000 3.6 210 15:55 06.08.2019
4130 Clear 32 1016 31 10000 3.6 210 15:36 06.08.2019
4131 Clear 32 1016 33 10000 3.6 220 15:18 06.08.2019
4132 Clear 32 1016 31 10000 3.6 220 14:40 06.08.2019
4133 Clear 32 1016 31 10000 3.6 220 14:40 06.08.2019
4134 Clear 32 1016 31 10000 3.6 220 14:40 06.08.2019
4135 Clear 31 1016 31 10000 2.6 240 14:21 06.08.2019
4136 Clear 31 1017 29 10000 2.6 0 13:55 06.08.2019
4137 Clear 31 1017 29 10000 2.6 0 13:37 06.08.2019
4138 Clear 31 1017 29 10000 2.6 250 13:18 06.08.2019
4139 Clear 30 1017 31 10000 1.5 0 12:41 06.08.2019
4140 Clear 30 1017 31 10000 1.5 0 12:41 06.08.2019
4141 Clear 30 1017 43 10000 1.5 0 12:23 06.08.2019
4142 Clear 29 1017 28 10000 1.5 0 11:46 06.08.2019
4143 Clear 28 1017 30 10000 1.5 0 11:22 06.08.2019
4144 Clear 28 1017 35 10000 1.5 0 10:59 06.08.2019
4145 Clear 28 1017 35 10000 1.5 0 10:40 06.08.2019
4146 Clear 27 1017 37 10000 1.5 0 10:22 06.08.2019
4147 Clear 26 1017 36 10000 1.5 250 09:43 06.08.2019
4148 Clear 24 1017 41 10000 1 0 09:23 06.08.2019
4149 Clear 23 1017 44 10000 0.5 0 08:55 06.08.2019
4150 Clear 23 1017 44 10000 0.5 0 08:36 06.08.2019
4151 Fog 22 1016 56 10000 1 0 08:18 06.08.2019
4152 Fog 22 1016 56 10000 2.1 0 07:31 06.08.2019
4153 Fog 20 1016 49 10000 3.1 70 06:45 06.08.2019
4154 Mist 19 1016 46 10000 1 0 06:24 06.08.2019
4155 Fog 19 1016 46 10000 2.6 100 05:46 06.08.2019
4156 Fog 19 1016 46 10000 2.6 100 05:46 06.08.2019
4157 Clear 20 1016 52 10000 2.1 70 02:59 06.08.2019
4158 Clear 21 1017 56 10000 1 0 01:36 06.08.2019
4159 Clear 21 1017 60 10000 1.5 90 00:59 06.08.2019
4160 Clear 22 1016 60 10000 1.5 120 00:23 06.08.2019
4161 Clear 23 1016 53 10000 1.5 120 23:21 05.08.2019
4162 Clear 23 1016 53 10000 1 0 22:59 05.08.2019
4163 Clear 23 1016 53 10000 1 0 22:39 05.08.2019
4164 Clear 23 1016 57 10000 1 0 22:21 05.08.2019
4165 Clear 24 1016 53 10000 1.5 200 21:42 05.08.2019
4166 Clear 26 1016 47 10000 1.5 210 21:21 05.08.2019
4167 Clear 26 1015 42 10000 2.1 220 20:58 05.08.2019
4168 Clear 26 1015 42 10000 2.1 220 20:40 05.08.2019
4169 Clear 27 1015 37 10000 2.1 220 20:22 05.08.2019
4170 Clear 28 1015 37 10000 2.6 230 19:57 05.08.2019
4171 Clear 29 1015 43 10000 3.6 230 19:38 05.08.2019
4172 Clear 29 1015 43 10000 3.6 230 19:19 05.08.2019
4173 Clear 30 1015 31 10000 3.1 220 18:42 05.08.2019
4174 Clear 30 1015 38 10000 3.1 250 18:21 05.08.2019
4175 Clear 31 1015 31 10000 3.1 240 17:56 05.08.2019
4176 Clear 31 1015 31 10000 3.1 240 17:38 05.08.2019
4177 Clear 31 1015 29 10000 3.1 260 17:20 05.08.2019
4178 Clear 31 1015 29 10000 3.1 260 16:41 05.08.2019
4179 Clear 31 1016 25 10000 3.1 240 16:23 05.08.2019
4180 Clear 31 1016 31 10000 3.6 240 15:43 05.08.2019
4181 Clear 31 1016 31 10000 4.6 210 15:20 05.08.2019
4182 Clear 31 1016 27 10000 4.1 250 14:42 05.08.2019
4183 Clear 31 1016 27 10000 4.1 250 14:42 05.08.2019
4184 Clear 31 1016 27 10000 4.6 240 14:22 05.08.2019
4185 Clear 31 1016 25 10000 3.6 230 13:50 05.08.2019
4186 Clear 31 1016 25 10000 3.6 230 13:50 05.08.2019
4187 Clear 31 1016 33 10000 3.6 220 13:24 05.08.2019
4188 Clear 30 1016 29 10000 3.1 220 12:59 05.08.2019
4189 Clear 30 1016 29 10000 3.1 220 12:41 05.08.2019
4190 Clear 30 1016 43 10000 1.5 0 12:18 05.08.2019
4191 Clear 29 1016 33 10000 2.1 0 11:43 05.08.2019
4192 Clear 29 1016 30 10000 2.1 0 11:25 05.08.2019
4193 Clear 28 1016 39 10000 1.5 0 10:47 05.08.2019
4194 Clear 28 1016 44 10000 1.5 0 10:28 05.08.2019
4195 Clear 26 1016 44 10000 1.5 310 09:56 05.08.2019
4196 Clear 26 1016 44 10000 1.5 310 09:37 05.08.2019
4197 Clear 24 1016 41 10000 1.5 270 09:19 05.08.2019
4198 Clear 24 1016 41 10000 0.5 0 08:43 05.08.2019
4199 Clear 23 1016 94 10000 1.5 0 08:24 05.08.2019
4200 Clear 22 1015 49 10000 1 50 07:47 05.08.2019
4201 Clear 21 1015 49 10000 1 60 07:28 05.08.2019
4202 Fog 20 1015 52 10000 1.5 60 06:53 05.08.2019
4203 Fog 20 1015 49 10000 1.5 40 06:19 05.08.2019
4204 Fog 20 1015 56 10000 0.5 0 05:23 05.08.2019
4205 Clear 20 1015 52 10000 0.5 0 04:41 05.08.2019
4206 Clear 21 1015 49 10000 2.6 90 03:50 05.08.2019
4207 Clear 21 1016 46 10000 2.1 90 02:38 05.08.2019
4208 Clear 21 1016 56 10000 2.1 110 01:41 05.08.2019
4209 Clear 22 1016 46 10000 2.6 110 00:59 05.08.2019
4210 Clear 22 1016 46 10000 2.6 110 00:39 05.08.2019
4211 Clear 22 1015 53 10000 2.6 100 00:18 05.08.2019
4212 Clear 22 1015 53 10000 2.6 100 23:41 04.08.2019
4213 Clear 23 1015 60 10000 2.1 120 23:22 04.08.2019
4214 Clear 23 1015 64 10000 2.1 100 22:57 04.08.2019
4215 Clear 24 1015 64 10000 2.1 100 22:38 04.08.2019
4216 Clear 24 1015 64 10000 1 120 22:19 04.08.2019
4217 Clear 24 1015 50 10000 1 0 21:45 04.08.2019
4218 Clear 25 1014 50 10000 1 0 21:24 04.08.2019
4219 Clear 26 1014 54 10000 1.5 230 20:57 04.08.2019
4220 Clear 26 1014 54 10000 1.5 230 20:38 04.08.2019
4221 Clear 27 1014 51 10000 2.1 210 20:18 04.08.2019
4222 Clear 27 1014 48 10000 2.1 230 19:43 04.08.2019
4223 Clear 28 1014 48 10000 2.6 220 19:24 04.08.2019
4224 Clear 29 1014 51 10000 3.6 240 18:44 04.08.2019
4225 Clear 29 1014 54 10000 3.6 210 18:21 04.08.2019
4226 Clouds 29 1014 48 10000 4.1 210 17:58 04.08.2019
4227 Clouds 29 1014 48 10000 4.1 210 17:40 04.08.2019
4228 Clear 30 1014 48 10000 3.1 230 17:20 04.08.2019
4229 Clouds 30 1014 51 10000 3.6 220 16:42 04.08.2019
4230 Clouds 30 1014 48 10000 3.1 220 16:24 04.08.2019
4231 Clouds 30 1014 45 10000 3.6 230 15:45 04.08.2019
4232 Clouds 30 1014 45 10000 3.6 230 15:45 04.08.2019
4233 Clouds 30 1014 51 10000 4.1 230 15:23 04.08.2019
4234 Clouds 30 1014 45 10000 2.6 220 14:55 04.08.2019
4235 Clouds 30 1014 45 10000 2.6 220 14:37 04.08.2019
4236 Clouds 30 1014 45 10000 2.6 240 14:19 04.08.2019
4237 Clouds 30 1014 45 10000 2.1 0 13:42 04.08.2019
4238 Clouds 30 1014 27 10000 3.1 350 13:23 04.08.2019
4239 Clouds 29 1014 33 10000 3.1 30 12:45 04.08.2019
4240 Clear 29 1014 45 10000 1 0 12:27 04.08.2019
4241 Clouds 29 1014 37 10000 2.1 260 11:57 04.08.2019
4242 Clouds 28 1014 37 10000 2.1 260 11:37 04.08.2019
4243 Clouds 28 1014 51 10000 1.5 50 11:19 04.08.2019
4244 Clear 28 1014 54 10000 2.1 10 10:41 04.08.2019
4245 Clear 27 1014 57 10000 2.1 20 10:20 04.08.2019
4246 Clear 26 1014 57 10000 2.1 360 09:45 04.08.2019
4247 Clear 25 1014 60 10000 1.5 350 09:22 04.08.2019
4248 Clear 24 1013 60 10000 2.1 20 08:47 04.08.2019
4249 Clear 23 1013 64 10000 2.1 20 08:26 04.08.2019
4250 Clear 22 1013 64 10000 2.1 50 07:52 04.08.2019
4251 Clear 21 1013 68 10000 1.5 60 07:20 04.08.2019
4252 Clear 20 1012 72 10000 0.5 0 06:28 04.08.2019
4253 Clear 20 1012 68 10000 0.5 0 04:29 04.08.2019
4254 Clear 21 1012 64 10000 1.5 80 02:43 04.08.2019
4255 Clear 21 1012 64 10000 1.5 90 01:39 04.08.2019
4256 Clear 22 1012 64 10000 1.5 90 01:18 04.08.2019
4257 Clear 22 1011 73 10000 1.5 110 00:41 04.08.2019
4258 Clear 22 1011 73 10000 1.5 110 00:19 04.08.2019
4259 Clear 23 1011 73 10000 2.1 110 23:41 03.08.2019
4260 Clear 23 1011 73 10000 1.5 120 23:18 03.08.2019
4261 Clear 23 1011 73 10000 1.5 120 23:18 03.08.2019
4262 Clear 23 1011 69 10000 1 0 22:45 03.08.2019
4263 Clear 24 1011 65 10000 0.5 0 22:22 03.08.2019
4264 Clear 24 1011 61 10000 1 0 21:59 03.08.2019
4265 Clear 25 1011 61 10000 1 0 21:37 03.08.2019
4266 Clear 25 1010 65 10000 1 0 21:19 03.08.2019
4267 Clear 27 1010 61 10000 2.1 260 20:42 03.08.2019
4268 Clear 27 1010 57 10000 4.1 260 20:22 03.08.2019
4269 Clear 28 1010 51 10000 4.6 260 19:42 03.08.2019
4270 Clear 29 1009 65 10000 3.6 20 19:24 03.08.2019
4271 Clear 29 1010 48 10000 4.6 260 18:53 03.08.2019
4272 Clear 30 1010 42 10000 5.1 250 18:27 03.08.2019
4273 Clear 30 1010 40 10000 5.1 260 17:49 03.08.2019
4274 Clouds 30 1010 38 10000 6.2 270 17:21 03.08.2019
4275 Clouds 31 1010 35 10000 4.6 290 16:56 03.08.2019
4276 Clouds 31 1010 35 10000 4.6 290 16:37 03.08.2019
4277 Clouds 31 1010 40 10000 4.1 290 16:19 03.08.2019
4278 Clouds 31 1010 35 10000 4.1 300 15:43 03.08.2019
4279 Clouds 31 1010 31 10000 4.1 340 15:22 03.08.2019
4280 Clouds 31 1010 35 10000 4.6 290 14:40 03.08.2019
4281 Clear 30 1010 38 10000 5.1 330 14:21 03.08.2019
4282 Clear 30 1010 42 10000 3.6 360 13:51 03.08.2019
4283 Clear 30 1011 42 10000 3.1 330 13:25 03.08.2019
4284 Clear 29 1011 42 10000 3.6 360 12:57 03.08.2019
4285 Clear 29 1011 42 10000 3.6 360 12:39 03.08.2019
4286 Clear 28 1011 51 10000 3.6 360 12:21 03.08.2019
4287 Clear 28 1011 54 10000 3.1 360 11:48 03.08.2019
4288 Clear 26 1011 51 10000 3.1 350 11:26 03.08.2019
4289 Clear 27 1010 54 10000 2.6 360 10:41 03.08.2019
4290 Clear 26 1010 57 10000 2.6 20 10:22 03.08.2019
4291 Clear 26 1010 60 10000 3.1 360 09:42 03.08.2019
4292 Clear 24 1010 60 10000 3.6 360 09:21 03.08.2019
4293 Clear 24 1010 57 10000 3.1 20 08:51 03.08.2019
4294 Clear 22 1010 68 10000 1.5 80 07:52 03.08.2019
4295 Clear 21 1010 77 10000 1 0 07:31 03.08.2019
4296 Clear 20 1010 68 10000 1 60 06:24 03.08.2019
4297 Clear 21 1009 64 10000 2.6 100 04:41 03.08.2019
4298 Clear 21 1009 88 10000 1.5 350 02:38 03.08.2019
4299 Clear 22 1010 73 10000 1 0 01:42 03.08.2019
4300 Clear 22 1010 73 10000 1.5 320 00:49 03.08.2019
4301 Clear 23 1010 57 10000 1.5 50 23:59 02.08.2019
4302 Clear 23 1010 57 10000 1.5 50 23:40 02.08.2019
4303 Clouds 24 1010 44 10000 1 0 23:19 02.08.2019
4304 Clouds 24 1010 47 10000 2.6 170 22:56 02.08.2019
4305 Clouds 24 1010 47 10000 2.6 170 22:38 02.08.2019
4306 Clouds 24 1010 47 10000 2.6 170 22:38 02.08.2019
4307 Thunderstorm 24 1010 47 10000 4.1 160 22:18 02.08.2019
4308 Thunderstorm 24 1010 42 10000 2.6 140 21:43 02.08.2019
4309 Clouds 25 1010 37 10000 2.1 170 21:23 02.08.2019
4310 Clouds 25 1010 37 10000 3.6 160 20:55 02.08.2019
4311 Clouds 26 1010 37 10000 3.6 160 20:37 02.08.2019
4312 Clouds 26 1010 42 10000 5.1 160 20:19 02.08.2019
4313 Thunderstorm 26 1010 45 10000 3.6 170 19:42 02.08.2019
4314 Thunderstorm 27 1010 72 10000 1.5 0 19:24 02.08.2019
4315 Thunderstorm 27 1011 54 10000 3.6 190 18:44 02.08.2019
4316 Thunderstorm 28 1011 63 8000 2.1 70 18:24 02.08.2019
4317 Thunderstorm 27 1012 65 10000 4.1 150 17:44 02.08.2019
4318 Thunderstorm 29 1011 33 10000 4.1 170 17:24 02.08.2019
4319 Thunderstorm 30 1010 33 10000 4.6 170 16:56 02.08.2019
4320 Thunderstorm 30 1010 33 10000 4.6 170 16:37 02.08.2019
4321 Rain 30 1010 48 10000 4.6 160 16:18 02.08.2019
4322 Rain 31 1011 37 10000 3.6 130 15:39 02.08.2019
4323 Clear 31 1011 31 10000 4.6 160 15:19 02.08.2019
4324 Clear 30 1011 38 10000 7.2 130 14:45 02.08.2019
4325 Clear 30 1012 38 10000 5.7 150 14:18 02.08.2019
4326 Clouds 30 1013 40 10000 6.2 150 13:48 02.08.2019
4327 Clouds 29 1013 45 10000 6.7 190 13:25 02.08.2019
4328 Clouds 29 1014 42 10000 7.2 200 12:45 02.08.2019
4329 Clouds 28 1013 52 10000 6.2 280 12:21 02.08.2019
4330 Clear 29 1011 38 10000 6.2 320 11:51 02.08.2019
4331 Clear 28 1011 38 10000 1.5 290 11:32 02.08.2019
4332 Clouds 29 1011 38 10000 4.1 110 10:55 02.08.2019
4333 Clouds 28 1011 38 10000 4.1 110 10:37 02.08.2019
4334 Rain 26 1010 39 10000 5.7 100 10:19 02.08.2019
4335 Rain 25 1012 47 10000 4.1 80 09:51 02.08.2019
4336 Rain 23 1014 60 10000 4.1 100 09:25 02.08.2019
4337 Rain 23 1016 68 10000 2.6 340 08:47 02.08.2019
4338 Rain 22 1014 56 10000 2.6 10 08:21 02.08.2019
4339 Clouds 22 1015 60 10000 1.5 290 07:49 02.08.2019
4340 Clouds 22 1014 64 10000 2.1 140 07:31 02.08.2019
4341 Clear 21 1014 49 10000 0.5 0 06:44 02.08.2019
4342 Clouds 21 1014 52 10000 2.1 90 05:52 02.08.2019
4343 Clear 21 1014 56 10000 2.1 110 05:21 02.08.2019
4344 Clear 21 1014 56 10000 1 0 03:27 02.08.2019
4345 Clear 21 1014 60 10000 0.5 0 02:33 02.08.2019
4346 Clear 22 1015 64 10000 1 0 00:38 02.08.2019
4347 Clear 23 1014 60 10000 1.5 250 23:46 01.08.2019
4348 Clear 23 1014 53 10000 1.5 120 23:28 01.08.2019
4349 Clear 23 1014 60 10000 1.5 80 22:58 01.08.2019
4350 Clear 23 1014 60 10000 1.5 80 22:38 01.08.2019
4351 Clear 23 1014 64 10000 1.5 130 22:19 01.08.2019
4352 Clear 24 1014 61 10000 1.5 150 21:43 01.08.2019
4353 Clear 25 1014 61 10000 2.1 200 21:23 01.08.2019
4354 Clear 26 1014 54 10000 2.6 210 20:55 01.08.2019
4355 Clear 26 1014 54 10000 2.6 210 20:36 01.08.2019
4356 Clear 27 1014 51 10000 2.6 210 20:18 01.08.2019
4357 Clear 27 1014 51 10000 3.1 190 19:40 01.08.2019
4358 Clear 28 1014 51 10000 2.6 210 19:19 01.08.2019
4359 Clear 28 1014 45 10000 4.1 210 18:44 01.08.2019
4360 Clear 29 1014 48 10000 4.6 240 18:24 01.08.2019
4361 Clear 29 1015 39 10000 5.1 220 17:51 01.08.2019
4362 Clear 29 1015 39 10000 5.1 220 17:32 01.08.2019
4363 Clear 30 1015 48 10000 5.1 210 16:57 01.08.2019
4364 Clear 31 1015 48 10000 5.1 210 16:39 01.08.2019
4365 Clear 31 1014 45 10000 5.1 210 16:19 01.08.2019
4366 Clear 31 1014 40 10000 4.6 210 15:41 01.08.2019
4367 Clear 31 1014 45 10000 4.6 200 15:19 01.08.2019
4368 Clear 31 1014 52 10000 4.6 200 14:43 01.08.2019
4369 Clear 31 1014 33 10000 2.6 0 14:20 01.08.2019
4370 Clear 31 1014 36 10000 2.1 0 13:58 01.08.2019
4371 Clear 31 1014 36 10000 2.1 0 13:39 01.08.2019
4372 Clear 31 1014 43 10000 2.48 213.857 13:20 01.08.2019
4373 Clear 30 1015 45 10000 1.5 0 12:46 01.08.2019
4374 Clear 30 1015 58 10000 1.5 0 12:27 01.08.2019
4375 Clear 29 1015 48 10000 2.6 190 11:44 01.08.2019
4376 Clear 28 1015 51 10000 3.6 200 11:25 01.08.2019
4377 Clear 27 1015 54 10000 2.6 180 10:56 01.08.2019
4378 Clear 27 1015 54 10000 2.6 180 10:38 01.08.2019
4379 Clear 26 1015 54 10000 1 0 10:20 01.08.2019
4380 Clear 26 1015 61 10000 1.5 230 09:44 01.08.2019
4381 Clear 25 1015 64 10000 1.5 250 09:23 01.08.2019
4382 Clear 24 1015 64 10000 1 0 08:47 01.08.2019
4383 Clear 23 1015 60 10000 1 0 08:21 01.08.2019
4384 Fog 22 1015 73 10000 1 0 07:52 01.08.2019
4385 Fog 22 1015 73 10000 1 0 07:52 01.08.2019
4386 Fog 21 1015 73 10000 1.5 100 07:28 01.08.2019
4387 Fog 20 1015 68 10000 2.1 110 06:49 01.08.2019
4388 Fog 20 1015 68 10000 1.5 70 06:29 01.08.2019
4389 Clear 20 1014 68 10000 1.5 90 05:31 01.08.2019
4390 Clear 21 1014 82 0 1.35 91.018 02:35 01.08.2019
4391 Clear 22 1015 94 10000 1 0 00:51 01.08.2019
4392 Clear 22 1015 94 10000 1 0 00:26 01.08.2019
4393 Clear 22 1015 94 10000 1 0 00:26 01.08.2019
4394 Clear 22 1015 88 10000 1.5 190 23:55 31.07.2019
4395 Clear 23 1015 88 10000 1.5 190 23:36 31.07.2019
4396 Clear 23 1015 88 10000 2.1 200 23:18 31.07.2019
4397 Clear 23 1015 88 10000 1.5 200 22:42 31.07.2019
4398 Clear 23 1015 83 10000 1 0 22:23 31.07.2019
4399 Clear 24 1014 83 10000 2.1 200 21:40 31.07.2019
4400 Clouds 25 1014 73 10000 3.1 200 21:21 31.07.2019
4401 Clear 26 1014 65 10000 2.6 210 20:48 31.07.2019
4402 Clear 26 1013 51 10000 2.1 230 20:22 31.07.2019
4403 Clear 28 1013 51 10000 3.1 240 19:48 31.07.2019
4404 Clear 29 1013 40 10000 2.1 270 19:28 31.07.2019
4405 Clear 30 1013 40 10000 3.1 250 18:55 31.07.2019
4406 Clear 30 1013 40 10000 3.6 250 18:37 31.07.2019
4407 Clear 31 1013 40 10000 3.6 250 18:18 31.07.2019
4408 Clear 31 1013 35 10000 3.6 240 17:43 31.07.2019
4409 Clear 32 1013 38 10000 3.6 240 17:20 31.07.2019
4410 Clear 32 1013 33 10000 2.6 260 16:47 31.07.2019
4411 Clear 32 1013 31 10000 3.6 280 16:21 31.07.2019
4412 Clear 32 1014 38 10000 3.6 270 15:54 31.07.2019
4413 Clear 32 1014 38 10000 3.6 270 15:36 31.07.2019
4414 Clear 31 1014 43 10000 4.1 260 15:18 31.07.2019
4415 Clear 31 1014 41 10000 3.1 0 14:42 31.07.2019
4416 Clear 31 1014 38 10000 2.1 0 14:19 31.07.2019
4417 Clear 31 1014 33 10000 2.6 320 13:45 31.07.2019
4418 Clear 30 1014 43 10000 1.5 0 13:27 31.07.2019
4419 Clear 30 1014 42 10000 2.1 360 12:57 31.07.2019
4420 Clear 30 1014 42 10000 2.1 360 12:38 31.07.2019
4421 Clear 29 1014 48 10000 3 233.998 12:18 31.07.2019
4422 Clear 29 1014 51 10000 1.5 0 11:39 31.07.2019
4423 Clear 27 1014 54 10000 1 0 11:20 31.07.2019
4424 Clear 27 1014 61 10000 2.1 310 10:44 31.07.2019
4425 Clear 26 1014 65 10000 1 0 10:21 31.07.2019
4426 Clear 26 1014 69 10000 1.5 0 09:57 31.07.2019
4427 Clear 25 1014 73 10000 2.1 320 09:38 31.07.2019
4428 Clear 25 1014 73 10000 2.1 320 09:20 31.07.2019
4429 Clear 24 1014 73 10000 1.5 20 08:42 31.07.2019
4430 Clear 23 1014 78 10000 1.5 40 08:22 31.07.2019
4431 Clear 22 1014 83 10000 1 0 07:37 31.07.2019
4432 Clear 20 1013 77 10000 1.5 80 06:44 31.07.2019
4433 Clear 21 1013 88 10000 0.5 0 04:56 31.07.2019
4434 Clear 21 1013 88 10000 1.5 140 03:25 31.07.2019
4435 Clear 22 1013 83 10000 1 0 00:20 31.07.2019
4436 Clear 23 1013 83 10000 1 0 23:40 30.07.2019
4437 Clear 23 1013 83 10000 1.5 190 23:19 30.07.2019
4438 Clear 23 1013 78 10000 1.5 200 22:46 30.07.2019
4439 Clear 23 1013 78 10000 1.5 200 22:46 30.07.2019
4440 Clear 24 1013 78 10000 2.1 240 22:25 30.07.2019
4441 Clear 24 1012 78 10000 1.5 220 21:56 30.07.2019
4442 Clear 24 1012 78 10000 1.5 220 21:36 30.07.2019
4443 Clear 25 1012 69 10000 1.5 220 21:18 30.07.2019
4444 Clear 26 1012 65 10000 1.5 240 20:42 30.07.2019
4445 Clear 27 1011 57 10000 2.6 240 20:24 30.07.2019
4446 Clear 27 1011 57 10000 3.6 250 19:58 30.07.2019
4447 Clear 27 1011 57 10000 3.6 250 19:39 30.07.2019
4448 Clear 28 1011 51 10000 4.6 270 18:58 30.07.2019
4449 Clear 28 1011 51 10000 4.6 270 18:38 30.07.2019
4450 Clear 29 1010 40 10000 5.7 240 18:18 30.07.2019
4451 Clear 29 1011 42 10000 5.1 270 17:41 30.07.2019
4452 Clear 30 1011 42 10000 6.2 260 17:19 30.07.2019
4453 Clear 30 1011 42 10000 5.1 260 16:51 30.07.2019
4454 Clear 30 1011 42 10000 5.7 260 16:21 30.07.2019
4455 Clear 30 1011 40 10000 4.1 240 15:58 30.07.2019
4456 Clear 30 1011 40 10000 4.1 240 15:37 30.07.2019
4457 Clouds 30 1011 31 10000 3.1 310 15:18 30.07.2019
4458 Clouds 30 1011 31 10000 3.1 310 14:42 30.07.2019
4459 Clear 30 1011 33 10000 3.6 260 14:20 30.07.2019
4460 Clear 30 1012 33 10000 2.6 350 13:47 30.07.2019
4461 Clear 29 1011 35 10000 3.1 360 13:29 30.07.2019
4462 Clear 29 1012 30 10000 3.1 340 12:58 30.07.2019
4463 Clear 29 1012 30 10000 3.1 340 12:39 30.07.2019
4464 Clear 28 1011 40 10000 1.5 0 12:21 30.07.2019
4465 Clear 27 1012 48 10000 1.5 330 11:40 30.07.2019
4466 Clear 26 1012 57 10000 2.1 350 11:20 30.07.2019
4467 Clear 26 1012 61 10000 1 0 10:46 30.07.2019
4468 Clear 25 1012 65 10000 1.5 360 10:27 30.07.2019
4469 Clear 25 1012 69 10000 2.1 330 09:50 30.07.2019
4470 Clear 24 1012 69 10000 1.5 310 09:31 30.07.2019
4471 Clear 23 1011 73 10000 1.5 350 08:53 30.07.2019
4472 Clear 23 1011 73 10000 1.5 350 08:31 30.07.2019
4473 Clear 21 1011 83 10000 2.1 20 07:47 30.07.2019
4474 Clear 21 1011 77 10000 1.5 20 07:29 30.07.2019
4475 Clear 20 1011 82 10000 1 0 06:48 30.07.2019
4476 Clear 20 1010 82 10000 1 0 06:21 30.07.2019
4477 Clear 20 1010 77 10000 1.5 20 05:33 30.07.2019
4478 Clear 21 1010 73 10000 1.5 80 03:28 30.07.2019
4479 Clear 21 1010 73 10000 1.5 120 01:20 30.07.2019
4480 Clouds 22 1009 68 10000 1.5 150 00:21 30.07.2019
4481 Clouds 22 1009 69 10000 1.5 110 23:46 29.07.2019
4482 Clear 22 1009 73 10000 1.5 120 23:26 29.07.2019
4483 Clear 23 1009 78 10000 1 0 22:57 29.07.2019
4484 Clear 23 1009 78 10000 1 0 22:38 29.07.2019
4485 Clear 23 1009 69 10000 0.5 0 22:20 29.07.2019
4486 Clear 23 1009 69 10000 1.5 200 21:57 29.07.2019
4487 Clear 24 1009 69 10000 1.5 200 21:38 29.07.2019
4488 Clear 25 1009 65 10000 1 0 21:20 29.07.2019
4489 Clear 25 1009 65 10000 1 0 21:20 29.07.2019
4490 Clear 25 1008 57 10000 2.1 240 20:48 29.07.2019
4491 Clear 26 1008 51 10000 2.6 240 20:25 29.07.2019
4492 Clear 27 1008 42 10000 3.6 260 19:57 29.07.2019
4493 Clear 27 1008 42 10000 3.6 260 19:37 29.07.2019
4494 Clear 27 1008 42 10000 3.1 220 19:19 29.07.2019
4495 Clouds 28 1008 42 10000 2.6 250 18:42 29.07.2019
4496 Clear 28 1007 51 10000 4.1 280 18:22 29.07.2019
4497 Clouds 29 1008 45 10000 3.1 230 17:52 29.07.2019
4498 Clouds 28 1008 45 10000 3.6 240 17:34 29.07.2019
4499 Clouds 29 1008 48 10000 3.1 230 16:59 29.07.2019
4500 Clouds 29 1008 48 10000 3.1 230 16:40 29.07.2019
4501 Clouds 29 1008 51 10000 4.1 230 16:22 29.07.2019
4502 Clouds 29 1008 51 10000 3.1 220 15:51 29.07.2019
4503 Clouds 29 1008 51 10000 3.1 220 15:32 29.07.2019
4504 Clouds 28 1007 45 10000 2.6 360 14:56 29.07.2019
4505 Clouds 28 1007 45 10000 2.6 360 14:37 29.07.2019
4506 Clouds 28 1007 42 10000 3.1 40 14:18 29.07.2019
4507 Clouds 28 1008 45 10000 1.5 0 13:41 29.07.2019
4508 Clouds 28 1008 45 10000 2.6 0 13:23 29.07.2019
4509 Clear 27 1007 47 10000 2.6 0 12:42 29.07.2019
4510 Clouds 27 1007 48 10000 1.5 0 12:23 29.07.2019
4511 Clear 26 1008 57 10000 3.1 30 11:43 29.07.2019
4512 Clear 25 1007 57 10000 3.6 20 11:22 29.07.2019
4513 Clear 25 1007 57 10000 3.1 40 10:46 29.07.2019
4514 Clear 24 1007 64 10000 3.1 30 10:25 29.07.2019
4515 Clear 24 1007 69 10000 1.5 0 09:48 29.07.2019
4516 Clear 23 1007 73 10000 1 0 09:28 29.07.2019
4517 Clear 22 1007 78 10000 1.5 10 08:57 29.07.2019
4518 Clear 21 1006 78 10000 1.5 60 08:31 29.07.2019
4519 Clear 20 1006 88 10000 1.5 100 07:58 29.07.2019
4520 Clear 20 1006 88 10000 1.5 100 07:36 29.07.2019
4521 Clear 19 1006 88 10000 1.5 70 06:45 29.07.2019
4522 Clear 19 1005 88 10000 2.1 70 05:46 29.07.2019
4523 Clear 19 1005 94 10000 1.5 90 04:51 29.07.2019
4524 Clear 20 1005 93 10000 2.1 120 02:26 29.07.2019
4525 Clear 20 1005 88 10000 1 0 01:41 29.07.2019
4526 Clear 20 1005 88 10000 1 110 01:21 29.07.2019
4527 Clouds 20 1005 88 10000 1 0 00:41 29.07.2019
4528 Clouds 20 1005 88 10000 1 0 00:19 29.07.2019
4529 Rain 20 1004 83 10000 1 0 23:40 28.07.2019
4530 Rain 20 1004 83 10000 1.5 60 23:18 28.07.2019
4531 Clouds 20 1004 94 10000 1.5 130 22:39 28.07.2019
4532 Clouds 20 1004 88 10000 1.5 130 22:21 28.07.2019
4533 Clouds 21 1003 88 10000 1 0 21:46 28.07.2019
4534 Rain 21 1003 88 10000 1 0 21:19 28.07.2019
4535 Rain 21 1003 83 10000 3.1 280 20:47 28.07.2019
4536 Rain 21 1002 73 10000 2.6 270 20:29 28.07.2019
4537 Rain 22 1002 69 10000 3.6 250 19:42 28.07.2019
4538 Rain 22 1001 73 10000 4.6 250 19:22 28.07.2019
4539 Rain 22 1001 73 10000 4.1 230 18:51 28.07.2019
4540 Rain 22 1000 69 10000 5.1 230 18:32 28.07.2019
4541 Rain 22 1000 69 10000 5.1 230 18:32 28.07.2019
4542 Clouds 22 1001 88 10000 3.1 210 17:59 28.07.2019
4543 Clouds 23 1001 88 10000 3.1 210 17:41 28.07.2019
4544 Rain 23 1001 88 10000 3.6 230 17:21 28.07.2019
4545 Rain 22 1000 78 9000 5.7 250 16:47 28.07.2019
4546 Thunderstorm 22 1000 83 10000 6.2 240 16:28 28.07.2019
4547 Thunderstorm 23 1000 88 2000 4.6 260 15:59 28.07.2019
4548 Thunderstorm 23 1000 88 2000 4.6 260 15:41 28.07.2019
4549 Thunderstorm 23 1000 69 10000 6.7 240 15:21 28.07.2019
4550 Thunderstorm 23 1000 73 10000 7.2 220 14:37 28.07.2019
4551 Rain 22 1000 69 10000 6.2 230 14:19 28.07.2019
4552 Rain 23 1000 83 10000 5.7 220 13:42 28.07.2019
4553 Thunderstorm 23 1000 73 10000 7.7 250 13:22 28.07.2019
4554 Thunderstorm 22 1000 69 10000 7.2 240 12:59 28.07.2019
4555 Thunderstorm 23 1000 69 10000 7.2 240 12:40 28.07.2019
4556 Rain 23 999 69 8000 6.2 230 12:22 28.07.2019
4557 Rain 23 999 69 10000 6.2 230 11:46 28.07.2019
4558 Rain 22 1000 69 10000 6.2 240 11:27 28.07.2019
4559 Rain 22 1000 69 10000 6.2 240 11:27 28.07.2019
4560 Clouds 22 999 73 10000 6.2 240 10:40 28.07.2019
4561 Rain 22 1000 82 10000 7.7 260 10:21 28.07.2019
4562 Rain 22 999 83 10000 3.6 220 09:41 28.07.2019
4563 Thunderstorm 22 999 83 10000 4.1 220 09:23 28.07.2019
4564 Thunderstorm 21 999 88 8000 2.6 200 08:51 28.07.2019
4565 Clouds 21 998 88 10000 4.6 190 08:28 28.07.2019
4566 Thunderstorm 21 998 94 10000 4.6 160 07:53 28.07.2019
4567 Thunderstorm 21 998 94 10000 4.6 160 07:35 28.07.2019
4568 Rain 21 998 88 8000 1.5 170 06:41 28.07.2019
4569 Thunderstorm 20 999 100 8000 1 0 05:27 28.07.2019
4570 Thunderstorm 23 997 88 7000 10.8 150 03:30 28.07.2019
4571 Thunderstorm 25 998 78 8000 8.7 150 02:23 28.07.2019
4572 Clouds 25 1001 83 8000 5.7 180 01:19 28.07.2019
4573 Clouds 25 1001 83 8000 6.2 170 00:44 28.07.2019
4574 Rain 25 1001 78 8000 7.7 160 00:18 28.07.2019
4575 Clouds 25 1001 78 10000 6.2 150 23:44 27.07.2019
4576 Clouds 25 1001 78 10000 6.7 160 23:19 27.07.2019
4577 Clouds 25 1001 78 10000 6.7 160 23:19 27.07.2019
4578 Clouds 25 1002 74 10000 6.7 160 22:40 27.07.2019
4579 Clouds 25 1002 74 10000 7.2 150 22:19 27.07.2019
4580 Clouds 26 1002 78 10000 6.7 160 21:39 27.07.2019
4581 Clouds 26 1002 74 10000 6.7 160 21:20 27.07.2019
4582 Clouds 26 1002 74 10000 6.7 160 21:20 27.07.2019
4583 Clouds 26 1002 69 10000 7.7 160 20:50 27.07.2019
4584 Clouds 27 1002 69 10000 7.2 160 20:25 27.07.2019
4585 Clouds 27 1002 69 10000 7.7 160 19:46 27.07.2019
4586 Clouds 27 1002 61 10000 9.8 150 19:26 27.07.2019
4587 Clouds 28 1002 61 10000 8.2 170 18:52 27.07.2019
4588 Clouds 28 1002 62 10000 6.7 180 18:34 27.07.2019
4589 Clouds 28 1003 62 10000 8.7 160 17:57 27.07.2019
4590 Clouds 29 1003 62 10000 8.7 160 17:36 27.07.2019
4591 Clouds 29 1003 62 10000 7.2 160 17:18 27.07.2019
4592 Clouds 29 1004 55 10000 7.7 170 16:42 27.07.2019
4593 Clouds 29 1004 40 10000 7.7 150 16:23 27.07.2019
4594 Clouds 29 1005 45 10000 8.2 150 15:52 27.07.2019
4595 Clouds 30 1005 48 10000 6.7 160 15:21 27.07.2019
4596 Clouds 30 1005 48 10000 6.7 160 15:21 27.07.2019
4597 Clouds 30 1006 48 10000 6.7 170 14:51 27.07.2019
4598 Clouds 30 1006 48 10000 6.7 170 14:31 27.07.2019
4599 Clouds 29 1006 48 10000 6.7 170 13:56 27.07.2019
4600 Clouds 29 1006 48 10000 6.7 170 13:37 27.07.2019
4601 Clouds 30 1006 42 10000 6.2 180 13:18 27.07.2019
4602 Clouds 30 1006 51 10000 5.7 170 12:41 27.07.2019
4603 Clear 30 1006 52 10000 4.1 150 12:21 27.07.2019
4604 Clouds 29 1006 51 10000 6.2 150 11:42 27.07.2019
4605 Clouds 29 1007 54 10000 5.7 160 11:24 27.07.2019
4606 Clear 29 1007 48 10000 6.7 160 10:42 27.07.2019
4607 Clear 28 1007 51 10000 6.2 160 10:23 27.07.2019
4608 Clear 28 1007 54 10000 5.7 160 09:43 27.07.2019
4609 Clear 27 1007 61 10000 5.7 150 09:24 27.07.2019
4610 Clear 26 1007 65 10000 5.7 150 08:53 27.07.2019
4611 Clear 25 1007 65 10000 5.7 150 08:34 27.07.2019
4612 Clouds 24 1007 69 10000 4.6 140 07:58 27.07.2019
4613 Clouds 24 1007 69 10000 4.6 140 07:40 27.07.2019
4614 Clear 23 1008 73 10000 3.6 150 07:20 27.07.2019
4615 Clear 23 1008 78 10000 3.1 150 06:49 27.07.2019
4616 Clear 23 1008 78 10000 3.1 150 06:49 27.07.2019
4617 Clear 22 1008 83 10000 3.6 160 06:21 27.07.2019
4618 Clear 22 1008 78 10000 2.6 160 05:35 27.07.2019
4619 Clear 22 1008 68 10000 1.5 160 04:41 27.07.2019
4620 Clear 23 1009 64 10000 1 0 03:40 27.07.2019
4621 Clear 23 1009 64 10000 1 0 02:43 27.07.2019
4622 Clear 23 1010 60 10000 2.6 100 01:57 27.07.2019
4623 Clear 23 1010 60 10000 2.6 100 01:32 27.07.2019
4624 Clear 24 1010 61 10000 0.5 0 00:38 27.07.2019
4625 Clear 24 1010 57 10000 1 0 00:19 27.07.2019
4626 Clear 25 1010 57 10000 2.1 170 23:42 26.07.2019
4627 Clear 25 1010 74 10000 2.6 160 23:23 26.07.2019
4628 Clear 26 1010 74 10000 2.1 170 22:43 26.07.2019
4629 Clear 26 1010 69 10000 2.1 190 22:25 26.07.2019
4630 Clear 26 1010 65 10000 2.6 200 21:52 26.07.2019
4631 Clear 28 1010 58 10000 2.6 210 21:20 26.07.2019
4632 Clear 28 1010 54 10000 2.6 210 20:52 26.07.2019
4633 Clear 29 1010 45 10000 3.1 200 20:33 26.07.2019
4634 Clear 30 1010 43 10000 3.1 220 19:55 26.07.2019
4635 Clear 30 1010 43 10000 3.1 220 19:36 26.07.2019
4636 Clear 31 1010 38 10000 3.1 210 19:18 26.07.2019
4637 Clear 32 1010 38 10000 3.1 220 18:41 26.07.2019
4638 Clear 32 1010 38 10000 5.1 240 18:21 26.07.2019
4639 Clear 32 1011 36 10000 3.6 240 17:56 26.07.2019
4640 Clear 32 1011 36 10000 3.6 240 17:37 26.07.2019
4641 Clear 33 1011 36 10000 4.1 240 17:18 26.07.2019
4642 Clear 33 1011 34 10000 4.1 240 16:41 26.07.2019
4643 Clear 33 1011 34 10000 4.6 240 16:21 26.07.2019
4644 Clear 33 1011 34 10000 4.1 240 15:59 26.07.2019
4645 Clear 34 1011 34 10000 4.1 240 15:40 26.07.2019
4646 Clear 34 1012 34 10000 4.1 260 15:20 26.07.2019
4647 Clear 34 1012 32 10000 3.6 230 14:44 26.07.2019
4648 Clear 33 1012 34 10000 3.1 270 14:24 26.07.2019
4649 Clear 34 1012 28 10000 2.1 0 13:47 26.07.2019
4650 Clear 34 1012 28 10000 2.1 200 13:28 26.07.2019
4651 Clear 33 1013 31 10000 2.6 300 12:49 26.07.2019
4652 Clear 33 1012 34 10000 2.1 260 12:23 26.07.2019
4653 Clear 32 1013 31 10000 1.5 0 11:56 26.07.2019
4654 Clear 32 1013 31 10000 1.5 0 11:37 26.07.2019
4655 Clear 31 1013 35 10000 1 0 11:18 26.07.2019
4656 Clear 31 1013 35 10000 2.1 0 10:39 26.07.2019
4657 Clear 30 1013 38 10000 1.5 220 10:20 26.07.2019
4658 Clear 29 1014 42 10000 1 0 09:50 26.07.2019
4659 Clear 28 1014 39 10000 1.5 260 09:28 26.07.2019
4660 Clear 27 1014 47 10000 0.5 0 08:41 26.07.2019
4661 Clear 27 1014 51 10000 1 0 08:21 26.07.2019
4662 Clear 25 1013 50 10000 0.5 0 07:40 26.07.2019
4663 Clear 24 1013 53 10000 1 0 07:22 26.07.2019
4664 Clear 23 1013 50 10000 2.1 10 06:30 26.07.2019
4665 Clear 24 1014 47 10000 1 60 04:30 26.07.2019
4666 Clear 24 1014 50 10000 2.1 80 03:53 26.07.2019
4667 Clear 25 1015 47 10000 1 0 01:49 26.07.2019
4668 Clear 25 1015 47 10000 2.6 90 01:19 26.07.2019
4669 Clear 26 1015 50 10000 1.5 80 00:29 26.07.2019
4670 Clear 26 1015 57 10000 1.5 110 23:46 25.07.2019
4671 Clear 26 1015 57 10000 1.5 110 23:20 25.07.2019
4672 Clear 26 1016 57 10000 1.5 120 22:42 25.07.2019
4673 Clear 27 1015 58 10000 1 160 22:22 25.07.2019
4674 Clear 27 1015 58 10000 1.5 210 21:56 25.07.2019
4675 Clear 28 1015 58 10000 1.5 210 21:37 25.07.2019
4676 Clear 29 1015 54 10000 1.5 220 21:19 25.07.2019
4677 Clear 30 1015 48 10000 1.5 230 20:40 25.07.2019
4678 Clear 30 1015 43 10000 2.6 240 20:20 25.07.2019
4679 Clear 31 1015 40 10000 2.6 240 19:40 25.07.2019
4680 Clear 31 1014 38 10000 3.6 230 19:22 25.07.2019
4681 Clear 32 1015 33 10000 3.1 260 18:43 25.07.2019
4682 Clear 33 1015 36 10000 3.6 230 18:25 25.07.2019
4683 Clear 33 1015 36 10000 3.6 230 17:50 25.07.2019
4684 Clear 33 1015 34 10000 3.1 240 17:32 25.07.2019
4685 Clear 34 1016 30 10000 3.1 230 16:57 25.07.2019
4686 Clear 34 1016 30 10000 3.1 230 16:38 25.07.2019
4687 Clear 34 1016 32 10000 3.6 210 16:20 25.07.2019
4688 Clear 34 1016 32 10000 4.1 230 15:48 25.07.2019
4689 Clear 34 1016 30 10000 3.6 220 15:20 25.07.2019
4690 Clear 34 1016 32 10000 4.1 230 14:43 25.07.2019
4691 Clear 34 1016 32 10000 4.1 210 14:23 25.07.2019
4692 Clear 34 1016 32 10000 3.6 200 13:56 25.07.2019
4693 Clear 34 1016 32 10000 3.6 200 13:36 25.07.2019
4694 Clear 34 1016 32 10000 4.1 0 13:18 25.07.2019
4695 Clear 33 1016 36 10000 3.1 220 12:30 25.07.2019
4696 Clear 32 1017 33 10000 3.1 200 11:54 25.07.2019
4697 Clear 32 1017 33 10000 3.1 200 11:36 25.07.2019
4698 Clear 32 1017 31 10000 3.1 200 11:18 25.07.2019
4699 Clear 31 1017 33 10000 3.6 190 10:42 25.07.2019
4700 Clear 30 1016 33 10000 1.5 200 10:23 25.07.2019
4701 Clear 30 1016 31 10000 1.5 200 09:44 25.07.2019
4702 Clear 30 1016 31 10000 1.5 200 09:44 25.07.2019
4703 Clear 28 1016 40 10000 1.5 260 09:25 25.07.2019
4704 Clear 27 1016 42 10000 1 0 08:44 25.07.2019
4705 Clear 26 1016 45 10000 1 0 08:20 25.07.2019
4706 Clear 26 1016 45 10000 1 0 08:20 25.07.2019
4707 Clear 26 1016 47 10000 1 0 07:36 25.07.2019
4708 Clear 24 1016 47 10000 0.5 0 06:44 25.07.2019
4709 Mist 23 1015 50 10000 1 0 05:53 25.07.2019
4710 Mist 23 1015 50 10000 0.5 0 05:31 25.07.2019
4711 Mist 24 1015 100 5000 1 90 04:39 25.07.2019
4712 Fog 24 1016 44 10000 1.5 90 02:21 25.07.2019
4713 Clear 25 1016 44 10000 2.6 80 01:21 25.07.2019
4714 Clear 25 1016 50 10000 1.5 100 00:22 25.07.2019
4715 Clear 25 1016 50 10000 0.5 0 23:52 24.07.2019
4716 Clear 26 1016 54 10000 1 0 23:31 24.07.2019
4717 Clear 26 1016 54 10000 0.5 0 22:58 24.07.2019
4718 Clear 26 1016 54 10000 0.5 0 22:39 24.07.2019
4719 Clear 26 1016 57 10000 2.1 130 22:20 24.07.2019
4720 Clear 27 1016 58 10000 1 0 21:43 24.07.2019
4721 Clear 29 1016 48 10000 1.5 260 21:22 24.07.2019
4722 Clear 29 1015 45 10000 2.1 220 20:59 24.07.2019
4723 Clear 30 1015 45 10000 2.1 220 20:39 24.07.2019
4724 Clear 30 1015 40 10000 2.6 220 20:20 24.07.2019
4725 Clear 31 1015 35 10000 3.1 220 19:55 24.07.2019
4726 Clear 31 1015 35 10000 3.1 220 19:36 24.07.2019
4727 Clear 32 1015 35 10000 3.6 260 19:18 24.07.2019
4728 Clear 32 1015 33 10000 3.6 240 18:41 24.07.2019
4729 Clear 32 1015 34 10000 3.6 250 18:23 24.07.2019
4730 Clear 33 1015 28 10000 3.1 240 17:43 24.07.2019
4731 Clear 33 1015 29 10000 3.6 240 17:20 24.07.2019
4732 Clear 34 1015 26 10000 3.6 220 16:42 24.07.2019
4733 Clear 34 1015 26 10000 3.6 260 16:22 24.07.2019
4734 Clear 34 1016 26 10000 3.6 250 15:41 24.07.2019
4735 Clear 34 1016 24 10000 4.1 230 15:23 24.07.2019
4736 Clear 34 1016 26 10000 3.1 210 14:57 24.07.2019
4737 Clear 34 1016 26 10000 3.1 210 14:38 24.07.2019
4738 Clear 34 1016 26 10000 3.1 210 14:38 24.07.2019
4739 Clear 34 1016 26 10000 3.1 210 14:38 24.07.2019
4740 Clear 34 1016 26 10000 3.1 210 14:38 24.07.2019
4741 Clear 34 1016 26 10000 3.1 210 14:38 24.07.2019
4742 Clear 33 1016 26 10000 3.6 230 14:19 24.07.2019
4743 Clear 33 1016 26 10000 3.1 220 13:37 24.07.2019
4744 Clear 33 1016 26 10000 3.1 0 13:19 24.07.2019
4745 Clear 33 1016 30 10000 2.1 230 12:51 24.07.2019
4746 Clear 33 1015 34 10000 3.1 200 12:32 24.07.2019
4747 Clear 32 1016 29 10000 1.5 0 11:40 24.07.2019
4748 Clear 31 1016 31 10000 2.6 190 11:20 24.07.2019
4749 Clear 31 1016 31 10000 1.5 160 10:45 24.07.2019
4750 Clear 30 1016 33 10000 2.1 0 10:25 24.07.2019
4751 Clear 29 1016 31 10000 1 0 09:49 24.07.2019
4752 Clear 27 1016 39 10000 1.5 40 09:26 24.07.2019
4753 Clear 27 1016 45 10000 1 0 08:58 24.07.2019
4754 Clear 27 1016 45 10000 1 0 08:58 24.07.2019
4755 Clear 26 1016 44 10000 1 0 08:32 24.07.2019
4756 Clear 25 1016 50 10000 1.5 100 07:52 24.07.2019
4757 Clear 24 1016 53 10000 2.1 90 07:31 24.07.2019
4758 Clear 23 1016 53 10000 1.5 120 06:36 24.07.2019
4759 Clear 23 1016 53 10000 1.5 120 06:36 24.07.2019
4760 Clear 23 1015 56 10000 2.1 110 05:56 24.07.2019
4761 Clear 24 1016 53 10000 1 120 02:54 24.07.2019
4762 Clear 24 1016 50 10000 2.1 130 01:31 24.07.2019
4763 Clear 25 1016 47 10000 3.1 100 00:57 24.07.2019
4764 Clear 25 1016 47 10000 2.6 100 00:23 24.07.2019
4765 Clear 25 1016 47 10000 2.1 110 23:45 23.07.2019
4766 Clear 25 1016 47 10000 2.1 100 23:25 23.07.2019
4767 Clear 26 1016 54 10000 0.5 0 22:55 23.07.2019
4768 Clear 26 1016 54 10000 0.5 0 22:36 23.07.2019
4769 Clear 27 1016 54 10000 1.5 210 22:18 23.07.2019
4770 Clear 27 1016 54 10000 1 210 21:42 23.07.2019
4771 Clear 29 1016 48 10000 1.5 230 21:23 23.07.2019
4772 Clear 30 1016 40 10000 1.5 220 20:48 23.07.2019
4773 Clear 30 1016 38 10000 2.1 200 20:27 23.07.2019
4774 Clear 31 1016 35 10000 2.6 220 19:43 23.07.2019
4775 Clear 31 1016 33 10000 3.6 220 19:24 23.07.2019
4776 Clear 32 1016 31 10000 3.6 210 18:53 23.07.2019
4777 Clear 33 1015 38 10000 3.6 200 18:25 23.07.2019
4778 Clear 33 1016 31 10000 4.6 190 17:58 23.07.2019
4779 Clear 33 1016 31 10000 4.6 190 17:40 23.07.2019
4780 Clear 33 1016 31 10000 4.1 220 17:20 23.07.2019
4781 Clear 33 1016 32 10000 4.1 220 16:41 23.07.2019
4782 Clear 34 1016 32 10000 4.1 230 16:22 23.07.2019
4783 Clear 34 1016 32 10000 4.1 240 15:47 23.07.2019
4784 Clouds 34 1017 32 10000 3.6 230 15:27 23.07.2019
4785 Clouds 33 1017 32 10000 4.6 230 14:41 23.07.2019
4786 Clouds 33 1017 34 10000 4.6 220 14:22 23.07.2019
4787 Clear 33 1017 28 10000 2.6 0 13:59 23.07.2019
4788 Clear 33 1017 28 10000 2.6 0 13:40 23.07.2019
4789 Clouds 33 1017 30 10000 1.5 0 13:22 23.07.2019
4790 Clear 33 1018 33 10000 3.1 210 12:49 23.07.2019
4791 Clear 32 1017 38 10000 1.5 0 12:27 23.07.2019
4792 Clear 32 1018 33 10000 1 0 11:55 23.07.2019
4793 Clear 32 1018 33 10000 1 0 11:37 23.07.2019
4794 Clear 31 1018 38 10000 1.5 0 11:18 23.07.2019
4795 -273 0 0 0 0 0 10:41 23.07.2019
4796 Clear 29 1018 45 10000 1.5 320 10:21 23.07.2019
4797 Clear 29 1018 45 10000 1.5 10 09:41 23.07.2019
4798 Clear 27 1018 48 10000 1.5 340 09:20 23.07.2019
4799 Clear 26 1018 51 10000 1 0 08:43 23.07.2019
4800 Clear 25 1018 57 10000 1 0 08:20 23.07.2019
4801 Clear 25 1018 57 10000 1 0 08:20 23.07.2019
4802 Clear 25 1018 57 10000 1 0 08:20 23.07.2019
4803 Clear 25 1018 57 10000 1.5 30 07:56 23.07.2019
4804 Clear 24 1018 57 10000 1.5 30 07:36 23.07.2019
4805 Clear 23 1017 60 10000 1 60 06:50 23.07.2019
4806 Clear 23 1017 64 10000 1 0 06:30 23.07.2019
4807 Clear 23 1018 56 10000 0.5 0 03:39 23.07.2019
4808 Clear 24 1018 64 10000 1.5 110 01:34 23.07.2019
4809 Clear 24 1019 57 10000 1.5 140 00:31 23.07.2019
4810 Clear 24 1019 57 10000 1.5 160 23:56 22.07.2019
4811 Clear 25 1019 57 10000 1.5 160 23:36 22.07.2019
4812 Clear 25 1019 57 10000 1.5 180 23:18 22.07.2019
4813 Clear 25 1019 54 10000 1.5 200 22:42 22.07.2019
4814 Clear 26 1019 57 10000 1 0 22:21 22.07.2019
4815 Clear 26 1019 51 10000 2.1 190 21:43 22.07.2019
4816 Clear 28 1019 45 10000 2.1 190 21:23 22.07.2019
4817 Clear 28 1018 42 10000 2.1 220 20:51 22.07.2019
4818 Clear 29 1018 42 10000 2.1 220 20:33 22.07.2019
4819 Clear 30 1018 37 10000 2.6 250 19:58 22.07.2019
4820 Clear 30 1017 33 10000 3.6 220 19:38 22.07.2019
4821 Clear 30 1017 33 10000 3.6 220 19:19 22.07.2019
4822 Clear 31 1018 35 10000 4.1 250 18:46 22.07.2019
4823 Clear 32 1019 33 10000 4.1 270 18:27 22.07.2019
4824 Clear 33 1019 35 10000 3.6 250 17:55 22.07.2019
4825 Clear 33 1019 35 10000 3.6 250 17:37 22.07.2019
4826 Clear 33 1019 33 10000 4.1 260 17:18 22.07.2019
4827 Clear 33 1019 33 10000 4.6 250 16:39 22.07.2019
4828 Clear 33 1019 36 10000 4.6 260 16:20 22.07.2019
4829 Clear 33 1019 34 10000 4.6 280 15:44 22.07.2019
4830 Clear 33 1019 34 10000 3.6 250 15:20 22.07.2019
4831 Clear 33 1019 28 10000 1.5 0 14:44 22.07.2019
4832 Clear 33 1020 28 10000 1.5 0 14:24 22.07.2019
4833 Clear 33 1020 26 10000 2.1 300 13:51 22.07.2019
4834 Clear 32 1020 31 10000 2.1 300 13:31 22.07.2019
4835 Clear 32 1020 31 10000 2.6 350 12:51 22.07.2019
4836 Clear 31 1020 43 10000 1 0 12:32 22.07.2019
4837 Clear 30 1021 35 10000 2.6 360 11:57 22.07.2019
4838 Clear 30 1021 35 10000 2.6 360 11:39 22.07.2019
4839 Clear 29 1021 37 10000 2.1 340 11:19 22.07.2019
4840 Clear 29 1021 39 10000 2.6 360 10:38 22.07.2019
4841 Clear 27 1021 42 10000 3.1 360 10:19 22.07.2019
4842 Clear 26 1021 47 10000 2.6 30 09:40 22.07.2019
4843 Clear 25 1021 50 10000 2.6 30 09:21 22.07.2019
4844 Clear 24 1021 53 10000 2.6 10 08:38 22.07.2019
4845 Clear 23 1020 53 10000 2.1 20 08:20 22.07.2019
4846 Clear 23 1020 56 10000 2.1 50 07:53 22.07.2019
4847 Clear 21 1020 60 10000 1.5 40 07:27 22.07.2019
4848 Clear 20 1020 46 10000 0.5 0 05:30 22.07.2019
4849 Clear 21 1021 49 10000 1 50 03:45 22.07.2019
4850 Clear 22 1021 43 10000 2.1 130 01:28 22.07.2019
4851 Clear 22 1021 46 10000 2.1 120 00:49 22.07.2019
4852 Clear 22 1021 49 10000 1 110 00:22 22.07.2019
4853 Clear 23 1021 53 10000 1.5 120 23:50 21.07.2019
4854 Clear 24 1021 60 10000 0.5 0 22:59 21.07.2019
4855 Clear 24 1021 60 10000 0.5 0 22:41 21.07.2019
4856 Clear 24 1021 61 10000 1 200 22:21 21.07.2019
4857 Clear 25 1020 57 10000 1.5 190 21:55 21.07.2019
4858 Clear 25 1020 57 10000 1.5 190 21:36 21.07.2019
4859 Clear 26 1020 54 10000 1.5 220 21:18 21.07.2019
4860 Clear 27 1020 45 10000 2.1 260 20:41 21.07.2019
4861 Clear 28 1020 39 10000 2.6 240 20:23 21.07.2019
4862 Clear 28 1020 39 10000 2.6 250 19:52 21.07.2019
4863 Clear 29 1019 35 10000 4.6 260 19:29 21.07.2019
4864 Clear 30 1019 33 10000 4.1 250 18:56 21.07.2019
4865 Clear 30 1019 33 10000 4.1 250 18:37 21.07.2019
4866 Clear 31 1020 31 10000 4.1 280 18:19 21.07.2019
4867 Clear 31 1020 31 10000 4.6 270 17:40 21.07.2019
4868 Clear 31 1020 33 10000 5.1 250 17:19 21.07.2019
4869 Clear 31 1020 35 10000 5.1 260 16:42 21.07.2019
4870 Clear 32 1020 33 10000 5.1 260 16:24 21.07.2019
4871 Clear 32 1020 27 10000 4.6 270 15:43 21.07.2019
4872 Clear 32 1020 31 10000 4.1 270 15:22 21.07.2019
4873 Clear 32 1020 29 10000 4.6 270 14:54 21.07.2019
4874 Clear 32 1020 31 10000 3.6 280 14:26 21.07.2019
4875 Clear 32 1020 24 10000 2.6 290 13:59 21.07.2019
4876 Clear 32 1020 24 10000 2.6 290 13:40 21.07.2019
4877 Clear 31 1020 25 10000 2.1 240 13:20 21.07.2019
4878 Clear 31 1020 25 10000 2.1 360 12:41 21.07.2019
4879 Clear 30 1020 38 10000 3.06 263.747 12:22 21.07.2019
4880 Clear 29 1020 35 10000 2.1 300 11:46 21.07.2019
4881 Clear 29 1021 39 10000 2.1 300 11:27 21.07.2019
4882 Clear 29 1020 42 10000 2.6 330 10:47 21.07.2019
4883 Clear 27 1020 47 10000 3.1 330 10:25 21.07.2019
4884 Clear 26 1020 50 10000 2.1 360 09:55 21.07.2019
4885 Clear 26 1020 50 10000 2.1 360 09:36 21.07.2019
4886 Clear 24 1021 64 10000 2.1 20 08:50 21.07.2019
4887 Clear 24 1021 64 10000 2.1 20 08:32 21.07.2019
4888 Clear 23 1021 77 10000 2.1 20 07:58 21.07.2019
4889 Clear 21 1020 77 10000 1.5 20 07:19 21.07.2019
4890 Clear 20 1020 72 10000 1.5 80 06:34 21.07.2019
4891 Clear 20 1020 72 10000 1.5 110 04:21 21.07.2019
4892 Clear 21 1020 68 10000 1 90 01:57 21.07.2019
4893 Clear 21 1020 73 10000 1 90 00:48 21.07.2019
4894 Clear 22 1020 68 10000 1 0 00:22 21.07.2019
4895 Clear 22 1020 73 10000 1.5 110 23:48 20.07.2019
4896 Clear 22 1020 73 10000 0.5 0 23:27 20.07.2019
4897 Clear 23 1020 73 10000 0.5 0 22:58 20.07.2019
4898 Clear 23 1020 73 10000 0.5 0 22:40 20.07.2019
4899 Clear 24 1020 69 10000 1 0 22:19 20.07.2019
4900 Clear 24 1020 65 10000 1.5 260 21:43 20.07.2019
4901 Clear 25 1019 61 10000 1.5 240 21:24 20.07.2019
4902 Clear 26 1019 54 10000 1.5 220 20:43 20.07.2019
4903 Clear 27 1019 54 10000 2.6 210 20:23 20.07.2019
4904 Clear 27 1019 48 10000 2.6 220 19:51 20.07.2019
4905 Clear 27 1018 51 10000 3.6 220 19:28 20.07.2019
4906 Clear 28 1019 42 10000 3.6 240 18:56 20.07.2019
4907 Clear 28 1019 42 10000 3.6 240 18:37 20.07.2019
4908 Clear 29 1019 42 10000 3.6 220 18:18 20.07.2019
4909 Clear 29 1019 39 10000 3.6 230 17:43 20.07.2019
4910 Clear 29 1019 37 10000 3.6 230 17:19 20.07.2019
4911 Clear 29 1019 37 10000 3.6 230 16:40 20.07.2019
4912 Clear 30 1019 37 10000 3.6 230 16:22 20.07.2019
4913 Clear 30 1019 37 10000 3.6 210 15:42 20.07.2019
4914 Clear 30 1019 37 10000 3.6 210 15:21 20.07.2019
4915 Clear 30 1019 42 10000 4.1 230 14:49 20.07.2019
4916 Clear 30 1019 40 10000 3.1 230 14:30 20.07.2019
4917 Clear 30 1019 45 10000 3.1 200 13:58 20.07.2019
4918 Clear 30 1019 45 10000 3.1 200 13:38 20.07.2019
4919 Clear 30 1019 45 10000 3.1 220 13:19 20.07.2019
4920 Clear 29 1018 40 10000 2.1 0 12:49 20.07.2019
4921 Clear 29 1018 45 10000 1.5 0 12:19 20.07.2019
4922 Clear 28 1019 42 10000 2.1 250 11:47 20.07.2019
4923 Clear 27 1019 45 10000 0.5 0 11:21 20.07.2019
4924 Clear 28 1019 44 10000 1 0 10:42 20.07.2019
4925 Clear 26 1018 50 10000 1.5 0 10:23 20.07.2019
4926 Clear 26 1018 53 10000 1.5 340 09:52 20.07.2019
4927 Clear 24 1018 53 10000 1.5 330 09:27 20.07.2019
4928 Clear 23 1018 57 10000 1.5 20 08:54 20.07.2019
4929 Clear 23 1018 56 10000 1.5 70 08:24 20.07.2019
4930 Clear 21 1018 60 10000 1 50 07:43 20.07.2019
4931 Clear 19 1018 64 10000 1 0 06:46 20.07.2019
4932 Clear 19 1017 68 10000 1.5 40 05:49 20.07.2019
4933 Clear 19 1017 77 10000 0.5 0 04:31 20.07.2019
4934 Clear 20 1017 68 10000 1.5 90 01:59 20.07.2019
4935 Clear 20 1017 68 10000 2.1 110 00:59 20.07.2019
4936 Clear 21 1017 68 10000 2.1 110 00:37 20.07.2019
4937 Clear 21 1017 73 10000 1.5 130 00:18 20.07.2019
4938 Clear 21 1017 68 10000 2.1 110 23:39 19.07.2019
4939 Clear 21 1017 69 10000 1 0 23:21 19.07.2019
4940 Clear 21 1017 64 10000 1 0 22:43 19.07.2019
4941 Clear 22 1017 64 10000 1.5 200 22:22 19.07.2019
4942 Clear 22 1017 61 10000 1.5 200 21:45 19.07.2019
4943 Thunderstorm 23 1016 61 10000 1.5 230 21:26 19.07.2019
4944 Thunderstorm 24 1016 54 10000 2.1 260 20:45 19.07.2019
4945 Thunderstorm 26 1016 57 10000 2.6 250 20:26 19.07.2019
4946 Thunderstorm 25 1016 51 10000 2.6 240 19:48 19.07.2019
4947 Clouds 26 1016 51 10000 2.1 210 19:20 19.07.2019
4948 Thunderstorm 26 1016 48 10000 1.5 0 18:42 19.07.2019
4949 Thunderstorm 26 1016 48 10000 3.1 210 18:21 19.07.2019
4950 Thunderstorm 26 1017 51 10000 2.6 230 17:52 19.07.2019
4951 Clouds 27 1016 51 10000 3.1 240 17:27 19.07.2019
4952 Clouds 27 1016 51 10000 3.1 240 17:27 19.07.2019
4953 Rain 27 1016 51 10000 3.6 220 16:49 19.07.2019
4954 Clouds 28 1016 48 10000 4.1 200 16:26 19.07.2019
4955 Rain 28 1016 51 10000 4.1 220 15:52 19.07.2019
4956 Rain 29 1015 52 10000 5.7 220 15:31 19.07.2019
4957 Clouds 29 1016 51 10000 4.1 210 14:57 19.07.2019
4958 Clouds 29 1016 51 10000 4.1 210 14:39 19.07.2019
4959 Clouds 29 1015 55 10000 5.1 230 14:21 19.07.2019
4960 Clouds 29 1016 48 10000 3.6 230 13:44 19.07.2019
4961 Clouds 29 1016 48 10000 3.6 230 13:44 19.07.2019
4962 Clouds 29 1016 48 10000 3.6 230 13:44 19.07.2019
4963 Clouds 29 1016 48 10000 3.6 230 13:44 19.07.2019
4964 Clouds 29 1016 48 10000 3.6 230 13:44 19.07.2019
4965 Clouds 29 1015 45 10000 1 0 13:25 19.07.2019
4966 Clouds 28 1016 37 10000 2.1 180 12:55 19.07.2019
4967 Clear 28 1016 48 10000 1 0 12:31 19.07.2019
4968 Clear 27 1016 45 10000 2.1 250 11:59 19.07.2019
4969 Clear 27 1016 45 10000 2.1 250 11:41 19.07.2019
4970 Clear 27 1016 54 10000 1.5 0 11:18 19.07.2019
4971 Clear 26 1016 47 10000 1.5 170 10:42 19.07.2019
4972 Clear 26 1016 69 10000 1 0 10:22 19.07.2019
4973 Clear 25 1016 61 10000 1.5 20 09:57 19.07.2019
4974 Clear 24 1016 61 10000 1.5 20 09:39 19.07.2019
4975 Clear 24 1015 78 10000 1.5 0 09:20 19.07.2019
4976 Clear 22 1015 64 10000 0.5 0 08:42 19.07.2019
4977 Clear 21 1015 68 10000 0.5 0 07:53 19.07.2019
4978 Clear 20 1015 72 10000 1.5 110 07:28 19.07.2019
4979 Clear 19 1015 68 10000 2.1 80 05:55 19.07.2019
4980 Clear 20 1015 82 10000 2.1 110 02:23 19.07.2019
4981 Clear 20 1015 83 10000 2.1 150 01:18 19.07.2019
4982 Clear 21 1014 83 10000 2.1 140 00:35 19.07.2019
4983 Clear 21 1014 83 10000 1 0 23:44 18.07.2019
4984 Clear 21 1014 83 10000 1.5 200 23:24 18.07.2019
4985 Clear 22 1014 78 10000 1 0 22:59 18.07.2019
4986 Clear 22 1014 78 10000 1 0 22:59 18.07.2019
4987 Clear 22 1014 78 10000 1 0 22:39 18.07.2019
4988 Clear 23 1014 78 10000 1 0 22:18 18.07.2019
4989 Clear 23 1013 69 10000 1.5 210 21:43 18.07.2019
4990 Clear 24 1013 69 10000 2.1 220 21:24 18.07.2019
4991 Clear 24 1013 69 10000 2.1 220 21:24 18.07.2019
4992 Clear 25 1013 65 10000 2.1 210 20:49 18.07.2019
4993 Clear 25 1012 54 10000 2.6 240 20:29 18.07.2019
4994 Clear 25 1012 54 10000 2.6 240 20:29 18.07.2019
4995 Clear 26 1012 54 10000 2.6 230 19:53 18.07.2019
4996 Clear 26 1012 54 10000 2.6 230 19:32 18.07.2019
4997 Clear 27 1012 51 10000 3.6 210 18:58 18.07.2019
4998 Clear 27 1012 51 10000 3.6 210 18:38 18.07.2019
4999 Clear 28 1012 45 10000 4.1 230 18:19 18.07.2019
5000 Clear 28 1012 42 10000 4.1 200 17:42 18.07.2019
5001 Clear 28 1012 42 10000 4.1 200 17:42 18.07.2019
5002 Clear 28 1011 48 10000 3.6 240 17:24 18.07.2019
5003 Clouds 28 1012 45 10000 4.1 200 16:55 18.07.2019
5004 Clear 28 1011 45 10000 5.1 250 16:29 18.07.2019
5005 Clouds 28 1012 45 10000 5.1 200 15:58 18.07.2019
5006 Clouds 28 1012 45 10000 5.1 200 15:39 18.07.2019
5007 Clouds 29 1011 43 10000 5.1 250 15:20 18.07.2019
5008 Clouds 29 1012 39 10000 3.6 210 14:43 18.07.2019
5009 Clouds 29 1011 40 10000 6.2 230 14:25 18.07.2019
5010 Clouds 29 1012 38 10000 1.5 230 13:46 18.07.2019
5011 Clouds 28 1012 39 10000 2.6 220 13:22 18.07.2019
5012 Clouds 28 1012 39 10000 2.6 220 12:49 18.07.2019
5013 Clear 28 1012 37 10000 1 0 12:21 18.07.2019
5014 Clear 28 1012 37 10000 1 0 12:21 18.07.2019
5015 Clear 28 1012 37 10000 1 0 12:21 18.07.2019
5016 Clear 28 1012 37 10000 2.6 0 11:56 18.07.2019
5017 Clear 27 1012 37 10000 2.6 0 11:38 18.07.2019
5018 Clear 27 1012 42 10000 1 0 11:19 18.07.2019
5019 Clear 26 1012 39 10000 1.5 0 10:41 18.07.2019
5020 Clear 24 1012 44 10000 0.5 0 09:49 18.07.2019
5021 Clear 24 1012 73 10000 1.5 0 09:26 18.07.2019
5022 Clear 23 1012 49 10000 1 0 08:51 18.07.2019
5023 Clear 22 1012 83 10000 1 0 08:22 18.07.2019
5024 Clear 21 1011 56 10000 1 0 07:54 18.07.2019
5025 Clear 20 1011 63 10000 1.5 120 07:34 18.07.2019
5026 Clear 19 1011 63 10000 0.5 0 06:43 18.07.2019
5027 Clear 18 1011 93 10000 1.5 70 05:58 18.07.2019
5028 Clear 19 1012 52 10000 2.6 100 03:25 18.07.2019
5029 Clear 20 1012 52 10000 2.1 100 01:52 18.07.2019
5030 Clear 20 1012 52 10000 1.5 90 01:32 18.07.2019
5031 Clear 21 1012 49 10000 2.1 90 23:57 17.07.2019
5032 Clear 21 1012 56 10000 2.1 100 23:21 17.07.2019
5033 Clear 22 1012 46 10000 1.5 100 22:58 17.07.2019
5034 Clear 22 1012 46 10000 1.5 100 22:40 17.07.2019
5035 Clear 22 1012 46 10000 1.5 130 22:21 17.07.2019
5036 Clear 23 1012 44 10000 1 190 21:46 17.07.2019
5037 Clear 24 1012 38 10000 1.5 210 21:28 17.07.2019
5038 Clear 25 1012 34 10000 2.1 210 20:59 17.07.2019
5039 Clear 25 1012 34 10000 2.1 210 20:40 17.07.2019
5040 Clear 26 1011 54 10000 2.6 230 20:21 17.07.2019
5041 Clear 26 1012 36 10000 3.1 210 19:57 17.07.2019
5042 Clear 26 1012 36 10000 3.1 210 19:39 17.07.2019
5043 Clear 27 1011 48 10000 4.1 250 19:18 17.07.2019
5044 Clear 27 1011 48 10000 6.2 220 18:41 17.07.2019
5045 Clear 27 1011 48 10000 6.2 220 18:20 17.07.2019
5046 Clouds 28 1011 42 10000 4.1 230 17:51 17.07.2019
5047 Clouds 28 1011 42 10000 4.1 230 17:27 17.07.2019
5048 Clear 28 1012 37 10000 4.1 200 16:58 17.07.2019
5049 Clouds 28 1011 35 10000 4.6 260 16:38 17.07.2019
5050 Clouds 29 1011 35 10000 4.6 260 16:18 17.07.2019
5051 Clear 29 1012 28 10000 4.1 200 15:51 17.07.2019
5052 Clouds 29 1011 38 10000 4.1 230 15:29 17.07.2019
5053 Clouds 29 1012 27 10000 4.6 220 14:55 17.07.2019
5054 Clouds 29 1012 33 10000 2.6 300 14:37 17.07.2019
5055 Clouds 29 1012 33 10000 2.6 300 14:18 17.07.2019
5056 Clouds 28 1012 35 10000 1.5 0 13:42 17.07.2019
5057 Clouds 28 1012 35 10000 1.5 0 13:24 17.07.2019
5058 Clear 28 1013 37 10000 1 0 12:41 17.07.2019
5059 Clear 27 1013 34 10000 1 0 12:21 17.07.2019
5060 Clear 27 1013 42 10000 2.1 10 11:45 17.07.2019
5061 Clear 26 1013 42 10000 2.1 10 11:22 17.07.2019
5062 Clear 26 1013 36 10000 1.5 0 10:55 17.07.2019
5063 Clear 26 1013 47 10000 1.5 0 10:37 17.07.2019
5064 Clear 24 1013 41 10000 2.6 30 10:18 17.07.2019
5065 Clear 24 1013 56 10000 1.5 0 09:44 17.07.2019
5066 Clear 23 1013 56 10000 1.5 0 09:24 17.07.2019
5067 Clear 21 1013 64 10000 1.5 0 08:43 17.07.2019
5068 Clear 21 1013 64 10000 1.5 0 08:22 17.07.2019
5069 Clear 20 1012 59 10000 2.1 20 07:50 17.07.2019
5070 Clear 19 1012 59 10000 2.1 30 07:24 17.07.2019
5071 Clear 19 1012 63 10000 2.6 10 06:57 17.07.2019
5072 Clear 18 1012 63 10000 1.5 20 06:30 17.07.2019
5073 Clear 18 1012 63 10000 1.5 20 06:30 17.07.2019
5074 Clear 18 1012 63 10000 0.5 0 05:49 17.07.2019
5075 Clear 18 1012 63 10000 0.5 0 05:28 17.07.2019
5076 Clear 19 1012 56 10000 1 0 04:45 17.07.2019
5077 Clear 19 1011 77 10000 2.1 50 03:29 17.07.2019
5078 Clear 20 1012 60 10000 1 90 02:19 17.07.2019
5079 Clear 21 1012 46 10000 2.6 80 01:26 17.07.2019
5080 Clear 21 1012 43 10000 3.6 30 00:55 17.07.2019
5081 Clear 22 1012 46 10000 2.6 30 00:36 17.07.2019
5082 Clear 22 1012 46 10000 2.6 30 00:18 17.07.2019
5083 Clear 22 1011 38 10000 3.1 10 23:36 16.07.2019
5084 Clear 23 1011 36 10000 2.6 30 23:18 16.07.2019
5085 Clear 23 1011 34 10000 4.1 350 22:42 16.07.2019
5086 Clear 24 1011 34 10000 4.1 350 22:20 16.07.2019
5087 Clear 24 1010 32 10000 6.2 330 21:46 16.07.2019
5088 Clear 25 1010 32 10000 6.2 330 21:22 16.07.2019
5089 Clouds 26 1010 30 10000 7.7 330 20:58 16.07.2019
5090 Clear 27 1010 32 10000 6.7 350 20:39 16.07.2019
5091 Clear 27 1010 32 10000 6.7 350 20:21 16.07.2019
5092 Clouds 28 1009 28 10000 7.7 340 19:51 16.07.2019
5093 Clouds 29 1009 27 10000 5.1 20 19:28 16.07.2019
5094 Clouds 29 1009 27 10000 5.1 20 18:57 16.07.2019
5095 Clouds 29 1009 35 10000 4.1 10 18:38 16.07.2019
5096 Clouds 29 1009 27 10000 4.6 360 18:19 16.07.2019
5097 Clouds 30 1009 35 10000 3.6 360 17:40 16.07.2019
5098 Clouds 30 1009 35 10000 3.6 360 17:21 16.07.2019
5099 Clouds 30 1009 33 10000 3.6 40 16:44 16.07.2019
5100 Clouds 29 1009 33 10000 3.6 40 16:21 16.07.2019
5101 Clouds 29 1009 28 10000 4.6 350 15:55 16.07.2019
5102 Clouds 29 1008 27 10000 5.1 10 15:37 16.07.2019
5103 Clouds 29 1009 30 10000 4.1 20 15:18 16.07.2019
5104 Clouds 29 1008 35 10000 5.7 30 14:42 16.07.2019
5105 Clouds 29 1008 35 10000 5.7 30 14:23 16.07.2019
5106 Clouds 28 1009 35 10000 5.1 360 13:46 16.07.2019
5107 Clouds 28 1009 35 10000 5.1 360 13:27 16.07.2019
5108 Clouds 28 1009 37 10000 1.5 0 12:56 16.07.2019
5109 Clear 27 1009 39 10000 4.6 10 12:38 16.07.2019
5110 Clear 27 1009 39 10000 4.6 10 12:19 16.07.2019
5111 Clear 27 1009 44 10000 5.7 10 11:44 16.07.2019
5112 Clear 26 1009 44 10000 5.7 10 11:24 16.07.2019
5113 Clear 25 1008 41 10000 3.6 30 10:57 16.07.2019
5114 Clear 25 1008 47 10000 4.6 20 10:38 16.07.2019
5115 Clear 24 1008 47 10000 4.6 20 10:18 16.07.2019
5116 Clear 23 1008 57 10000 4.1 10 09:42 16.07.2019
5117 Clear 22 1008 57 10000 4.1 10 09:20 16.07.2019
5118 Clear 21 1008 53 10000 4.1 20 08:46 16.07.2019
5119 Clear 22 1008 53 10000 4.1 20 08:24 16.07.2019
5120 Clear 20 1007 68 10000 1.5 20 07:51 16.07.2019
5121 Clear 20 1007 77 10000 1.5 60 07:32 16.07.2019
5122 Clouds 20 1007 77 10000 2.6 80 06:58 16.07.2019
5123 Clouds 19 1007 88 10000 1.5 80 06:35 16.07.2019
5124 Rain 19 1007 88 10000 0.5 0 05:48 16.07.2019
5125 Rain 19 1007 82 10000 1 0 05:25 16.07.2019
5126 Thunderstorm 20 1007 82 8000 2.1 90 04:26 16.07.2019
5127 Thunderstorm 21 1006 53 10000 4.1 30 03:34 16.07.2019
5128 Thunderstorm 21 1006 53 10000 3.6 80 02:42 16.07.2019
5129 Rain 21 1006 53 10000 3.6 60 02:19 16.07.2019
5130 Rain 21 1006 56 10000 4.6 40 01:23 16.07.2019
5131 Thunderstorm 22 1007 56 10000 3.6 60 00:22 16.07.2019
5132 Thunderstorm 22 1007 56 10000 4.1 60 23:58 15.07.2019
5133 Thunderstorm 22 1007 56 10000 2.6 60 23:37 15.07.2019
5134 Clear 22 1006 60 10000 1.5 90 22:59 15.07.2019
5135 Clear 22 1006 56 10000 2.1 80 22:38 15.07.2019
5136 Clear 22 1006 56 10000 2.1 80 22:19 15.07.2019
5137 Clouds 22 1006 50 10000 1 120 21:42 15.07.2019
5138 Clouds 23 1006 50 10000 1 120 21:21 15.07.2019
5139 Clear 23 1006 47 10000 1.5 70 20:58 15.07.2019
5140 Clear 23 1006 50 10000 1.5 0 20:40 15.07.2019
5141 Clear 24 1006 39 10000 1.5 170 20:22 15.07.2019
5142 Clear 24 1006 39 10000 1.5 170 19:55 15.07.2019
5143 Clear 25 1005 54 10000 3.1 70 19:37 15.07.2019
5144 Clouds 25 1006 44 10000 2.1 120 19:18 15.07.2019
5145 Clouds 25 1006 61 10000 2.6 350 18:42 15.07.2019
5146 Clouds 25 1006 61 10000 2.6 350 18:19 15.07.2019
5147 Rain 24 1006 41 10000 1.5 130 17:55 15.07.2019
5148 Rain 25 1006 69 10000 1.5 0 17:37 15.07.2019
5149 Rain 25 1007 44 10000 3.6 210 17:19 15.07.2019
5150 Rain 24 1006 54 10000 2.1 110 16:39 15.07.2019
5151 Rain 25 1006 54 10000 2.1 110 16:21 15.07.2019
5152 Clouds 25 1006 42 10000 2.6 110 15:58 15.07.2019
5153 Clear 25 1007 54 10000 3.6 110 15:37 15.07.2019
5154 Clouds 25 1006 50 10000 3.6 40 15:19 15.07.2019
5155 Clear 24 1006 69 10000 2.6 30 14:45 15.07.2019
5156 Clear 25 1006 69 10000 2.6 30 14:26 15.07.2019
5157 Clouds 24 1006 53 10000 3.1 20 13:57 15.07.2019
5158 Clear 24 1007 78 10000 2.6 40 13:36 15.07.2019
5159 Drizzle 23 1007 53 10000 2.1 0 13:18 15.07.2019
5160 Drizzle 23 1007 94 10000 2.1 10 12:42 15.07.2019
5161 Drizzle 23 1007 94 10000 2.1 10 12:21 15.07.2019
5162 Rain 23 1007 88 10000 2.1 30 11:43 15.07.2019
5163 Rain 23 1007 88 10000 2.1 30 11:25 15.07.2019
5164 Rain 23 1007 94 10000 1.5 0 10:48 15.07.2019
5165 Rain 23 1007 94 10000 1.5 0 10:30 15.07.2019
5166 Rain 23 1007 56 10000 3.1 70 09:57 15.07.2019
5167 Rain 23 1007 100 10000 3.1 20 09:39 15.07.2019
5168 Rain 21 1007 56 10000 1.5 100 09:18 15.07.2019
5169 Rain 21 1007 94 10000 2.1 360 08:41 15.07.2019
5170 Rain 22 1007 94 10000 2.1 360 08:23 15.07.2019
5171 Rain 21 1006 53 10000 2.6 70 07:41 15.07.2019
5172 Rain 21 1006 53 10000 2.6 70 07:20 15.07.2019
5173 Clear 21 1006 60 10000 2.6 80 06:39 15.07.2019
5174 Clear 21 1007 60 10000 1.5 90 05:49 15.07.2019
5175 Clear 21 1007 60 10000 1.5 90 05:29 15.07.2019
5176 Clear 21 1007 60 10000 3.1 90 04:43 15.07.2019
5177 Clear 22 1007 60 10000 3.1 100 03:51 15.07.2019
5178 Clear 22 1008 64 10000 2.6 60 02:47 15.07.2019
5179 Clear 22 1009 53 10000 1.5 100 01:45 15.07.2019
5180 Clear 22 1009 53 10000 1.5 100 01:26 15.07.2019
5181 Clear 22 1009 56 10000 1.5 110 00:51 15.07.2019
5182 Clear 22 1009 56 10000 1.5 110 00:22 15.07.2019
5183 Clouds 22 1009 60 10000 1.5 90 23:55 14.07.2019
5184 Clouds 22 1009 60 10000 1 0 23:36 14.07.2019
5185 Clouds 22 1009 60 10000 1 0 23:18 14.07.2019
5186 Clouds 22 1009 60 10000 1 100 22:55 14.07.2019
5187 Clear 23 1009 60 10000 1 0 22:36 14.07.2019
5188 Clear 23 1009 60 10000 1 0 22:18 14.07.2019
5189 Clear 23 1009 53 10000 1.5 210 21:42 14.07.2019
5190 Clear 24 1009 53 10000 1.5 210 21:18 14.07.2019
5191 Clear 25 1009 50 10000 3.1 200 20:57 14.07.2019
5192 Clear 25 1008 57 10000 4.6 250 20:37 14.07.2019
5193 Clear 26 1008 57 10000 4.6 250 20:18 14.07.2019
5194 Clear 26 1008 54 10000 3.6 220 19:43 14.07.2019
5195 Clear 27 1008 54 10000 3.6 220 19:24 14.07.2019
5196 Clouds 27 1009 45 10000 3.6 220 18:57 14.07.2019
5197 Clear 27 1008 54 10000 4.6 210 18:38 14.07.2019
5198 Clear 28 1008 54 10000 4.6 210 18:19 14.07.2019
5199 Clouds 28 1008 55 10000 5.1 220 17:47 14.07.2019
5200 Clouds 28 1008 55 10000 5.1 220 17:21 14.07.2019
5201 Clouds 28 1008 55 10000 4.6 250 16:46 14.07.2019
5202 Clouds 29 1008 55 10000 4.6 250 16:24 14.07.2019
5203 Clouds 29 1009 51 10000 3.1 240 15:54 14.07.2019
5204 Clouds 29 1009 52 10000 2.6 270 15:29 14.07.2019
5205 Clouds 28 1010 33 10000 1.5 0 14:50 14.07.2019
5206 Clouds 29 1010 33 10000 1.5 0 14:22 14.07.2019
5207 Clear 28 1010 45 10000 3.1 290 13:49 14.07.2019
5208 Clouds 28 1010 35 10000 2.1 350 13:27 14.07.2019
5209 Clear 28 1010 42 10000 2.6 290 12:59 14.07.2019
5210 Clear 27 1010 51 10000 2.6 210 12:41 14.07.2019
5211 Clear 27 1010 51 10000 2.6 210 12:21 14.07.2019
5212 Clear 27 1010 47 10000 2.1 0 11:52 14.07.2019
5213 Clear 26 1011 51 10000 1 0 11:24 14.07.2019
5214 Clear 26 1011 50 10000 2.1 0 10:50 14.07.2019
5215 Clear 26 1010 65 10000 2.6 350 10:25 14.07.2019
5216 Clear 25 1010 60 10000 3.6 20 09:56 14.07.2019
5217 Clear 25 1010 73 10000 2.6 30 09:37 14.07.2019
5218 Clear 23 1010 64 10000 4.1 20 09:19 14.07.2019
5219 Clear 22 1010 88 10000 0.5 0 08:41 14.07.2019
5220 Clear 21 1009 77 10000 3.1 20 07:56 14.07.2019
5221 Clear 20 1009 72 10000 2.1 20 07:35 14.07.2019
5222 Clear 19 1009 82 10000 2.6 10 06:29 14.07.2019
5223 Clear 19 1008 88 10000 4.1 40 05:44 14.07.2019
5224 Clear 19 1009 82 10000 3.6 20 03:46 14.07.2019
5225 Clear 20 1009 82 10000 3.6 20 03:27 14.07.2019
5226 Clear 20 1009 88 10000 2.1 30 02:39 14.07.2019
5227 Clear 20 1009 83 10000 3.6 20 02:20 14.07.2019
5228 Clear 21 1009 78 10000 2.6 30 01:31 14.07.2019
5229 Clear 21 1009 78 10000 2.1 20 00:55 14.07.2019
5230 Clear 21 1009 78 10000 2.1 20 00:37 14.07.2019
5231 Clear 21 1009 83 10000 2.1 30 00:18 14.07.2019
5232 Clear 21 1009 78 10000 2.6 30 23:42 13.07.2019
5233 Clear 21 1009 78 10000 2.6 30 23:22 13.07.2019
5234 Clear 22 1008 78 10000 4.6 20 22:43 13.07.2019
5235 Clear 22 1008 78 10000 4.6 20 22:22 13.07.2019
5236 Clear 22 1008 78 10000 2.6 40 21:49 13.07.2019
5237 Clear 23 1008 78 10000 2.6 20 21:23 13.07.2019
5238 Clear 24 1007 69 10000 2.1 50 20:53 13.07.2019
5239 Clear 24 1008 88 10000 2.1 360 20:34 13.07.2019
5240 Clouds 24 1008 78 10000 3.1 50 19:59 13.07.2019
5241 Rain 24 1008 88 10000 2.1 90 19:37 13.07.2019
5242 Rain 24 1008 88 10000 2.1 90 19:19 13.07.2019
5243 Clouds 24 1008 100 10000 3.1 40 18:39 13.07.2019
5244 Clouds 25 1008 100 10000 3.1 40 18:19 13.07.2019
5245 Thunderstorm 26 1007 62 10000 4.6 240 17:38 13.07.2019
5246 Thunderstorm 26 1007 62 10000 4.6 240 17:19 13.07.2019
5247 Thunderstorm 26 1007 62 10000 4.6 240 17:19 13.07.2019
5248 Thunderstorm 27 1007 62 10000 4.6 240 16:44 13.07.2019
5249 Thunderstorm 28 1007 62 10000 4.6 240 16:26 13.07.2019
5250 Clouds 28 1007 62 10000 5.1 210 15:48 13.07.2019
5251 Clouds 28 1007 62 10000 5.1 210 15:25 13.07.2019
5252 Clouds 29 1009 54 10000 4.1 220 14:57 13.07.2019
5253 Clouds 28 1008 55 10000 5.1 240 14:39 13.07.2019
5254 Clouds 28 1008 55 10000 5.1 240 14:20 13.07.2019
5255 Clouds 28 1009 58 10000 3.6 210 13:43 13.07.2019
5256 Clouds 28 1009 58 10000 3.6 210 13:19 13.07.2019
5257 Clouds 27 1009 66 10000 3.1 240 12:41 13.07.2019
5258 Clouds 28 1009 66 10000 3.1 240 12:23 13.07.2019
5259 Clouds 27 1010 54 10000 3.1 190 11:57 13.07.2019
5260 Clouds 27 1009 62 10000 1.5 0 11:36 13.07.2019
5261 Clouds 27 1009 57 10000 3.1 180 11:18 13.07.2019
5262 Clouds 26 1009 69 10000 1 0 10:39 13.07.2019
5263 Clouds 26 1009 61 10000 3.6 160 10:21 13.07.2019
5264 Clear 26 1009 74 10000 1.5 0 09:42 13.07.2019
5265 Clear 25 1009 74 10000 1.5 0 09:24 13.07.2019
5266 Clouds 23 1010 73 10000 2.6 180 08:48 13.07.2019
5267 Clouds 23 1009 78 10000 1 0 08:27 13.07.2019
5268 Clear 22 1010 77 10000 1.5 140 07:42 13.07.2019
5269 Clear 21 1010 77 10000 1.5 140 07:20 13.07.2019
5270 Clear 21 1010 82 10000 1.5 100 06:29 13.07.2019
5271 Fog 20 1010 100 9000 1 40 05:46 13.07.2019
5272 Clear 21 1010 83 10000 2.6 100 04:39 13.07.2019
5273 Clear 21 1010 94 10000 2.1 90 04:19 13.07.2019
5274 Clear 21 1011 78 10000 2.1 110 03:40 13.07.2019
5275 Clear 21 1011 78 10000 2.1 110 02:52 13.07.2019
5276 Clear 21 1012 83 10000 2.1 130 01:53 13.07.2019
5277 Clear 22 1012 88 10000 2.6 120 01:21 13.07.2019
5278 Clear 22 1012 83 10000 2.1 160 00:58 13.07.2019
5279 Clouds 22 1012 78 10000 2.1 170 00:21 13.07.2019
5280 Clouds 22 1012 78 10000 2.6 180 23:50 12.07.2019
5281 Clouds 22 1012 78 10000 2.6 180 23:30 12.07.2019
5282 Clouds 23 1012 78 10000 2.6 180 22:57 12.07.2019
5283 Clouds 23 1012 78 10000 2.6 180 22:38 12.07.2019
5284 Clear 23 1011 78 10000 3.6 190 22:20 12.07.2019
5285 Clear 24 1011 73 10000 3.6 200 21:41 12.07.2019
5286 Clear 25 1011 73 10000 3.6 200 21:19 12.07.2019
5287 Clear 25 1010 69 10000 4.1 230 20:44 12.07.2019
5288 Clear 26 1010 69 10000 4.1 230 20:22 12.07.2019
5289 Clouds 27 1010 62 10000 4.6 220 19:43 12.07.2019
5290 Clouds 27 1010 62 10000 4.6 220 19:25 12.07.2019
5291 Clear 27 1010 61 10000 4.6 210 18:49 12.07.2019
5292 Clear 28 1010 58 10000 4.1 230 18:23 12.07.2019
5293 Clouds 28 1011 58 10000 4.1 220 17:58 12.07.2019
5294 Clouds 28 1011 58 10000 5.7 210 17:38 12.07.2019
5295 Clouds 28 1011 51 10000 4.6 210 17:19 12.07.2019
5296 Clouds 28 1011 55 10000 4.6 240 16:36 12.07.2019
5297 Clouds 28 1012 45 10000 4.1 220 16:18 12.07.2019
5298 Clouds 28 1011 45 10000 3.1 260 15:38 12.07.2019
5299 Clouds 28 1011 45 10000 3.1 260 15:19 12.07.2019
5300 Clouds 28 1011 40 10000 2.6 230 14:44 12.07.2019
5301 Clouds 27 1011 40 10000 2.6 230 14:21 12.07.2019
5302 Rain 28 1012 42 10000 3.1 210 13:47 12.07.2019
5303 Clouds 28 1012 45 10000 3.1 200 13:24 12.07.2019
5304 Clouds 27 1012 48 10000 2.1 240 12:44 12.07.2019
5305 Clouds 27 1012 48 10000 2.1 240 12:24 12.07.2019
5306 Clouds 26 1013 48 10000 3.6 160 11:57 12.07.2019
5307 Clouds 26 1012 58 10000 2.1 190 11:38 12.07.2019
5308 Clouds 26 1012 58 10000 2.1 190 11:19 12.07.2019
5309 Clear 26 1012 69 10000 1 0 10:41 12.07.2019
5310 Clear 26 1012 69 10000 1 0 10:23 12.07.2019
5311 Clouds 25 1012 65 10000 2.1 130 09:53 12.07.2019
5312 Clear 25 1012 69 10000 1.5 0 09:28 12.07.2019
5313 Clear 23 1012 88 10000 1 0 08:51 12.07.2019
5314 Clear 22 1012 88 10000 1 0 08:24 12.07.2019
5315 Clouds 22 1012 73 10000 1 100 07:52 12.07.2019
5316 Clouds 21 1012 73 10000 1.5 90 07:31 12.07.2019
5317 Clouds 20 1012 73 10000 1.5 100 06:32 12.07.2019
5318 Clear 20 1012 77 10000 2.1 100 05:52 12.07.2019
5319 Clear 20 1012 94 10000 1.5 80 04:55 12.07.2019
5320 Clear 21 1013 83 10000 2.1 140 02:55 12.07.2019
5321 Clear 21 1013 78 10000 1 170 01:37 12.07.2019
5322 Clear 21 1013 78 10000 1.5 130 00:44 12.07.2019
5323 Clear 22 1013 78 10000 1.5 130 00:19 12.07.2019
5324 Clouds 22 1013 78 10000 1.5 110 23:43 11.07.2019
5325 Clouds 22 1013 78 10000 1.5 110 23:23 11.07.2019
5326 Clear 23 1013 73 10000 1.5 210 22:48 11.07.2019
5327 Clear 23 1013 73 10000 1 200 22:25 11.07.2019
5328 Clear 23 1013 73 10000 1 200 22:25 11.07.2019
5329 Clouds 23 1012 73 10000 1.5 230 21:56 11.07.2019
5330 Clear 24 1012 69 10000 1.5 210 21:36 11.07.2019
5331 Clear 25 1012 69 10000 1.5 210 21:18 11.07.2019
5332 Clear 25 1012 65 10000 3.1 240 20:42 11.07.2019
5333 Clear 26 1012 61 10000 2.1 210 20:22 11.07.2019
5334 Clear 26 1012 61 10000 2.1 210 19:56 11.07.2019
5335 Clear 26 1012 61 10000 4.1 220 19:37 11.07.2019
5336 Clear 26 1012 61 10000 4.1 220 19:19 11.07.2019
5337 Clear 27 1012 58 10000 4.6 240 18:41 11.07.2019
5338 Clear 27 1012 58 10000 4.6 240 18:23 11.07.2019
5339 Clear 28 1012 54 10000 2.6 240 17:49 11.07.2019
5340 Clear 28 1012 54 10000 2.6 240 17:30 11.07.2019
5341 Clouds 28 1012 51 10000 4.1 230 16:55 11.07.2019
5342 Clouds 28 1012 51 10000 3.1 250 16:37 11.07.2019
5343 Clouds 28 1012 45 10000 3.1 230 16:18 11.07.2019
5344 Clouds 28 1012 42 10000 2.6 240 15:40 11.07.2019
5345 Clouds 28 1012 42 10000 2.6 240 15:20 11.07.2019
5346 Clouds 28 1012 51 10000 3.1 240 14:44 11.07.2019
5347 Clouds 28 1012 51 10000 3.1 240 14:24 11.07.2019
5348 Clouds 28 1013 48 10000 3.1 230 13:52 11.07.2019
5349 Clouds 28 1012 40 10000 1.5 0 13:33 11.07.2019
5350 Clouds 27 1013 51 10000 3.6 250 12:58 11.07.2019
5351 Clouds 27 1013 57 10000 2.1 230 12:38 11.07.2019
5352 Clouds 26 1013 51 10000 2.1 30 12:19 11.07.2019
5353 Clear 26 1013 47 10000 2.1 340 11:43 11.07.2019
5354 Clear 26 1013 47 10000 2.1 340 11:24 11.07.2019
5355 Clouds 26 1013 61 10000 2.1 20 10:51 11.07.2019
5356 Clouds 24 1013 60 10000 3.6 20 10:19 11.07.2019
5357 Clouds 24 1013 60 10000 3.6 20 09:50 11.07.2019
5358 Clouds 23 1012 60 10000 4.1 20 09:31 11.07.2019
5359 Clouds 21 1012 68 10000 4.1 20 08:57 11.07.2019
5360 Clear 22 1013 60 10000 2.1 360 08:37 11.07.2019
5361 Clear 21 1013 60 10000 2.1 360 08:19 11.07.2019
5362 Clouds 20 1012 68 10000 3.1 0 07:42 11.07.2019
5363 Clouds 19 1012 68 10000 2.1 40 06:49 11.07.2019
5364 Clear 19 1012 72 10000 2.6 30 06:18 11.07.2019
5365 Clear 19 1011 72 10000 3.6 20 05:31 11.07.2019
5366 Clear 19 1011 72 10000 2.6 40 04:56 11.07.2019
5367 Clear 19 1011 68 10000 2.1 30 03:19 11.07.2019
5368 Clear 20 1011 68 10000 3.6 20 02:18 11.07.2019
5369 Clear 21 1010 64 10000 3.6 10 00:32 11.07.2019
5370 Clear 22 1010 64 10000 3.1 360 23:50 10.07.2019
5371 Clear 22 1010 64 10000 3.6 10 23:24 10.07.2019
5372 Clear 22 1010 64 10000 3.1 30 22:54 10.07.2019
5373 Clear 23 1009 69 10000 1.5 0 22:22 10.07.2019
5374 Clear 23 1009 69 10000 1.5 50 21:56 10.07.2019
5375 Clear 23 1009 65 10000 2.6 20 21:37 10.07.2019
5376 Clear 25 1009 65 10000 2.6 20 21:19 10.07.2019
5377 Clear 25 1008 58 10000 3.6 0 20:41 10.07.2019
5378 Clear 26 1008 58 10000 3.6 0 20:21 10.07.2019
5379 Clear 26 1008 61 10000 3.6 350 19:55 10.07.2019
5380 Clear 26 1008 61 10000 3.1 360 19:37 10.07.2019
5381 Clear 26 1008 65 10000 3.6 40 19:18 10.07.2019
5382 Clear 26 1008 69 10000 2.1 10 18:42 10.07.2019
5383 Clear 26 1008 69 10000 2.1 10 18:22 10.07.2019
5384 Clear 25 1008 88 10000 3.6 350 17:44 10.07.2019
5385 Clear 25 1008 88 10000 3.6 350 17:25 10.07.2019
5386 Rain 23 1007 83 10000 2.6 50 16:41 10.07.2019
5387 Rain 22 1007 83 10000 2.6 50 16:21 10.07.2019
5388 Thunderstorm 22 1007 82 6000 7.2 70 15:47 10.07.2019
5389 Thunderstorm 24 1007 78 8000 6.2 360 15:25 10.07.2019
5390 Thunderstorm 27 1006 70 10000 4.1 260 14:46 10.07.2019
5391 Thunderstorm 28 1006 70 10000 4.1 260 14:26 10.07.2019
5392 Thunderstorm 29 1006 70 10000 5.1 250 13:54 10.07.2019
5393 Thunderstorm 29 1005 52 10000 4.6 230 13:23 10.07.2019
5394 Thunderstorm 28 1007 54 10000 3.6 220 12:59 10.07.2019
5395 Clouds 29 1006 55 10000 3.6 210 12:39 10.07.2019
5396 Clouds 29 1006 55 10000 3.6 210 12:20 10.07.2019
5397 Clouds 28 1007 58 10000 3.6 240 11:47 10.07.2019
5398 Clouds 28 1007 58 10000 3.6 240 11:21 10.07.2019
5399 Clouds 29 1007 58 10000 3.6 220 10:56 10.07.2019
5400 Clouds 28 1006 70 10000 3.6 240 10:23 10.07.2019
5401 Clouds 27 1006 74 10000 3.1 190 09:45 10.07.2019
5402 Clouds 27 1006 74 10000 3.1 190 09:45 10.07.2019
5403 Clouds 27 1006 74 10000 3.1 190 09:21 10.07.2019
5404 Clouds 27 1006 74 10000 3.1 190 09:21 10.07.2019
5405 Clouds 26 1007 65 10000 4.6 170 08:57 10.07.2019
5406 Clouds 26 1007 78 10000 3.29 201.478 08:38 10.07.2019
5407 Clouds 25 1007 65 10000 4.1 150 08:20 10.07.2019
5408 Rain 25 1007 69 10000 4.1 150 07:42 10.07.2019
5409 Rain 24 1007 69 10000 4.1 150 07:22 10.07.2019
5410 Clear 24 1008 69 10000 3.6 140 06:31 10.07.2019
5411 Clouds 24 1008 94 10000 3.6 110 05:40 10.07.2019
5412 Clear 24 1009 65 10000 4.6 160 04:30 10.07.2019
5413 Clear 24 1009 83 10000 4.6 150 01:49 10.07.2019
5414 Clear 24 1009 83 10000 4.6 150 01:49 10.07.2019
5415 Clear 24 1010 50 10000 2.6 160 00:43 10.07.2019
5416 Clear 25 1011 61 10000 2.1 80 23:42 09.07.2019
5417 Clear 25 1011 61 10000 2.1 80 23:23 09.07.2019
5418 Clear 25 1011 57 10000 2.6 100 22:54 09.07.2019
5419 Clear 25 1011 54 10000 3.1 140 22:36 09.07.2019
5420 Clear 25 1011 54 10000 3.1 140 22:18 09.07.2019
5421 Clear 26 1011 65 10000 4.1 180 21:43 09.07.2019
5422 Clear 27 1011 65 10000 4.1 180 21:24 09.07.2019
5423 Clear 28 1011 66 10000 5.1 240 20:44 09.07.2019
5424 Clear 28 1011 66 10000 5.1 240 20:25 09.07.2019
5425 Clear 28 1010 55 10000 6.2 190 19:43 09.07.2019
5426 Clear 30 1010 36 10000 3.6 220 19:24 09.07.2019
5427 Clear 31 1010 43 10000 3.6 160 18:49 09.07.2019
5428 Clear 31 1010 43 10000 3.6 160 18:49 09.07.2019
5429 Clear 31 1010 34 10000 4.1 230 18:27 09.07.2019
5430 Clear 31 1011 34 10000 3.6 190 17:57 09.07.2019
5431 Clear 31 1011 30 10000 4.1 200 17:39 09.07.2019
5432 Clear 32 1011 30 10000 4.1 200 17:20 09.07.2019
5433 Clear 33 1011 30 10000 3.6 210 16:50 09.07.2019
5434 Clear 33 1010 36 10000 3.1 260 16:25 09.07.2019
5435 Clear 32 1011 40 10000 2.6 0 15:55 09.07.2019
5436 Clear 32 1011 41 10000 3.1 220 15:36 09.07.2019
5437 Clear 31 1012 40 10000 3.6 170 14:59 09.07.2019
5438 Clear 30 1012 49 10000 3.1 200 14:39 09.07.2019
5439 Clear 30 1012 49 10000 3.1 200 14:20 09.07.2019
5440 Rain 28 1013 83 9000 5.1 190 13:45 09.07.2019
5441 Rain 28 1013 83 9000 5.1 190 13:27 09.07.2019
5442 Rain 28 1014 83 9000 4.1 180 12:42 09.07.2019
5443 Rain 28 1014 83 9000 4.1 180 12:23 09.07.2019
5444 Clear 29 1013 55 10000 4.1 190 11:58 09.07.2019
5445 Clouds 30 1012 62 10000 3.1 170 11:40 09.07.2019
5446 Clouds 30 1012 62 10000 3.1 170 11:21 09.07.2019
5447 Clear 29 1013 62 10000 4.6 150 10:57 09.07.2019
5448 Clear 29 1013 66 10000 4.1 210 10:34 09.07.2019
5449 Clear 29 1013 66 10000 4.1 210 10:34 09.07.2019
5450 Clear 28 1012 70 10000 1 0 09:48 09.07.2019
5451 Clear 27 1012 70 10000 1 0 09:29 09.07.2019
5452 Mist 26 1013 69 10000 1.5 140 08:59 09.07.2019
5453 Mist 26 1012 83 10000 1.5 0 08:40 09.07.2019
5454 Clear 21 1017 88 10000 2.1 130 04:18 05.07.2019
5455 Clear 20 1017 83 10000 2.1 130 03:38 05.07.2019
5456 Clear 21 1017 83 10000 2.1 130 03:19 05.07.2019
5457 Clear 21 1017 60 10000 1 0 02:49 05.07.2019
5458 Clear 22 1017 53 10000 1.5 110 01:52 05.07.2019
5459 Clear 22 1017 53 10000 2.6 110 01:25 05.07.2019
5460 Clear 22 1017 56 10000 1.5 110 00:48 05.07.2019
5461 Clear 23 1017 53 10000 2.1 110 00:25 05.07.2019
5462 Clear 23 1016 69 10000 1.5 110 23:23 04.07.2019
5463 Clear 23 1016 69 10000 1.5 110 23:23 04.07.2019
5464 Clear 23 1016 69 10000 1.5 110 23:23 04.07.2019
5465 Clear 24 1016 64 10000 1 0 22:59 04.07.2019
5466 Clear 24 1016 57 10000 1 0 22:40 04.07.2019
5467 Clear 25 1016 57 10000 1 0 22:19 04.07.2019
5468 Clear 26 1016 54 10000 1 0 21:41 04.07.2019
5469 Clear 26 1016 54 10000 1 0 21:22 04.07.2019
5470 Clear 27 1016 51 10000 2.6 270 20:58 04.07.2019
5471 Clear 28 1015 48 10000 1.5 0 20:37 04.07.2019
5472 Clear 29 1015 45 10000 3.6 260 20:18 04.07.2019
5473 Clear 29 1015 45 10000 3.6 260 20:18 04.07.2019
5474 Clear 29 1015 35 10000 2.1 240 19:41 04.07.2019
5475 Clear 30 1015 35 10000 2.1 240 19:21 04.07.2019
5476 Clear 30 1015 38 10000 4.1 250 18:46 04.07.2019
5477 Clear 31 1015 38 10000 4.1 250 18:27 04.07.2019
5478 Clear 31 1016 33 10000 3.1 240 17:56 04.07.2019
5479 Clear 31 1015 34 10000 4.6 270 17:37 04.07.2019
5480 Clear 31 1015 34 10000 4.6 270 17:18 04.07.2019
5481 Clear 32 1016 29 10000 3.1 240 15:43 04.07.2019
5482 Clear 33 1016 29 10000 3.1 240 15:24 04.07.2019
5483 Clear 33 1016 29 10000 3.6 240 14:59 04.07.2019
5484 Clear 33 1016 26 10000 3.1 170 14:38 04.07.2019
5485 Clear 32 1016 29 10000 2.1 0 14:19 04.07.2019
5486 Clear 32 1016 29 10000 2.1 0 13:56 04.07.2019
5487 Clear 32 1016 30 10000 1.5 0 13:38 04.07.2019
5488 Clear 32 1017 31 10000 3.1 0 13:18 04.07.2019
5489 Clear 32 1016 38 10000 2.1 220 12:38 04.07.2019
5490 Clear 31 1017 33 10000 2.1 0 12:19 04.07.2019
5491 Clear 30 1016 43 10000 1 0 11:42 04.07.2019
5492 Clear 30 1016 43 10000 1 0 11:20 04.07.2019
5493 Clear 29 1016 54 10000 1 0 10:45 04.07.2019
5494 Clear 29 1016 54 10000 1 0 10:27 04.07.2019
5495 Clear 27 1016 50 10000 1.5 10 09:56 04.07.2019
5496 Clear 27 1016 65 10000 2.6 350 09:38 04.07.2019
5497 Clear 26 1016 65 10000 2.6 350 09:18 04.07.2019
5498 Clear 25 1016 69 10000 1.5 0 08:41 04.07.2019
5499 Clear 23 1015 60 10000 1.5 270 08:18 04.07.2019
5500 Clear 22 1015 60 10000 2.1 250 07:38 04.07.2019
5501 Clear 22 1015 60 10000 2.1 250 07:18 04.07.2019
5502 Clear 20 1014 53 10000 0.5 0 06:20 04.07.2019
5503 Clear 20 1014 56 10000 1 0 05:41 04.07.2019
5504 Clear 21 1014 53 10000 2.1 90 03:48 04.07.2019
5505 Clear 23 1016 56 10000 1.5 100 01:48 04.07.2019
5506 Clear 22 1016 56 10000 1.5 100 01:26 04.07.2019
5507 Clear 23 1016 53 10000 1 0 00:39 04.07.2019
5508 Clear 24 1015 57 10000 1.5 110 23:52 03.07.2019
5509 Clear 24 1015 50 10000 1 0 23:20 03.07.2019
5510 Clear 25 1015 50 10000 1 0 22:56 03.07.2019
5511 Clear 25 1014 44 10000 1 0 22:37 03.07.2019
5512 Clear 25 1014 44 10000 1 220 22:18 03.07.2019
5513 Clear 26 1014 44 10000 1 220 21:50 03.07.2019
5514 Clear 26 1014 45 10000 1 0 21:31 03.07.2019
5515 Clear 29 1014 39 10000 1.5 250 20:47 03.07.2019
5516 Clear 30 1013 38 10000 2.1 250 20:29 03.07.2019
5517 Clear 30 1013 38 10000 2.1 250 20:29 03.07.2019
5518 Clear 30 1014 35 10000 3.1 260 19:58 03.07.2019
5519 Clear 30 1013 31 10000 3.6 250 19:40 03.07.2019
5520 Clear 32 1014 35 10000 3.6 250 18:56 03.07.2019
5521 Clear 32 1013 32 10000 5.1 260 18:37 03.07.2019
5522 Clear 33 1013 32 10000 5.1 260 18:19 03.07.2019
5523 Clear 33 1013 34 10000 4.6 250 17:49 03.07.2019
5524 Clear 33 1013 34 10000 4.6 250 17:19 03.07.2019
5525 Clear 33 1014 34 10000 4.1 240 16:45 03.07.2019
5526 Clear 33 1014 34 10000 4.1 240 16:24 03.07.2019
5527 Clear 34 1014 32 10000 3.1 260 15:55 03.07.2019
5528 Clouds 33 1014 36 10000 4.1 220 15:37 03.07.2019
5529 Clear 33 1014 38 10000 4.6 250 15:18 03.07.2019
5530 Clear 33 1014 36 10000 5.7 210 14:43 03.07.2019
5531 Clear 33 1015 36 10000 3.1 260 14:20 03.07.2019
5532 Clear 33 1014 34 10000 1.5 0 13:45 03.07.2019
5533 Clear 33 1014 34 10000 1.5 0 13:27 03.07.2019
5534 Clear 32 1015 36 10000 2.1 0 12:51 03.07.2019
5535 Clear 32 1014 38 10000 3.16 262.403 12:19 03.07.2019
5536 Clear 31 1014 40 10000 1.5 0 11:43 03.07.2019
5537 Clear 31 1014 40 10000 1.5 0 11:23 03.07.2019
5538 Clear 30 1014 40 10000 1.5 0 10:57 03.07.2019
5539 Clear 30 1014 48 10000 0.5 0 10:37 03.07.2019
5540 Clear 29 1014 48 10000 2.1 260 10:18 03.07.2019
5541 Clear 28 1014 61 10000 2.1 360 09:40 03.07.2019
5542 Clear 28 1014 61 10000 2.1 360 09:40 03.07.2019
5543 Clear 26 1014 50 10000 1 0 09:20 03.07.2019
5544 Clear 26 1014 73 10000 2.1 340 08:50 03.07.2019
5545 Clear 25 1014 73 10000 2.1 340 08:28 03.07.2019
5546 Clear 24 1013 60 10000 1 0 07:42 03.07.2019
5547 Clear 23 1013 60 10000 1 0 07:21 03.07.2019
5548 Clear 22 1013 60 10000 1.5 20 06:25 03.07.2019
5549 Clear 22 1013 56 10000 1 0 05:34 03.07.2019
5550 Clear 22 1014 56 10000 1 70 04:38 03.07.2019
5551 Clear 22 1014 64 10000 0.5 0 03:24 03.07.2019
5552 Clear 23 1014 60 10000 1.5 120 01:49 03.07.2019
5553 Clear 23 1014 60 10000 1 160 01:21 03.07.2019
5554 Clear 23 1014 60 10000 1 160 01:21 03.07.2019
5555 Clear 24 1014 57 10000 1.5 150 00:45 03.07.2019
5556 Clear 24 1014 57 10000 1.5 150 00:45 03.07.2019
5557 Clear 24 1014 50 10000 1.5 210 23:59 02.07.2019
5558 Clear 25 1014 50 10000 1.5 210 23:37 02.07.2019
5559 Clear 25 1014 50 10000 0.5 0 23:19 02.07.2019
5560 Clear 25 1014 50 10000 0.5 0 22:56 02.07.2019
5561 Clear 25 1014 50 10000 0.5 0 22:37 02.07.2019
5562 Clear 26 1013 51 10000 1 0 22:18 02.07.2019
5563 Clear 26 1013 51 10000 1 0 21:42 02.07.2019
5564 Clear 28 1013 42 10000 2.6 280 21:22 02.07.2019
5565 Clear 28 1013 42 10000 2.6 280 20:58 02.07.2019
5566 Clear 29 1013 42 10000 2.6 280 20:39 02.07.2019
5567 Clear 29 1013 40 10000 2.1 220 20:20 02.07.2019
5568 Clear 30 1013 40 10000 3.1 260 19:42 02.07.2019
5569 Clear 30 1012 40 10000 3.6 230 19:23 02.07.2019
5570 Clear 31 1013 38 10000 4.1 250 18:49 02.07.2019
5571 Clear 32 1013 35 10000 3.6 220 18:19 02.07.2019
5572 Clear 32 1013 35 10000 3.6 220 18:19 02.07.2019
5573 Clear 32 1013 35 10000 4.6 270 17:44 02.07.2019
5574 Clear 32 1013 35 10000 4.6 270 17:24 02.07.2019
5575 Clear 33 1014 33 10000 4.1 280 16:54 02.07.2019
5576 Clear 33 1016 34 10000 5.1 230 16:35 02.07.2019
5577 Clear 33 1013 34 10000 3.6 250 15:48 02.07.2019
5578 Clear 33 1013 34 10000 3.6 250 15:27 02.07.2019
5579 Clear 33 1014 32 10000 4.1 280 14:59 02.07.2019
5580 Clear 33 1014 32 10000 4.1 220 14:40 02.07.2019
5581 Clear 33 1014 33 10000 2.6 300 14:20 02.07.2019
5582 Clear 33 1014 33 10000 2.6 300 13:42 02.07.2019
5583 Clear 32 1014 33 10000 2.6 270 13:18 02.07.2019
5584 Clear 32 1015 33 10000 2.1 0 12:44 02.07.2019
5585 Clear 32 1014 35 10000 1.5 0 12:22 02.07.2019
5586 Clear 31 1014 40 10000 1 0 11:44 02.07.2019
5587 Clear 31 1014 40 10000 1 0 11:44 02.07.2019
5588 Clear 31 1014 40 10000 1 0 11:23 02.07.2019
5589 Clear 30 1015 39 10000 2.1 340 10:55 02.07.2019
5590 Clear 30 1015 48 10000 1 0 10:29 02.07.2019
5591 Clear 29 1014 42 10000 1 0 09:57 02.07.2019
5592 Clear 27 1014 57 10000 2.1 350 09:22 02.07.2019
5593 Clear 26 1015 47 10000 1.5 330 08:57 02.07.2019
5594 Clear 25 1014 57 10000 1 0 08:37 02.07.2019
5595 Clear 24 1015 47 10000 1.5 360 07:59 02.07.2019
5596 Clear 23 1015 49 10000 1.5 30 07:21 02.07.2019
5597 Clear 22 1015 49 10000 1.5 30 06:59 02.07.2019
5598 Clear 22 1015 49 10000 1 0 06:36 02.07.2019
5599 Clear 21 1015 49 10000 1 30 05:27 02.07.2019
5600 Clear 22 1016 49 10000 1 110 02:38 02.07.2019
5601 Clear 24 1017 44 10000 1.5 120 00:28 02.07.2019
5602 Clear 24 1017 50 10000 2.1 110 23:32 01.07.2019
5603 Clear 24 1017 47 10000 1 0 22:54 01.07.2019
5604 Clear 24 1017 47 10000 1 0 22:54 01.07.2019
5605 Clear 25 1017 42 10000 1 0 22:36 01.07.2019
5606 Clear 26 1017 34 10000 1.5 260 22:18 01.07.2019
5607 Clear 26 1017 34 10000 1.5 260 21:43 01.07.2019
5608 Clear 28 1017 34 10000 1.5 260 21:24 01.07.2019
5609 Clear 29 1016 31 10000 2.6 220 20:46 01.07.2019
5610 Clear 30 1016 29 10000 3.1 250 20:20 01.07.2019
5611 Clear 30 1016 29 10000 3.1 250 19:54 01.07.2019
5612 Clear 30 1015 29 10000 4.1 250 19:36 01.07.2019
5613 Clear 31 1016 29 10000 3.1 250 19:18 01.07.2019
5614 Clear 31 1016 29 10000 5.7 250 18:42 01.07.2019
5615 Clear 32 1016 31 10000 3.6 260 18:21 01.07.2019
5616 Clear 32 1016 30 10000 4.6 250 17:45 01.07.2019
5617 Clear 32 1016 30 10000 4.6 250 17:25 01.07.2019
5618 Clear 32 1017 33 10000 4.1 250 16:57 01.07.2019
5619 Clear 32 1017 33 10000 4.1 250 16:39 01.07.2019
5620 Clear 33 1016 34 10000 4.6 240 16:20 01.07.2019
5621 Clear 33 1017 29 10000 3.6 260 15:43 01.07.2019
5622 Clear 32 1017 32 10000 4.1 240 15:22 01.07.2019
5623 Clear 32 1018 33 10000 3.1 0 14:44 01.07.2019
5624 Clear 32 1017 34 10000 2.1 230 14:20 01.07.2019
5625 Clear 32 1018 36 10000 3.6 230 13:47 01.07.2019
5626 Clear 32 1017 32 10000 2.1 160 13:24 01.07.2019
5627 Clear 32 1018 31 10000 1.5 0 12:56 01.07.2019
5628 Clear 31 1018 31 10000 1.5 0 12:37 01.07.2019
5629 Clear 31 1018 33 10000 1.5 0 12:19 01.07.2019
5630 Clear 30 1018 33 10000 1.5 0 11:43 01.07.2019
5631 Clear 30 1018 38 10000 1.5 0 11:22 01.07.2019
5632 Clear 30 1018 37 10000 1.5 0 10:48 01.07.2019
5633 Clear 29 1018 42 10000 1.5 0 10:24 01.07.2019
5634 Clear 28 1019 37 10000 1 0 09:58 01.07.2019
5635 Clear 28 1019 37 10000 1 0 09:40 01.07.2019
5636 Clear 27 1018 57 10000 1.5 0 09:21 01.07.2019
5637 Clear 25 1018 41 10000 1 0 08:38 01.07.2019
5638 Clear 24 1018 41 10000 1 0 07:57 01.07.2019
5639 Clear 22 1018 49 10000 1 0 07:28 01.07.2019
5640 Clear 21 1018 52 10000 2.1 20 06:27 01.07.2019
5641 Clear 22 1019 40 10000 2.1 70 02:21 01.07.2019
5642 Clear 22 1019 46 10000 1.5 100 00:49 01.07.2019
5643 Clear 23 1019 49 10000 1 100 00:29 01.07.2019
5644 Clear 23 1019 47 10000 2.6 80 23:56 30.06.2019
5645 Clear 23 1019 47 10000 2.1 100 23:22 30.06.2019
5646 Clear 24 1019 47 10000 1.5 100 22:52 30.06.2019
5647 Clear 24 1019 41 10000 2.1 120 22:21 30.06.2019
5648 Clear 25 1018 36 10000 1 210 21:42 30.06.2019
5649 Clear 27 1018 32 10000 1.5 210 21:22 30.06.2019
5650 Clear 28 1018 32 10000 1.5 210 20:57 30.06.2019
5651 Clear 28 1018 32 10000 1.5 210 20:39 30.06.2019
5652 Clear 29 1018 33 10000 2.6 240 20:21 30.06.2019
5653 Clear 29 1018 30 10000 3.1 240 19:44 30.06.2019
5654 Clear 30 1018 35 10000 4.1 250 19:25 30.06.2019
5655 Clear 30 1018 35 10000 4.1 250 19:25 30.06.2019
5656 Clear 30 1018 27 10000 3.1 220 18:39 30.06.2019
5657 Clear 31 1017 31 10000 4.1 220 18:20 30.06.2019
5658 Clear 31 1018 31 10000 4.1 210 17:39 30.06.2019
5659 Clear 31 1018 31 10000 4.6 250 17:18 30.06.2019
5660 Clear 31 1018 31 10000 4.6 250 17:18 30.06.2019
5661 Clear 32 1019 29 10000 3.6 220 16:49 30.06.2019
5662 Clear 32 1018 32 10000 4.1 230 16:31 30.06.2019
5663 Clear 32 1018 29 10000 4.1 240 15:38 30.06.2019
5664 Clear 32 1018 34 10000 4.6 230 15:19 30.06.2019
5665 Clear 32 1018 34 10000 4.6 230 15:19 30.06.2019
5666 Clear 32 1018 31 10000 4.1 250 14:55 30.06.2019
5667 Clear 32 1018 31 10000 4.1 250 14:36 30.06.2019
5668 Clear 32 1018 31 10000 2.1 0 13:57 30.06.2019
5669 Clear 32 1018 31 10000 2.1 0 13:37 30.06.2019
5670 Clear 32 1018 25 10000 2.1 0 13:18 30.06.2019
5671 Clear 31 1019 25 10000 2.6 0 12:42 30.06.2019
5672 Clear 30 1018 29 10000 1 0 12:20 30.06.2019
5673 Clear 30 1019 27 10000 3.1 200 11:45 30.06.2019
5674 Clear 30 1019 29 10000 1 0 11:21 30.06.2019
5675 Clear 30 1019 29 10000 1 0 11:21 30.06.2019
5676 Clear 30 1018 30 10000 1.5 40 10:55 30.06.2019
5677 Clear 30 1018 30 10000 1.5 40 10:55 30.06.2019
5678 Clear 29 1018 42 10000 2.1 360 10:36 30.06.2019
5679 Clear 28 1018 42 10000 2.1 360 10:18 30.06.2019
5680 Clear 28 1018 39 10000 3.1 20 09:43 30.06.2019
5681 Clear 26 1018 53 10000 2.1 350 09:21 30.06.2019
5682 Clear 25 1018 53 10000 2.6 20 08:40 30.06.2019
5683 Clear 24 1018 68 10000 1.5 0 08:22 30.06.2019
5684 Clear 23 1018 56 10000 1.5 20 07:51 30.06.2019
5685 Clear 22 1018 49 10000 0.5 0 07:26 30.06.2019
5686 Clear 21 1017 60 10000 1 90 06:37 30.06.2019
5687 Clear 21 1016 68 10000 1 170 03:34 30.06.2019
5688 Clear 22 1016 73 10000 3.1 70 02:27 30.06.2019
5689 Clear 23 1016 60 10000 0.5 0 01:23 30.06.2019
5690 Clear 23 1016 57 10000 2.1 120 00:24 30.06.2019
5691 Clear 23 1016 60 10000 2.6 130 23:53 29.06.2019
5692 Clear 24 1016 57 10000 1.5 140 23:23 29.06.2019
5693 Clear 24 1016 50 10000 2.1 160 22:52 29.06.2019
5694 Clear 24 1016 50 10000 2.6 150 22:25 29.06.2019
5695 Clear 25 1015 54 10000 2.6 170 21:56 29.06.2019
5696 Clear 26 1015 54 10000 2.6 170 21:38 29.06.2019
5697 Clear 27 1015 47 10000 2.6 180 21:19 29.06.2019
5698 Clear 28 1016 45 10000 3.6 190 20:36 29.06.2019
5699 Clear 29 1014 45 10000 3.1 190 20:18 29.06.2019
5700 Clear 29 1015 51 10000 4.1 200 19:43 29.06.2019
5701 Clear 29 1014 38 10000 4.6 200 19:22 29.06.2019
5702 Clear 30 1015 51 10000 4.1 210 18:48 29.06.2019
5703 Clear 31 1015 45 10000 4.6 210 18:25 29.06.2019
5704 Clear 31 1015 45 10000 4.6 200 17:40 29.06.2019
5705 Clear 32 1015 43 10000 5.1 200 17:21 29.06.2019
5706 Clear 32 1015 40 10000 5.1 180 16:45 29.06.2019
5707 Clear 33 1014 23 10000 3.6 360 16:25 29.06.2019
5708 Clear 33 1014 19 10000 2.6 30 15:34 29.06.2019
5709 Clear 33 1014 19 10000 3.6 50 14:59 29.06.2019
5710 Clear 33 1014 19 10000 3.6 50 14:41 29.06.2019
5711 Clear 33 1014 25 10000 3.6 360 14:23 29.06.2019
5712 Clear 33 1015 21 10000 5.1 40 13:44 29.06.2019
5713 Clear 33 1015 25 10000 4.1 360 13:25 29.06.2019
5714 Clear 33 1015 21 10000 6.2 30 12:43 29.06.2019
5715 Clear 32 1015 28 10000 3.1 0 12:24 29.06.2019
5716 Clear 32 1015 24 10000 4.1 20 11:48 29.06.2019
5717 Clear 32 1015 29 10000 4.6 30 11:29 29.06.2019
5718 Clear 31 1015 25 10000 4.1 10 10:52 29.06.2019
5719 Clear 30 1015 31 10000 5.1 10 10:29 29.06.2019
5720 Clear 30 1015 30 10000 4.1 10 09:58 29.06.2019
5721 Clear 29 1015 35 10000 4.6 20 09:31 29.06.2019
5722 Clear 28 1015 32 10000 3.1 10 08:41 29.06.2019
5723 Clear 26 1014 50 10000 1 0 07:46 29.06.2019
5724 Clear 25 1014 44 10000 3.1 30 07:19 29.06.2019
5725 Clear 25 1014 44 10000 3.6 30 06:42 29.06.2019
5726 Clear 24 1014 50 10000 3.1 40 06:20 29.06.2019
5727 Clear 25 1014 50 10000 2.1 60 02:30 29.06.2019
5728 Clear 25 1014 65 10000 2.1 40 00:57 29.06.2019
5729 Clear 25 1014 47 10000 1.5 60 00:23 29.06.2019
5730 Clear 25 1014 83 10000 0.5 0 23:26 28.06.2019
5731 Clear 26 1014 78 10000 1 0 22:53 28.06.2019
5732 Clear 26 1014 78 10000 1 0 22:33 28.06.2019
5733 Clear 27 1013 74 10000 1.5 210 21:47 28.06.2019
5734 Clear 28 1013 69 10000 2.1 240 21:21 28.06.2019
5735 Clear 29 1013 62 10000 2.6 250 20:46 28.06.2019
5736 Clear 30 1012 29 10000 2.6 250 20:26 28.06.2019
5737 Clear 31 1013 23 10000 2.6 190 19:53 28.06.2019
5738 Clear 32 1012 34 10000 2.6 230 19:28 28.06.2019
5739 Clear 32 1013 21 10000 2.6 190 18:56 28.06.2019
5740 Clear 33 1013 21 10000 2.6 190 18:38 28.06.2019
5741 Clear 33 1012 26 10000 3.6 230 18:20 28.06.2019
5742 Clear 34 1012 27 10000 2.1 230 17:29 28.06.2019
5743 Clear 34 1013 28 10000 3.6 220 16:50 28.06.2019
5744 Clear 34 1013 28 10000 4.1 240 16:27 28.06.2019
5745 Clear 34 1013 28 10000 4.6 240 15:48 28.06.2019
5746 Clear 34 1013 28 10000 4.6 240 15:23 28.06.2019
5747 Clear 34 1013 28 10000 3.6 240 14:45 28.06.2019
5748 Clear 34 1013 25 10000 4.6 260 14:23 28.06.2019
5749 Clear 34 1013 26 10000 3.1 230 13:58 28.06.2019
5750 Clear 34 1013 26 10000 3.1 230 13:58 28.06.2019
5751 Clear 34 1013 26 10000 3.1 230 13:39 28.06.2019
5752 Clear 34 1013 29 10000 4.1 260 13:19 28.06.2019
5753 Clear 34 1013 30 10000 3.6 190 12:45 28.06.2019
5754 Clear 33 1014 36 10000 3.6 200 11:54 28.06.2019
5755 Clear 32 1013 34 10000 1.5 0 11:25 28.06.2019
5756 Clear 31 1014 40 10000 1 0 10:46 28.06.2019
5757 Clear 30 1014 43 10000 1.5 60 10:21 28.06.2019
5758 Clear 30 1014 48 10000 1.5 10 09:49 28.06.2019
5759 Clear 29 1014 61 10000 1.5 0 09:29 28.06.2019
5760 Clear 27 1014 51 10000 2.6 350 08:47 28.06.2019
5761 Clear 26 1014 73 10000 1.5 0 08:26 28.06.2019
5762 Clear 26 1014 51 10000 1.5 70 07:49 28.06.2019
5763 Clear 24 1014 50 10000 0.5 0 07:31 28.06.2019
5764 Clear 23 1014 57 10000 2.1 80 06:31 28.06.2019
5765 Clear 24 1014 57 10000 2.1 130 01:39 28.06.2019
5766 Clear 24 1015 50 10000 2.1 100 00:42 28.06.2019
5767 Clear 25 1015 50 10000 2.1 120 23:51 27.06.2019
5768 Clear 26 1015 50 10000 1.5 120 23:28 27.06.2019
5769 Clear 27 1015 44 10000 1.5 130 22:56 27.06.2019
5770 Clear 26 1015 44 10000 1.5 130 22:37 27.06.2019
5771 Clear 27 1015 39 10000 1 0 22:18 27.06.2019
5772 Clear 28 1015 37 10000 1.5 250 21:48 27.06.2019
5773 Clear 29 1015 37 10000 1 0 21:29 27.06.2019
5774 Clear 30 1015 33 10000 2.6 260 20:57 27.06.2019
5775 Clear 30 1015 33 10000 2.6 260 20:39 27.06.2019
5776 Clear 31 1014 32 10000 3.1 270 20:19 27.06.2019
5777 Clear 31 1015 29 10000 5.1 280 19:44 27.06.2019
5778 Clear 32 1014 28 10000 3.1 290 19:25 27.06.2019
5779 Clear 33 1015 29 10000 5.7 280 18:43 27.06.2019
5780 Clear 34 1014 30 10000 5.1 280 18:21 27.06.2019
5781 Clear 34 1016 33 10000 5.7 270 17:44 27.06.2019
5782 Clear 34 1015 30 10000 7.2 270 17:22 27.06.2019
5783 Clear 34 1015 30 10000 7.2 270 17:22 27.06.2019
5784 Clear 35 1016 30 10000 6.2 270 16:41 27.06.2019
5785 Clear 35 1015 29 10000 5.7 260 16:20 27.06.2019
5786 Clear 35 1017 30 10000 6.2 270 15:58 27.06.2019
5787 Clear 35 1017 30 10000 6.2 270 15:40 27.06.2019
5788 Clear 35 1017 32 10000 3.6 310 14:59 27.06.2019
5789 Clear 34 1017 32 10000 3.6 310 14:39 27.06.2019
5790 Clear 35 1017 27 10000 2.1 310 14:21 27.06.2019
5791 Clear 34 1018 25 10000 4.1 330 13:43 27.06.2019
5792 Clear 34 1017 25 10000 2.6 310 13:25 27.06.2019
5793 Clear 34 1017 49 10000 5.7 270 12:49 27.06.2019
5794 Clear 34 1018 32 10000 2.1 350 12:31 27.06.2019
5795 Clear 33 1018 38 10000 2.6 20 11:48 27.06.2019
5796 Clear 32 1018 38 10000 2.6 10 11:24 27.06.2019
5797 Clear 32 1019 40 10000 2.6 360 10:58 27.06.2019
5798 Clear 31 1019 40 10000 2.6 360 10:40 27.06.2019
5799 Clear 31 1019 48 10000 2.6 0 10:19 27.06.2019
5800 Clear 30 1019 45 10000 3.1 360 09:41 27.06.2019
5801 Clear 28 1019 58 10000 0.5 0 09:21 27.06.2019
5802 Clear 27 1019 50 10000 3.1 20 08:50 27.06.2019
5803 Clear 26 1019 65 10000 1 0 08:28 27.06.2019
5804 Clear 25 1019 57 10000 4.1 40 07:48 27.06.2019
5805 Clear 24 1019 60 10000 2.1 40 06:59 27.06.2019
5806 Clear 23 1019 60 10000 2.1 40 06:37 27.06.2019
5807 Clear 23 1019 53 10000 0.5 0 03:52 27.06.2019
5808 Clear 24 1019 50 10000 2.1 60 02:43 27.06.2019
5809 Clear 24 1019 53 10000 2.1 80 01:45 27.06.2019
5810 Clear 24 1020 53 10000 3.1 110 00:53 27.06.2019
5811 Clear 25 1019 53 10000 2.6 90 00:27 27.06.2019
5812 Clear 25 1020 53 10000 2.6 110 23:51 26.06.2019
5813 Clear 25 1020 57 10000 2.1 100 23:23 26.06.2019
5814 Clear 26 1019 61 10000 1.5 110 22:59 26.06.2019
5815 Clear 26 1019 61 10000 1.5 110 22:40 26.06.2019
5816 Clear 26 1019 61 10000 1.5 110 22:40 26.06.2019
5817 Clear 26 1019 54 10000 1.5 110 22:20 26.06.2019
5818 Clear 26 1019 54 10000 2.1 130 21:43 26.06.2019
5819 Clear 28 1019 51 10000 0.5 0 21:21 26.06.2019
5820 Clear 29 1019 45 10000 1 0 20:58 26.06.2019
5821 Clear 29 1019 45 10000 1 0 20:39 26.06.2019
5822 Clear 29 1019 45 10000 1 0 20:39 26.06.2019
5823 Clear 30 1019 45 10000 1 0 20:21 26.06.2019
5824 Clear 30 1019 48 10000 1.5 200 19:44 26.06.2019
5825 Clear 31 1018 38 10000 5.7 260 19:25 26.06.2019
5826 Clouds 31 1019 43 10000 2.6 250 18:48 26.06.2019
5827 Clear 32 1018 34 10000 6.7 240 18:23 26.06.2019
5828 Clear 32 1019 36 10000 4.1 260 17:58 26.06.2019
5829 Clear 32 1019 36 10000 4.1 260 17:38 26.06.2019
5830 Clouds 32 1018 34 10000 5.1 240 17:19 26.06.2019
5831 Clear 33 1019 34 10000 3.6 240 16:46 26.06.2019
5832 Clouds 33 1018 36 10000 4.6 250 16:23 26.06.2019
5833 Clouds 33 1019 32 10000 3.6 230 15:42 26.06.2019
5834 Clouds 33 1019 34 10000 2.6 220 15:23 26.06.2019
5835 Clouds 33 1019 34 10000 2.6 220 15:23 26.06.2019
5836 Clouds 33 1019 36 10000 3.6 200 14:38 26.06.2019
5837 Clouds 33 1019 34 10000 1 0 14:19 26.06.2019
5838 Clouds 33 1020 36 10000 1.5 0 13:44 26.06.2019
5839 Clear 33 1019 34 10000 1.5 0 13:20 26.06.2019
5840 Clear 32 1020 38 10000 1.5 40 12:42 26.06.2019
5841 -273 0 0 0 0 0 12:42 26.06.2019
5842 Clear 32 1020 38 10000 2.1 350 12:23 26.06.2019
5843 Clear 31 1020 43 10000 2.1 80 11:49 26.06.2019
5844 Clear 30 1020 43 10000 2.1 360 11:21 26.06.2019
5845 Clear 30 1020 42 10000 1.5 0 10:46 26.06.2019
5846 Clear 30 1020 48 10000 2.1 360 10:27 26.06.2019
5847 Clear 28 1020 54 10000 3.6 10 09:49 26.06.2019
5848 Clear 27 1020 61 10000 1.5 0 09:20 26.06.2019
5849 Clear 26 1020 61 10000 4.1 30 08:49 26.06.2019
5850 Clear 25 1020 64 10000 4.1 40 08:20 26.06.2019
5851 Clear 24 1020 64 10000 1 0 07:46 26.06.2019
5852 Clear 23 1020 73 10000 2.1 10 06:57 26.06.2019
5853 Clear 22 1020 69 10000 1.5 20 06:31 26.06.2019
5854 Clear 23 1020 69 10000 1 0 01:28 26.06.2019
5855 Clear 24 1020 64 10000 1.5 120 00:25 26.06.2019
5856 Clear 24 1020 61 10000 2.1 120 23:46 25.06.2019
5857 Clear 24 1020 57 10000 2.1 170 23:27 25.06.2019
5858 Clear 24 1020 61 10000 2.1 160 22:57 25.06.2019
5859 Clear 24 1020 61 10000 2.1 160 22:39 25.06.2019
5860 Clear 25 1019 61 10000 2.6 180 22:20 25.06.2019
5861 Clear 25 1019 57 10000 2.6 190 21:43 25.06.2019
5862 Clear 27 1019 54 10000 2.6 210 21:22 25.06.2019
5863 Clear 28 1019 48 10000 2.6 200 20:46 25.06.2019
5864 Clear 28 1019 48 10000 2.6 200 20:46 25.06.2019
5865 Clear 28 1018 51 10000 3.6 220 20:22 25.06.2019
5866 Clear 29 1019 45 10000 3.6 210 19:48 25.06.2019
5867 Clear 29 1018 45 10000 3.6 210 19:23 25.06.2019
5868 Clear 30 1019 45 10000 3.6 200 18:59 25.06.2019
5869 Clear 30 1019 45 10000 3.6 200 18:40 25.06.2019
5870 Clear 31 1018 46 10000 4.1 240 18:21 25.06.2019
5871 -273 0 0 0 0 0 17:32 25.06.2019
5872 -273 0 0 0 0 0 17:32 25.06.2019
5873 Clear 31 1019 43 10000 3.6 230 16:59 25.06.2019
5874 Clear 32 1019 43 10000 3.6 230 16:40 25.06.2019
5875 Clear 32 1018 41 10000 6.7 230 16:22 25.06.2019
5876 Clear 32 1019 40 10000 4.6 240 15:42 25.06.2019
5877 Clear 32 1018 38 10000 4.6 240 15:24 25.06.2019
5878 Clear 32 1018 40 10000 4.1 250 14:55 25.06.2019
5879 Clear 32 1018 34 10000 2.1 0 14:35 25.06.2019
5880 Clear 31 1019 35 10000 2.6 320 13:47 25.06.2019
5881 Clear 31 1019 35 10000 2.6 320 13:47 25.06.2019
5882 Clear 31 1019 35 10000 2.6 0 13:29 25.06.2019
5883 Clear 31 1019 40 10000 2.1 0 12:58 25.06.2019
5884 Clear 30 1019 40 10000 2.1 0 12:38 25.06.2019
5885 Clear 30 1019 38 10000 1.5 0 12:20 25.06.2019
5886 Clear 29 1019 45 10000 3.1 290 11:44 25.06.2019
5887 Clear 29 1019 43 10000 1 0 11:21 25.06.2019
5888 Clear 29 1019 45 10000 1.5 300 10:45 25.06.2019
5889 Clear 28 1019 48 10000 1.5 0 10:23 25.06.2019
5890 Clear 27 1019 50 10000 2.1 20 09:56 25.06.2019
5891 Clear 27 1019 50 10000 2.1 20 09:38 25.06.2019
5892 Clear 26 1019 54 10000 2.1 20 09:19 25.06.2019
5893 Clear 25 1019 57 10000 2.1 10 08:47 25.06.2019
5894 Clear 24 1018 61 10000 1 0 08:28 25.06.2019
5895 Clear 23 1018 64 10000 3.1 0 07:40 25.06.2019
5896 Clear 22 1018 64 10000 3.1 20 06:58 25.06.2019
5897 Clear 22 1018 64 10000 3.1 20 06:40 25.06.2019
5898 Clear 22 1018 64 10000 0.5 0 02:48 25.06.2019
5899 Clear 23 1017 64 10000 1.5 70 01:50 25.06.2019
5900 Clear 23 1017 60 10000 1.5 130 00:37 25.06.2019
5901 Clear 23 1017 54 10000 1.5 150 23:59 24.06.2019
5902 Clear 23 1017 54 10000 1.5 150 23:40 24.06.2019
5903 Clear 24 1017 45 10000 4.6 360 23:22 24.06.2019
5904 Clear 25 1017 47 10000 2.6 10 22:41 24.06.2019
5905 Clear 25 1017 61 10000 1.5 80 22:19 24.06.2019
5906 Clear 26 1016 58 10000 1.5 220 21:39 24.06.2019
5907 Clear 27 1016 58 10000 1.5 220 21:19 24.06.2019
5908 Clear 28 1016 51 10000 1.5 210 20:57 24.06.2019
5909 Clear 28 1016 51 10000 1.5 210 20:39 24.06.2019
5910 Clear 29 1015 40 10000 3.1 330 20:20 24.06.2019
5911 Clear 28 1016 45 10000 2.6 210 19:46 24.06.2019
5912 Clear 29 1016 45 10000 2.6 230 19:21 24.06.2019
5913 Clear 29 1016 40 10000 3.6 240 18:47 24.06.2019
5914 Clear 30 1016 48 10000 3.6 240 18:27 24.06.2019
5915 Clear 31 1016 43 10000 3.1 240 17:47 24.06.2019
5916 Clear 30 1015 43 10000 5.1 230 17:27 24.06.2019
5917 Clear 31 1016 45 10000 3.6 220 16:48 24.06.2019
5918 Clear 31 1015 38 10000 4.1 260 16:21 24.06.2019
5919 Clear 31 1016 48 10000 4.1 220 15:57 24.06.2019
5920 Clear 31 1016 48 10000 4.1 220 15:38 24.06.2019
5921 Clear 30 1016 48 10000 4.6 220 15:19 24.06.2019
5922 Clear 30 1016 31 10000 2.6 290 14:33 24.06.2019
5923 Clear 30 1016 35 10000 2.6 270 13:49 24.06.2019
5924 Clear 30 1016 40 10000 2.1 300 13:24 24.06.2019
5925 Clear 30 1016 42 10000 1.5 0 12:44 24.06.2019
5926 Clear 29 1016 40 10000 1 0 12:22 24.06.2019
5927 Clear 28 1016 45 10000 1.5 0 11:55 24.06.2019
5928 Clear 28 1016 45 10000 1.5 0 11:37 24.06.2019
5929 Clear 28 1016 48 10000 1.5 0 11:18 24.06.2019
5930 Clear 28 1016 54 10000 1.5 310 10:41 24.06.2019
5931 Clear 27 1016 54 10000 2.1 360 10:20 24.06.2019
5932 Clear 26 1016 61 10000 1.5 0 09:48 24.06.2019
5933 Clear 25 1016 65 10000 3.6 20 09:19 24.06.2019
5934 Clear 24 1016 69 10000 2.1 20 08:51 24.06.2019
5935 Clear 24 1016 73 10000 2.6 10 08:22 24.06.2019
5936 Clear 23 1016 68 10000 1.5 350 07:44 24.06.2019
5937 Clear 21 1016 68 10000 0.5 0 07:24 24.06.2019
5938 Clear 20 1016 77 10000 0.5 0 06:27 24.06.2019
5939 Clear 20 1015 77 10000 0.5 0 05:56 24.06.2019
5940 Clear 20 1016 77 10000 1.5 120 04:59 24.06.2019
5941 Clear 20 1016 73 10000 1 20 03:57 24.06.2019
5942 Clear 20 1015 73 10000 1.5 100 02:52 24.06.2019
5943 Clear 21 1016 64 10000 1 0 01:55 24.06.2019
5944 Clear 21 1015 68 10000 1 40 01:36 24.06.2019
5945 Clear 21 1015 64 10000 1.5 110 00:55 24.06.2019
5946 Clear 22 1015 60 10000 0.5 0 00:37 24.06.2019
5947 Clear 22 1015 60 10000 0.5 0 00:18 24.06.2019
5948 Clear 22 1015 60 10000 1 120 23:41 23.06.2019
5949 Clear 22 1015 60 10000 2.1 100 23:20 23.06.2019
5950 Clear 23 1015 73 10000 1 0 22:42 23.06.2019
5951 Clear 23 1015 69 10000 1 0 22:20 23.06.2019
5952 Clear 24 1014 69 10000 1.5 200 21:43 23.06.2019
5953 Clear 25 1014 61 10000 1 0 21:25 23.06.2019
5954 Clear 25 1014 57 10000 2.1 240 20:52 23.06.2019
5955 Clear 26 1013 51 10000 3.1 210 20:32 23.06.2019
5956 Clear 27 1014 48 10000 3.1 250 19:58 23.06.2019
5957 Clear 27 1014 48 10000 3.1 250 19:57 23.06.2019
5958 Clear 27 1014 48 10000 3.1 250 19:39 23.06.2019
5959 Clear 28 1013 37 10000 4.1 230 19:19 23.06.2019
5960 Clear 28 1014 51 10000 3.1 250 18:44 23.06.2019
5961 Clear 29 1013 43 10000 4.1 250 18:20 23.06.2019
5962 Clear 29 1014 48 10000 3.6 240 17:44 23.06.2019
5963 Clear 29 1013 43 10000 4.1 260 17:24 23.06.2019
5964 Clear 29 1014 48 10000 4.1 250 16:46 23.06.2019
5965 Clear 29 1013 52 10000 6.2 250 16:25 23.06.2019
5966 Clouds 30 1014 48 10000 4.1 250 15:55 23.06.2019
5967 Clouds 29 1014 48 10000 4.1 250 15:37 23.06.2019
5968 Clouds 29 1013 52 10000 3.1 240 15:18 23.06.2019
5969 Clouds 29 1014 54 10000 2.6 0 14:38 23.06.2019
5970 Clouds 28 1014 55 10000 3.6 230 14:20 23.06.2019
5971 Clouds 29 1014 54 10000 2.6 0 13:43 23.06.2019
5972 Clear 29 1014 45 10000 2.6 250 13:21 23.06.2019
5973 Clouds 29 1014 54 10000 2.1 0 12:59 23.06.2019
5974 Clouds 28 1014 54 10000 2.1 0 12:40 23.06.2019
5975 Clouds 28 1014 51 10000 1 0 12:19 23.06.2019
5976 Clouds 28 1014 51 10000 1 0 12:19 23.06.2019
5977 Clear 27 1014 54 10000 2.1 0 11:46 23.06.2019
5978 Clear 27 1014 58 10000 1.5 0 11:27 23.06.2019
5979 Clear 26 1014 61 10000 1.5 90 10:49 23.06.2019
5980 Clear 26 1014 61 10000 1.5 0 10:21 23.06.2019
5981 Clear 25 1014 64 10000 2.1 340 09:58 23.06.2019
5982 Clear 24 1014 73 10000 1.5 0 09:22 23.06.2019
5983 Clear 23 1014 69 10000 1.5 350 08:47 23.06.2019
5984 Clear 23 1014 69 10000 1.5 350 08:28 23.06.2019
5985 Clear 22 1013 77 10000 1 20 07:57 23.06.2019
5986 Clear 22 1013 73 10000 1.5 0 07:39 23.06.2019
5987 Clear 20 1013 73 10000 1.5 0 07:18 23.06.2019
5988 Fog 19 1013 77 10000 1 0 06:46 23.06.2019
5989 Clear 18 1013 82 10000 1.5 90 05:44 23.06.2019
5990 Clear 20 1013 82 10000 1 0 02:51 23.06.2019
5991 Clear 21 1013 78 10000 1 0 01:39 23.06.2019
5992 Clear 21 1013 73 10000 1.5 160 00:58 23.06.2019
5993 Clear 22 1013 73 10000 2.6 180 00:27 23.06.2019
5994 Clear 23 1013 64 10000 2.6 190 23:44 22.06.2019
5995 Clear 23 1013 57 10000 2.6 200 23:25 22.06.2019
5996 Clear 22 1013 53 10000 3.1 180 22:47 22.06.2019
5997 Clear 24 1013 47 10000 3.1 180 22:26 22.06.2019
5998 Clear 24 1013 41 10000 3.1 190 21:45 22.06.2019
5999 Clear 25 1012 36 10000 3.6 180 21:20 22.06.2019
6000 Clear 26 1012 32 10000 3.6 180 20:57 22.06.2019
6001 Clear 26 1012 32 10000 3.6 180 20:38 22.06.2019
6002 Clear 27 1012 35 10000 4.1 200 20:20 22.06.2019
6003 Clear 27 1012 30 10000 5.1 170 19:40 22.06.2019
6004 Clear 28 1012 37 10000 4.1 200 19:20 22.06.2019
6005 Clear 28 1012 31 10000 5.1 180 18:42 22.06.2019
6006 Clear 29 1012 31 10000 6.2 210 18:22 22.06.2019
6007 Clear 29 1013 35 10000 5.7 160 17:44 22.06.2019
6008 Clear 29 1013 35 10000 5.1 170 17:25 22.06.2019
6009 Clear 30 1013 33 10000 6.2 150 16:43 22.06.2019
6010 Clear 29 1013 40 10000 5.1 140 16:24 22.06.2019
6011 Clear 29 1015 48 10000 4.6 120 15:45 22.06.2019
6012 Clear 28 1015 54 10000 3.6 170 15:27 22.06.2019
6013 Clear 28 1015 54 10000 3.6 170 15:27 22.06.2019
6014 Clouds 28 1016 65 9000 4.1 190 14:52 22.06.2019
6015 Clouds 28 1015 62 10000 7.2 240 14:32 22.06.2019
6016 Clear 27 1016 58 10000 7.2 260 13:57 22.06.2019
6017 Clear 28 1016 58 10000 7.2 260 13:39 22.06.2019
6018 Clear 28 1014 45 10000 7.7 260 13:18 22.06.2019
6019 Clouds 29 1013 40 9000 3.6 90 12:43 22.06.2019
6020 Clear 29 1013 38 10000 4.1 110 12:20 22.06.2019
6021 Clear 28 1012 42 10000 6.2 90 11:41 22.06.2019
6022 Clouds 27 1012 40 10000 3.1 110 11:19 22.06.2019
6023 Rain 25 1013 54 10000 6.7 120 10:22 22.06.2019
6024 Rain 25 1012 34 9000 6.2 130 09:58 22.06.2019
6025 Clouds 24 1014 50 10000 2.6 140 09:35 22.06.2019
6026 Rain 24 1012 34 9000 6.2 130 09:35 22.06.2019
6027 Rain 23 1014 53 9000 10.8 150 08:48 22.06.2019
6028 Drizzle 23 1013 54 9000 4.6 90 08:29 22.06.2019
6029 Clouds 23 1015 65 9000 6.2 180 07:52 22.06.2019
6030 Clouds 22 1017 64 10000 4.1 110 07:23 22.06.2019
6031 Drizzle 22 1015 73 10000 3.1 160 06:40 22.06.2019
6032 Clear 21 1015 53 10000 2.1 110 03:42 22.06.2019
6033 Clear 21 1015 68 10000 2.6 120 02:24 22.06.2019
6034 Clear 22 1016 64 10000 2.1 90 00:52 22.06.2019
6035 Clear 22 1015 60 10000 1.5 130 00:29 22.06.2019
6036 Clear 22 1015 60 10000 1 0 23:49 21.06.2019
6037 Clear 23 1015 57 10000 1.5 210 23:23 21.06.2019
6038 Clear 23 1014 57 10000 1.5 150 22:56 21.06.2019
6039 Clear 23 1014 53 10000 2.6 190 22:32 21.06.2019
6040 Clear 24 1014 65 10000 1.5 170 21:58 21.06.2019
6041 Clear 24 1014 50 10000 2.6 200 21:38 21.06.2019
6042 Clear 25 1014 50 10000 2.1 200 21:19 21.06.2019
6043 Clear 26 1014 51 10000 2.6 170 20:47 21.06.2019
6044 Clear 27 1013 51 10000 2.1 210 20:25 21.06.2019
6045 Clear 27 1014 51 10000 2.6 200 19:45 21.06.2019
6046 Clear 28 1015 48 10000 2.1 230 18:59 21.06.2019
6047 Clear 28 1015 48 10000 2.1 230 18:35 21.06.2019
6048 Clear 29 1015 42 10000 4.1 240 17:58 21.06.2019
6049 Clear 30 1014 38 10000 4.1 240 17:30 21.06.2019
6050 Clear 30 1014 40 10000 3.6 190 16:43 21.06.2019
6051 Clear 30 1014 38 10000 3.6 250 16:23 21.06.2019
6052 -273 0 0 0 0 0 15:58 21.06.2019
6053 Clear 30 1015 40 10000 3.6 180 15:36 21.06.2019
6054 Clear 30 1016 40 10000 3.6 210 14:54 21.06.2019
6055 Clear 30 1015 35 10000 3.6 230 14:32 21.06.2019
6056 Clear 30 1015 42 10000 3.6 200 13:59 21.06.2019
6057 Clear 30 1015 42 10000 3.6 200 13:37 21.06.2019
6058 Clear 30 1015 40 10000 2.1 190 13:19 21.06.2019
6059 Clear 29 1016 42 10000 2.6 240 12:42 21.06.2019
6060 Clear 29 1016 33 10000 1.5 0 12:22 21.06.2019
6061 Clear 29 1016 28 10000 1.5 0 11:48 21.06.2019
6062 Clear 29 1015 37 10000 1 0 11:28 21.06.2019
6063 Clear 28 1015 32 10000 1.5 0 10:56 21.06.2019
6064 Clear 27 1015 32 10000 1.5 0 10:38 21.06.2019
6065 Clear 27 1015 37 10000 2.6 10 10:20 21.06.2019
6066 Clear 26 1015 44 10000 2.1 20 09:42 21.06.2019
6067 Clear 24 1015 64 10000 2.6 360 09:21 21.06.2019
6068 Clear 23 1015 46 10000 2.6 10 08:45 21.06.2019
6069 Clear 22 1016 73 10000 2.1 350 08:27 21.06.2019
6070 Clear 22 1016 73 10000 2.1 350 08:27 21.06.2019
6071 Clear 22 1015 49 10000 1.5 60 07:56 21.06.2019
6072 Clear 21 1015 49 10000 1.5 60 07:38 21.06.2019
6073 Clear 20 1015 63 10000 2.1 120 06:59 21.06.2019
6074 Clear 18 1016 59 10000 1 0 06:24 21.06.2019
6075 Clear 18 1015 49 10000 1 0 05:33 21.06.2019
6076 Clear 19 1015 43 10000 3.6 80 04:35 21.06.2019
6077 Clear 19 1015 46 10000 3.1 80 03:35 21.06.2019
6078 Clear 19 1015 52 10000 2.6 80 02:58 21.06.2019
6079 Clear 19 1015 49 10000 2.1 80 01:59 21.06.2019
6080 Clear 19 1015 52 10000 1.5 80 01:25 21.06.2019
6081 Clear 20 1015 56 10000 2.1 90 00:27 21.06.2019
6082 Clear 20 1015 60 10000 2.6 80 23:53 20.06.2019
6083 Clear 21 1015 64 10000 1.5 90 23:24 20.06.2019
6084 Clear 21 1015 83 10000 1 0 22:58 20.06.2019
6085 Clear 22 1015 83 10000 1 0 22:40 20.06.2019
6086 Clear 22 1015 60 10000 0.5 0 22:21 20.06.2019
6087 Clear 23 1015 57 10000 1 0 21:52 20.06.2019
6088 Clear 24 1014 57 10000 1 0 21:20 20.06.2019
6089 Clear 25 1014 50 10000 1.5 240 20:59 20.06.2019
6090 Clear 25 1014 50 10000 1.5 240 20:40 20.06.2019
6091 Clear 26 1014 47 10000 2.6 240 20:20 20.06.2019
6092 Clear 26 1014 44 10000 2.6 220 19:43 20.06.2019
6093 Clear 27 1013 37 10000 5.1 240 19:19 20.06.2019
6094 Clear 27 1013 54 10000 5.1 260 18:55 20.06.2019
6095 Clear 27 1013 35 10000 4.1 250 18:37 20.06.2019
6096 Clear 28 1013 35 10000 4.1 250 18:18 20.06.2019
6097 Clear 29 1014 35 10000 3.6 230 17:43 20.06.2019
6098 Clear 29 1013 33 10000 6.2 240 17:19 20.06.2019
6099 Clear 30 1013 35 10000 3.6 230 16:40 20.06.2019
6100 Clear 30 1013 35 10000 4.6 250 16:19 20.06.2019
6101 Clear 30 1013 40 10000 4.1 250 15:43 20.06.2019
6102 Clear 30 1013 38 10000 2.6 210 15:23 20.06.2019
6103 Clear 30 1014 45 10000 3.1 290 14:54 20.06.2019
6104 Clear 30 1014 45 10000 3.1 290 14:36 20.06.2019
6105 Clear 30 1014 35 10000 3.1 270 14:18 20.06.2019
6106 Clear 29 1014 37 10000 1.5 0 13:38 20.06.2019
6107 Clear 29 1014 35 10000 2.6 320 13:18 20.06.2019
6108 Clear 29 1015 37 10000 2.6 250 12:41 20.06.2019
6109 Clear 28 1014 42 10000 1.5 0 12:21 20.06.2019
6110 Clear 27 1015 45 10000 2.1 0 11:41 20.06.2019
6111 Clear 27 1015 48 10000 1.5 0 11:22 20.06.2019
6112 Clear 27 1015 48 10000 1.5 0 11:22 20.06.2019
6113 Clear 26 1015 51 10000 2.1 260 10:44 20.06.2019
6114 Clear 26 1014 61 10000 3.01 226.765 10:24 20.06.2019
6115 Clear 25 1015 57 10000 1.5 0 09:55 20.06.2019
6116 -273 0 0 0 0 0 09:37 20.06.2019
6117 Clear 24 1015 78 10000 1.5 0 09:37 20.06.2019
6118 Clear 24 1015 78 10000 1.5 0 09:18 20.06.2019
6119 Clear 23 1014 64 10000 2.1 320 08:43 20.06.2019
6120 Clear 22 1014 83 10000 1.5 0 08:22 20.06.2019
6121 Mist 21 1014 73 10000 1 0 07:44 20.06.2019
6122 Mist 20 1014 72 10000 1.5 70 07:25 20.06.2019
6123 Mist 18 1014 77 10000 1.5 100 06:19 20.06.2019
6124 Fog 18 1013 100 8000 1 60 03:40 20.06.2019
6125 Clear 19 1014 94 10000 2.6 280 01:56 20.06.2019
6126 Clear 20 1015 88 10000 1.5 150 00:33 20.06.2019
6127 Clear 21 1015 83 10000 1 0 23:45 19.06.2019
6128 Clear 21 1014 83 10000 2.1 210 23:27 19.06.2019
6129 Clear 22 1014 73 10000 2.1 190 22:49 19.06.2019
6130 Clear 22 1014 69 10000 1.5 190 22:24 19.06.2019
6131 Clear 23 1014 64 10000 1.5 200 21:58 19.06.2019
6132 Clear 23 1014 64 10000 1.5 200 21:37 19.06.2019
6133 Clear 24 1014 61 10000 1.5 210 21:19 19.06.2019
6134 Clear 25 1013 57 10000 1.5 220 20:40 19.06.2019
6135 Clear 26 1013 54 10000 2.6 230 20:21 19.06.2019
6136 Clear 26 1013 51 10000 2.6 220 19:45 19.06.2019
6137 Clear 27 1013 48 10000 2.6 220 19:26 19.06.2019
6138 Clear 27 1013 51 10000 2.6 250 18:56 19.06.2019
6139 Clear 28 1013 45 10000 3.6 230 18:24 19.06.2019
6140 -273 0 0 0 0 0 17:44 19.06.2019
6141 Clear 28 1013 45 10000 5.1 240 17:25 19.06.2019
6142 Clear 28 1014 48 10000 3.6 240 16:56 19.06.2019
6143 Clear 29 1013 35 10000 5.1 260 16:36 19.06.2019
6144 Clear 29 1013 35 10000 5.1 260 16:18 19.06.2019
6145 Clear 29 1014 45 10000 3.6 230 15:42 19.06.2019
6146 Clear 29 1014 40 10000 4.6 270 15:22 19.06.2019
6147 Clear 28 1014 48 10000 3.6 230 14:43 19.06.2019
6148 Clear 28 1014 48 10000 3.6 230 14:43 19.06.2019
6149 Clear 28 1014 43 10000 4.6 240 14:24 19.06.2019
6150 Clear 28 1015 51 10000 3.1 220 13:47 19.06.2019
6151 Clear 28 1014 48 10000 4.6 240 13:28 19.06.2019
6152 Clouds 28 1014 54 10000 3.1 260 12:57 19.06.2019
6153 Clouds 28 1014 54 10000 3.1 260 12:39 19.06.2019
6154 Clear 27 1014 54 10000 2.6 210 12:18 19.06.2019
6155 Clear 27 1014 54 10000 2.1 270 11:40 19.06.2019
6156 Clear 26 1014 58 10000 2.1 210 11:21 19.06.2019
6157 Clear 26 1014 57 10000 1.5 170 10:49 19.06.2019
6158 Clear 26 1014 65 10000 1.5 0 10:28 19.06.2019
6159 Clear 24 1014 61 10000 2.1 210 09:56 19.06.2019
6160 Clear 24 1014 61 10000 2.1 210 09:37 19.06.2019
6161 Clear 24 1014 73 10000 1.5 0 09:18 19.06.2019
6162 Mist 23 1014 69 10000 2.6 220 08:43 19.06.2019
6163 Fog 22 1014 83 10000 1 0 08:25 19.06.2019
6164 Fog 21 1014 77 10000 0.5 0 07:43 19.06.2019
6165 Fog 20 1014 77 10000 0.5 110 07:23 19.06.2019
6166 Fog 19 1014 82 10000 0.5 60 06:42 19.06.2019
6167 Fog 19 1014 82 10000 1 170 06:19 19.06.2019
6168 Fog 19 1014 77 10000 0.5 0 05:32 19.06.2019
6169 Fog 19 1013 93 3000 1.5 70 03:54 19.06.2019
6170 Fog 19 1014 77 10000 1.5 110 02:51 19.06.2019
6171 Clear 20 1014 72 10000 1 100 01:41 19.06.2019
6172 Clear 20 1015 73 10000 1 0 00:55 19.06.2019
6173 Clear 20 1015 73 10000 1 0 00:36 19.06.2019
6174 Clear 21 1015 68 10000 1 0 00:18 19.06.2019
6175 Clear 21 1015 68 10000 1 0 23:42 18.06.2019
6176 Clear 22 1015 64 10000 1 0 23:23 18.06.2019
6177 Clear 22 1015 64 10000 1.5 110 22:41 18.06.2019
6178 Clear 22 1014 60 10000 0.5 0 22:22 18.06.2019
6179 Clear 23 1014 57 10000 0.5 0 21:44 18.06.2019
6180 Thunderstorm 24 1014 57 10000 1.5 240 21:23 18.06.2019
6181 Thunderstorm 24 1014 57 10000 1.5 240 21:23 18.06.2019
6182 Thunderstorm 24 1014 50 10000 1.5 240 20:59 18.06.2019
6183 Thunderstorm 25 1014 50 10000 1.5 240 20:40 18.06.2019
6184 Thunderstorm 25 1014 31 10000 2.6 230 20:21 18.06.2019
6185 Clear 26 1014 44 10000 2.6 260 19:39 18.06.2019
6186 Clear 27 1013 48 10000 2.6 230 19:21 18.06.2019
6187 Clear 27 1014 47 10000 2.6 240 18:51 18.06.2019
6188 Clear 27 1013 51 10000 3.6 210 18:25 18.06.2019
6189 Clear 27 1014 48 10000 3.6 250 17:49 18.06.2019
6190 Clear 28 1013 51 10000 4.1 240 17:23 18.06.2019
6191 Thunderstorm 28 1014 42 10000 3.6 210 16:58 18.06.2019
6192 Thunderstorm 28 1014 42 10000 3.6 210 16:40 18.06.2019
6193 Thunderstorm 28 1014 51 10000 4.6 230 16:21 18.06.2019
6194 Clear 28 1014 42 10000 4.1 200 15:41 18.06.2019
6195 Clear 28 1014 45 10000 4.6 220 15:22 18.06.2019
6196 Clear 29 1014 45 10000 4.6 220 14:56 18.06.2019
6197 Clear 29 1014 45 10000 4.6 220 14:37 18.06.2019
6198 Clouds 29 1014 35 10000 1 0 14:18 18.06.2019
6199 Clouds 29 1014 51 10000 3.6 220 13:46 18.06.2019
6200 Clear 29 1014 35 10000 3.64 243.548 13:28 18.06.2019
6201 Clouds 28 1014 42 10000 1 0 12:46 18.06.2019
6202 Clouds 28 1014 42 10000 1 0 12:46 18.06.2019
6203 Clear 28 1014 45 10000 2.66 212.621 12:27 18.06.2019
6204 Clear 28 1014 45 10000 1.5 310 11:50 18.06.2019
6205 Clear 27 1014 54 10000 1 0 11:23 18.06.2019
6206 Clear 27 1014 54 10000 2.6 20 10:58 18.06.2019
6207 Clear 27 1014 54 10000 2.6 20 10:39 18.06.2019
6208 Clear 26 1014 65 10000 1.5 0 10:20 18.06.2019
6209 Clear 24 1015 64 10000 1.5 30 09:51 18.06.2019
6210 Clear 24 1015 73 10000 2.1 350 09:24 18.06.2019
6211 Clear 23 1015 73 10000 2.1 10 08:49 18.06.2019
6212 Clear 22 1014 83 10000 1 0 08:22 18.06.2019
6213 Fog 21 1014 73 10000 0.5 0 07:46 18.06.2019
6214 Fog 20 1014 77 10000 0.5 0 07:24 18.06.2019
6215 Mist 19 1014 88 10000 2.1 120 06:52 18.06.2019
6216 Clouds 18 1013 93 10000 0.5 0 05:24 18.06.2019
6217 Clear 19 1014 93 10000 1 0 04:21 18.06.2019
6218 Clear 19 1014 93 10000 0.5 0 02:45 18.06.2019
6219 Clear 20 1014 83 10000 1 0 01:27 18.06.2019
6220 Clear 20 1014 73 10000 2.1 140 00:57 18.06.2019
6221 Clear 20 1014 77 10000 1 0 00:30 18.06.2019
6222 Clear 21 1014 77 10000 1 130 23:42 17.06.2019
6223 Clear 21 1014 77 10000 1 130 23:42 17.06.2019
6224 Clear 21 1014 73 10000 1 130 23:23 17.06.2019
6225 Clear 21 1014 73 10000 0.5 0 22:58 17.06.2019
6226 Clear 21 1014 73 10000 0.5 0 22:38 17.06.2019
6227 Clear 22 1014 73 10000 0.5 0 22:20 17.06.2019
6228 Clear 22 1013 73 10000 1 0 21:45 17.06.2019
6229 Clear 23 1013 64 10000 2.1 220 21:23 17.06.2019
6230 Clear 24 1013 57 10000 2.1 220 20:40 17.06.2019
6231 Thunderstorm 25 1013 57 10000 2.1 210 20:21 17.06.2019
6232 Thunderstorm 25 1013 44 10000 3.1 220 19:56 17.06.2019
6233 Thunderstorm 25 1013 44 10000 3.1 220 19:38 17.06.2019
6234 Clouds 26 1013 45 10000 2.1 250 19:19 17.06.2019
6235 Clear 26 1013 42 10000 2.6 230 18:39 17.06.2019
6236 Clear 27 1013 48 10000 4.1 230 18:18 17.06.2019
6237 Clear 27 1013 54 10000 3.6 220 17:48 17.06.2019
6238 Clear 27 1013 54 10000 3.6 220 17:48 17.06.2019
6239 Clear 27 1013 54 10000 3.6 220 17:29 17.06.2019
6240 Thunderstorm 28 1013 44 10000 4.1 220 16:56 17.06.2019
6241 Thunderstorm 28 1012 48 10000 4.6 220 16:38 17.06.2019
6242 Thunderstorm 27 1012 48 10000 4.6 220 16:20 17.06.2019
6243 Clear 28 1013 51 10000 4.6 230 15:43 17.06.2019
6244 Clear 28 1013 51 10000 4.6 230 15:20 17.06.2019
6245 Clear 28 1013 54 10000 3.6 200 14:56 17.06.2019
6246 Clear 28 1013 33 10000 2.1 200 14:36 17.06.2019
6247 Clear 28 1013 33 10000 2.1 200 14:36 17.06.2019
6248 Clear 28 1014 45 10000 2.1 240 14:18 17.06.2019
6249 Clear 28 1013 35 10000 1.5 0 13:40 17.06.2019
6250 Clear 28 1013 35 10000 1.5 0 13:20 17.06.2019
6251 Clear 27 1014 42 10000 1.5 0 12:40 17.06.2019
6252 Clear 27 1014 50 10000 1.5 0 12:19 17.06.2019
6253 Clear 27 1014 50 10000 1.5 0 12:19 17.06.2019
6254 Clear 26 1014 47 10000 1 0 11:43 17.06.2019
6255 Clear 26 1014 47 10000 1 0 11:25 17.06.2019
6256 Clear 25 1014 61 10000 1 0 10:47 17.06.2019
6257 Clear 25 1014 61 10000 1 0 10:29 17.06.2019
6258 Clear 23 1015 60 10000 1 0 09:56 17.06.2019
6259 Clear 23 1015 83 10000 2.1 340 09:33 17.06.2019
6260 Clear 21 1014 73 10000 1 0 08:48 17.06.2019
6261 Clear 21 1014 73 10000 1 0 08:48 17.06.2019
6262 Clear 21 1014 88 10000 2.1 360 08:25 17.06.2019
6263 Clear 20 1014 64 10000 1.5 250 07:58 17.06.2019
6264 Clear 19 1014 72 10000 0.5 0 07:38 17.06.2019
6265 Mist 18 1013 82 10000 2.6 130 07:18 17.06.2019
6266 Mist 16 1013 93 10000 3.1 120 06:22 17.06.2019
6267 Mist 16 1013 87 10000 2.6 130 05:29 17.06.2019
6268 Clear 17 1013 93 10000 2.1 160 04:30 17.06.2019
6269 Clear 17 1014 93 10000 1.5 170 03:31 17.06.2019
6270 Clear 18 1014 93 10000 1.5 150 02:44 17.06.2019
6271 Clear 17 1014 93 10000 1.5 150 02:26 17.06.2019
6272 Clear 18 1014 93 10000 1 0 01:36 17.06.2019
6273 Clear 19 1014 88 10000 1 0 00:57 17.06.2019
6274 Clear 19 1014 88 10000 1 0 00:37 17.06.2019
6275 Clear 19 1014 88 10000 1 0 00:18 17.06.2019
6276 Clear 19 1014 88 10000 1.5 190 23:39 16.06.2019
6277 Clear 20 1014 88 10000 1.5 190 23:20 16.06.2019
6278 Clear 20 1014 73 10000 1.5 220 22:45 16.06.2019
6279 Clear 20 1014 73 10000 1.5 220 22:20 16.06.2019
6280 Clear 21 1014 64 10000 1.5 240 21:57 16.06.2019
6281 Clear 21 1014 64 10000 1.5 230 21:39 16.06.2019
6282 Clear 22 1014 64 10000 1.5 230 21:20 16.06.2019
6283 Clear 24 1013 54 10000 2.1 220 20:40 16.06.2019
6284 Clear 24 1013 54 10000 2.1 220 20:19 16.06.2019
6285 Clear 25 1014 53 10000 3.1 250 19:58 16.06.2019
6286 Clear 25 1013 47 10000 4.6 230 19:39 16.06.2019
6287 Clear 26 1014 47 10000 3.6 240 19:21 16.06.2019
6288 Clear 26 1013 39 10000 4.1 230 18:42 16.06.2019
6289 Clear 26 1013 39 10000 4.1 230 18:42 16.06.2019
6290 Clear 27 1013 39 10000 4.1 230 18:21 16.06.2019
6291 Clear 27 1014 42 10000 4.1 240 17:57 16.06.2019
6292 Clear 27 1014 42 10000 4.1 240 17:57 16.06.2019
6293 Clear 28 1014 35 10000 4.1 240 17:38 16.06.2019
6294 Clear 28 1014 37 10000 3.6 230 17:20 16.06.2019
6295 Clear 28 1014 37 10000 3.6 230 16:54 16.06.2019
6296 Clear 29 1014 35 10000 3.1 220 16:36 16.06.2019
6297 Clear 29 1014 45 10000 4.1 250 16:18 16.06.2019
6298 Clouds 29 1014 35 10000 3.1 250 15:38 16.06.2019
6299 Clouds 29 1014 35 10000 3.1 250 15:20 16.06.2019
6300 Clouds 29 1014 35 10000 3.1 250 15:20 16.06.2019
6301 Clear 29 1014 35 10000 3.1 210 14:39 16.06.2019
6302 Clear 29 1015 45 10000 3.1 240 14:20 16.06.2019
6303 Clear 29 1015 45 10000 3.1 240 13:48 16.06.2019
6304 Clouds 29 1015 45 10000 3.1 240 13:25 16.06.2019
6305 Clouds 28 1015 40 10000 1.5 0 12:46 16.06.2019
6306 Clouds 28 1015 40 10000 1.5 0 12:46 16.06.2019
6307 Clear 27 1015 54 10000 2.6 240 12:23 16.06.2019
6308 Clear 27 1015 57 10000 1.5 0 11:59 16.06.2019
6309 Clear 27 1015 58 10000 1 0 11:38 16.06.2019
6310 Clear 27 1015 58 10000 1 0 11:19 16.06.2019
6311 Clear 26 1015 61 10000 1 0 10:45 16.06.2019
6312 Clear 26 1015 61 10000 1 0 10:20 16.06.2019
6313 Clear 25 1015 69 10000 1 0 09:43 16.06.2019
6314 Clear 24 1015 69 10000 1 0 09:24 16.06.2019
6315 Clear 24 1015 73 10000 3.1 360 08:50 16.06.2019
6316 Clear 23 1015 83 10000 1 0 08:21 16.06.2019
6317 Clear 22 1014 78 10000 1.5 50 07:49 16.06.2019
6318 Clear 21 1014 77 10000 1 0 07:31 16.06.2019
6319 Clear 20 1014 82 10000 0.5 0 06:55 16.06.2019
6320 Clear 19 1014 82 10000 0.5 0 05:57 16.06.2019
6321 Clear 19 1014 82 10000 1 0 05:24 16.06.2019
6322 Clear 19 1014 88 10000 1 80 04:22 16.06.2019
6323 Clear 19 1015 88 10000 1 0 03:43 16.06.2019
6324 Clear 20 1015 88 10000 1 0 03:22 16.06.2019
6325 Clear 20 1015 77 10000 1 170 01:49 16.06.2019
6326 Clear 21 1015 82 10000 1.5 130 01:30 16.06.2019
6327 Clear 21 1015 78 10000 2.1 210 00:44 16.06.2019
6328 Clear 21 1015 78 10000 2.1 210 00:25 16.06.2019
6329 Clear 21 1015 77 10000 2.1 130 23:58 15.06.2019
6330 Clear 22 1015 78 10000 1 0 23:39 15.06.2019
6331 Clear 22 1015 78 10000 1 0 23:20 15.06.2019
6332 Clear 22 1014 73 10000 2.6 120 22:44 15.06.2019
6333 Clear 22 1014 73 10000 2.6 120 22:25 15.06.2019
6334 Clear 23 1014 69 10000 1.5 200 21:45 15.06.2019
6335 Clear 24 1014 69 10000 1.5 200 21:21 15.06.2019
6336 Clear 25 1013 61 10000 2.1 230 20:46 15.06.2019
6337 Clear 26 1013 61 10000 2.1 230 20:23 15.06.2019
6338 Clear 27 1013 54 10000 3.6 230 19:50 15.06.2019
6339 Clear 27 1013 54 10000 3.6 230 19:28 15.06.2019
6340 Clear 28 1013 45 10000 3.1 270 18:46 15.06.2019
6341 Clear 29 1013 45 10000 3.1 270 18:26 15.06.2019
6342 Clear 29 1014 51 10000 3.1 250 17:58 15.06.2019
6343 Clear 29 1014 51 10000 3.6 250 17:40 15.06.2019
6344 Clear 29 1014 54 10000 3.6 210 17:21 15.06.2019
6345 Clear 29 1014 54 10000 3.1 250 16:43 15.06.2019
6346 Clear 29 1015 58 10000 3.6 200 16:18 15.06.2019
6347 Clear 29 1014 58 10000 3.6 230 15:41 15.06.2019
6348 Clear 29 1014 58 10000 3.6 230 15:21 15.06.2019
6349 Clear 29 1014 58 10000 4.1 240 14:39 15.06.2019
6350 Clear 30 1015 58 10000 4.1 240 14:18 15.06.2019
6351 Clear 30 1014 58 10000 4.6 250 13:44 15.06.2019
6352 Clear 30 1014 45 10000 5.1 180 13:21 15.06.2019
6353 Clear 30 1014 45 10000 5.1 180 12:59 15.06.2019
6354 Clear 30 1014 45 10000 2.1 190 12:40 15.06.2019
6355 Clear 29 1014 45 10000 2.1 190 12:21 15.06.2019
6356 Clear 28 1015 62 10000 1.5 0 11:45 15.06.2019
6357 Clear 28 1015 62 10000 1.5 0 11:45 15.06.2019
6358 Clear 28 1015 62 10000 1.5 0 11:27 15.06.2019
6359 Clear 27 1015 69 10000 1.5 0 10:43 15.06.2019
6360 Clear 27 1015 69 10000 1.5 0 10:25 15.06.2019
6361 Clear 26 1015 74 10000 1.5 0 09:48 15.06.2019
6362 Clear 25 1015 74 10000 1.5 0 09:26 15.06.2019
6363 Clear 24 1015 83 10000 2.6 270 08:54 15.06.2019
6364 Clear 24 1015 83 10000 2.6 270 08:54 15.06.2019
6365 Clear 24 1015 83 10000 1.5 0 08:34 15.06.2019
6366 Clear 23 1015 73 10000 2.1 150 07:54 15.06.2019
6367 Clear 23 1015 68 10000 1.5 180 07:25 15.06.2019
6368 Thunderstorm 22 1015 64 8000 1.5 90 06:47 15.06.2019
6369 Thunderstorm 22 1015 64 8000 1.5 90 06:20 15.06.2019
6370 Thunderstorm 22 1015 83 10000 1.5 200 05:29 15.06.2019
6371 Clear 22 1014 88 10000 2.1 360 04:49 15.06.2019
6372 Clouds 23 1015 83 10000 4.6 170 03:49 15.06.2019
6373 Clouds 23 1015 83 10000 4.6 170 03:19 15.06.2019
6374 Clear 24 1015 57 10000 3.6 160 02:23 15.06.2019
6375 Clouds 25 1015 57 10000 2.6 230 01:50 15.06.2019
6376 Clouds 25 1014 47 10000 1 0 01:18 15.06.2019
6377 Clouds 26 1014 32 10000 1.5 0 00:40 15.06.2019
6378 Clear 26 1014 53 10000 2.6 110 23:55 14.06.2019
6379 Clouds 26 1015 47 9000 3.1 40 23:27 14.06.2019
6380 Clouds 25 1016 44 9000 4.6 110 22:57 14.06.2019
6381 Clouds 25 1017 53 9000 4.1 140 22:39 14.06.2019
6382 Clouds 25 1017 57 9000 3.6 180 22:19 14.06.2019
6383 Clouds 25 1017 57 9000 5.7 240 21:41 14.06.2019
6384 Clouds 26 1017 57 9000 5.7 240 21:22 14.06.2019
6385 Clear 27 1015 54 10000 2.1 170 20:43 14.06.2019
6386 Clouds 27 1016 51 9000 2.6 160 20:19 14.06.2019
6387 Clouds 27 1016 51 9000 2.6 160 19:57 14.06.2019
6388 Clear 27 1016 58 10000 2.1 220 19:36 14.06.2019
6389 Clear 28 1016 54 10000 4.1 200 19:18 14.06.2019
6390 Clear 28 1016 55 10000 5.1 240 18:43 14.06.2019
6391 Clear 29 1016 55 10000 5.1 240 18:24 14.06.2019
6392 Clear 30 1016 48 10000 5.1 210 17:57 14.06.2019
6393 Clear 30 1015 43 10000 5.1 230 17:39 14.06.2019
6394 Clear 31 1015 43 10000 5.1 230 17:19 14.06.2019
6395 Clear 32 1014 41 10000 5.1 220 16:46 14.06.2019
6396 Clear 33 1014 41 10000 5.1 220 16:21 14.06.2019
6397 Clear 33 1015 44 10000 4.6 190 16:21 14.06.2019
6398 Clear 33 1015 44 10000 4.6 190 15:57 14.06.2019
6399 Clear 34 1015 37 10000 4.1 210 15:38 14.06.2019
6400 Clear 34 1015 46 10000 4.6 160 15:18 14.06.2019
6401 Clear 33 1016 38 10000 5.1 170 14:40 14.06.2019
6402 Clear 33 1016 36 10000 4.6 190 14:21 14.06.2019
6403 Clear 33 1016 34 10000 2.1 190 13:44 14.06.2019
6404 Clear 33 1016 34 10000 2.1 190 13:24 14.06.2019
6405 Clear 32 1016 41 10000 1.5 0 12:44 14.06.2019
6406 Clear 32 1016 41 10000 1.5 0 12:26 14.06.2019
6407 Clear 31 1017 48 10000 1 0 11:58 14.06.2019
6408 Clear 30 1017 45 10000 1 0 11:39 14.06.2019
6409 Clear 30 1017 51 10000 1.5 360 11:20 14.06.2019
6410 Clear 29 1017 51 10000 1.5 0 10:44 14.06.2019
6411 Clear 28 1017 54 10000 0.5 0 10:20 14.06.2019
6412 Clear 27 1017 69 10000 2.1 10 09:48 14.06.2019
6413 Clear 27 1017 69 10000 2.1 10 09:25 14.06.2019
6414 Clear 27 1017 69 10000 2.1 10 09:25 14.06.2019
6415 Clear 25 1017 77 10000 3.1 360 08:47 14.06.2019
6416 Clear 24 1016 78 10000 1.5 330 08:19 14.06.2019
6417 Clear 24 1016 78 10000 1.5 330 07:52 14.06.2019
6418 Clear 24 1016 78 10000 1.5 330 07:52 14.06.2019
6419 Clear 22 1016 73 10000 0.5 0 07:22 14.06.2019
6420 Clear 22 1016 77 10000 1.5 30 06:39 14.06.2019
6421 -273 0 0 0 0 0 05:58 14.06.2019
6422 Clear 21 1016 77 10000 0.5 0 05:33 14.06.2019
6423 Clear 21 1015 82 10000 1 60 04:48 14.06.2019
6424 Clear 21 1015 88 10000 2.1 40 03:56 14.06.2019
6425 Clear 21 1016 73 10000 1.5 70 03:26 14.06.2019
6426 -273 0 0 0 0 0 02:58 14.06.2019
6427 Clear 22 1016 64 10000 1.5 70 02:28 14.06.2019
6428 Clear 22 1016 64 10000 1.5 70 02:28 14.06.2019
6429 Clear 22 1016 64 10000 1.5 70 02:28 14.06.2019
6430 Clear 22 1017 73 10000 1.5 100 01:26 14.06.2019
6431 Clear 22 1017 64 10000 1.5 80 00:36 14.06.2019
6432 Clear 22 1017 73 10000 2.1 100 00:18 14.06.2019
6433 Clear 22 1017 64 10000 1.5 120 23:47 13.06.2019
6434 Clear 22 1017 64 10000 1.5 120 23:22 13.06.2019
6435 Clear 23 1016 57 10000 1.5 110 22:40 13.06.2019
6436 Clear 23 1016 57 10000 1.5 110 22:22 13.06.2019
6437 Clear 24 1016 50 10000 1.5 230 21:41 13.06.2019
6438 Clear 26 1016 47 10000 1.5 220 21:20 13.06.2019
6439 Clear 26 1016 47 10000 1.5 220 20:59 13.06.2019
6440 Clear 27 1015 42 10000 1 0 20:40 13.06.2019
6441 Clear 27 1015 42 10000 1 0 20:19 13.06.2019
6442 Clear 28 1015 40 10000 4.1 230 19:43 13.06.2019
6443 Clear 29 1015 40 10000 4.1 230 19:24 13.06.2019
6444 Clear 30 1015 42 10000 3.1 230 18:58 13.06.2019
6445 Clear 30 1015 40 10000 4.6 220 18:40 13.06.2019
6446 Clear 30 1015 40 10000 4.6 220 18:21 13.06.2019
6447 Clear 30 1015 36 10000 3.6 270 17:44 13.06.2019
6448 Clear 31 1016 45 10000 4.1 230 17:21 13.06.2019
6449 Clear 30 1016 45 10000 4.1 230 16:56 13.06.2019
6450 Clear 31 1015 26 10000 2.1 260 16:36 13.06.2019
6451 Clear 31 1015 45 10000 4.1 200 16:18 13.06.2019
6452 Clear 30 1015 26 10000 2.6 260 15:40 13.06.2019
6453 Clear 31 1015 26 10000 2.6 260 15:19 13.06.2019
6454 Clear 30 1015 38 10000 2.1 0 14:49 13.06.2019
6455 Clear 30 1015 29 10000 1.5 0 14:30 13.06.2019
6456 Clear 30 1015 40 10000 1.5 0 13:47 13.06.2019
6457 Clear 30 1015 40 10000 1.5 0 13:22 13.06.2019
6458 Clear 29 1016 48 10000 1.5 320 12:59 13.06.2019
6459 Clear 28 1015 45 10000 1 0 12:39 13.06.2019
6460 Clear 28 1015 45 10000 1 0 12:21 13.06.2019
6461 Clear 27 1015 57 10000 1 0 11:44 13.06.2019
6462 Clear 26 1015 57 10000 1 0 11:25 13.06.2019
6463 Clear 26 1015 61 10000 2.6 350 10:48 13.06.2019
6464 Clear 25 1015 61 10000 1.5 0 10:28 13.06.2019
6465 Clear 25 1015 73 10000 2.6 20 09:53 13.06.2019
6466 Clear 24 1015 69 10000 1.5 0 09:31 13.06.2019
6467 Clear 22 1015 77 10000 3.1 10 08:56 13.06.2019
6468 Clear 22 1015 77 10000 3.1 10 08:56 13.06.2019
6469 Clear 22 1015 77 10000 3.1 10 08:56 13.06.2019
6470 Clear 22 1015 77 10000 3.1 10 08:56 13.06.2019
6471 Clear 22 1015 73 10000 2.1 10 08:38 13.06.2019
6472 Clear 21 1015 73 10000 2.1 10 08:19 13.06.2019
6473 Clear 20 1014 88 10000 3.1 20 07:39 13.06.2019
6474 Clear 19 1014 88 10000 2.6 40 07:19 13.06.2019
6475 Clear 19 1014 88 10000 2.1 30 06:40 13.06.2019
6476 Clear 18 1014 88 10000 2.1 30 06:21 13.06.2019
6477 Clear 18 1013 88 10000 2.1 10 05:39 13.06.2019
6478 Clear 18 1013 88 10000 2.1 10 05:19 13.06.2019
6479 Clear 19 1013 88 10000 1.5 40 03:49 13.06.2019
6480 Clear 19 1013 88 10000 1.5 100 01:59 13.06.2019
6481 Clear 20 1013 82 10000 1 0 00:32 13.06.2019
6482 Clear 20 1013 82 10000 1 0 00:32 13.06.2019
6483 Clear 20 1013 83 10000 1 0 23:38 12.06.2019
6484 Clear 20 1013 83 10000 1 0 23:38 12.06.2019
6485 Clear 21 1013 83 10000 1 0 23:19 12.06.2019
6486 Clear 21 1013 78 10000 1 0 22:41 12.06.2019
6487 Clear 21 1013 78 10000 1 0 22:21 12.06.2019
6488 Clear 22 1012 69 10000 2.1 210 21:46 12.06.2019
6489 Clear 22 1012 69 10000 2.1 210 21:28 12.06.2019
6490 Clear 23 1011 61 10000 2.1 260 20:49 12.06.2019
6491 Clear 23 1011 61 10000 2.1 260 20:30 12.06.2019
6492 Clear 24 1011 65 10000 2.6 240 19:58 12.06.2019
6493 Clear 25 1011 65 10000 3.6 250 19:39 12.06.2019
6494 Clear 25 1011 65 10000 3.6 250 19:21 12.06.2019
6495 Clear 26 1011 65 10000 3.6 250 18:48 12.06.2019
6496 Clear 26 1011 65 10000 3.6 250 18:28 12.06.2019
6497 Clear 27 1011 65 10000 4.6 240 17:48 12.06.2019
6498 Clear 27 1011 65 10000 4.6 240 17:23 12.06.2019
6499 Clear 28 1011 57 10000 4.1 230 16:57 12.06.2019
6500 Clear 28 1010 48 10000 4.6 210 16:37 12.06.2019
6501 Clear 28 1010 48 10000 4.6 210 16:19 12.06.2019
6502 Clear 29 1010 52 10000 3.6 210 15:46 12.06.2019
6503 Clear 29 1010 52 10000 3.6 210 15:25 12.06.2019
6504 Clear 29 1010 58 10000 4.6 220 14:36 12.06.2019
6505 Clear 29 1010 61 10000 4.6 200 14:18 12.06.2019
6506 Clear 28 1010 65 10000 4.1 210 13:41 12.06.2019
6507 Clear 28 1010 65 10000 4.1 210 13:19 12.06.2019
6508 Clear 28 1010 65 10000 5.1 240 12:45 12.06.2019
6509 Clear 28 1010 65 10000 5.1 240 12:22 12.06.2019
6510 Clear 28 1010 61 10000 3.6 220 11:59 12.06.2019
6511 Clear 28 1010 65 10000 3.6 230 11:40 12.06.2019
6512 Clear 28 1010 65 10000 3.6 230 11:21 12.06.2019
6513 Clear 27 1009 61 10000 1.5 0 10:44 12.06.2019
6514 Clear 27 1009 61 10000 1.5 0 10:21 12.06.2019
6515 Clear 26 1009 83 10000 2.1 30 09:43 12.06.2019
6516 Clear 25 1009 83 10000 2.1 30 09:23 12.06.2019
6517 Clear 24 1009 94 10000 1 0 08:46 12.06.2019
6518 Clear 22 1009 41 10000 3.1 160 08:20 12.06.2019
6519 Clear 22 1009 77 10000 2.1 250 07:37 12.06.2019
6520 Mist 21 1009 72 4000 1 0 06:43 12.06.2019
6521 Clear 20 1009 88 10000 2.1 40 05:27 12.06.2019
6522 Clear 20 1009 77 10000 1 100 03:55 12.06.2019
6523 Clear 20 1011 83 10000 2.6 30 01:26 12.06.2019
6524 Clear 21 1010 78 10000 3.6 40 00:38 12.06.2019
6525 Clear 21 1010 83 10000 1 0 23:45 11.06.2019
6526 Clear 22 1010 83 10000 1 0 23:27 11.06.2019
6527 Clear 22 1010 73 10000 1.5 0 22:43 11.06.2019
6528 Clouds 23 1010 73 10000 2.6 210 22:19 11.06.2019
6529 Clouds 23 1010 73 10000 2.6 210 21:57 11.06.2019
6530 Clouds 24 1008 65 10000 3.6 310 21:38 11.06.2019
6531 Clouds 25 1008 51 10000 2.6 0 21:19 11.06.2019
6532 Clear 26 1008 78 10000 2.1 290 20:48 11.06.2019
6533 Clear 26 1008 78 10000 2.1 290 20:25 11.06.2019
6534 Clear 26 1008 78 10000 2.1 290 20:25 11.06.2019
6535 Clear 27 1008 51 10000 4.1 240 19:55 11.06.2019
6536 Clear 27 1008 51 10000 4.1 240 19:32 11.06.2019
6537 -273 0 0 0 0 0 18:56 11.06.2019
6538 Clear 29 1009 33 10000 3.1 130 18:21 11.06.2019
6539 Clear 29 1009 48 10000 2.1 240 17:42 11.06.2019
6540 Clear 29 1009 48 10000 2.1 240 17:42 11.06.2019
6541 Clear 29 1009 48 10000 2.1 240 17:22 11.06.2019
6542 Clouds 28 1009 39 10000 5.7 140 16:57 11.06.2019
6543 Clear 28 1010 58 10000 2.1 190 16:39 11.06.2019
6544 Clouds 27 1010 45 10000 6.2 190 16:21 11.06.2019
6545 Clouds 27 1010 69 10000 4.6 210 15:42 11.06.2019
6546 Clouds 27 1010 69 10000 4.6 210 15:42 11.06.2019
6547 Clouds 27 1010 69 10000 4.6 210 15:22 11.06.2019
6548 Clear 28 1010 61 10000 4.6 230 14:47 11.06.2019
6549 Clear 29 1010 42 10000 6.2 180 14:21 11.06.2019
6550 Clear 29 1010 42 10000 6.2 180 13:51 11.06.2019
6551 Clouds 29 1009 40 9000 5.1 180 13:24 11.06.2019
6552 Clear 29 1010 45 10000 3.1 210 12:55 11.06.2019
6553 Clear 29 1010 42 10000 4.6 170 12:55 11.06.2019
6554 Clear 29 1010 45 10000 3.1 210 12:37 11.06.2019
6555 Clear 29 1010 45 10000 3.1 210 12:18 11.06.2019
6556 Clear 27 1010 58 10000 3.1 230 11:39 11.06.2019
6557 Clear 27 1009 45 10000 3.1 250 11:19 11.06.2019
6558 Clear 26 1009 69 10000 1 0 10:45 11.06.2019
6559 Clear 26 1009 69 10000 1 0 10:25 11.06.2019
6560 Clear 25 1010 78 10000 0.5 0 09:48 11.06.2019
6561 Clear 24 1010 78 10000 0.5 0 09:24 11.06.2019
6562 Clear 24 1010 78 10000 0.5 0 09:24 11.06.2019
6563 Mist 23 1010 88 9000 1.5 0 08:45 11.06.2019
6564 Mist 22 1010 88 9000 1.5 0 08:25 11.06.2019
6565 Mist 21 1010 88 10000 1.5 110 07:38 11.06.2019
6566 Mist 20 1010 82 10000 1.5 270 06:56 11.06.2019
6567 Mist 20 1010 88 10000 1.5 70 06:30 11.06.2019
6568 Clear 20 1009 77 10000 1 0 04:53 11.06.2019
6569 Clear 20 1010 68 10000 1.5 10 03:42 11.06.2019
6570 Clear 21 1011 73 10000 1.5 220 01:33 11.06.2019
6571 Clear 22 1011 78 10000 3.6 140 00:46 11.06.2019
6572 Clear 24 1011 47 10000 4.6 250 23:47 10.06.2019
6573 Clear 24 1011 47 10000 4.6 250 23:25 10.06.2019
6574 Clear 24 1010 69 10000 4.6 210 22:55 10.06.2019
6575 Clouds 24 1009 60 10000 3.1 210 22:37 10.06.2019
6576 Clouds 24 1009 60 10000 3.1 210 22:19 10.06.2019
6577 -273 0 0 0 0 0 21:40 10.06.2019
6578 Clear 26 1010 39 10000 2.1 210 21:22 10.06.2019
6579 Clear 27 1010 37 10000 3.1 240 20:46 10.06.2019
6580 Clear 27 1010 37 10000 3.1 240 20:24 10.06.2019
6581 Clear 27 1010 35 10000 2.6 120 19:55 10.06.2019
6582 Clear 28 1010 33 10000 3.1 190 19:36 10.06.2019
6583 Clear 29 1011 30 10000 5.7 160 19:18 10.06.2019
6584 Clear 29 1011 30 10000 5.7 160 18:54 10.06.2019
6585 Clear 29 1010 31 10000 4.1 170 18:36 10.06.2019
6586 Clear 30 1011 29 10000 5.1 180 18:18 10.06.2019
6587 Clear 30 1011 27 10000 4.6 180 17:39 10.06.2019
6588 Clear 30 1011 29 10000 5.7 160 17:19 10.06.2019
6589 Clouds 31 1010 36 10000 5.1 200 16:42 10.06.2019
6590 Clouds 31 1010 36 10000 5.1 200 16:24 10.06.2019
6591 Clear 32 1010 28 10000 3.6 150 15:42 10.06.2019
6592 Clear 32 1010 28 10000 3.6 150 15:24 10.06.2019
6593 Clear 32 1011 35 10000 5.7 150 14:55 10.06.2019
6594 Clear 32 1011 36 10000 3.1 170 14:36 10.06.2019
6595 Clear 32 1011 33 10000 4.1 120 14:18 10.06.2019
6596 Clear 32 1012 34 10000 2.1 120 13:42 10.06.2019
6597 Clear 32 1012 34 10000 2.1 120 13:21 10.06.2019
6598 Clear 31 1013 43 10000 2.6 80 12:43 10.06.2019
6599 Clear 31 1013 43 10000 2.6 80 12:25 10.06.2019
6600 Clear 30 1014 45 10000 5.53 132.566 11:44 10.06.2019
6601 Clear 30 1014 45 10000 5.53 132.566 11:24 10.06.2019
6602 Clear 28 1014 61 10000 2.1 350 10:43 10.06.2019
6603 Clear 28 1014 45 10000 1 0 10:21 10.06.2019
6604 Clear 28 1014 45 10000 1 0 09:57 10.06.2019
6605 Clear 28 1014 69 10000 1.5 0 09:38 10.06.2019
6606 Clear 26 1014 69 10000 1.5 0 09:19 10.06.2019
6607 Clear 24 1015 88 10000 1 0 08:45 10.06.2019
6608 Clear 24 1015 88 10000 1 0 08:25 10.06.2019
6609 Clear 22 1015 68 10000 2.1 30 07:20 10.06.2019
6610 Clear 21 1015 59 10000 1.5 150 04:29 10.06.2019
6611 Clear 22 1015 53 10000 0.5 100 01:59 10.06.2019
6612 Clear 22 1015 53 10000 0.5 100 01:26 10.06.2019
6613 Clear 22 1016 46 10000 0.5 0 00:56 10.06.2019
6614 Clear 22 1016 41 10000 1.5 70 00:19 10.06.2019
6615 Clear 23 1017 34 10000 2.6 80 23:42 09.06.2019
6616 Clear 23 1017 34 10000 2.6 80 23:19 09.06.2019
6617 Clear 24 1016 34 10000 1.5 80 22:44 09.06.2019
6618 Clear 24 1016 34 10000 1.5 80 22:25 09.06.2019
6619 Clear 25 1016 60 10000 2.1 160 21:45 09.06.2019
6620 Clear 26 1016 48 10000 0.5 0 21:23 09.06.2019
6621 Clouds 27 1017 54 10000 3.6 180 20:43 09.06.2019
6622 Clouds 27 1016 45 10000 2.1 240 20:23 09.06.2019
6623 Clouds 28 1016 52 10000 0.5 0 19:48 09.06.2019
6624 Clear 29 1017 31 10000 3.6 140 19:19 09.06.2019
6625 Clouds 28 1016 52 10000 0.5 0 19:19 09.06.2019
6626 Clear 29 1017 31 10000 3.6 140 18:59 09.06.2019
6627 Clear 30 1017 35 10000 2.1 220 18:41 09.06.2019
6628 Clear 30 1017 35 10000 2.1 220 18:23 09.06.2019
6629 Clear 31 1017 33 10000 2.6 200 17:47 09.06.2019
6630 Clear 31 1017 33 10000 2.6 200 17:27 09.06.2019
6631 Clouds 31 1018 29 10000 3.1 180 16:55 09.06.2019
6632 Clouds 31 1018 29 10000 3.1 180 16:36 09.06.2019
6633 Clear 31 1019 31 10000 4.1 170 16:18 09.06.2019
6634 Clear 32 1018 38 10000 4.6 200 15:44 09.06.2019
6635 Clear 32 1018 38 10000 4.6 200 15:26 09.06.2019
6636 Clear 31 1019 44 10000 3.6 230 14:46 09.06.2019
6637 Clear 31 1019 44 10000 3.6 230 14:25 09.06.2019
6638 Clear 31 1019 43 10000 4.6 180 13:52 09.06.2019
6639 Clear 31 1019 43 10000 0.5 0 13:27 09.06.2019
6640 Clear 30 1019 55 10000 1.5 0 12:42 09.06.2019
6641 Clear 29 1019 55 10000 1.5 0 12:24 09.06.2019
6642 Clear 29 1019 54 10000 2.1 120 11:40 09.06.2019
6643 Clear 28 1019 54 10000 2.1 120 11:22 09.06.2019
6644 Clear 27 1021 65 10000 1.5 0 10:46 09.06.2019
6645 Clear 26 1021 65 10000 1.5 0 10:23 09.06.2019
6646 Clear 26 1021 65 10000 1.5 0 10:23 09.06.2019
6647 Clear 26 1021 78 10000 1 0 09:41 09.06.2019
6648 Clear 25 1021 78 10000 1 0 09:22 09.06.2019
6649 Clear 24 1021 60 10000 2.1 220 08:53 09.06.2019
6650 Clear 23 1021 88 10000 1.5 0 08:34 09.06.2019
6651 Clear 22 1020 60 10000 3.1 80 07:27 09.06.2019
6652 Clouds 20 1021 82 10000 2.6 30 06:30 09.06.2019
6653 Clear 19 1021 82 10000 1 20 05:28 09.06.2019
6654 Clear 21 1021 72 10000 1 110 01:46 09.06.2019
6655 Clear 21 1022 73 10000 1 0 01:22 09.06.2019
6656 Clear 21 1022 73 10000 1 0 01:21 09.06.2019
6657 Clear 21 1022 73 10000 1 0 00:59 09.06.2019
6658 Clear 22 1022 64 10000 1 60 23:56 08.06.2019
6659 Clear 22 1022 64 10000 2.6 70 23:38 08.06.2019
6660 Clear 22 1022 64 10000 2.1 70 23:19 08.06.2019
6661 Clear 22 1022 60 10000 1.5 80 22:42 08.06.2019
6662 Clear 22 1022 60 10000 1.5 80 22:23 08.06.2019
6663 Clear 23 1021 60 10000 1 0 21:52 08.06.2019
6664 Clear 24 1021 57 10000 1.5 230 21:29 08.06.2019
6665 Clear 25 1021 54 10000 2.1 270 20:59 08.06.2019
6666 Clear 26 1020 51 10000 2.1 260 20:40 08.06.2019
6667 Clear 26 1021 48 10000 2.1 170 20:20 08.06.2019
6668 Clear 27 1021 51 10000 3.1 240 19:41 08.06.2019
6669 Clouds 27 1021 54 10000 5.1 190 19:20 08.06.2019
6670 Clouds 27 1021 54 10000 5.1 190 18:57 08.06.2019
6671 Clear 27 1020 54 10000 3.6 220 18:36 08.06.2019
6672 Clear 27 1021 57 10000 3.6 180 17:59 08.06.2019
6673 Clear 27 1020 55 10000 4.1 230 17:39 08.06.2019
6674 Clear 28 1020 55 10000 4.1 230 17:18 08.06.2019
6675 Clear 28 1020 55 10000 4.1 230 17:18 08.06.2019
6676 Clear 29 1020 40 10000 2.1 180 16:44 08.06.2019
6677 Clouds 29 1020 48 10000 1.5 0 16:18 08.06.2019
6678 Clear 29 1020 51 10000 1.5 0 15:38 08.06.2019
6679 Clear 28 1020 61 10000 2.1 0 14:54 08.06.2019
6680 Clear 28 1020 51 10000 1.98 193.083 14:32 08.06.2019
6681 Clouds 27 1021 57 10000 2.6 0 13:59 08.06.2019
6682 Clear 27 1020 51 10000 2.6 70 13:25 08.06.2019
6683 Clear 27 1022 61 10000 2.1 210 12:46 08.06.2019
6684 Clear 26 1022 61 10000 2.1 210 12:21 08.06.2019
6685 Clear 26 1022 48 10000 6.7 210 11:44 08.06.2019
6686 Clear 26 1022 48 10000 6.7 210 11:22 08.06.2019
6687 Clear 27 1020 48 10000 5.7 250 10:44 08.06.2019
6688 Clear 27 1019 41 10000 1 0 10:22 08.06.2019
6689 Clear 27 1020 64 10000 1 0 09:48 08.06.2019
6690 Clear 25 1020 64 10000 1 0 09:24 08.06.2019
6691 Clear 24 1020 77 10000 1.5 0 08:31 08.06.2019
6692 Clear 23 1019 46 10000 3.6 130 07:49 08.06.2019
6693 Clear 21 1020 43 10000 3.6 150 06:50 08.06.2019
6694 Clear 19 1018 72 10000 1.5 120 05:48 08.06.2019
6695 Clear 20 1019 49 10000 1.5 30 03:31 08.06.2019
6696 Clear 21 1020 43 10000 1 70 01:27 08.06.2019
6697 Clear 21 1020 43 1000